<?xml version="1.0" encoding="UTF-8" standalone="no" ?>
<gpx xmlns="http://www.topografix.com/GPX/1/1" xmlns:xsi="http://www.w3.org/2001/XMLSchema-instance" xsi:schemaLocation="http://www.topografix.com/GPX/1/1 http://www.topografix.com/GPX/1/1/gpx.xsd" version="1.1" creator="VisuGPX - https://www.visugpx.com">
  <metadata>
    <name>Rando vtt flines les raches</name>
    <desc><![CDATA[rando vtt de flines les raches ...3 terrils]]></desc>
  </metadata>
  <wpt lat="50.42726" lon="3.18349">
    <ele>30</ele>
  </wpt>
  <wpt lat="50.4274" lon="3.18403">
    <ele>9</ele>
  </wpt>
  <trk>
    <name><![CDATA[Rando vtt flines les raches_1]]></name>
    <trkseg>
      <trkpt lat="50.42726" lon="3.18349">
        <ele>30</ele>
        <time>2012-02-19T07:08:52Z</time>
      </trkpt>
      <trkpt lat="50.42737" lon="3.18349">
        <ele>22</ele>
        <time>2012-02-19T07:10:23Z</time>
      </trkpt>
      <trkpt lat="50.42734" lon="3.18334">
        <ele>22</ele>
        <time>2012-02-19T07:10:29Z</time>
      </trkpt>
      <trkpt lat="50.42724" lon="3.18325">
        <ele>22</ele>
        <time>2012-02-19T07:10:33Z</time>
      </trkpt>
      <trkpt lat="50.42716" lon="3.18318">
        <ele>22</ele>
        <time>2012-02-19T07:10:36Z</time>
      </trkpt>
      <trkpt lat="50.42706" lon="3.18309">
        <ele>22</ele>
        <time>2012-02-19T07:10:40Z</time>
      </trkpt>
      <trkpt lat="50.42697" lon="3.18298">
        <ele>22</ele>
        <time>2012-02-19T07:10:44Z</time>
      </trkpt>
      <trkpt lat="50.42693" lon="3.18286">
        <ele>22</ele>
        <time>2012-02-19T07:10:47Z</time>
      </trkpt>
      <trkpt lat="50.4269" lon="3.1827">
        <ele>22</ele>
        <time>2012-02-19T07:10:50Z</time>
      </trkpt>
      <trkpt lat="50.42689" lon="3.18254">
        <ele>22</ele>
        <time>2012-02-19T07:10:53Z</time>
      </trkpt>
      <trkpt lat="50.42689" lon="3.18239">
        <ele>22</ele>
        <time>2012-02-19T07:10:56Z</time>
      </trkpt>
      <trkpt lat="50.42689" lon="3.18222">
        <ele>22</ele>
        <time>2012-02-19T07:10:59Z</time>
      </trkpt>
      <trkpt lat="50.42692" lon="3.18207">
        <ele>22</ele>
        <time>2012-02-19T07:11:02Z</time>
      </trkpt>
      <trkpt lat="50.42696" lon="3.18192">
        <ele>22</ele>
        <time>2012-02-19T07:11:05Z</time>
      </trkpt>
      <trkpt lat="50.42702" lon="3.18181">
        <ele>22</ele>
        <time>2012-02-19T07:11:08Z</time>
      </trkpt>
      <trkpt lat="50.42709" lon="3.18171">
        <ele>22</ele>
        <time>2012-02-19T07:11:11Z</time>
      </trkpt>
      <trkpt lat="50.42718" lon="3.18164">
        <ele>22</ele>
        <time>2012-02-19T07:11:14Z</time>
      </trkpt>
      <trkpt lat="50.42727" lon="3.18155">
        <ele>22</ele>
        <time>2012-02-19T07:11:17Z</time>
      </trkpt>
      <trkpt lat="50.42735" lon="3.18147">
        <ele>22</ele>
        <time>2012-02-19T07:11:20Z</time>
      </trkpt>
      <trkpt lat="50.42744" lon="3.18138">
        <ele>22</ele>
        <time>2012-02-19T07:11:23Z</time>
      </trkpt>
      <trkpt lat="50.42753" lon="3.1813">
        <ele>22</ele>
        <time>2012-02-19T07:11:26Z</time>
      </trkpt>
      <trkpt lat="50.42762" lon="3.18121">
        <ele>22</ele>
        <time>2012-02-19T07:11:29Z</time>
      </trkpt>
      <trkpt lat="50.42771" lon="3.18113">
        <ele>22</ele>
        <time>2012-02-19T07:11:32Z</time>
      </trkpt>
      <trkpt lat="50.42779" lon="3.18104">
        <ele>22</ele>
        <time>2012-02-19T07:11:35Z</time>
      </trkpt>
      <trkpt lat="50.42788" lon="3.18095">
        <ele>22</ele>
        <time>2012-02-19T07:11:38Z</time>
      </trkpt>
      <trkpt lat="50.42797" lon="3.18086">
        <ele>22</ele>
        <time>2012-02-19T07:11:41Z</time>
      </trkpt>
      <trkpt lat="50.42806" lon="3.18075">
        <ele>22</ele>
        <time>2012-02-19T07:11:44Z</time>
      </trkpt>
      <trkpt lat="50.42811" lon="3.18059">
        <ele>22</ele>
        <time>2012-02-19T07:11:47Z</time>
      </trkpt>
      <trkpt lat="50.42816" lon="3.18042">
        <ele>22</ele>
        <time>2012-02-19T07:11:50Z</time>
      </trkpt>
      <trkpt lat="50.42819" lon="3.18023">
        <ele>22</ele>
        <time>2012-02-19T07:11:53Z</time>
      </trkpt>
      <trkpt lat="50.42824" lon="3.18004">
        <ele>22</ele>
        <time>2012-02-19T07:11:56Z</time>
      </trkpt>
      <trkpt lat="50.42828" lon="3.17984">
        <ele>27</ele>
        <time>2012-02-19T07:11:59Z</time>
      </trkpt>
      <trkpt lat="50.42831" lon="3.1797">
        <ele>27</ele>
        <time>2012-02-19T07:12:01Z</time>
      </trkpt>
      <trkpt lat="50.42834" lon="3.17957">
        <ele>27</ele>
        <time>2012-02-19T07:12:03Z</time>
      </trkpt>
      <trkpt lat="50.42837" lon="3.17943">
        <ele>27</ele>
        <time>2012-02-19T07:12:05Z</time>
      </trkpt>
      <trkpt lat="50.42841" lon="3.1793">
        <ele>27</ele>
        <time>2012-02-19T07:12:07Z</time>
      </trkpt>
      <trkpt lat="50.42845" lon="3.17917">
        <ele>27</ele>
        <time>2012-02-19T07:12:09Z</time>
      </trkpt>
      <trkpt lat="50.4285" lon="3.17905">
        <ele>27</ele>
        <time>2012-02-19T07:12:11Z</time>
      </trkpt>
      <trkpt lat="50.42856" lon="3.17893">
        <ele>27</ele>
        <time>2012-02-19T07:12:13Z</time>
      </trkpt>
      <trkpt lat="50.42861" lon="3.17881">
        <ele>27</ele>
        <time>2012-02-19T07:12:15Z</time>
      </trkpt>
      <trkpt lat="50.42868" lon="3.17872">
        <ele>27</ele>
        <time>2012-02-19T07:12:17Z</time>
      </trkpt>
      <trkpt lat="50.42876" lon="3.17868">
        <ele>27</ele>
        <time>2012-02-19T07:12:19Z</time>
      </trkpt>
      <trkpt lat="50.42886" lon="3.17868">
        <ele>27</ele>
        <time>2012-02-19T07:12:21Z</time>
      </trkpt>
      <trkpt lat="50.42895" lon="3.17869">
        <ele>27</ele>
        <time>2012-02-19T07:12:23Z</time>
      </trkpt>
      <trkpt lat="50.42904" lon="3.17871">
        <ele>27</ele>
        <time>2012-02-19T07:12:25Z</time>
      </trkpt>
      <trkpt lat="50.42913" lon="3.17873">
        <ele>27</ele>
        <time>2012-02-19T07:12:27Z</time>
      </trkpt>
      <trkpt lat="50.42923" lon="3.17876">
        <ele>27</ele>
        <time>2012-02-19T07:12:29Z</time>
      </trkpt>
      <trkpt lat="50.42936" lon="3.17881">
        <ele>27</ele>
        <time>2012-02-19T07:12:32Z</time>
      </trkpt>
      <trkpt lat="50.42944" lon="3.17884">
        <ele>27</ele>
        <time>2012-02-19T07:12:34Z</time>
      </trkpt>
      <trkpt lat="50.42957" lon="3.1789">
        <ele>27</ele>
        <time>2012-02-19T07:12:37Z</time>
      </trkpt>
      <trkpt lat="50.4297" lon="3.17892">
        <ele>27</ele>
        <time>2012-02-19T07:12:40Z</time>
      </trkpt>
      <trkpt lat="50.42979" lon="3.17893">
        <ele>27</ele>
        <time>2012-02-19T07:12:42Z</time>
      </trkpt>
      <trkpt lat="50.42989" lon="3.17894">
        <ele>27</ele>
        <time>2012-02-19T07:12:44Z</time>
      </trkpt>
      <trkpt lat="50.42998" lon="3.17894">
        <ele>27</ele>
        <time>2012-02-19T07:12:46Z</time>
      </trkpt>
      <trkpt lat="50.43008" lon="3.17895">
        <ele>27</ele>
        <time>2012-02-19T07:12:48Z</time>
      </trkpt>
      <trkpt lat="50.43017" lon="3.17895">
        <ele>27</ele>
        <time>2012-02-19T07:12:50Z</time>
      </trkpt>
      <trkpt lat="50.43029" lon="3.17895">
        <ele>27</ele>
        <time>2012-02-19T07:12:53Z</time>
      </trkpt>
      <trkpt lat="50.4304" lon="3.17896">
        <ele>27</ele>
        <time>2012-02-19T07:12:56Z</time>
      </trkpt>
      <trkpt lat="50.4305" lon="3.17891">
        <ele>27</ele>
        <time>2012-02-19T07:13:11Z</time>
      </trkpt>
      <trkpt lat="50.4306" lon="3.17889">
        <ele>27</ele>
        <time>2012-02-19T07:13:16Z</time>
      </trkpt>
      <trkpt lat="50.43071" lon="3.17885">
        <ele>27</ele>
        <time>2012-02-19T07:13:19Z</time>
      </trkpt>
      <trkpt lat="50.43083" lon="3.17881">
        <ele>27</ele>
        <time>2012-02-19T07:13:22Z</time>
      </trkpt>
      <trkpt lat="50.43096" lon="3.17877">
        <ele>27</ele>
        <time>2012-02-19T07:13:25Z</time>
      </trkpt>
      <trkpt lat="50.43106" lon="3.17873">
        <ele>27</ele>
        <time>2012-02-19T07:13:27Z</time>
      </trkpt>
      <trkpt lat="50.43115" lon="3.1787">
        <ele>27</ele>
        <time>2012-02-19T07:13:29Z</time>
      </trkpt>
      <trkpt lat="50.43125" lon="3.17868">
        <ele>27</ele>
        <time>2012-02-19T07:13:31Z</time>
      </trkpt>
      <trkpt lat="50.43134" lon="3.17865">
        <ele>27</ele>
        <time>2012-02-19T07:13:33Z</time>
      </trkpt>
      <trkpt lat="50.43144" lon="3.17863">
        <ele>27</ele>
        <time>2012-02-19T07:13:35Z</time>
      </trkpt>
      <trkpt lat="50.43153" lon="3.17859">
        <ele>27</ele>
        <time>2012-02-19T07:13:37Z</time>
      </trkpt>
      <trkpt lat="50.43168" lon="3.17854">
        <ele>32</ele>
        <time>2012-02-19T07:13:39Z</time>
      </trkpt>
      <trkpt lat="50.43178" lon="3.17849">
        <ele>32</ele>
        <time>2012-02-19T07:13:41Z</time>
      </trkpt>
      <trkpt lat="50.4319" lon="3.17846">
        <ele>32</ele>
        <time>2012-02-19T07:13:43Z</time>
      </trkpt>
      <trkpt lat="50.43201" lon="3.17843">
        <ele>32</ele>
        <time>2012-02-19T07:13:45Z</time>
      </trkpt>
      <trkpt lat="50.4321" lon="3.1784">
        <ele>32</ele>
        <time>2012-02-19T07:13:47Z</time>
      </trkpt>
      <trkpt lat="50.43219" lon="3.17837">
        <ele>32</ele>
        <time>2012-02-19T07:13:49Z</time>
      </trkpt>
      <trkpt lat="50.43232" lon="3.17834">
        <ele>32</ele>
        <time>2012-02-19T07:13:52Z</time>
      </trkpt>
      <trkpt lat="50.43243" lon="3.17828">
        <ele>32</ele>
        <time>2012-02-19T07:13:55Z</time>
      </trkpt>
      <trkpt lat="50.43253" lon="3.17825">
        <ele>37</ele>
        <time>2012-02-19T07:13:57Z</time>
      </trkpt>
      <trkpt lat="50.43262" lon="3.17822">
        <ele>37</ele>
        <time>2012-02-19T07:14:00Z</time>
      </trkpt>
      <trkpt lat="50.43273" lon="3.17818">
        <ele>37</ele>
        <time>2012-02-19T07:14:04Z</time>
      </trkpt>
      <trkpt lat="50.43284" lon="3.17813">
        <ele>37</ele>
        <time>2012-02-19T07:14:08Z</time>
      </trkpt>
      <trkpt lat="50.43294" lon="3.17812">
        <ele>37</ele>
        <time>2012-02-19T07:14:12Z</time>
      </trkpt>
      <trkpt lat="50.43307" lon="3.17809">
        <ele>37</ele>
        <time>2012-02-19T07:14:16Z</time>
      </trkpt>
      <trkpt lat="50.43318" lon="3.17805">
        <ele>42</ele>
        <time>2012-02-19T07:14:19Z</time>
      </trkpt>
      <trkpt lat="50.43328" lon="3.17802">
        <ele>42</ele>
        <time>2012-02-19T07:14:22Z</time>
      </trkpt>
      <trkpt lat="50.4334" lon="3.17798">
        <ele>42</ele>
        <time>2012-02-19T07:14:26Z</time>
      </trkpt>
      <trkpt lat="50.43352" lon="3.17796">
        <ele>42</ele>
        <time>2012-02-19T07:14:31Z</time>
      </trkpt>
      <trkpt lat="50.43362" lon="3.17792">
        <ele>42</ele>
        <time>2012-02-19T07:14:35Z</time>
      </trkpt>
      <trkpt lat="50.43371" lon="3.17787">
        <ele>50</ele>
        <time>2012-02-19T07:14:39Z</time>
      </trkpt>
      <trkpt lat="50.43381" lon="3.17784">
        <ele>50</ele>
        <time>2012-02-19T07:14:44Z</time>
      </trkpt>
      <trkpt lat="50.4339" lon="3.17782">
        <ele>50</ele>
        <time>2012-02-19T07:14:50Z</time>
      </trkpt>
      <trkpt lat="50.43401" lon="3.17779">
        <ele>50</ele>
        <time>2012-02-19T07:14:55Z</time>
      </trkpt>
      <trkpt lat="50.43409" lon="3.17775">
        <ele>50</ele>
        <time>2012-02-19T07:15:00Z</time>
      </trkpt>
      <trkpt lat="50.43421" lon="3.17773">
        <ele>50</ele>
        <time>2012-02-19T07:15:04Z</time>
      </trkpt>
      <trkpt lat="50.43432" lon="3.17772">
        <ele>50</ele>
        <time>2012-02-19T07:15:08Z</time>
      </trkpt>
      <trkpt lat="50.43442" lon="3.17768">
        <ele>50</ele>
        <time>2012-02-19T07:15:12Z</time>
      </trkpt>
      <trkpt lat="50.43451" lon="3.17764">
        <ele>50</ele>
        <time>2012-02-19T07:15:16Z</time>
      </trkpt>
      <trkpt lat="50.43461" lon="3.17759">
        <ele>50</ele>
        <time>2012-02-19T07:15:21Z</time>
      </trkpt>
      <trkpt lat="50.4347" lon="3.17756">
        <ele>50</ele>
        <time>2012-02-19T07:15:24Z</time>
      </trkpt>
      <trkpt lat="50.4348" lon="3.17755">
        <ele>50</ele>
        <time>2012-02-19T07:15:28Z</time>
      </trkpt>
      <trkpt lat="50.43491" lon="3.17751">
        <ele>50</ele>
        <time>2012-02-19T07:15:34Z</time>
      </trkpt>
      <trkpt lat="50.435" lon="3.17749">
        <ele>50</ele>
        <time>2012-02-19T07:15:38Z</time>
      </trkpt>
      <trkpt lat="50.4351" lon="3.17746">
        <ele>50</ele>
        <time>2012-02-19T07:15:41Z</time>
      </trkpt>
      <trkpt lat="50.43521" lon="3.17743">
        <ele>50</ele>
        <time>2012-02-19T07:15:46Z</time>
      </trkpt>
      <trkpt lat="50.43531" lon="3.1774">
        <ele>50</ele>
        <time>2012-02-19T07:15:50Z</time>
      </trkpt>
      <trkpt lat="50.43542" lon="3.17738">
        <ele>50</ele>
        <time>2012-02-19T07:15:54Z</time>
      </trkpt>
      <trkpt lat="50.43551" lon="3.17735">
        <ele>50</ele>
        <time>2012-02-19T07:15:57Z</time>
      </trkpt>
      <trkpt lat="50.4356" lon="3.17733">
        <ele>50</ele>
        <time>2012-02-19T07:16:01Z</time>
      </trkpt>
      <trkpt lat="50.43572" lon="3.17731">
        <ele>50</ele>
        <time>2012-02-19T07:16:06Z</time>
      </trkpt>
      <trkpt lat="50.43582" lon="3.17728">
        <ele>50</ele>
        <time>2012-02-19T07:16:11Z</time>
      </trkpt>
      <trkpt lat="50.43592" lon="3.17723">
        <ele>50</ele>
        <time>2012-02-19T07:16:15Z</time>
      </trkpt>
      <trkpt lat="50.43604" lon="3.1772">
        <ele>50</ele>
        <time>2012-02-19T07:16:18Z</time>
      </trkpt>
      <trkpt lat="50.43613" lon="3.17717">
        <ele>50</ele>
        <time>2012-02-19T07:16:20Z</time>
      </trkpt>
      <trkpt lat="50.43624" lon="3.17714">
        <ele>50</ele>
        <time>2012-02-19T07:16:23Z</time>
      </trkpt>
      <trkpt lat="50.43635" lon="3.1771">
        <ele>50</ele>
        <time>2012-02-19T07:16:26Z</time>
      </trkpt>
      <trkpt lat="50.43647" lon="3.17705">
        <ele>50</ele>
        <time>2012-02-19T07:16:29Z</time>
      </trkpt>
      <trkpt lat="50.43656" lon="3.17703">
        <ele>50</ele>
        <time>2012-02-19T07:16:31Z</time>
      </trkpt>
      <trkpt lat="50.43669" lon="3.17697">
        <ele>50</ele>
        <time>2012-02-19T07:16:34Z</time>
      </trkpt>
      <trkpt lat="50.43682" lon="3.17692">
        <ele>55</ele>
        <time>2012-02-19T07:16:37Z</time>
      </trkpt>
      <trkpt lat="50.43693" lon="3.17691">
        <ele>55</ele>
        <time>2012-02-19T07:16:40Z</time>
      </trkpt>
      <trkpt lat="50.43703" lon="3.17687">
        <ele>55</ele>
        <time>2012-02-19T07:16:43Z</time>
      </trkpt>
      <trkpt lat="50.43716" lon="3.17684">
        <ele>55</ele>
        <time>2012-02-19T07:16:47Z</time>
      </trkpt>
      <trkpt lat="50.43725" lon="3.17681">
        <ele>55</ele>
        <time>2012-02-19T07:16:49Z</time>
      </trkpt>
      <trkpt lat="50.43739" lon="3.17677">
        <ele>50</ele>
        <time>2012-02-19T07:16:52Z</time>
      </trkpt>
      <trkpt lat="50.43752" lon="3.17673">
        <ele>50</ele>
        <time>2012-02-19T07:16:55Z</time>
      </trkpt>
      <trkpt lat="50.43764" lon="3.17668">
        <ele>50</ele>
        <time>2012-02-19T07:16:58Z</time>
      </trkpt>
      <trkpt lat="50.43778" lon="3.17663">
        <ele>50</ele>
        <time>2012-02-19T07:17:01Z</time>
      </trkpt>
      <trkpt lat="50.43791" lon="3.17661">
        <ele>50</ele>
        <time>2012-02-19T07:17:04Z</time>
      </trkpt>
      <trkpt lat="50.43802" lon="3.17657">
        <ele>50</ele>
        <time>2012-02-19T07:17:07Z</time>
      </trkpt>
      <trkpt lat="50.43813" lon="3.17653">
        <ele>50</ele>
        <time>2012-02-19T07:17:10Z</time>
      </trkpt>
      <trkpt lat="50.43823" lon="3.17651">
        <ele>50</ele>
        <time>2012-02-19T07:17:12Z</time>
      </trkpt>
      <trkpt lat="50.43834" lon="3.17648">
        <ele>50</ele>
        <time>2012-02-19T07:17:15Z</time>
      </trkpt>
      <trkpt lat="50.43844" lon="3.17644">
        <ele>50</ele>
        <time>2012-02-19T07:17:18Z</time>
      </trkpt>
      <trkpt lat="50.43853" lon="3.17643">
        <ele>50</ele>
        <time>2012-02-19T07:17:20Z</time>
      </trkpt>
      <trkpt lat="50.43862" lon="3.17639">
        <ele>50</ele>
        <time>2012-02-19T07:17:22Z</time>
      </trkpt>
      <trkpt lat="50.43873" lon="3.17637">
        <ele>50</ele>
        <time>2012-02-19T07:17:25Z</time>
      </trkpt>
      <trkpt lat="50.43882" lon="3.17634">
        <ele>50</ele>
        <time>2012-02-19T07:17:27Z</time>
      </trkpt>
      <trkpt lat="50.43895" lon="3.17631">
        <ele>50</ele>
        <time>2012-02-19T07:17:30Z</time>
      </trkpt>
      <trkpt lat="50.43904" lon="3.17628">
        <ele>50</ele>
        <time>2012-02-19T07:17:32Z</time>
      </trkpt>
      <trkpt lat="50.43916" lon="3.17625">
        <ele>50</ele>
        <time>2012-02-19T07:17:35Z</time>
      </trkpt>
      <trkpt lat="50.43928" lon="3.17621">
        <ele>50</ele>
        <time>2012-02-19T07:17:38Z</time>
      </trkpt>
      <trkpt lat="50.4394" lon="3.17617">
        <ele>50</ele>
        <time>2012-02-19T07:17:41Z</time>
      </trkpt>
      <trkpt lat="50.43954" lon="3.17614">
        <ele>50</ele>
        <time>2012-02-19T07:17:44Z</time>
      </trkpt>
      <trkpt lat="50.43965" lon="3.1761">
        <ele>50</ele>
        <time>2012-02-19T07:17:46Z</time>
      </trkpt>
      <trkpt lat="50.43977" lon="3.17607">
        <ele>50</ele>
        <time>2012-02-19T07:17:49Z</time>
      </trkpt>
      <trkpt lat="50.43988" lon="3.17603">
        <ele>50</ele>
        <time>2012-02-19T07:17:52Z</time>
      </trkpt>
      <trkpt lat="50.43998" lon="3.17599">
        <ele>50</ele>
        <time>2012-02-19T07:17:54Z</time>
      </trkpt>
      <trkpt lat="50.44009" lon="3.17597">
        <ele>50</ele>
        <time>2012-02-19T07:17:56Z</time>
      </trkpt>
      <trkpt lat="50.44018" lon="3.17594">
        <ele>50</ele>
        <time>2012-02-19T07:17:58Z</time>
      </trkpt>
      <trkpt lat="50.44027" lon="3.1759">
        <ele>50</ele>
        <time>2012-02-19T07:18:00Z</time>
      </trkpt>
      <trkpt lat="50.44039" lon="3.17586">
        <ele>50</ele>
        <time>2012-02-19T07:18:03Z</time>
      </trkpt>
      <trkpt lat="50.44051" lon="3.17582">
        <ele>50</ele>
        <time>2012-02-19T07:18:06Z</time>
      </trkpt>
      <trkpt lat="50.44063" lon="3.17579">
        <ele>50</ele>
        <time>2012-02-19T07:18:09Z</time>
      </trkpt>
      <trkpt lat="50.44073" lon="3.17574">
        <ele>43</ele>
        <time>2012-02-19T07:18:12Z</time>
      </trkpt>
      <trkpt lat="50.44083" lon="3.17572">
        <ele>43</ele>
        <time>2012-02-19T07:18:14Z</time>
      </trkpt>
      <trkpt lat="50.44093" lon="3.17569">
        <ele>43</ele>
        <time>2012-02-19T07:18:17Z</time>
      </trkpt>
      <trkpt lat="50.44106" lon="3.17565">
        <ele>43</ele>
        <time>2012-02-19T07:18:20Z</time>
      </trkpt>
      <trkpt lat="50.44119" lon="3.17562">
        <ele>43</ele>
        <time>2012-02-19T07:18:23Z</time>
      </trkpt>
      <trkpt lat="50.44131" lon="3.17558">
        <ele>43</ele>
        <time>2012-02-19T07:18:26Z</time>
      </trkpt>
      <trkpt lat="50.44141" lon="3.17553">
        <ele>43</ele>
        <time>2012-02-19T07:18:29Z</time>
      </trkpt>
      <trkpt lat="50.4415" lon="3.17552">
        <ele>43</ele>
        <time>2012-02-19T07:18:41Z</time>
      </trkpt>
      <trkpt lat="50.44157" lon="3.17542">
        <ele>43</ele>
        <time>2012-02-19T07:18:45Z</time>
      </trkpt>
      <trkpt lat="50.44163" lon="3.1753">
        <ele>43</ele>
        <time>2012-02-19T07:18:48Z</time>
      </trkpt>
      <trkpt lat="50.44169" lon="3.17516">
        <ele>43</ele>
        <time>2012-02-19T07:18:51Z</time>
      </trkpt>
      <trkpt lat="50.44172" lon="3.17501">
        <ele>43</ele>
        <time>2012-02-19T07:18:54Z</time>
      </trkpt>
      <trkpt lat="50.44178" lon="3.17484">
        <ele>43</ele>
        <time>2012-02-19T07:18:57Z</time>
      </trkpt>
      <trkpt lat="50.44183" lon="3.17471">
        <ele>43</ele>
        <time>2012-02-19T07:19:00Z</time>
      </trkpt>
      <trkpt lat="50.44191" lon="3.17467">
        <ele>43</ele>
        <time>2012-02-19T07:19:06Z</time>
      </trkpt>
      <trkpt lat="50.44201" lon="3.17465">
        <ele>43</ele>
        <time>2012-02-19T07:19:13Z</time>
      </trkpt>
      <trkpt lat="50.4421" lon="3.17463">
        <ele>43</ele>
        <time>2012-02-19T07:19:19Z</time>
      </trkpt>
      <trkpt lat="50.44219" lon="3.17458">
        <ele>43</ele>
        <time>2012-02-19T07:19:28Z</time>
      </trkpt>
      <trkpt lat="50.44223" lon="3.17446">
        <ele>33</ele>
        <time>2012-02-19T07:19:51Z</time>
      </trkpt>
      <trkpt lat="50.44232" lon="3.17442">
        <ele>33</ele>
        <time>2012-02-19T07:19:57Z</time>
      </trkpt>
      <trkpt lat="50.44241" lon="3.17439">
        <ele>33</ele>
        <time>2012-02-19T07:20:07Z</time>
      </trkpt>
      <trkpt lat="50.4425" lon="3.17434">
        <ele>33</ele>
        <time>2012-02-19T07:20:13Z</time>
      </trkpt>
      <trkpt lat="50.4426" lon="3.17429">
        <ele>33</ele>
        <time>2012-02-19T07:20:19Z</time>
      </trkpt>
      <trkpt lat="50.44269" lon="3.17425">
        <ele>33</ele>
        <time>2012-02-19T07:20:27Z</time>
      </trkpt>
      <trkpt lat="50.44277" lon="3.1742">
        <ele>33</ele>
        <time>2012-02-19T07:20:35Z</time>
      </trkpt>
      <trkpt lat="50.44286" lon="3.17415">
        <ele>33</ele>
        <time>2012-02-19T07:20:41Z</time>
      </trkpt>
      <trkpt lat="50.44296" lon="3.17411">
        <ele>33</ele>
        <time>2012-02-19T07:20:47Z</time>
      </trkpt>
      <trkpt lat="50.44305" lon="3.17404">
        <ele>33</ele>
        <time>2012-02-19T07:20:53Z</time>
      </trkpt>
      <trkpt lat="50.44314" lon="3.174">
        <ele>33</ele>
        <time>2012-02-19T07:20:59Z</time>
      </trkpt>
      <trkpt lat="50.44323" lon="3.17396">
        <ele>33</ele>
        <time>2012-02-19T07:21:07Z</time>
      </trkpt>
      <trkpt lat="50.44331" lon="3.17392">
        <ele>33</ele>
        <time>2012-02-19T07:21:15Z</time>
      </trkpt>
      <trkpt lat="50.4434" lon="3.17387">
        <ele>33</ele>
        <time>2012-02-19T07:21:23Z</time>
      </trkpt>
      <trkpt lat="50.44348" lon="3.17381">
        <ele>33</ele>
        <time>2012-02-19T07:21:31Z</time>
      </trkpt>
      <trkpt lat="50.44356" lon="3.17372">
        <ele>33</ele>
        <time>2012-02-19T07:21:37Z</time>
      </trkpt>
      <trkpt lat="50.44352" lon="3.17359">
        <ele>33</ele>
        <time>2012-02-19T07:21:42Z</time>
      </trkpt>
      <trkpt lat="50.44347" lon="3.17345">
        <ele>33</ele>
        <time>2012-02-19T07:21:46Z</time>
      </trkpt>
      <trkpt lat="50.44344" lon="3.17332">
        <ele>33</ele>
        <time>2012-02-19T07:21:49Z</time>
      </trkpt>
      <trkpt lat="50.44341" lon="3.17317">
        <ele>33</ele>
        <time>2012-02-19T07:21:52Z</time>
      </trkpt>
      <trkpt lat="50.44337" lon="3.173">
        <ele>33</ele>
        <time>2012-02-19T07:21:55Z</time>
      </trkpt>
      <trkpt lat="50.44333" lon="3.17282">
        <ele>33</ele>
        <time>2012-02-19T07:21:58Z</time>
      </trkpt>
      <trkpt lat="50.44328" lon="3.17265">
        <ele>33</ele>
        <time>2012-02-19T07:22:01Z</time>
      </trkpt>
      <trkpt lat="50.44324" lon="3.17248">
        <ele>33</ele>
        <time>2012-02-19T07:22:04Z</time>
      </trkpt>
      <trkpt lat="50.4432" lon="3.17231">
        <ele>33</ele>
        <time>2012-02-19T07:22:07Z</time>
      </trkpt>
      <trkpt lat="50.44317" lon="3.17213">
        <ele>33</ele>
        <time>2012-02-19T07:22:10Z</time>
      </trkpt>
      <trkpt lat="50.44315" lon="3.17194">
        <ele>33</ele>
        <time>2012-02-19T07:22:13Z</time>
      </trkpt>
      <trkpt lat="50.44314" lon="3.1718">
        <ele>33</ele>
        <time>2012-02-19T07:22:15Z</time>
      </trkpt>
      <trkpt lat="50.44315" lon="3.17159">
        <ele>33</ele>
        <time>2012-02-19T07:22:18Z</time>
      </trkpt>
      <trkpt lat="50.44316" lon="3.17145">
        <ele>33</ele>
        <time>2012-02-19T07:22:20Z</time>
      </trkpt>
      <trkpt lat="50.44318" lon="3.1713">
        <ele>33</ele>
        <time>2012-02-19T07:22:22Z</time>
      </trkpt>
      <trkpt lat="50.4432" lon="3.17117">
        <ele>33</ele>
        <time>2012-02-19T07:22:24Z</time>
      </trkpt>
      <trkpt lat="50.44323" lon="3.17103">
        <ele>33</ele>
        <time>2012-02-19T07:22:26Z</time>
      </trkpt>
      <trkpt lat="50.44326" lon="3.17089">
        <ele>33</ele>
        <time>2012-02-19T07:22:28Z</time>
      </trkpt>
      <trkpt lat="50.44329" lon="3.17076">
        <ele>33</ele>
        <time>2012-02-19T07:22:30Z</time>
      </trkpt>
      <trkpt lat="50.44332" lon="3.17062">
        <ele>33</ele>
        <time>2012-02-19T07:22:32Z</time>
      </trkpt>
      <trkpt lat="50.44337" lon="3.17043">
        <ele>33</ele>
        <time>2012-02-19T07:22:35Z</time>
      </trkpt>
      <trkpt lat="50.44343" lon="3.17026">
        <ele>33</ele>
        <time>2012-02-19T07:22:38Z</time>
      </trkpt>
      <trkpt lat="50.4435" lon="3.17013">
        <ele>33</ele>
        <time>2012-02-19T07:22:41Z</time>
      </trkpt>
      <trkpt lat="50.44356" lon="3.16998">
        <ele>33</ele>
        <time>2012-02-19T07:22:44Z</time>
      </trkpt>
      <trkpt lat="50.44362" lon="3.16982">
        <ele>33</ele>
        <time>2012-02-19T07:22:47Z</time>
      </trkpt>
      <trkpt lat="50.44366" lon="3.16966">
        <ele>33</ele>
        <time>2012-02-19T07:22:50Z</time>
      </trkpt>
      <trkpt lat="50.44372" lon="3.16952">
        <ele>33</ele>
        <time>2012-02-19T07:22:53Z</time>
      </trkpt>
      <trkpt lat="50.44378" lon="3.16935">
        <ele>33</ele>
        <time>2012-02-19T07:22:56Z</time>
      </trkpt>
      <trkpt lat="50.44383" lon="3.16917">
        <ele>33</ele>
        <time>2012-02-19T07:22:59Z</time>
      </trkpt>
      <trkpt lat="50.44389" lon="3.16899">
        <ele>33</ele>
        <time>2012-02-19T07:23:02Z</time>
      </trkpt>
      <trkpt lat="50.44393" lon="3.16885">
        <ele>33</ele>
        <time>2012-02-19T07:23:04Z</time>
      </trkpt>
      <trkpt lat="50.44397" lon="3.16872">
        <ele>33</ele>
        <time>2012-02-19T07:23:06Z</time>
      </trkpt>
      <trkpt lat="50.44399" lon="3.16858">
        <ele>33</ele>
        <time>2012-02-19T07:23:08Z</time>
      </trkpt>
      <trkpt lat="50.44404" lon="3.1684">
        <ele>33</ele>
        <time>2012-02-19T07:23:11Z</time>
      </trkpt>
      <trkpt lat="50.44407" lon="3.16821">
        <ele>33</ele>
        <time>2012-02-19T07:23:14Z</time>
      </trkpt>
      <trkpt lat="50.44402" lon="3.16808">
        <ele>33</ele>
        <time>2012-02-19T07:23:17Z</time>
      </trkpt>
      <trkpt lat="50.44391" lon="3.16804">
        <ele>33</ele>
        <time>2012-02-19T07:23:21Z</time>
      </trkpt>
      <trkpt lat="50.44382" lon="3.16801">
        <ele>33</ele>
        <time>2012-02-19T07:23:24Z</time>
      </trkpt>
      <trkpt lat="50.44372" lon="3.16796">
        <ele>33</ele>
        <time>2012-02-19T07:23:27Z</time>
      </trkpt>
      <trkpt lat="50.44363" lon="3.16792">
        <ele>33</ele>
        <time>2012-02-19T07:23:30Z</time>
      </trkpt>
      <trkpt lat="50.44354" lon="3.16786">
        <ele>33</ele>
        <time>2012-02-19T07:23:33Z</time>
      </trkpt>
      <trkpt lat="50.44344" lon="3.16783">
        <ele>33</ele>
        <time>2012-02-19T07:23:36Z</time>
      </trkpt>
      <trkpt lat="50.44333" lon="3.16778">
        <ele>33</ele>
        <time>2012-02-19T07:23:39Z</time>
      </trkpt>
      <trkpt lat="50.44323" lon="3.16774">
        <ele>33</ele>
        <time>2012-02-19T07:23:42Z</time>
      </trkpt>
      <trkpt lat="50.44311" lon="3.16769">
        <ele>33</ele>
        <time>2012-02-19T07:23:45Z</time>
      </trkpt>
      <trkpt lat="50.44298" lon="3.16765">
        <ele>33</ele>
        <time>2012-02-19T07:23:48Z</time>
      </trkpt>
      <trkpt lat="50.44285" lon="3.16763">
        <ele>33</ele>
        <time>2012-02-19T07:23:51Z</time>
      </trkpt>
      <trkpt lat="50.44272" lon="3.16763">
        <ele>33</ele>
        <time>2012-02-19T07:23:54Z</time>
      </trkpt>
      <trkpt lat="50.44263" lon="3.16764">
        <ele>33</ele>
        <time>2012-02-19T07:23:56Z</time>
      </trkpt>
      <trkpt lat="50.44254" lon="3.16766">
        <ele>33</ele>
        <time>2012-02-19T07:23:58Z</time>
      </trkpt>
      <trkpt lat="50.44245" lon="3.16768">
        <ele>33</ele>
        <time>2012-02-19T07:24:00Z</time>
      </trkpt>
      <trkpt lat="50.44235" lon="3.16769">
        <ele>33</ele>
        <time>2012-02-19T07:24:02Z</time>
      </trkpt>
      <trkpt lat="50.44226" lon="3.16769">
        <ele>33</ele>
        <time>2012-02-19T07:24:04Z</time>
      </trkpt>
      <trkpt lat="50.44216" lon="3.1677">
        <ele>33</ele>
        <time>2012-02-19T07:24:06Z</time>
      </trkpt>
      <trkpt lat="50.44207" lon="3.16771">
        <ele>33</ele>
        <time>2012-02-19T07:24:08Z</time>
      </trkpt>
      <trkpt lat="50.44198" lon="3.16773">
        <ele>33</ele>
        <time>2012-02-19T07:24:10Z</time>
      </trkpt>
      <trkpt lat="50.44189" lon="3.16774">
        <ele>33</ele>
        <time>2012-02-19T07:24:12Z</time>
      </trkpt>
      <trkpt lat="50.44176" lon="3.16776">
        <ele>33</ele>
        <time>2012-02-19T07:24:15Z</time>
      </trkpt>
      <trkpt lat="50.44167" lon="3.16777">
        <ele>33</ele>
        <time>2012-02-19T07:24:17Z</time>
      </trkpt>
      <trkpt lat="50.44157" lon="3.16777">
        <ele>33</ele>
        <time>2012-02-19T07:24:19Z</time>
      </trkpt>
      <trkpt lat="50.44148" lon="3.16778">
        <ele>33</ele>
        <time>2012-02-19T07:24:21Z</time>
      </trkpt>
      <trkpt lat="50.44138" lon="3.1678">
        <ele>33</ele>
        <time>2012-02-19T07:24:23Z</time>
      </trkpt>
      <trkpt lat="50.44129" lon="3.1678">
        <ele>33</ele>
        <time>2012-02-19T07:24:25Z</time>
      </trkpt>
      <trkpt lat="50.44119" lon="3.16781">
        <ele>33</ele>
        <time>2012-02-19T07:24:27Z</time>
      </trkpt>
      <trkpt lat="50.4411" lon="3.16782">
        <ele>33</ele>
        <time>2012-02-19T07:24:29Z</time>
      </trkpt>
      <trkpt lat="50.441" lon="3.16782">
        <ele>33</ele>
        <time>2012-02-19T07:24:31Z</time>
      </trkpt>
      <trkpt lat="50.4409" lon="3.16782">
        <ele>33</ele>
        <time>2012-02-19T07:24:33Z</time>
      </trkpt>
      <trkpt lat="50.44081" lon="3.1678">
        <ele>33</ele>
        <time>2012-02-19T07:24:35Z</time>
      </trkpt>
      <trkpt lat="50.44072" lon="3.16779">
        <ele>33</ele>
        <time>2012-02-19T07:24:37Z</time>
      </trkpt>
      <trkpt lat="50.44059" lon="3.16775">
        <ele>33</ele>
        <time>2012-02-19T07:24:40Z</time>
      </trkpt>
      <trkpt lat="50.44048" lon="3.16761">
        <ele>33</ele>
        <time>2012-02-19T07:24:43Z</time>
      </trkpt>
      <trkpt lat="50.44045" lon="3.16742">
        <ele>33</ele>
        <time>2012-02-19T07:24:46Z</time>
      </trkpt>
      <trkpt lat="50.44043" lon="3.16722">
        <ele>33</ele>
        <time>2012-02-19T07:24:49Z</time>
      </trkpt>
      <trkpt lat="50.44041" lon="3.16701">
        <ele>33</ele>
        <time>2012-02-19T07:24:52Z</time>
      </trkpt>
      <trkpt lat="50.44039" lon="3.1668">
        <ele>33</ele>
        <time>2012-02-19T07:24:55Z</time>
      </trkpt>
      <trkpt lat="50.44037" lon="3.16666">
        <ele>33</ele>
        <time>2012-02-19T07:24:57Z</time>
      </trkpt>
      <trkpt lat="50.44036" lon="3.16652">
        <ele>33</ele>
        <time>2012-02-19T07:24:59Z</time>
      </trkpt>
      <trkpt lat="50.44034" lon="3.16636">
        <ele>33</ele>
        <time>2012-02-19T07:25:01Z</time>
      </trkpt>
      <trkpt lat="50.44032" lon="3.16621">
        <ele>33</ele>
        <time>2012-02-19T07:25:03Z</time>
      </trkpt>
      <trkpt lat="50.44031" lon="3.16605">
        <ele>33</ele>
        <time>2012-02-19T07:25:05Z</time>
      </trkpt>
      <trkpt lat="50.44029" lon="3.1659">
        <ele>33</ele>
        <time>2012-02-19T07:25:07Z</time>
      </trkpt>
      <trkpt lat="50.44028" lon="3.16574">
        <ele>33</ele>
        <time>2012-02-19T07:25:09Z</time>
      </trkpt>
      <trkpt lat="50.44027" lon="3.16557">
        <ele>33</ele>
        <time>2012-02-19T07:25:11Z</time>
      </trkpt>
      <trkpt lat="50.44026" lon="3.16541">
        <ele>33</ele>
        <time>2012-02-19T07:25:13Z</time>
      </trkpt>
      <trkpt lat="50.44025" lon="3.16525">
        <ele>33</ele>
        <time>2012-02-19T07:25:15Z</time>
      </trkpt>
      <trkpt lat="50.44025" lon="3.16509">
        <ele>33</ele>
        <time>2012-02-19T07:25:17Z</time>
      </trkpt>
      <trkpt lat="50.44025" lon="3.16493">
        <ele>33</ele>
        <time>2012-02-19T07:25:19Z</time>
      </trkpt>
      <trkpt lat="50.44025" lon="3.16477">
        <ele>33</ele>
        <time>2012-02-19T07:25:21Z</time>
      </trkpt>
      <trkpt lat="50.44025" lon="3.1646">
        <ele>33</ele>
        <time>2012-02-19T07:25:23Z</time>
      </trkpt>
      <trkpt lat="50.44025" lon="3.16445">
        <ele>33</ele>
        <time>2012-02-19T07:25:25Z</time>
      </trkpt>
      <trkpt lat="50.44025" lon="3.1643">
        <ele>33</ele>
        <time>2012-02-19T07:25:27Z</time>
      </trkpt>
      <trkpt lat="50.44025" lon="3.16415">
        <ele>33</ele>
        <time>2012-02-19T07:25:29Z</time>
      </trkpt>
      <trkpt lat="50.44025" lon="3.16399">
        <ele>33</ele>
        <time>2012-02-19T07:25:31Z</time>
      </trkpt>
      <trkpt lat="50.44025" lon="3.16384">
        <ele>33</ele>
        <time>2012-02-19T07:25:33Z</time>
      </trkpt>
      <trkpt lat="50.44025" lon="3.1637">
        <ele>33</ele>
        <time>2012-02-19T07:25:35Z</time>
      </trkpt>
      <trkpt lat="50.44025" lon="3.16354">
        <ele>33</ele>
        <time>2012-02-19T07:25:37Z</time>
      </trkpt>
      <trkpt lat="50.44024" lon="3.16339">
        <ele>33</ele>
        <time>2012-02-19T07:25:39Z</time>
      </trkpt>
      <trkpt lat="50.44023" lon="3.16324">
        <ele>33</ele>
        <time>2012-02-19T07:25:41Z</time>
      </trkpt>
      <trkpt lat="50.44021" lon="3.16309">
        <ele>33</ele>
        <time>2012-02-19T07:25:43Z</time>
      </trkpt>
      <trkpt lat="50.4402" lon="3.16294">
        <ele>33</ele>
        <time>2012-02-19T07:25:45Z</time>
      </trkpt>
      <trkpt lat="50.44019" lon="3.16279">
        <ele>33</ele>
        <time>2012-02-19T07:25:47Z</time>
      </trkpt>
      <trkpt lat="50.44017" lon="3.16265">
        <ele>33</ele>
        <time>2012-02-19T07:25:49Z</time>
      </trkpt>
      <trkpt lat="50.44015" lon="3.1625">
        <ele>33</ele>
        <time>2012-02-19T07:25:51Z</time>
      </trkpt>
      <trkpt lat="50.44014" lon="3.16235">
        <ele>33</ele>
        <time>2012-02-19T07:25:53Z</time>
      </trkpt>
      <trkpt lat="50.44012" lon="3.16221">
        <ele>33</ele>
        <time>2012-02-19T07:25:55Z</time>
      </trkpt>
      <trkpt lat="50.4401" lon="3.162">
        <ele>33</ele>
        <time>2012-02-19T07:25:58Z</time>
      </trkpt>
      <trkpt lat="50.44008" lon="3.1618">
        <ele>33</ele>
        <time>2012-02-19T07:26:01Z</time>
      </trkpt>
      <trkpt lat="50.44005" lon="3.16159">
        <ele>33</ele>
        <time>2012-02-19T07:26:04Z</time>
      </trkpt>
      <trkpt lat="50.44002" lon="3.1614">
        <ele>33</ele>
        <time>2012-02-19T07:26:07Z</time>
      </trkpt>
      <trkpt lat="50.44" lon="3.16125">
        <ele>33</ele>
        <time>2012-02-19T07:26:09Z</time>
      </trkpt>
      <trkpt lat="50.43996" lon="3.16112">
        <ele>33</ele>
        <time>2012-02-19T07:26:11Z</time>
      </trkpt>
      <trkpt lat="50.43994" lon="3.16097">
        <ele>33</ele>
        <time>2012-02-19T07:26:13Z</time>
      </trkpt>
      <trkpt lat="50.43992" lon="3.16083">
        <ele>33</ele>
        <time>2012-02-19T07:26:15Z</time>
      </trkpt>
      <trkpt lat="50.43992" lon="3.16069">
        <ele>33</ele>
        <time>2012-02-19T07:26:17Z</time>
      </trkpt>
      <trkpt lat="50.43991" lon="3.16054">
        <ele>33</ele>
        <time>2012-02-19T07:26:19Z</time>
      </trkpt>
      <trkpt lat="50.4399" lon="3.1604">
        <ele>33</ele>
        <time>2012-02-19T07:26:21Z</time>
      </trkpt>
      <trkpt lat="50.4399" lon="3.16026">
        <ele>33</ele>
        <time>2012-02-19T07:26:23Z</time>
      </trkpt>
      <trkpt lat="50.43989" lon="3.16011">
        <ele>33</ele>
        <time>2012-02-19T07:26:25Z</time>
      </trkpt>
      <trkpt lat="50.43988" lon="3.15997">
        <ele>33</ele>
        <time>2012-02-19T07:26:27Z</time>
      </trkpt>
      <trkpt lat="50.43986" lon="3.15982">
        <ele>33</ele>
        <time>2012-02-19T07:26:29Z</time>
      </trkpt>
      <trkpt lat="50.43984" lon="3.15968">
        <ele>33</ele>
        <time>2012-02-19T07:26:31Z</time>
      </trkpt>
      <trkpt lat="50.43981" lon="3.15947">
        <ele>33</ele>
        <time>2012-02-19T07:26:34Z</time>
      </trkpt>
      <trkpt lat="50.4398" lon="3.15933">
        <ele>33</ele>
        <time>2012-02-19T07:26:36Z</time>
      </trkpt>
      <trkpt lat="50.43978" lon="3.15919">
        <ele>33</ele>
        <time>2012-02-19T07:26:38Z</time>
      </trkpt>
      <trkpt lat="50.43975" lon="3.15905">
        <ele>33</ele>
        <time>2012-02-19T07:26:40Z</time>
      </trkpt>
      <trkpt lat="50.43973" lon="3.15891">
        <ele>33</ele>
        <time>2012-02-19T07:26:42Z</time>
      </trkpt>
      <trkpt lat="50.43971" lon="3.15876">
        <ele>33</ele>
        <time>2012-02-19T07:26:44Z</time>
      </trkpt>
      <trkpt lat="50.43969" lon="3.15863">
        <ele>33</ele>
        <time>2012-02-19T07:26:46Z</time>
      </trkpt>
      <trkpt lat="50.43967" lon="3.15849">
        <ele>33</ele>
        <time>2012-02-19T07:26:48Z</time>
      </trkpt>
      <trkpt lat="50.43965" lon="3.15834">
        <ele>33</ele>
        <time>2012-02-19T07:26:50Z</time>
      </trkpt>
      <trkpt lat="50.43962" lon="3.1582">
        <ele>33</ele>
        <time>2012-02-19T07:26:52Z</time>
      </trkpt>
      <trkpt lat="50.4396" lon="3.15805">
        <ele>33</ele>
        <time>2012-02-19T07:26:54Z</time>
      </trkpt>
      <trkpt lat="50.43957" lon="3.15785">
        <ele>33</ele>
        <time>2012-02-19T07:26:57Z</time>
      </trkpt>
      <trkpt lat="50.43954" lon="3.1577">
        <ele>33</ele>
        <time>2012-02-19T07:26:59Z</time>
      </trkpt>
      <trkpt lat="50.43953" lon="3.15756">
        <ele>33</ele>
        <time>2012-02-19T07:27:01Z</time>
      </trkpt>
      <trkpt lat="50.4395" lon="3.15742">
        <ele>33</ele>
        <time>2012-02-19T07:27:03Z</time>
      </trkpt>
      <trkpt lat="50.43948" lon="3.15727">
        <ele>33</ele>
        <time>2012-02-19T07:27:05Z</time>
      </trkpt>
      <trkpt lat="50.43945" lon="3.15714">
        <ele>33</ele>
        <time>2012-02-19T07:27:07Z</time>
      </trkpt>
      <trkpt lat="50.43942" lon="3.157">
        <ele>33</ele>
        <time>2012-02-19T07:27:09Z</time>
      </trkpt>
      <trkpt lat="50.43939" lon="3.15686">
        <ele>33</ele>
        <time>2012-02-19T07:27:11Z</time>
      </trkpt>
      <trkpt lat="50.43936" lon="3.15673">
        <ele>33</ele>
        <time>2012-02-19T07:27:13Z</time>
      </trkpt>
      <trkpt lat="50.43933" lon="3.15659">
        <ele>33</ele>
        <time>2012-02-19T07:27:15Z</time>
      </trkpt>
      <trkpt lat="50.4393" lon="3.15645">
        <ele>33</ele>
        <time>2012-02-19T07:27:17Z</time>
      </trkpt>
      <trkpt lat="50.43927" lon="3.15631">
        <ele>33</ele>
        <time>2012-02-19T07:27:19Z</time>
      </trkpt>
      <trkpt lat="50.43923" lon="3.15617">
        <ele>33</ele>
        <time>2012-02-19T07:27:21Z</time>
      </trkpt>
      <trkpt lat="50.43919" lon="3.15602">
        <ele>33</ele>
        <time>2012-02-19T07:27:23Z</time>
      </trkpt>
      <trkpt lat="50.43915" lon="3.15589">
        <ele>33</ele>
        <time>2012-02-19T07:27:25Z</time>
      </trkpt>
      <trkpt lat="50.43911" lon="3.15575">
        <ele>33</ele>
        <time>2012-02-19T07:27:27Z</time>
      </trkpt>
      <trkpt lat="50.43907" lon="3.1556">
        <ele>33</ele>
        <time>2012-02-19T07:27:29Z</time>
      </trkpt>
      <trkpt lat="50.43903" lon="3.15546">
        <ele>33</ele>
        <time>2012-02-19T07:27:31Z</time>
      </trkpt>
      <trkpt lat="50.43899" lon="3.15532">
        <ele>33</ele>
        <time>2012-02-19T07:27:33Z</time>
      </trkpt>
      <trkpt lat="50.43896" lon="3.15518">
        <ele>33</ele>
        <time>2012-02-19T07:27:35Z</time>
      </trkpt>
      <trkpt lat="50.43895" lon="3.15503">
        <ele>33</ele>
        <time>2012-02-19T07:27:37Z</time>
      </trkpt>
      <trkpt lat="50.43894" lon="3.15487">
        <ele>33</ele>
        <time>2012-02-19T07:27:39Z</time>
      </trkpt>
      <trkpt lat="50.43894" lon="3.15471">
        <ele>33</ele>
        <time>2012-02-19T07:27:41Z</time>
      </trkpt>
      <trkpt lat="50.43895" lon="3.15456">
        <ele>33</ele>
        <time>2012-02-19T07:27:43Z</time>
      </trkpt>
      <trkpt lat="50.43895" lon="3.1544">
        <ele>33</ele>
        <time>2012-02-19T07:27:45Z</time>
      </trkpt>
      <trkpt lat="50.43895" lon="3.15425">
        <ele>33</ele>
        <time>2012-02-19T07:27:47Z</time>
      </trkpt>
      <trkpt lat="50.43895" lon="3.15408">
        <ele>33</ele>
        <time>2012-02-19T07:27:49Z</time>
      </trkpt>
      <trkpt lat="50.43896" lon="3.15392">
        <ele>33</ele>
        <time>2012-02-19T07:27:51Z</time>
      </trkpt>
      <trkpt lat="50.43896" lon="3.15376">
        <ele>33</ele>
        <time>2012-02-19T07:27:53Z</time>
      </trkpt>
      <trkpt lat="50.43896" lon="3.1536">
        <ele>33</ele>
        <time>2012-02-19T07:27:55Z</time>
      </trkpt>
      <trkpt lat="50.43897" lon="3.15344">
        <ele>33</ele>
        <time>2012-02-19T07:27:57Z</time>
      </trkpt>
      <trkpt lat="50.43897" lon="3.15328">
        <ele>33</ele>
        <time>2012-02-19T07:27:59Z</time>
      </trkpt>
      <trkpt lat="50.43897" lon="3.15311">
        <ele>33</ele>
        <time>2012-02-19T07:28:01Z</time>
      </trkpt>
      <trkpt lat="50.43897" lon="3.15295">
        <ele>39</ele>
        <time>2012-02-19T07:28:03Z</time>
      </trkpt>
      <trkpt lat="50.43897" lon="3.15279">
        <ele>39</ele>
        <time>2012-02-19T07:28:05Z</time>
      </trkpt>
      <trkpt lat="50.43898" lon="3.15264">
        <ele>39</ele>
        <time>2012-02-19T07:28:07Z</time>
      </trkpt>
      <trkpt lat="50.43899" lon="3.15249">
        <ele>39</ele>
        <time>2012-02-19T07:28:09Z</time>
      </trkpt>
      <trkpt lat="50.439" lon="3.1523">
        <ele>39</ele>
        <time>2012-02-19T07:28:12Z</time>
      </trkpt>
      <trkpt lat="50.43897" lon="3.15216">
        <ele>39</ele>
        <time>2012-02-19T07:28:15Z</time>
      </trkpt>
      <trkpt lat="50.4389" lon="3.15207">
        <ele>39</ele>
        <time>2012-02-19T07:28:18Z</time>
      </trkpt>
      <trkpt lat="50.43881" lon="3.15209">
        <ele>39</ele>
        <time>2012-02-19T07:28:22Z</time>
      </trkpt>
      <trkpt lat="50.43869" lon="3.15213">
        <ele>39</ele>
        <time>2012-02-19T07:28:26Z</time>
      </trkpt>
      <trkpt lat="50.4386" lon="3.15215">
        <ele>39</ele>
        <time>2012-02-19T07:28:28Z</time>
      </trkpt>
      <trkpt lat="50.4385" lon="3.1522">
        <ele>39</ele>
        <time>2012-02-19T07:28:30Z</time>
      </trkpt>
      <trkpt lat="50.43838" lon="3.15226">
        <ele>39</ele>
        <time>2012-02-19T07:28:33Z</time>
      </trkpt>
      <trkpt lat="50.43828" lon="3.1523">
        <ele>39</ele>
        <time>2012-02-19T07:28:35Z</time>
      </trkpt>
      <trkpt lat="50.43818" lon="3.15232">
        <ele>39</ele>
        <time>2012-02-19T07:28:37Z</time>
      </trkpt>
      <trkpt lat="50.43808" lon="3.15234">
        <ele>39</ele>
        <time>2012-02-19T07:28:39Z</time>
      </trkpt>
      <trkpt lat="50.43799" lon="3.15238">
        <ele>39</ele>
        <time>2012-02-19T07:28:41Z</time>
      </trkpt>
      <trkpt lat="50.4379" lon="3.1524">
        <ele>39</ele>
        <time>2012-02-19T07:28:43Z</time>
      </trkpt>
      <trkpt lat="50.4378" lon="3.15236">
        <ele>39</ele>
        <time>2012-02-19T07:28:45Z</time>
      </trkpt>
      <trkpt lat="50.43772" lon="3.15229">
        <ele>39</ele>
        <time>2012-02-19T07:28:47Z</time>
      </trkpt>
      <trkpt lat="50.43766" lon="3.15219">
        <ele>39</ele>
        <time>2012-02-19T07:28:49Z</time>
      </trkpt>
      <trkpt lat="50.43763" lon="3.15205">
        <ele>39</ele>
        <time>2012-02-19T07:28:51Z</time>
      </trkpt>
      <trkpt lat="50.43758" lon="3.15188">
        <ele>39</ele>
        <time>2012-02-19T07:28:53Z</time>
      </trkpt>
      <trkpt lat="50.43754" lon="3.1517">
        <ele>39</ele>
        <time>2012-02-19T07:28:55Z</time>
      </trkpt>
      <trkpt lat="50.43752" lon="3.15154">
        <ele>39</ele>
        <time>2012-02-19T07:28:57Z</time>
      </trkpt>
      <trkpt lat="50.43751" lon="3.15139">
        <ele>39</ele>
        <time>2012-02-19T07:28:59Z</time>
      </trkpt>
      <trkpt lat="50.43749" lon="3.15118">
        <ele>39</ele>
        <time>2012-02-19T07:29:02Z</time>
      </trkpt>
      <trkpt lat="50.43748" lon="3.15104">
        <ele>39</ele>
        <time>2012-02-19T07:29:04Z</time>
      </trkpt>
      <trkpt lat="50.43747" lon="3.15089">
        <ele>39</ele>
        <time>2012-02-19T07:29:06Z</time>
      </trkpt>
      <trkpt lat="50.43746" lon="3.15072">
        <ele>39</ele>
        <time>2012-02-19T07:29:08Z</time>
      </trkpt>
      <trkpt lat="50.43745" lon="3.15058">
        <ele>39</ele>
        <time>2012-02-19T07:29:10Z</time>
      </trkpt>
      <trkpt lat="50.43745" lon="3.15038">
        <ele>39</ele>
        <time>2012-02-19T07:29:13Z</time>
      </trkpt>
      <trkpt lat="50.43748" lon="3.15024">
        <ele>39</ele>
        <time>2012-02-19T07:29:16Z</time>
      </trkpt>
      <trkpt lat="50.43758" lon="3.15016">
        <ele>33</ele>
        <time>2012-02-19T07:29:20Z</time>
      </trkpt>
      <trkpt lat="50.43771" lon="3.15012">
        <ele>33</ele>
        <time>2012-02-19T07:29:23Z</time>
      </trkpt>
      <trkpt lat="50.43782" lon="3.15009">
        <ele>33</ele>
        <time>2012-02-19T07:29:25Z</time>
      </trkpt>
      <trkpt lat="50.43791" lon="3.15005">
        <ele>33</ele>
        <time>2012-02-19T07:29:27Z</time>
      </trkpt>
      <trkpt lat="50.43802" lon="3.15002">
        <ele>33</ele>
        <time>2012-02-19T07:29:29Z</time>
      </trkpt>
      <trkpt lat="50.43814" lon="3.15001">
        <ele>33</ele>
        <time>2012-02-19T07:29:31Z</time>
      </trkpt>
      <trkpt lat="50.43826" lon="3.14999">
        <ele>33</ele>
        <time>2012-02-19T07:29:33Z</time>
      </trkpt>
      <trkpt lat="50.43836" lon="3.14998">
        <ele>33</ele>
        <time>2012-02-19T07:29:35Z</time>
      </trkpt>
      <trkpt lat="50.43847" lon="3.14996">
        <ele>33</ele>
        <time>2012-02-19T07:29:37Z</time>
      </trkpt>
      <trkpt lat="50.43858" lon="3.14993">
        <ele>33</ele>
        <time>2012-02-19T07:29:39Z</time>
      </trkpt>
      <trkpt lat="50.43869" lon="3.1499">
        <ele>33</ele>
        <time>2012-02-19T07:29:41Z</time>
      </trkpt>
      <trkpt lat="50.43881" lon="3.14989">
        <ele>38</ele>
        <time>2012-02-19T07:29:43Z</time>
      </trkpt>
      <trkpt lat="50.43893" lon="3.14987">
        <ele>38</ele>
        <time>2012-02-19T07:29:45Z</time>
      </trkpt>
      <trkpt lat="50.43904" lon="3.14985">
        <ele>38</ele>
        <time>2012-02-19T07:29:47Z</time>
      </trkpt>
      <trkpt lat="50.43914" lon="3.14984">
        <ele>38</ele>
        <time>2012-02-19T07:29:49Z</time>
      </trkpt>
      <trkpt lat="50.43924" lon="3.14982">
        <ele>38</ele>
        <time>2012-02-19T07:29:51Z</time>
      </trkpt>
      <trkpt lat="50.43932" lon="3.14975">
        <ele>38</ele>
        <time>2012-02-19T07:29:53Z</time>
      </trkpt>
      <trkpt lat="50.43935" lon="3.14958">
        <ele>38</ele>
        <time>2012-02-19T07:29:56Z</time>
      </trkpt>
      <trkpt lat="50.43935" lon="3.14942">
        <ele>38</ele>
        <time>2012-02-19T07:29:58Z</time>
      </trkpt>
      <trkpt lat="50.43935" lon="3.14926">
        <ele>38</ele>
        <time>2012-02-19T07:30:00Z</time>
      </trkpt>
      <trkpt lat="50.43934" lon="3.1491">
        <ele>38</ele>
        <time>2012-02-19T07:30:02Z</time>
      </trkpt>
      <trkpt lat="50.43932" lon="3.14895">
        <ele>38</ele>
        <time>2012-02-19T07:30:04Z</time>
      </trkpt>
      <trkpt lat="50.43931" lon="3.14879">
        <ele>38</ele>
        <time>2012-02-19T07:30:06Z</time>
      </trkpt>
      <trkpt lat="50.4393" lon="3.14861">
        <ele>38</ele>
        <time>2012-02-19T07:30:08Z</time>
      </trkpt>
      <trkpt lat="50.43929" lon="3.14844">
        <ele>38</ele>
        <time>2012-02-19T07:30:10Z</time>
      </trkpt>
      <trkpt lat="50.43927" lon="3.14827">
        <ele>38</ele>
        <time>2012-02-19T07:30:12Z</time>
      </trkpt>
      <trkpt lat="50.43924" lon="3.14807">
        <ele>38</ele>
        <time>2012-02-19T07:30:14Z</time>
      </trkpt>
      <trkpt lat="50.4392" lon="3.14789">
        <ele>38</ele>
        <time>2012-02-19T07:30:16Z</time>
      </trkpt>
      <trkpt lat="50.43919" lon="3.14772">
        <ele>38</ele>
        <time>2012-02-19T07:30:18Z</time>
      </trkpt>
      <trkpt lat="50.43917" lon="3.14755">
        <ele>38</ele>
        <time>2012-02-19T07:30:20Z</time>
      </trkpt>
      <trkpt lat="50.43916" lon="3.14739">
        <ele>38</ele>
        <time>2012-02-19T07:30:22Z</time>
      </trkpt>
      <trkpt lat="50.43914" lon="3.14722">
        <ele>38</ele>
        <time>2012-02-19T07:30:24Z</time>
      </trkpt>
      <trkpt lat="50.43912" lon="3.14705">
        <ele>38</ele>
        <time>2012-02-19T07:30:26Z</time>
      </trkpt>
      <trkpt lat="50.43911" lon="3.14689">
        <ele>38</ele>
        <time>2012-02-19T07:30:28Z</time>
      </trkpt>
      <trkpt lat="50.43911" lon="3.14672">
        <ele>38</ele>
        <time>2012-02-19T07:30:30Z</time>
      </trkpt>
      <trkpt lat="50.4391" lon="3.14657">
        <ele>38</ele>
        <time>2012-02-19T07:30:32Z</time>
      </trkpt>
      <trkpt lat="50.43908" lon="3.14642">
        <ele>38</ele>
        <time>2012-02-19T07:30:34Z</time>
      </trkpt>
      <trkpt lat="50.43908" lon="3.14622">
        <ele>38</ele>
        <time>2012-02-19T07:30:37Z</time>
      </trkpt>
      <trkpt lat="50.43907" lon="3.14604">
        <ele>38</ele>
        <time>2012-02-19T07:30:40Z</time>
      </trkpt>
      <trkpt lat="50.43906" lon="3.14589">
        <ele>38</ele>
        <time>2012-02-19T07:30:42Z</time>
      </trkpt>
      <trkpt lat="50.43906" lon="3.14575">
        <ele>38</ele>
        <time>2012-02-19T07:30:44Z</time>
      </trkpt>
      <trkpt lat="50.43905" lon="3.1456">
        <ele>38</ele>
        <time>2012-02-19T07:30:46Z</time>
      </trkpt>
      <trkpt lat="50.43905" lon="3.14545">
        <ele>38</ele>
        <time>2012-02-19T07:30:48Z</time>
      </trkpt>
      <trkpt lat="50.43906" lon="3.1453">
        <ele>38</ele>
        <time>2012-02-19T07:30:50Z</time>
      </trkpt>
      <trkpt lat="50.43906" lon="3.14515">
        <ele>38</ele>
        <time>2012-02-19T07:30:52Z</time>
      </trkpt>
      <trkpt lat="50.43904" lon="3.145">
        <ele>38</ele>
        <time>2012-02-19T07:30:54Z</time>
      </trkpt>
      <trkpt lat="50.43904" lon="3.14486">
        <ele>38</ele>
        <time>2012-02-19T07:30:56Z</time>
      </trkpt>
      <trkpt lat="50.43904" lon="3.14466">
        <ele>38</ele>
        <time>2012-02-19T07:30:59Z</time>
      </trkpt>
      <trkpt lat="50.43904" lon="3.14446">
        <ele>38</ele>
        <time>2012-02-19T07:31:02Z</time>
      </trkpt>
      <trkpt lat="50.43903" lon="3.14431">
        <ele>38</ele>
        <time>2012-02-19T07:31:05Z</time>
      </trkpt>
      <trkpt lat="50.43892" lon="3.14426">
        <ele>38</ele>
        <time>2012-02-19T07:31:09Z</time>
      </trkpt>
      <trkpt lat="50.43881" lon="3.14427">
        <ele>38</ele>
        <time>2012-02-19T07:31:12Z</time>
      </trkpt>
      <trkpt lat="50.4387" lon="3.14427">
        <ele>38</ele>
        <time>2012-02-19T07:31:15Z</time>
      </trkpt>
      <trkpt lat="50.43858" lon="3.14427">
        <ele>38</ele>
        <time>2012-02-19T07:31:18Z</time>
      </trkpt>
      <trkpt lat="50.43847" lon="3.14427">
        <ele>38</ele>
        <time>2012-02-19T07:31:21Z</time>
      </trkpt>
      <trkpt lat="50.43837" lon="3.14428">
        <ele>38</ele>
        <time>2012-02-19T07:31:24Z</time>
      </trkpt>
      <trkpt lat="50.43826" lon="3.14429">
        <ele>38</ele>
        <time>2012-02-19T07:31:27Z</time>
      </trkpt>
      <trkpt lat="50.43814" lon="3.14432">
        <ele>38</ele>
        <time>2012-02-19T07:31:30Z</time>
      </trkpt>
      <trkpt lat="50.43802" lon="3.14435">
        <ele>38</ele>
        <time>2012-02-19T07:31:33Z</time>
      </trkpt>
      <trkpt lat="50.4379" lon="3.14437">
        <ele>38</ele>
        <time>2012-02-19T07:31:36Z</time>
      </trkpt>
      <trkpt lat="50.43778" lon="3.1444">
        <ele>43</ele>
        <time>2012-02-19T07:31:39Z</time>
      </trkpt>
      <trkpt lat="50.43766" lon="3.14444">
        <ele>43</ele>
        <time>2012-02-19T07:31:42Z</time>
      </trkpt>
      <trkpt lat="50.43753" lon="3.14447">
        <ele>43</ele>
        <time>2012-02-19T07:31:45Z</time>
      </trkpt>
      <trkpt lat="50.43742" lon="3.14451">
        <ele>43</ele>
        <time>2012-02-19T07:31:48Z</time>
      </trkpt>
      <trkpt lat="50.4373" lon="3.14455">
        <ele>43</ele>
        <time>2012-02-19T07:31:51Z</time>
      </trkpt>
      <trkpt lat="50.43717" lon="3.14458">
        <ele>43</ele>
        <time>2012-02-19T07:31:54Z</time>
      </trkpt>
      <trkpt lat="50.43706" lon="3.14463">
        <ele>43</ele>
        <time>2012-02-19T07:31:57Z</time>
      </trkpt>
      <trkpt lat="50.43695" lon="3.14466">
        <ele>43</ele>
        <time>2012-02-19T07:32:00Z</time>
      </trkpt>
      <trkpt lat="50.43683" lon="3.14468">
        <ele>43</ele>
        <time>2012-02-19T07:32:03Z</time>
      </trkpt>
      <trkpt lat="50.43674" lon="3.14465">
        <ele>43</ele>
        <time>2012-02-19T07:32:06Z</time>
      </trkpt>
      <trkpt lat="50.43672" lon="3.14452">
        <ele>43</ele>
        <time>2012-02-19T07:32:10Z</time>
      </trkpt>
      <trkpt lat="50.43665" lon="3.1444">
        <ele>43</ele>
        <time>2012-02-19T07:32:14Z</time>
      </trkpt>
      <trkpt lat="50.43655" lon="3.14437">
        <ele>43</ele>
        <time>2012-02-19T07:32:17Z</time>
      </trkpt>
      <trkpt lat="50.43644" lon="3.14438">
        <ele>43</ele>
        <time>2012-02-19T07:32:20Z</time>
      </trkpt>
      <trkpt lat="50.43634" lon="3.1444">
        <ele>43</ele>
        <time>2012-02-19T07:32:23Z</time>
      </trkpt>
      <trkpt lat="50.43623" lon="3.14442">
        <ele>43</ele>
        <time>2012-02-19T07:32:26Z</time>
      </trkpt>
      <trkpt lat="50.43612" lon="3.14445">
        <ele>43</ele>
        <time>2012-02-19T07:32:29Z</time>
      </trkpt>
      <trkpt lat="50.43601" lon="3.14446">
        <ele>43</ele>
        <time>2012-02-19T07:32:32Z</time>
      </trkpt>
      <trkpt lat="50.43589" lon="3.14451">
        <ele>43</ele>
        <time>2012-02-19T07:32:35Z</time>
      </trkpt>
      <trkpt lat="50.43578" lon="3.14454">
        <ele>43</ele>
        <time>2012-02-19T07:32:38Z</time>
      </trkpt>
      <trkpt lat="50.43566" lon="3.14457">
        <ele>43</ele>
        <time>2012-02-19T07:32:41Z</time>
      </trkpt>
      <trkpt lat="50.43554" lon="3.1446">
        <ele>43</ele>
        <time>2012-02-19T07:32:44Z</time>
      </trkpt>
      <trkpt lat="50.43545" lon="3.14462">
        <ele>43</ele>
        <time>2012-02-19T07:32:46Z</time>
      </trkpt>
      <trkpt lat="50.43532" lon="3.14465">
        <ele>43</ele>
        <time>2012-02-19T07:32:49Z</time>
      </trkpt>
      <trkpt lat="50.43519" lon="3.14468">
        <ele>43</ele>
        <time>2012-02-19T07:32:52Z</time>
      </trkpt>
      <trkpt lat="50.43506" lon="3.14466">
        <ele>43</ele>
        <time>2012-02-19T07:32:55Z</time>
      </trkpt>
      <trkpt lat="50.43494" lon="3.14457">
        <ele>43</ele>
        <time>2012-02-19T07:32:58Z</time>
      </trkpt>
      <trkpt lat="50.43484" lon="3.14445">
        <ele>43</ele>
        <time>2012-02-19T07:33:01Z</time>
      </trkpt>
      <trkpt lat="50.43475" lon="3.14432">
        <ele>43</ele>
        <time>2012-02-19T07:33:04Z</time>
      </trkpt>
      <trkpt lat="50.43465" lon="3.14418">
        <ele>43</ele>
        <time>2012-02-19T07:33:07Z</time>
      </trkpt>
      <trkpt lat="50.43456" lon="3.14406">
        <ele>43</ele>
        <time>2012-02-19T07:33:10Z</time>
      </trkpt>
      <trkpt lat="50.43447" lon="3.14392">
        <ele>43</ele>
        <time>2012-02-19T07:33:13Z</time>
      </trkpt>
      <trkpt lat="50.43436" lon="3.14384">
        <ele>43</ele>
        <time>2012-02-19T07:33:16Z</time>
      </trkpt>
      <trkpt lat="50.43423" lon="3.14382">
        <ele>43</ele>
        <time>2012-02-19T07:33:19Z</time>
      </trkpt>
      <trkpt lat="50.4341" lon="3.14385">
        <ele>43</ele>
        <time>2012-02-19T07:33:22Z</time>
      </trkpt>
      <trkpt lat="50.43401" lon="3.14389">
        <ele>43</ele>
        <time>2012-02-19T07:33:24Z</time>
      </trkpt>
      <trkpt lat="50.43392" lon="3.14392">
        <ele>43</ele>
        <time>2012-02-19T07:33:26Z</time>
      </trkpt>
      <trkpt lat="50.43383" lon="3.14396">
        <ele>43</ele>
        <time>2012-02-19T07:33:28Z</time>
      </trkpt>
      <trkpt lat="50.43374" lon="3.144">
        <ele>43</ele>
        <time>2012-02-19T07:33:30Z</time>
      </trkpt>
      <trkpt lat="50.43365" lon="3.14404">
        <ele>43</ele>
        <time>2012-02-19T07:33:32Z</time>
      </trkpt>
      <trkpt lat="50.43356" lon="3.14408">
        <ele>43</ele>
        <time>2012-02-19T07:33:34Z</time>
      </trkpt>
      <trkpt lat="50.43347" lon="3.14411">
        <ele>43</ele>
        <time>2012-02-19T07:33:36Z</time>
      </trkpt>
      <trkpt lat="50.43338" lon="3.14415">
        <ele>43</ele>
        <time>2012-02-19T07:33:38Z</time>
      </trkpt>
      <trkpt lat="50.43328" lon="3.14419">
        <ele>43</ele>
        <time>2012-02-19T07:33:40Z</time>
      </trkpt>
      <trkpt lat="50.43319" lon="3.14423">
        <ele>43</ele>
        <time>2012-02-19T07:33:42Z</time>
      </trkpt>
      <trkpt lat="50.43308" lon="3.14427">
        <ele>43</ele>
        <time>2012-02-19T07:33:44Z</time>
      </trkpt>
      <trkpt lat="50.43298" lon="3.14431">
        <ele>43</ele>
        <time>2012-02-19T07:33:46Z</time>
      </trkpt>
      <trkpt lat="50.43288" lon="3.14436">
        <ele>43</ele>
        <time>2012-02-19T07:33:48Z</time>
      </trkpt>
      <trkpt lat="50.43276" lon="3.1444">
        <ele>43</ele>
        <time>2012-02-19T07:33:50Z</time>
      </trkpt>
      <trkpt lat="50.43265" lon="3.14445">
        <ele>43</ele>
        <time>2012-02-19T07:33:52Z</time>
      </trkpt>
      <trkpt lat="50.43253" lon="3.1445">
        <ele>43</ele>
        <time>2012-02-19T07:33:54Z</time>
      </trkpt>
      <trkpt lat="50.43241" lon="3.14455">
        <ele>43</ele>
        <time>2012-02-19T07:33:56Z</time>
      </trkpt>
      <trkpt lat="50.4323" lon="3.1446">
        <ele>43</ele>
        <time>2012-02-19T07:33:58Z</time>
      </trkpt>
      <trkpt lat="50.43218" lon="3.14464">
        <ele>43</ele>
        <time>2012-02-19T07:34:00Z</time>
      </trkpt>
      <trkpt lat="50.43207" lon="3.1447">
        <ele>43</ele>
        <time>2012-02-19T07:34:02Z</time>
      </trkpt>
      <trkpt lat="50.43196" lon="3.14475">
        <ele>43</ele>
        <time>2012-02-19T07:34:04Z</time>
      </trkpt>
      <trkpt lat="50.43184" lon="3.1448">
        <ele>43</ele>
        <time>2012-02-19T07:34:06Z</time>
      </trkpt>
      <trkpt lat="50.43172" lon="3.14486">
        <ele>43</ele>
        <time>2012-02-19T07:34:08Z</time>
      </trkpt>
      <trkpt lat="50.43159" lon="3.14491">
        <ele>43</ele>
        <time>2012-02-19T07:34:10Z</time>
      </trkpt>
      <trkpt lat="50.43146" lon="3.14497">
        <ele>43</ele>
        <time>2012-02-19T07:34:12Z</time>
      </trkpt>
      <trkpt lat="50.43133" lon="3.14503">
        <ele>43</ele>
        <time>2012-02-19T07:34:14Z</time>
      </trkpt>
      <trkpt lat="50.4312" lon="3.14508">
        <ele>43</ele>
        <time>2012-02-19T07:34:16Z</time>
      </trkpt>
      <trkpt lat="50.43107" lon="3.14515">
        <ele>43</ele>
        <time>2012-02-19T07:34:18Z</time>
      </trkpt>
      <trkpt lat="50.43094" lon="3.14521">
        <ele>43</ele>
        <time>2012-02-19T07:34:20Z</time>
      </trkpt>
      <trkpt lat="50.43081" lon="3.14526">
        <ele>43</ele>
        <time>2012-02-19T07:34:22Z</time>
      </trkpt>
      <trkpt lat="50.43068" lon="3.14532">
        <ele>43</ele>
        <time>2012-02-19T07:34:24Z</time>
      </trkpt>
      <trkpt lat="50.43055" lon="3.14537">
        <ele>43</ele>
        <time>2012-02-19T07:34:26Z</time>
      </trkpt>
      <trkpt lat="50.43042" lon="3.14542">
        <ele>43</ele>
        <time>2012-02-19T07:34:28Z</time>
      </trkpt>
      <trkpt lat="50.43029" lon="3.14549">
        <ele>43</ele>
        <time>2012-02-19T07:34:30Z</time>
      </trkpt>
      <trkpt lat="50.43016" lon="3.14554">
        <ele>43</ele>
        <time>2012-02-19T07:34:32Z</time>
      </trkpt>
      <trkpt lat="50.43002" lon="3.1456">
        <ele>43</ele>
        <time>2012-02-19T07:34:34Z</time>
      </trkpt>
      <trkpt lat="50.4299" lon="3.14568">
        <ele>43</ele>
        <time>2012-02-19T07:34:36Z</time>
      </trkpt>
      <trkpt lat="50.42977" lon="3.14573">
        <ele>43</ele>
        <time>2012-02-19T07:34:38Z</time>
      </trkpt>
      <trkpt lat="50.42964" lon="3.14579">
        <ele>43</ele>
        <time>2012-02-19T07:34:40Z</time>
      </trkpt>
      <trkpt lat="50.4295" lon="3.14586">
        <ele>43</ele>
        <time>2012-02-19T07:34:42Z</time>
      </trkpt>
      <trkpt lat="50.42936" lon="3.14593">
        <ele>43</ele>
        <time>2012-02-19T07:34:44Z</time>
      </trkpt>
      <trkpt lat="50.42923" lon="3.14604">
        <ele>43</ele>
        <time>2012-02-19T07:34:46Z</time>
      </trkpt>
      <trkpt lat="50.42912" lon="3.14618">
        <ele>38</ele>
        <time>2012-02-19T07:34:48Z</time>
      </trkpt>
      <trkpt lat="50.42903" lon="3.14635">
        <ele>38</ele>
        <time>2012-02-19T07:34:50Z</time>
      </trkpt>
      <trkpt lat="50.42895" lon="3.1465">
        <ele>38</ele>
        <time>2012-02-19T07:34:52Z</time>
      </trkpt>
      <trkpt lat="50.42888" lon="3.14667">
        <ele>38</ele>
        <time>2012-02-19T07:34:54Z</time>
      </trkpt>
      <trkpt lat="50.42882" lon="3.14685">
        <ele>38</ele>
        <time>2012-02-19T07:34:56Z</time>
      </trkpt>
      <trkpt lat="50.42876" lon="3.14703">
        <ele>38</ele>
        <time>2012-02-19T07:34:58Z</time>
      </trkpt>
      <trkpt lat="50.42871" lon="3.14723">
        <ele>38</ele>
        <time>2012-02-19T07:35:00Z</time>
      </trkpt>
      <trkpt lat="50.42867" lon="3.14743">
        <ele>38</ele>
        <time>2012-02-19T07:35:02Z</time>
      </trkpt>
      <trkpt lat="50.42865" lon="3.14763">
        <ele>38</ele>
        <time>2012-02-19T07:35:04Z</time>
      </trkpt>
      <trkpt lat="50.42865" lon="3.14784">
        <ele>38</ele>
        <time>2012-02-19T07:35:06Z</time>
      </trkpt>
      <trkpt lat="50.42866" lon="3.14805">
        <ele>38</ele>
        <time>2012-02-19T07:35:08Z</time>
      </trkpt>
      <trkpt lat="50.42868" lon="3.14825">
        <ele>38</ele>
        <time>2012-02-19T07:35:10Z</time>
      </trkpt>
      <trkpt lat="50.42868" lon="3.14844">
        <ele>38</ele>
        <time>2012-02-19T07:35:12Z</time>
      </trkpt>
      <trkpt lat="50.42869" lon="3.14863">
        <ele>38</ele>
        <time>2012-02-19T07:35:14Z</time>
      </trkpt>
      <trkpt lat="50.4287" lon="3.14882">
        <ele>38</ele>
        <time>2012-02-19T07:35:16Z</time>
      </trkpt>
      <trkpt lat="50.42872" lon="3.149">
        <ele>38</ele>
        <time>2012-02-19T07:35:18Z</time>
      </trkpt>
      <trkpt lat="50.42873" lon="3.14918">
        <ele>32</ele>
        <time>2012-02-19T07:35:20Z</time>
      </trkpt>
      <trkpt lat="50.42872" lon="3.14936">
        <ele>32</ele>
        <time>2012-02-19T07:35:22Z</time>
      </trkpt>
      <trkpt lat="50.42866" lon="3.1495">
        <ele>32</ele>
        <time>2012-02-19T07:35:24Z</time>
      </trkpt>
      <trkpt lat="50.42857" lon="3.14958">
        <ele>32</ele>
        <time>2012-02-19T07:35:26Z</time>
      </trkpt>
      <trkpt lat="50.42847" lon="3.14964">
        <ele>32</ele>
        <time>2012-02-19T07:35:28Z</time>
      </trkpt>
      <trkpt lat="50.42837" lon="3.1497">
        <ele>32</ele>
        <time>2012-02-19T07:35:30Z</time>
      </trkpt>
      <trkpt lat="50.42826" lon="3.14979">
        <ele>32</ele>
        <time>2012-02-19T07:35:32Z</time>
      </trkpt>
      <trkpt lat="50.42816" lon="3.14991">
        <ele>32</ele>
        <time>2012-02-19T07:35:34Z</time>
      </trkpt>
      <trkpt lat="50.42807" lon="3.15003">
        <ele>32</ele>
        <time>2012-02-19T07:35:36Z</time>
      </trkpt>
      <trkpt lat="50.42796" lon="3.15011">
        <ele>32</ele>
        <time>2012-02-19T07:35:38Z</time>
      </trkpt>
      <trkpt lat="50.42784" lon="3.1501">
        <ele>32</ele>
        <time>2012-02-19T07:35:40Z</time>
      </trkpt>
      <trkpt lat="50.42773" lon="3.15004">
        <ele>32</ele>
        <time>2012-02-19T07:35:42Z</time>
      </trkpt>
      <trkpt lat="50.42764" lon="3.14994">
        <ele>32</ele>
        <time>2012-02-19T07:35:44Z</time>
      </trkpt>
      <trkpt lat="50.42755" lon="3.14983">
        <ele>32</ele>
        <time>2012-02-19T07:35:46Z</time>
      </trkpt>
      <trkpt lat="50.42746" lon="3.14971">
        <ele>32</ele>
        <time>2012-02-19T07:35:48Z</time>
      </trkpt>
      <trkpt lat="50.42738" lon="3.1496">
        <ele>32</ele>
        <time>2012-02-19T07:35:50Z</time>
      </trkpt>
      <trkpt lat="50.42729" lon="3.14949">
        <ele>32</ele>
        <time>2012-02-19T07:35:52Z</time>
      </trkpt>
      <trkpt lat="50.4272" lon="3.14939">
        <ele>32</ele>
        <time>2012-02-19T07:35:54Z</time>
      </trkpt>
      <trkpt lat="50.42711" lon="3.14928">
        <ele>32</ele>
        <time>2012-02-19T07:35:56Z</time>
      </trkpt>
      <trkpt lat="50.42702" lon="3.14919">
        <ele>32</ele>
        <time>2012-02-19T07:35:58Z</time>
      </trkpt>
      <trkpt lat="50.42693" lon="3.14909">
        <ele>32</ele>
        <time>2012-02-19T07:36:00Z</time>
      </trkpt>
      <trkpt lat="50.42684" lon="3.14899">
        <ele>32</ele>
        <time>2012-02-19T07:36:02Z</time>
      </trkpt>
      <trkpt lat="50.42676" lon="3.1489">
        <ele>32</ele>
        <time>2012-02-19T07:36:04Z</time>
      </trkpt>
      <trkpt lat="50.42669" lon="3.1488">
        <ele>32</ele>
        <time>2012-02-19T07:36:06Z</time>
      </trkpt>
      <trkpt lat="50.42659" lon="3.14872">
        <ele>32</ele>
        <time>2012-02-19T07:36:09Z</time>
      </trkpt>
      <trkpt lat="50.42649" lon="3.1488">
        <ele>32</ele>
        <time>2012-02-19T07:36:13Z</time>
      </trkpt>
      <trkpt lat="50.42648" lon="3.14899">
        <ele>32</ele>
        <time>2012-02-19T07:36:16Z</time>
      </trkpt>
      <trkpt lat="50.42651" lon="3.1492">
        <ele>32</ele>
        <time>2012-02-19T07:36:19Z</time>
      </trkpt>
      <trkpt lat="50.42653" lon="3.14934">
        <ele>32</ele>
        <time>2012-02-19T07:36:21Z</time>
      </trkpt>
      <trkpt lat="50.42655" lon="3.14949">
        <ele>32</ele>
        <time>2012-02-19T07:36:23Z</time>
      </trkpt>
      <trkpt lat="50.42657" lon="3.14965">
        <ele>32</ele>
        <time>2012-02-19T07:36:25Z</time>
      </trkpt>
      <trkpt lat="50.42659" lon="3.14981">
        <ele>32</ele>
        <time>2012-02-19T07:36:27Z</time>
      </trkpt>
      <trkpt lat="50.4266" lon="3.14997">
        <ele>32</ele>
        <time>2012-02-19T07:36:29Z</time>
      </trkpt>
      <trkpt lat="50.42663" lon="3.15013">
        <ele>32</ele>
        <time>2012-02-19T07:36:31Z</time>
      </trkpt>
      <trkpt lat="50.42664" lon="3.1503">
        <ele>32</ele>
        <time>2012-02-19T07:36:33Z</time>
      </trkpt>
      <trkpt lat="50.42667" lon="3.15047">
        <ele>32</ele>
        <time>2012-02-19T07:36:35Z</time>
      </trkpt>
      <trkpt lat="50.42668" lon="3.15064">
        <ele>32</ele>
        <time>2012-02-19T07:36:37Z</time>
      </trkpt>
      <trkpt lat="50.42671" lon="3.15082">
        <ele>32</ele>
        <time>2012-02-19T07:36:39Z</time>
      </trkpt>
      <trkpt lat="50.42673" lon="3.151">
        <ele>32</ele>
        <time>2012-02-19T07:36:41Z</time>
      </trkpt>
      <trkpt lat="50.42675" lon="3.15118">
        <ele>32</ele>
        <time>2012-02-19T07:36:43Z</time>
      </trkpt>
      <trkpt lat="50.42678" lon="3.15137">
        <ele>32</ele>
        <time>2012-02-19T07:36:45Z</time>
      </trkpt>
      <trkpt lat="50.4268" lon="3.15156">
        <ele>32</ele>
        <time>2012-02-19T07:36:47Z</time>
      </trkpt>
      <trkpt lat="50.42683" lon="3.15175">
        <ele>32</ele>
        <time>2012-02-19T07:36:49Z</time>
      </trkpt>
      <trkpt lat="50.42686" lon="3.15193">
        <ele>32</ele>
        <time>2012-02-19T07:36:51Z</time>
      </trkpt>
      <trkpt lat="50.42689" lon="3.15211">
        <ele>32</ele>
        <time>2012-02-19T07:36:53Z</time>
      </trkpt>
      <trkpt lat="50.42692" lon="3.1523">
        <ele>32</ele>
        <time>2012-02-19T07:36:55Z</time>
      </trkpt>
      <trkpt lat="50.42695" lon="3.15248">
        <ele>32</ele>
        <time>2012-02-19T07:36:57Z</time>
      </trkpt>
      <trkpt lat="50.42698" lon="3.15265">
        <ele>32</ele>
        <time>2012-02-19T07:36:59Z</time>
      </trkpt>
      <trkpt lat="50.42702" lon="3.15282">
        <ele>32</ele>
        <time>2012-02-19T07:37:01Z</time>
      </trkpt>
      <trkpt lat="50.42705" lon="3.15299">
        <ele>32</ele>
        <time>2012-02-19T07:37:03Z</time>
      </trkpt>
      <trkpt lat="50.42707" lon="3.15316">
        <ele>32</ele>
        <time>2012-02-19T07:37:05Z</time>
      </trkpt>
      <trkpt lat="50.4271" lon="3.15333">
        <ele>32</ele>
        <time>2012-02-19T07:37:07Z</time>
      </trkpt>
      <trkpt lat="50.42714" lon="3.1535">
        <ele>32</ele>
        <time>2012-02-19T07:37:09Z</time>
      </trkpt>
      <trkpt lat="50.42717" lon="3.15367">
        <ele>32</ele>
        <time>2012-02-19T07:37:11Z</time>
      </trkpt>
      <trkpt lat="50.42718" lon="3.15385">
        <ele>32</ele>
        <time>2012-02-19T07:37:13Z</time>
      </trkpt>
      <trkpt lat="50.42719" lon="3.15403">
        <ele>32</ele>
        <time>2012-02-19T07:37:15Z</time>
      </trkpt>
      <trkpt lat="50.42719" lon="3.15422">
        <ele>32</ele>
        <time>2012-02-19T07:37:17Z</time>
      </trkpt>
      <trkpt lat="50.42718" lon="3.15441">
        <ele>32</ele>
        <time>2012-02-19T07:37:19Z</time>
      </trkpt>
      <trkpt lat="50.42717" lon="3.15459">
        <ele>32</ele>
        <time>2012-02-19T07:37:21Z</time>
      </trkpt>
      <trkpt lat="50.42715" lon="3.15478">
        <ele>32</ele>
        <time>2012-02-19T07:37:23Z</time>
      </trkpt>
      <trkpt lat="50.42714" lon="3.15496">
        <ele>32</ele>
        <time>2012-02-19T07:37:25Z</time>
      </trkpt>
      <trkpt lat="50.42713" lon="3.15514">
        <ele>32</ele>
        <time>2012-02-19T07:37:27Z</time>
      </trkpt>
      <trkpt lat="50.42713" lon="3.15533">
        <ele>32</ele>
        <time>2012-02-19T07:37:29Z</time>
      </trkpt>
      <trkpt lat="50.42713" lon="3.15552">
        <ele>32</ele>
        <time>2012-02-19T07:37:31Z</time>
      </trkpt>
      <trkpt lat="50.42713" lon="3.1557">
        <ele>32</ele>
        <time>2012-02-19T07:37:33Z</time>
      </trkpt>
      <trkpt lat="50.42713" lon="3.15587">
        <ele>32</ele>
        <time>2012-02-19T07:37:35Z</time>
      </trkpt>
      <trkpt lat="50.42706" lon="3.156">
        <ele>32</ele>
        <time>2012-02-19T07:37:37Z</time>
      </trkpt>
      <trkpt lat="50.42697" lon="3.15606">
        <ele>32</ele>
        <time>2012-02-19T07:37:39Z</time>
      </trkpt>
      <trkpt lat="50.42685" lon="3.15613">
        <ele>32</ele>
        <time>2012-02-19T07:37:41Z</time>
      </trkpt>
      <trkpt lat="50.42674" lon="3.15621">
        <ele>32</ele>
        <time>2012-02-19T07:37:43Z</time>
      </trkpt>
      <trkpt lat="50.42662" lon="3.1563">
        <ele>32</ele>
        <time>2012-02-19T07:37:45Z</time>
      </trkpt>
      <trkpt lat="50.42649" lon="3.15639">
        <ele>32</ele>
        <time>2012-02-19T07:37:47Z</time>
      </trkpt>
      <trkpt lat="50.42636" lon="3.15648">
        <ele>32</ele>
        <time>2012-02-19T07:37:49Z</time>
      </trkpt>
      <trkpt lat="50.42623" lon="3.15658">
        <ele>32</ele>
        <time>2012-02-19T07:37:51Z</time>
      </trkpt>
      <trkpt lat="50.4261" lon="3.15668">
        <ele>32</ele>
        <time>2012-02-19T07:37:53Z</time>
      </trkpt>
      <trkpt lat="50.42597" lon="3.15678">
        <ele>32</ele>
        <time>2012-02-19T07:37:55Z</time>
      </trkpt>
      <trkpt lat="50.42585" lon="3.15687">
        <ele>32</ele>
        <time>2012-02-19T07:37:57Z</time>
      </trkpt>
      <trkpt lat="50.42571" lon="3.15696">
        <ele>32</ele>
        <time>2012-02-19T07:37:59Z</time>
      </trkpt>
      <trkpt lat="50.42559" lon="3.15705">
        <ele>32</ele>
        <time>2012-02-19T07:38:01Z</time>
      </trkpt>
      <trkpt lat="50.42547" lon="3.15714">
        <ele>32</ele>
        <time>2012-02-19T07:38:03Z</time>
      </trkpt>
      <trkpt lat="50.42534" lon="3.15724">
        <ele>32</ele>
        <time>2012-02-19T07:38:05Z</time>
      </trkpt>
      <trkpt lat="50.42521" lon="3.15734">
        <ele>32</ele>
        <time>2012-02-19T07:38:07Z</time>
      </trkpt>
      <trkpt lat="50.42508" lon="3.15743">
        <ele>32</ele>
        <time>2012-02-19T07:38:09Z</time>
      </trkpt>
      <trkpt lat="50.42495" lon="3.15753">
        <ele>32</ele>
        <time>2012-02-19T07:38:11Z</time>
      </trkpt>
      <trkpt lat="50.42481" lon="3.15764">
        <ele>32</ele>
        <time>2012-02-19T07:38:13Z</time>
      </trkpt>
      <trkpt lat="50.42468" lon="3.15774">
        <ele>32</ele>
        <time>2012-02-19T07:38:15Z</time>
      </trkpt>
      <trkpt lat="50.42455" lon="3.15784">
        <ele>32</ele>
        <time>2012-02-19T07:38:17Z</time>
      </trkpt>
      <trkpt lat="50.42442" lon="3.15794">
        <ele>32</ele>
        <time>2012-02-19T07:38:19Z</time>
      </trkpt>
      <trkpt lat="50.42429" lon="3.15803">
        <ele>32</ele>
        <time>2012-02-19T07:38:21Z</time>
      </trkpt>
      <trkpt lat="50.42416" lon="3.15813">
        <ele>32</ele>
        <time>2012-02-19T07:38:23Z</time>
      </trkpt>
      <trkpt lat="50.42403" lon="3.15822">
        <ele>32</ele>
        <time>2012-02-19T07:38:25Z</time>
      </trkpt>
      <trkpt lat="50.4239" lon="3.15832">
        <ele>32</ele>
        <time>2012-02-19T07:38:27Z</time>
      </trkpt>
      <trkpt lat="50.42377" lon="3.15841">
        <ele>32</ele>
        <time>2012-02-19T07:38:29Z</time>
      </trkpt>
      <trkpt lat="50.42365" lon="3.1585">
        <ele>32</ele>
        <time>2012-02-19T07:38:31Z</time>
      </trkpt>
      <trkpt lat="50.42352" lon="3.1586">
        <ele>32</ele>
        <time>2012-02-19T07:38:33Z</time>
      </trkpt>
      <trkpt lat="50.42339" lon="3.15871">
        <ele>32</ele>
        <time>2012-02-19T07:38:35Z</time>
      </trkpt>
      <trkpt lat="50.42326" lon="3.15881">
        <ele>32</ele>
        <time>2012-02-19T07:38:37Z</time>
      </trkpt>
      <trkpt lat="50.42313" lon="3.15891">
        <ele>32</ele>
        <time>2012-02-19T07:38:39Z</time>
      </trkpt>
      <trkpt lat="50.423" lon="3.15901">
        <ele>32</ele>
        <time>2012-02-19T07:38:41Z</time>
      </trkpt>
      <trkpt lat="50.42289" lon="3.15909">
        <ele>32</ele>
        <time>2012-02-19T07:38:43Z</time>
      </trkpt>
      <trkpt lat="50.42278" lon="3.15918">
        <ele>32</ele>
        <time>2012-02-19T07:38:45Z</time>
      </trkpt>
      <trkpt lat="50.42266" lon="3.15926">
        <ele>32</ele>
        <time>2012-02-19T07:38:47Z</time>
      </trkpt>
      <trkpt lat="50.42254" lon="3.15935">
        <ele>32</ele>
        <time>2012-02-19T07:38:49Z</time>
      </trkpt>
      <trkpt lat="50.42243" lon="3.15944">
        <ele>32</ele>
        <time>2012-02-19T07:38:51Z</time>
      </trkpt>
      <trkpt lat="50.42231" lon="3.15953">
        <ele>32</ele>
        <time>2012-02-19T07:38:53Z</time>
      </trkpt>
      <trkpt lat="50.42219" lon="3.15962">
        <ele>32</ele>
        <time>2012-02-19T07:38:55Z</time>
      </trkpt>
      <trkpt lat="50.42206" lon="3.15971">
        <ele>32</ele>
        <time>2012-02-19T07:38:57Z</time>
      </trkpt>
      <trkpt lat="50.42194" lon="3.1598">
        <ele>32</ele>
        <time>2012-02-19T07:38:59Z</time>
      </trkpt>
      <trkpt lat="50.42182" lon="3.15989">
        <ele>32</ele>
        <time>2012-02-19T07:39:01Z</time>
      </trkpt>
      <trkpt lat="50.4217" lon="3.15998">
        <ele>32</ele>
        <time>2012-02-19T07:39:03Z</time>
      </trkpt>
      <trkpt lat="50.42157" lon="3.16008">
        <ele>32</ele>
        <time>2012-02-19T07:39:05Z</time>
      </trkpt>
      <trkpt lat="50.42144" lon="3.16017">
        <ele>32</ele>
        <time>2012-02-19T07:39:07Z</time>
      </trkpt>
      <trkpt lat="50.42131" lon="3.16026">
        <ele>32</ele>
        <time>2012-02-19T07:39:09Z</time>
      </trkpt>
      <trkpt lat="50.42119" lon="3.16035">
        <ele>32</ele>
        <time>2012-02-19T07:39:11Z</time>
      </trkpt>
      <trkpt lat="50.42106" lon="3.16045">
        <ele>32</ele>
        <time>2012-02-19T07:39:13Z</time>
      </trkpt>
      <trkpt lat="50.42093" lon="3.16055">
        <ele>32</ele>
        <time>2012-02-19T07:39:15Z</time>
      </trkpt>
      <trkpt lat="50.4208" lon="3.16065">
        <ele>32</ele>
        <time>2012-02-19T07:39:17Z</time>
      </trkpt>
      <trkpt lat="50.42067" lon="3.16075">
        <ele>32</ele>
        <time>2012-02-19T07:39:19Z</time>
      </trkpt>
      <trkpt lat="50.42054" lon="3.16085">
        <ele>32</ele>
        <time>2012-02-19T07:39:21Z</time>
      </trkpt>
      <trkpt lat="50.42041" lon="3.16095">
        <ele>32</ele>
        <time>2012-02-19T07:39:23Z</time>
      </trkpt>
      <trkpt lat="50.42027" lon="3.16105">
        <ele>32</ele>
        <time>2012-02-19T07:39:25Z</time>
      </trkpt>
      <trkpt lat="50.42014" lon="3.16115">
        <ele>32</ele>
        <time>2012-02-19T07:39:27Z</time>
      </trkpt>
      <trkpt lat="50.41999" lon="3.16125">
        <ele>27</ele>
        <time>2012-02-19T07:39:29Z</time>
      </trkpt>
      <trkpt lat="50.41986" lon="3.16136">
        <ele>27</ele>
        <time>2012-02-19T07:39:31Z</time>
      </trkpt>
      <trkpt lat="50.41972" lon="3.16146">
        <ele>27</ele>
        <time>2012-02-19T07:39:33Z</time>
      </trkpt>
      <trkpt lat="50.41958" lon="3.16157">
        <ele>27</ele>
        <time>2012-02-19T07:39:35Z</time>
      </trkpt>
      <trkpt lat="50.41944" lon="3.16167">
        <ele>27</ele>
        <time>2012-02-19T07:39:37Z</time>
      </trkpt>
      <trkpt lat="50.4193" lon="3.16177">
        <ele>27</ele>
        <time>2012-02-19T07:39:39Z</time>
      </trkpt>
      <trkpt lat="50.41917" lon="3.16187">
        <ele>27</ele>
        <time>2012-02-19T07:39:41Z</time>
      </trkpt>
      <trkpt lat="50.41902" lon="3.16198">
        <ele>27</ele>
        <time>2012-02-19T07:39:43Z</time>
      </trkpt>
      <trkpt lat="50.41888" lon="3.16209">
        <ele>27</ele>
        <time>2012-02-19T07:39:45Z</time>
      </trkpt>
      <trkpt lat="50.41874" lon="3.16219">
        <ele>27</ele>
        <time>2012-02-19T07:39:47Z</time>
      </trkpt>
      <trkpt lat="50.4186" lon="3.16229">
        <ele>27</ele>
        <time>2012-02-19T07:39:49Z</time>
      </trkpt>
      <trkpt lat="50.41847" lon="3.16239">
        <ele>27</ele>
        <time>2012-02-19T07:39:51Z</time>
      </trkpt>
      <trkpt lat="50.41834" lon="3.16249">
        <ele>27</ele>
        <time>2012-02-19T07:39:53Z</time>
      </trkpt>
      <trkpt lat="50.41822" lon="3.16258">
        <ele>27</ele>
        <time>2012-02-19T07:39:55Z</time>
      </trkpt>
      <trkpt lat="50.4181" lon="3.16268">
        <ele>27</ele>
        <time>2012-02-19T07:39:57Z</time>
      </trkpt>
      <trkpt lat="50.41798" lon="3.16276">
        <ele>27</ele>
        <time>2012-02-19T07:39:59Z</time>
      </trkpt>
      <trkpt lat="50.41787" lon="3.16284">
        <ele>27</ele>
        <time>2012-02-19T07:40:01Z</time>
      </trkpt>
      <trkpt lat="50.41775" lon="3.16292">
        <ele>27</ele>
        <time>2012-02-19T07:40:03Z</time>
      </trkpt>
      <trkpt lat="50.41764" lon="3.163">
        <ele>27</ele>
        <time>2012-02-19T07:40:05Z</time>
      </trkpt>
      <trkpt lat="50.41753" lon="3.16309">
        <ele>27</ele>
        <time>2012-02-19T07:40:07Z</time>
      </trkpt>
      <trkpt lat="50.41743" lon="3.16317">
        <ele>27</ele>
        <time>2012-02-19T07:40:09Z</time>
      </trkpt>
      <trkpt lat="50.41733" lon="3.16324">
        <ele>27</ele>
        <time>2012-02-19T07:40:11Z</time>
      </trkpt>
      <trkpt lat="50.41723" lon="3.1633">
        <ele>27</ele>
        <time>2012-02-19T07:40:13Z</time>
      </trkpt>
      <trkpt lat="50.41713" lon="3.16337">
        <ele>27</ele>
        <time>2012-02-19T07:40:15Z</time>
      </trkpt>
      <trkpt lat="50.41705" lon="3.16344">
        <ele>27</ele>
        <time>2012-02-19T07:40:17Z</time>
      </trkpt>
      <trkpt lat="50.41693" lon="3.16353">
        <ele>27</ele>
        <time>2012-02-19T07:40:20Z</time>
      </trkpt>
      <trkpt lat="50.41683" lon="3.16362">
        <ele>27</ele>
        <time>2012-02-19T07:40:23Z</time>
      </trkpt>
      <trkpt lat="50.41674" lon="3.16357">
        <ele>27</ele>
        <time>2012-02-19T07:40:27Z</time>
      </trkpt>
      <trkpt lat="50.41673" lon="3.1634">
        <ele>27</ele>
        <time>2012-02-19T07:40:30Z</time>
      </trkpt>
      <trkpt lat="50.41674" lon="3.16319">
        <ele>27</ele>
        <time>2012-02-19T07:40:33Z</time>
      </trkpt>
      <trkpt lat="50.41675" lon="3.16304">
        <ele>27</ele>
        <time>2012-02-19T07:40:35Z</time>
      </trkpt>
      <trkpt lat="50.41675" lon="3.16289">
        <ele>27</ele>
        <time>2012-02-19T07:40:37Z</time>
      </trkpt>
      <trkpt lat="50.41675" lon="3.16273">
        <ele>27</ele>
        <time>2012-02-19T07:40:39Z</time>
      </trkpt>
      <trkpt lat="50.41676" lon="3.16257">
        <ele>27</ele>
        <time>2012-02-19T07:40:41Z</time>
      </trkpt>
      <trkpt lat="50.41676" lon="3.1624">
        <ele>27</ele>
        <time>2012-02-19T07:40:43Z</time>
      </trkpt>
      <trkpt lat="50.41676" lon="3.16223">
        <ele>27</ele>
        <time>2012-02-19T07:40:45Z</time>
      </trkpt>
      <trkpt lat="50.41677" lon="3.16205">
        <ele>27</ele>
        <time>2012-02-19T07:40:47Z</time>
      </trkpt>
      <trkpt lat="50.41677" lon="3.16186">
        <ele>27</ele>
        <time>2012-02-19T07:40:49Z</time>
      </trkpt>
      <trkpt lat="50.41676" lon="3.16168">
        <ele>27</ele>
        <time>2012-02-19T07:40:51Z</time>
      </trkpt>
      <trkpt lat="50.41676" lon="3.16149">
        <ele>27</ele>
        <time>2012-02-19T07:40:53Z</time>
      </trkpt>
      <trkpt lat="50.41677" lon="3.1613">
        <ele>27</ele>
        <time>2012-02-19T07:40:55Z</time>
      </trkpt>
      <trkpt lat="50.41678" lon="3.16111">
        <ele>27</ele>
        <time>2012-02-19T07:40:57Z</time>
      </trkpt>
      <trkpt lat="50.41678" lon="3.16093">
        <ele>27</ele>
        <time>2012-02-19T07:40:59Z</time>
      </trkpt>
      <trkpt lat="50.4168" lon="3.16076">
        <ele>27</ele>
        <time>2012-02-19T07:41:01Z</time>
      </trkpt>
      <trkpt lat="50.4168" lon="3.16062">
        <ele>27</ele>
        <time>2012-02-19T07:41:03Z</time>
      </trkpt>
      <trkpt lat="50.41679" lon="3.16041">
        <ele>22</ele>
        <time>2012-02-19T07:41:06Z</time>
      </trkpt>
      <trkpt lat="50.41677" lon="3.16019">
        <ele>22</ele>
        <time>2012-02-19T07:41:09Z</time>
      </trkpt>
      <trkpt lat="50.41675" lon="3.16005">
        <ele>22</ele>
        <time>2012-02-19T07:41:11Z</time>
      </trkpt>
      <trkpt lat="50.41673" lon="3.1599">
        <ele>22</ele>
        <time>2012-02-19T07:41:13Z</time>
      </trkpt>
      <trkpt lat="50.41671" lon="3.15975">
        <ele>22</ele>
        <time>2012-02-19T07:41:15Z</time>
      </trkpt>
      <trkpt lat="50.41669" lon="3.1596">
        <ele>22</ele>
        <time>2012-02-19T07:41:17Z</time>
      </trkpt>
      <trkpt lat="50.41666" lon="3.15946">
        <ele>22</ele>
        <time>2012-02-19T07:41:19Z</time>
      </trkpt>
      <trkpt lat="50.41663" lon="3.15931">
        <ele>22</ele>
        <time>2012-02-19T07:41:21Z</time>
      </trkpt>
      <trkpt lat="50.4166" lon="3.15918">
        <ele>22</ele>
        <time>2012-02-19T07:41:23Z</time>
      </trkpt>
      <trkpt lat="50.41657" lon="3.15904">
        <ele>22</ele>
        <time>2012-02-19T07:41:25Z</time>
      </trkpt>
      <trkpt lat="50.41654" lon="3.15885">
        <ele>22</ele>
        <time>2012-02-19T07:41:28Z</time>
      </trkpt>
      <trkpt lat="50.41653" lon="3.15865">
        <ele>22</ele>
        <time>2012-02-19T07:41:31Z</time>
      </trkpt>
      <trkpt lat="50.4165" lon="3.15845">
        <ele>22</ele>
        <time>2012-02-19T07:41:34Z</time>
      </trkpt>
      <trkpt lat="50.41648" lon="3.15825">
        <ele>22</ele>
        <time>2012-02-19T07:41:37Z</time>
      </trkpt>
      <trkpt lat="50.41645" lon="3.15805">
        <ele>22</ele>
        <time>2012-02-19T07:41:40Z</time>
      </trkpt>
      <trkpt lat="50.41642" lon="3.15787">
        <ele>22</ele>
        <time>2012-02-19T07:41:43Z</time>
      </trkpt>
      <trkpt lat="50.41639" lon="3.15768">
        <ele>22</ele>
        <time>2012-02-19T07:41:46Z</time>
      </trkpt>
      <trkpt lat="50.41635" lon="3.15748">
        <ele>22</ele>
        <time>2012-02-19T07:41:49Z</time>
      </trkpt>
      <trkpt lat="50.41633" lon="3.15728">
        <ele>22</ele>
        <time>2012-02-19T07:41:52Z</time>
      </trkpt>
      <trkpt lat="50.4163" lon="3.15708">
        <ele>22</ele>
        <time>2012-02-19T07:41:55Z</time>
      </trkpt>
      <trkpt lat="50.41627" lon="3.15689">
        <ele>22</ele>
        <time>2012-02-19T07:41:58Z</time>
      </trkpt>
      <trkpt lat="50.41624" lon="3.15669">
        <ele>22</ele>
        <time>2012-02-19T07:42:01Z</time>
      </trkpt>
      <trkpt lat="50.4162" lon="3.15649">
        <ele>22</ele>
        <time>2012-02-19T07:42:04Z</time>
      </trkpt>
      <trkpt lat="50.41618" lon="3.15635">
        <ele>22</ele>
        <time>2012-02-19T07:42:06Z</time>
      </trkpt>
      <trkpt lat="50.41615" lon="3.1562">
        <ele>22</ele>
        <time>2012-02-19T07:42:08Z</time>
      </trkpt>
      <trkpt lat="50.41612" lon="3.15607">
        <ele>22</ele>
        <time>2012-02-19T07:42:10Z</time>
      </trkpt>
      <trkpt lat="50.4161" lon="3.15593">
        <ele>22</ele>
        <time>2012-02-19T07:42:12Z</time>
      </trkpt>
      <trkpt lat="50.41607" lon="3.15577">
        <ele>22</ele>
        <time>2012-02-19T07:42:14Z</time>
      </trkpt>
      <trkpt lat="50.41606" lon="3.15563">
        <ele>22</ele>
        <time>2012-02-19T07:42:16Z</time>
      </trkpt>
      <trkpt lat="50.41603" lon="3.15549">
        <ele>22</ele>
        <time>2012-02-19T07:42:18Z</time>
      </trkpt>
      <trkpt lat="50.41601" lon="3.15535">
        <ele>22</ele>
        <time>2012-02-19T07:42:20Z</time>
      </trkpt>
      <trkpt lat="50.41598" lon="3.15521">
        <ele>22</ele>
        <time>2012-02-19T07:42:22Z</time>
      </trkpt>
      <trkpt lat="50.41596" lon="3.15505">
        <ele>22</ele>
        <time>2012-02-19T07:42:24Z</time>
      </trkpt>
      <trkpt lat="50.41593" lon="3.15491">
        <ele>22</ele>
        <time>2012-02-19T07:42:26Z</time>
      </trkpt>
      <trkpt lat="50.41591" lon="3.15476">
        <ele>22</ele>
        <time>2012-02-19T07:42:28Z</time>
      </trkpt>
      <trkpt lat="50.41587" lon="3.15461">
        <ele>22</ele>
        <time>2012-02-19T07:42:30Z</time>
      </trkpt>
      <trkpt lat="50.41584" lon="3.15444">
        <ele>22</ele>
        <time>2012-02-19T07:42:32Z</time>
      </trkpt>
      <trkpt lat="50.41581" lon="3.15429">
        <ele>22</ele>
        <time>2012-02-19T07:42:34Z</time>
      </trkpt>
      <trkpt lat="50.41579" lon="3.15414">
        <ele>22</ele>
        <time>2012-02-19T07:42:36Z</time>
      </trkpt>
      <trkpt lat="50.41576" lon="3.15399">
        <ele>22</ele>
        <time>2012-02-19T07:42:38Z</time>
      </trkpt>
      <trkpt lat="50.41573" lon="3.15383">
        <ele>22</ele>
        <time>2012-02-19T07:42:40Z</time>
      </trkpt>
      <trkpt lat="50.41571" lon="3.15368">
        <ele>22</ele>
        <time>2012-02-19T07:42:42Z</time>
      </trkpt>
      <trkpt lat="50.41569" lon="3.15352">
        <ele>22</ele>
        <time>2012-02-19T07:42:44Z</time>
      </trkpt>
      <trkpt lat="50.41567" lon="3.15336">
        <ele>22</ele>
        <time>2012-02-19T07:42:46Z</time>
      </trkpt>
      <trkpt lat="50.41563" lon="3.15318">
        <ele>22</ele>
        <time>2012-02-19T07:42:48Z</time>
      </trkpt>
      <trkpt lat="50.41561" lon="3.15302">
        <ele>22</ele>
        <time>2012-02-19T07:42:50Z</time>
      </trkpt>
      <trkpt lat="50.41558" lon="3.15285">
        <ele>22</ele>
        <time>2012-02-19T07:42:52Z</time>
      </trkpt>
      <trkpt lat="50.41556" lon="3.1527">
        <ele>22</ele>
        <time>2012-02-19T07:42:54Z</time>
      </trkpt>
      <trkpt lat="50.41552" lon="3.15254">
        <ele>22</ele>
        <time>2012-02-19T07:42:56Z</time>
      </trkpt>
      <trkpt lat="50.41549" lon="3.15238">
        <ele>22</ele>
        <time>2012-02-19T07:42:58Z</time>
      </trkpt>
      <trkpt lat="50.41547" lon="3.15222">
        <ele>22</ele>
        <time>2012-02-19T07:43:00Z</time>
      </trkpt>
      <trkpt lat="50.41544" lon="3.15207">
        <ele>22</ele>
        <time>2012-02-19T07:43:02Z</time>
      </trkpt>
      <trkpt lat="50.41541" lon="3.15191">
        <ele>22</ele>
        <time>2012-02-19T07:43:04Z</time>
      </trkpt>
      <trkpt lat="50.41539" lon="3.15176">
        <ele>22</ele>
        <time>2012-02-19T07:43:06Z</time>
      </trkpt>
      <trkpt lat="50.41537" lon="3.1516">
        <ele>22</ele>
        <time>2012-02-19T07:43:08Z</time>
      </trkpt>
      <trkpt lat="50.41534" lon="3.15144">
        <ele>22</ele>
        <time>2012-02-19T07:43:10Z</time>
      </trkpt>
      <trkpt lat="50.4153" lon="3.15128">
        <ele>22</ele>
        <time>2012-02-19T07:43:12Z</time>
      </trkpt>
      <trkpt lat="50.41528" lon="3.15113">
        <ele>22</ele>
        <time>2012-02-19T07:43:14Z</time>
      </trkpt>
      <trkpt lat="50.41526" lon="3.15098">
        <ele>22</ele>
        <time>2012-02-19T07:43:16Z</time>
      </trkpt>
      <trkpt lat="50.41523" lon="3.15083">
        <ele>22</ele>
        <time>2012-02-19T07:43:18Z</time>
      </trkpt>
      <trkpt lat="50.41521" lon="3.15069">
        <ele>22</ele>
        <time>2012-02-19T07:43:20Z</time>
      </trkpt>
      <trkpt lat="50.41519" lon="3.15055">
        <ele>22</ele>
        <time>2012-02-19T07:43:22Z</time>
      </trkpt>
      <trkpt lat="50.41515" lon="3.15037">
        <ele>22</ele>
        <time>2012-02-19T07:43:25Z</time>
      </trkpt>
      <trkpt lat="50.41513" lon="3.15019">
        <ele>22</ele>
        <time>2012-02-19T07:43:28Z</time>
      </trkpt>
      <trkpt lat="50.4151" lon="3.15006">
        <ele>22</ele>
        <time>2012-02-19T07:43:30Z</time>
      </trkpt>
      <trkpt lat="50.41506" lon="3.14993">
        <ele>22</ele>
        <time>2012-02-19T07:43:32Z</time>
      </trkpt>
      <trkpt lat="50.41501" lon="3.1498">
        <ele>22</ele>
        <time>2012-02-19T07:43:34Z</time>
      </trkpt>
      <trkpt lat="50.41496" lon="3.14966">
        <ele>22</ele>
        <time>2012-02-19T07:43:36Z</time>
      </trkpt>
      <trkpt lat="50.41492" lon="3.14952">
        <ele>22</ele>
        <time>2012-02-19T07:43:38Z</time>
      </trkpt>
      <trkpt lat="50.41488" lon="3.14938">
        <ele>22</ele>
        <time>2012-02-19T07:43:40Z</time>
      </trkpt>
      <trkpt lat="50.41483" lon="3.14925">
        <ele>22</ele>
        <time>2012-02-19T07:43:42Z</time>
      </trkpt>
      <trkpt lat="50.41473" lon="3.14919">
        <ele>22</ele>
        <time>2012-02-19T07:43:44Z</time>
      </trkpt>
      <trkpt lat="50.41464" lon="3.14923">
        <ele>22</ele>
        <time>2012-02-19T07:43:46Z</time>
      </trkpt>
      <trkpt lat="50.41456" lon="3.14931">
        <ele>22</ele>
        <time>2012-02-19T07:43:48Z</time>
      </trkpt>
      <trkpt lat="50.41448" lon="3.14938">
        <ele>22</ele>
        <time>2012-02-19T07:43:50Z</time>
      </trkpt>
      <trkpt lat="50.41437" lon="3.14948">
        <ele>22</ele>
        <time>2012-02-19T07:43:53Z</time>
      </trkpt>
      <trkpt lat="50.41426" lon="3.14958">
        <ele>22</ele>
        <time>2012-02-19T07:43:56Z</time>
      </trkpt>
      <trkpt lat="50.41417" lon="3.14967">
        <ele>22</ele>
        <time>2012-02-19T07:43:59Z</time>
      </trkpt>
      <trkpt lat="50.41408" lon="3.14975">
        <ele>22</ele>
        <time>2012-02-19T07:44:02Z</time>
      </trkpt>
      <trkpt lat="50.41399" lon="3.14984">
        <ele>22</ele>
        <time>2012-02-19T07:44:05Z</time>
      </trkpt>
      <trkpt lat="50.4139" lon="3.14992">
        <ele>22</ele>
        <time>2012-02-19T07:44:08Z</time>
      </trkpt>
      <trkpt lat="50.41382" lon="3.15">
        <ele>22</ele>
        <time>2012-02-19T07:44:11Z</time>
      </trkpt>
      <trkpt lat="50.41371" lon="3.15006">
        <ele>22</ele>
        <time>2012-02-19T07:44:14Z</time>
      </trkpt>
      <trkpt lat="50.41359" lon="3.1501">
        <ele>22</ele>
        <time>2012-02-19T07:44:17Z</time>
      </trkpt>
      <trkpt lat="50.4135" lon="3.1501">
        <ele>22</ele>
        <time>2012-02-19T07:44:19Z</time>
      </trkpt>
      <trkpt lat="50.4134" lon="3.1501">
        <ele>22</ele>
        <time>2012-02-19T07:44:21Z</time>
      </trkpt>
      <trkpt lat="50.41331" lon="3.1501">
        <ele>22</ele>
        <time>2012-02-19T07:44:23Z</time>
      </trkpt>
      <trkpt lat="50.41322" lon="3.15009">
        <ele>22</ele>
        <time>2012-02-19T07:44:25Z</time>
      </trkpt>
      <trkpt lat="50.41309" lon="3.15005">
        <ele>22</ele>
        <time>2012-02-19T07:44:28Z</time>
      </trkpt>
      <trkpt lat="50.41304" lon="3.14991">
        <ele>22</ele>
        <time>2012-02-19T07:44:31Z</time>
      </trkpt>
      <trkpt lat="50.41305" lon="3.1497">
        <ele>22</ele>
        <time>2012-02-19T07:44:34Z</time>
      </trkpt>
      <trkpt lat="50.41306" lon="3.14955">
        <ele>22</ele>
        <time>2012-02-19T07:44:36Z</time>
      </trkpt>
      <trkpt lat="50.41308" lon="3.14939">
        <ele>22</ele>
        <time>2012-02-19T07:44:38Z</time>
      </trkpt>
      <trkpt lat="50.41308" lon="3.14922">
        <ele>22</ele>
        <time>2012-02-19T07:44:40Z</time>
      </trkpt>
      <trkpt lat="50.41309" lon="3.14907">
        <ele>22</ele>
        <time>2012-02-19T07:44:42Z</time>
      </trkpt>
      <trkpt lat="50.41309" lon="3.14893">
        <ele>22</ele>
        <time>2012-02-19T07:44:44Z</time>
      </trkpt>
      <trkpt lat="50.41309" lon="3.14872">
        <ele>22</ele>
        <time>2012-02-19T07:44:47Z</time>
      </trkpt>
      <trkpt lat="50.4131" lon="3.14851">
        <ele>22</ele>
        <time>2012-02-19T07:44:50Z</time>
      </trkpt>
      <trkpt lat="50.41312" lon="3.14831">
        <ele>22</ele>
        <time>2012-02-19T07:44:53Z</time>
      </trkpt>
      <trkpt lat="50.41313" lon="3.14811">
        <ele>22</ele>
        <time>2012-02-19T07:44:56Z</time>
      </trkpt>
      <trkpt lat="50.41315" lon="3.14792">
        <ele>22</ele>
        <time>2012-02-19T07:44:59Z</time>
      </trkpt>
      <trkpt lat="50.41316" lon="3.14773">
        <ele>22</ele>
        <time>2012-02-19T07:45:02Z</time>
      </trkpt>
      <trkpt lat="50.41318" lon="3.14754">
        <ele>22</ele>
        <time>2012-02-19T07:45:05Z</time>
      </trkpt>
      <trkpt lat="50.41321" lon="3.14736">
        <ele>22</ele>
        <time>2012-02-19T07:45:08Z</time>
      </trkpt>
      <trkpt lat="50.41323" lon="3.14717">
        <ele>22</ele>
        <time>2012-02-19T07:45:11Z</time>
      </trkpt>
      <trkpt lat="50.41326" lon="3.14697">
        <ele>22</ele>
        <time>2012-02-19T07:45:14Z</time>
      </trkpt>
      <trkpt lat="50.41328" lon="3.14677">
        <ele>22</ele>
        <time>2012-02-19T07:45:17Z</time>
      </trkpt>
      <trkpt lat="50.41331" lon="3.14657">
        <ele>22</ele>
        <time>2012-02-19T07:45:20Z</time>
      </trkpt>
      <trkpt lat="50.41333" lon="3.14644">
        <ele>22</ele>
        <time>2012-02-19T07:45:22Z</time>
      </trkpt>
      <trkpt lat="50.41335" lon="3.1463">
        <ele>22</ele>
        <time>2012-02-19T07:45:24Z</time>
      </trkpt>
      <trkpt lat="50.41336" lon="3.1461">
        <ele>22</ele>
        <time>2012-02-19T07:45:27Z</time>
      </trkpt>
      <trkpt lat="50.41338" lon="3.14595">
        <ele>22</ele>
        <time>2012-02-19T07:45:29Z</time>
      </trkpt>
      <trkpt lat="50.4134" lon="3.14575">
        <ele>22</ele>
        <time>2012-02-19T07:45:32Z</time>
      </trkpt>
      <trkpt lat="50.41343" lon="3.1456">
        <ele>22</ele>
        <time>2012-02-19T07:45:34Z</time>
      </trkpt>
      <trkpt lat="50.41344" lon="3.14545">
        <ele>22</ele>
        <time>2012-02-19T07:45:36Z</time>
      </trkpt>
      <trkpt lat="50.41347" lon="3.14531">
        <ele>22</ele>
        <time>2012-02-19T07:45:38Z</time>
      </trkpt>
      <trkpt lat="50.41349" lon="3.14516">
        <ele>22</ele>
        <time>2012-02-19T07:45:40Z</time>
      </trkpt>
      <trkpt lat="50.41351" lon="3.14502">
        <ele>22</ele>
        <time>2012-02-19T07:45:42Z</time>
      </trkpt>
      <trkpt lat="50.41355" lon="3.14489">
        <ele>22</ele>
        <time>2012-02-19T07:45:44Z</time>
      </trkpt>
      <trkpt lat="50.41358" lon="3.14475">
        <ele>22</ele>
        <time>2012-02-19T07:45:46Z</time>
      </trkpt>
      <trkpt lat="50.41361" lon="3.14462">
        <ele>22</ele>
        <time>2012-02-19T07:45:48Z</time>
      </trkpt>
      <trkpt lat="50.41366" lon="3.14443">
        <ele>22</ele>
        <time>2012-02-19T07:45:51Z</time>
      </trkpt>
      <trkpt lat="50.4137" lon="3.14424">
        <ele>22</ele>
        <time>2012-02-19T07:45:54Z</time>
      </trkpt>
      <trkpt lat="50.41373" lon="3.1441">
        <ele>22</ele>
        <time>2012-02-19T07:45:56Z</time>
      </trkpt>
      <trkpt lat="50.41376" lon="3.14391">
        <ele>22</ele>
        <time>2012-02-19T07:45:59Z</time>
      </trkpt>
      <trkpt lat="50.41379" lon="3.14371">
        <ele>22</ele>
        <time>2012-02-19T07:46:02Z</time>
      </trkpt>
      <trkpt lat="50.41383" lon="3.14351">
        <ele>22</ele>
        <time>2012-02-19T07:46:05Z</time>
      </trkpt>
      <trkpt lat="50.41385" lon="3.14338">
        <ele>22</ele>
        <time>2012-02-19T07:46:07Z</time>
      </trkpt>
      <trkpt lat="50.41389" lon="3.14318">
        <ele>22</ele>
        <time>2012-02-19T07:46:10Z</time>
      </trkpt>
      <trkpt lat="50.41391" lon="3.14303">
        <ele>22</ele>
        <time>2012-02-19T07:46:12Z</time>
      </trkpt>
      <trkpt lat="50.41394" lon="3.14284">
        <ele>22</ele>
        <time>2012-02-19T07:46:15Z</time>
      </trkpt>
      <trkpt lat="50.41396" lon="3.1427">
        <ele>22</ele>
        <time>2012-02-19T07:46:17Z</time>
      </trkpt>
      <trkpt lat="50.41399" lon="3.1425">
        <ele>22</ele>
        <time>2012-02-19T07:46:20Z</time>
      </trkpt>
      <trkpt lat="50.41402" lon="3.14229">
        <ele>22</ele>
        <time>2012-02-19T07:46:23Z</time>
      </trkpt>
      <trkpt lat="50.41405" lon="3.14208">
        <ele>22</ele>
        <time>2012-02-19T07:46:26Z</time>
      </trkpt>
      <trkpt lat="50.41406" lon="3.14188">
        <ele>22</ele>
        <time>2012-02-19T07:46:29Z</time>
      </trkpt>
      <trkpt lat="50.41408" lon="3.14168">
        <ele>22</ele>
        <time>2012-02-19T07:46:32Z</time>
      </trkpt>
      <trkpt lat="50.41409" lon="3.14148">
        <ele>22</ele>
        <time>2012-02-19T07:46:35Z</time>
      </trkpt>
      <trkpt lat="50.41409" lon="3.14134">
        <ele>22</ele>
        <time>2012-02-19T07:46:37Z</time>
      </trkpt>
      <trkpt lat="50.4141" lon="3.14113">
        <ele>22</ele>
        <time>2012-02-19T07:46:40Z</time>
      </trkpt>
      <trkpt lat="50.41411" lon="3.14092">
        <ele>22</ele>
        <time>2012-02-19T07:46:43Z</time>
      </trkpt>
      <trkpt lat="50.41412" lon="3.14072">
        <ele>22</ele>
        <time>2012-02-19T07:46:46Z</time>
      </trkpt>
      <trkpt lat="50.41413" lon="3.14057">
        <ele>22</ele>
        <time>2012-02-19T07:46:48Z</time>
      </trkpt>
      <trkpt lat="50.41415" lon="3.14037">
        <ele>22</ele>
        <time>2012-02-19T07:46:51Z</time>
      </trkpt>
      <trkpt lat="50.41417" lon="3.14017">
        <ele>22</ele>
        <time>2012-02-19T07:46:54Z</time>
      </trkpt>
      <trkpt lat="50.41418" lon="3.13997">
        <ele>22</ele>
        <time>2012-02-19T07:46:57Z</time>
      </trkpt>
      <trkpt lat="50.4142" lon="3.13977">
        <ele>22</ele>
        <time>2012-02-19T07:47:00Z</time>
      </trkpt>
      <trkpt lat="50.41421" lon="3.13957">
        <ele>22</ele>
        <time>2012-02-19T07:47:03Z</time>
      </trkpt>
      <trkpt lat="50.41421" lon="3.13942">
        <ele>22</ele>
        <time>2012-02-19T07:47:05Z</time>
      </trkpt>
      <trkpt lat="50.41422" lon="3.13928">
        <ele>22</ele>
        <time>2012-02-19T07:47:07Z</time>
      </trkpt>
      <trkpt lat="50.41423" lon="3.13907">
        <ele>22</ele>
        <time>2012-02-19T07:47:10Z</time>
      </trkpt>
      <trkpt lat="50.41421" lon="3.13889">
        <ele>22</ele>
        <time>2012-02-19T07:47:13Z</time>
      </trkpt>
      <trkpt lat="50.41413" lon="3.13881">
        <ele>22</ele>
        <time>2012-02-19T07:47:15Z</time>
      </trkpt>
      <trkpt lat="50.41405" lon="3.13874">
        <ele>22</ele>
        <time>2012-02-19T07:47:17Z</time>
      </trkpt>
      <trkpt lat="50.41399" lon="3.13862">
        <ele>22</ele>
        <time>2012-02-19T07:47:19Z</time>
      </trkpt>
      <trkpt lat="50.41396" lon="3.13848">
        <ele>22</ele>
        <time>2012-02-19T07:47:21Z</time>
      </trkpt>
      <trkpt lat="50.41396" lon="3.13832">
        <ele>22</ele>
        <time>2012-02-19T07:47:23Z</time>
      </trkpt>
      <trkpt lat="50.41399" lon="3.13816">
        <ele>22</ele>
        <time>2012-02-19T07:47:25Z</time>
      </trkpt>
      <trkpt lat="50.41404" lon="3.138">
        <ele>22</ele>
        <time>2012-02-19T07:47:27Z</time>
      </trkpt>
      <trkpt lat="50.41409" lon="3.13785">
        <ele>22</ele>
        <time>2012-02-19T07:47:29Z</time>
      </trkpt>
      <trkpt lat="50.41415" lon="3.13772">
        <ele>22</ele>
        <time>2012-02-19T07:47:31Z</time>
      </trkpt>
      <trkpt lat="50.41422" lon="3.13761">
        <ele>22</ele>
        <time>2012-02-19T07:47:33Z</time>
      </trkpt>
      <trkpt lat="50.41429" lon="3.1375">
        <ele>22</ele>
        <time>2012-02-19T07:47:35Z</time>
      </trkpt>
      <trkpt lat="50.41435" lon="3.13735">
        <ele>22</ele>
        <time>2012-02-19T07:47:37Z</time>
      </trkpt>
      <trkpt lat="50.41437" lon="3.13718">
        <ele>22</ele>
        <time>2012-02-19T07:47:39Z</time>
      </trkpt>
      <trkpt lat="50.41439" lon="3.137">
        <ele>22</ele>
        <time>2012-02-19T07:47:41Z</time>
      </trkpt>
      <trkpt lat="50.41442" lon="3.13683">
        <ele>22</ele>
        <time>2012-02-19T07:47:43Z</time>
      </trkpt>
      <trkpt lat="50.4145" lon="3.1367">
        <ele>22</ele>
        <time>2012-02-19T07:47:45Z</time>
      </trkpt>
      <trkpt lat="50.41459" lon="3.13662">
        <ele>22</ele>
        <time>2012-02-19T07:47:47Z</time>
      </trkpt>
      <trkpt lat="50.41469" lon="3.13656">
        <ele>22</ele>
        <time>2012-02-19T07:47:49Z</time>
      </trkpt>
      <trkpt lat="50.41479" lon="3.1365">
        <ele>22</ele>
        <time>2012-02-19T07:47:51Z</time>
      </trkpt>
      <trkpt lat="50.41487" lon="3.13644">
        <ele>22</ele>
        <time>2012-02-19T07:47:53Z</time>
      </trkpt>
      <trkpt lat="50.41499" lon="3.13635">
        <ele>22</ele>
        <time>2012-02-19T07:47:56Z</time>
      </trkpt>
      <trkpt lat="50.41504" lon="3.1362">
        <ele>22</ele>
        <time>2012-02-19T07:47:59Z</time>
      </trkpt>
      <trkpt lat="50.41498" lon="3.13606">
        <ele>22</ele>
        <time>2012-02-19T07:48:02Z</time>
      </trkpt>
      <trkpt lat="50.41488" lon="3.136">
        <ele>22</ele>
        <time>2012-02-19T07:48:04Z</time>
      </trkpt>
      <trkpt lat="50.41479" lon="3.13596">
        <ele>22</ele>
        <time>2012-02-19T07:48:06Z</time>
      </trkpt>
      <trkpt lat="50.41468" lon="3.13591">
        <ele>22</ele>
        <time>2012-02-19T07:48:08Z</time>
      </trkpt>
      <trkpt lat="50.41458" lon="3.13587">
        <ele>22</ele>
        <time>2012-02-19T07:48:10Z</time>
      </trkpt>
      <trkpt lat="50.41447" lon="3.13584">
        <ele>22</ele>
        <time>2012-02-19T07:48:12Z</time>
      </trkpt>
      <trkpt lat="50.41436" lon="3.1358">
        <ele>22</ele>
        <time>2012-02-19T07:48:14Z</time>
      </trkpt>
      <trkpt lat="50.41424" lon="3.13578">
        <ele>22</ele>
        <time>2012-02-19T07:48:16Z</time>
      </trkpt>
      <trkpt lat="50.41413" lon="3.13573">
        <ele>22</ele>
        <time>2012-02-19T07:48:18Z</time>
      </trkpt>
      <trkpt lat="50.41406" lon="3.13562">
        <ele>22</ele>
        <time>2012-02-19T07:48:20Z</time>
      </trkpt>
      <trkpt lat="50.41404" lon="3.13545">
        <ele>22</ele>
        <time>2012-02-19T07:48:22Z</time>
      </trkpt>
      <trkpt lat="50.41405" lon="3.13527">
        <ele>22</ele>
        <time>2012-02-19T07:48:24Z</time>
      </trkpt>
      <trkpt lat="50.41406" lon="3.13508">
        <ele>22</ele>
        <time>2012-02-19T07:48:26Z</time>
      </trkpt>
      <trkpt lat="50.41407" lon="3.1349">
        <ele>22</ele>
        <time>2012-02-19T07:48:28Z</time>
      </trkpt>
      <trkpt lat="50.41408" lon="3.1347">
        <ele>22</ele>
        <time>2012-02-19T07:48:30Z</time>
      </trkpt>
      <trkpt lat="50.41408" lon="3.13451">
        <ele>22</ele>
        <time>2012-02-19T07:48:32Z</time>
      </trkpt>
      <trkpt lat="50.41409" lon="3.13432">
        <ele>22</ele>
        <time>2012-02-19T07:48:34Z</time>
      </trkpt>
      <trkpt lat="50.4141" lon="3.13413">
        <ele>22</ele>
        <time>2012-02-19T07:48:36Z</time>
      </trkpt>
      <trkpt lat="50.41411" lon="3.13395">
        <ele>22</ele>
        <time>2012-02-19T07:48:38Z</time>
      </trkpt>
      <trkpt lat="50.41412" lon="3.13376">
        <ele>22</ele>
        <time>2012-02-19T07:48:40Z</time>
      </trkpt>
      <trkpt lat="50.41412" lon="3.13359">
        <ele>22</ele>
        <time>2012-02-19T07:48:42Z</time>
      </trkpt>
      <trkpt lat="50.41406" lon="3.13345">
        <ele>22</ele>
        <time>2012-02-19T07:48:44Z</time>
      </trkpt>
      <trkpt lat="50.41397" lon="3.13337">
        <ele>22</ele>
        <time>2012-02-19T07:48:46Z</time>
      </trkpt>
      <trkpt lat="50.41386" lon="3.13333">
        <ele>22</ele>
        <time>2012-02-19T07:48:48Z</time>
      </trkpt>
      <trkpt lat="50.41374" lon="3.13332">
        <ele>22</ele>
        <time>2012-02-19T07:48:50Z</time>
      </trkpt>
      <trkpt lat="50.41363" lon="3.13328">
        <ele>22</ele>
        <time>2012-02-19T07:48:52Z</time>
      </trkpt>
      <trkpt lat="50.41356" lon="3.13316">
        <ele>22</ele>
        <time>2012-02-19T07:48:54Z</time>
      </trkpt>
      <trkpt lat="50.41354" lon="3.13298">
        <ele>22</ele>
        <time>2012-02-19T07:48:57Z</time>
      </trkpt>
      <trkpt lat="50.41356" lon="3.13283">
        <ele>22</ele>
        <time>2012-02-19T07:48:59Z</time>
      </trkpt>
      <trkpt lat="50.41359" lon="3.13266">
        <ele>22</ele>
        <time>2012-02-19T07:49:01Z</time>
      </trkpt>
      <trkpt lat="50.41363" lon="3.1325">
        <ele>22</ele>
        <time>2012-02-19T07:49:03Z</time>
      </trkpt>
      <trkpt lat="50.41368" lon="3.13234">
        <ele>22</ele>
        <time>2012-02-19T07:49:05Z</time>
      </trkpt>
      <trkpt lat="50.41374" lon="3.13217">
        <ele>22</ele>
        <time>2012-02-19T07:49:07Z</time>
      </trkpt>
      <trkpt lat="50.41379" lon="3.13201">
        <ele>22</ele>
        <time>2012-02-19T07:49:09Z</time>
      </trkpt>
      <trkpt lat="50.41385" lon="3.13187">
        <ele>22</ele>
        <time>2012-02-19T07:49:11Z</time>
      </trkpt>
      <trkpt lat="50.41391" lon="3.13172">
        <ele>22</ele>
        <time>2012-02-19T07:49:13Z</time>
      </trkpt>
      <trkpt lat="50.41397" lon="3.13157">
        <ele>22</ele>
        <time>2012-02-19T07:49:15Z</time>
      </trkpt>
      <trkpt lat="50.41397" lon="3.13142">
        <ele>22</ele>
        <time>2012-02-19T07:49:17Z</time>
      </trkpt>
      <trkpt lat="50.4139" lon="3.13129">
        <ele>22</ele>
        <time>2012-02-19T07:49:19Z</time>
      </trkpt>
      <trkpt lat="50.41381" lon="3.13119">
        <ele>22</ele>
        <time>2012-02-19T07:49:21Z</time>
      </trkpt>
      <trkpt lat="50.41371" lon="3.13108">
        <ele>22</ele>
        <time>2012-02-19T07:49:23Z</time>
      </trkpt>
      <trkpt lat="50.41361" lon="3.13097">
        <ele>22</ele>
        <time>2012-02-19T07:49:25Z</time>
      </trkpt>
      <trkpt lat="50.41351" lon="3.13086">
        <ele>22</ele>
        <time>2012-02-19T07:49:27Z</time>
      </trkpt>
      <trkpt lat="50.4134" lon="3.13075">
        <ele>22</ele>
        <time>2012-02-19T07:49:29Z</time>
      </trkpt>
      <trkpt lat="50.41332" lon="3.13061">
        <ele>22</ele>
        <time>2012-02-19T07:49:31Z</time>
      </trkpt>
      <trkpt lat="50.41328" lon="3.13044">
        <ele>22</ele>
        <time>2012-02-19T07:49:33Z</time>
      </trkpt>
      <trkpt lat="50.41328" lon="3.13025">
        <ele>22</ele>
        <time>2012-02-19T07:49:35Z</time>
      </trkpt>
      <trkpt lat="50.41328" lon="3.13006">
        <ele>22</ele>
        <time>2012-02-19T07:49:37Z</time>
      </trkpt>
      <trkpt lat="50.41328" lon="3.12987">
        <ele>22</ele>
        <time>2012-02-19T07:49:39Z</time>
      </trkpt>
      <trkpt lat="50.41328" lon="3.1297">
        <ele>22</ele>
        <time>2012-02-19T07:49:41Z</time>
      </trkpt>
      <trkpt lat="50.41327" lon="3.12952">
        <ele>22</ele>
        <time>2012-02-19T07:49:43Z</time>
      </trkpt>
      <trkpt lat="50.41324" lon="3.12934">
        <ele>22</ele>
        <time>2012-02-19T07:49:45Z</time>
      </trkpt>
      <trkpt lat="50.4132" lon="3.12917">
        <ele>22</ele>
        <time>2012-02-19T07:49:47Z</time>
      </trkpt>
      <trkpt lat="50.41315" lon="3.129">
        <ele>22</ele>
        <time>2012-02-19T07:49:49Z</time>
      </trkpt>
      <trkpt lat="50.41308" lon="3.12885">
        <ele>22</ele>
        <time>2012-02-19T07:49:51Z</time>
      </trkpt>
      <trkpt lat="50.413" lon="3.1287">
        <ele>22</ele>
        <time>2012-02-19T07:49:53Z</time>
      </trkpt>
      <trkpt lat="50.41293" lon="3.12855">
        <ele>22</ele>
        <time>2012-02-19T07:49:55Z</time>
      </trkpt>
      <trkpt lat="50.41285" lon="3.12839">
        <ele>22</ele>
        <time>2012-02-19T07:49:57Z</time>
      </trkpt>
      <trkpt lat="50.41278" lon="3.12824">
        <ele>22</ele>
        <time>2012-02-19T07:49:59Z</time>
      </trkpt>
      <trkpt lat="50.4127" lon="3.12808">
        <ele>22</ele>
        <time>2012-02-19T07:50:01Z</time>
      </trkpt>
      <trkpt lat="50.41263" lon="3.12792">
        <ele>22</ele>
        <time>2012-02-19T07:50:03Z</time>
      </trkpt>
      <trkpt lat="50.41255" lon="3.12775">
        <ele>22</ele>
        <time>2012-02-19T07:50:05Z</time>
      </trkpt>
      <trkpt lat="50.41248" lon="3.12759">
        <ele>22</ele>
        <time>2012-02-19T07:50:07Z</time>
      </trkpt>
      <trkpt lat="50.41241" lon="3.12742">
        <ele>22</ele>
        <time>2012-02-19T07:50:09Z</time>
      </trkpt>
      <trkpt lat="50.41234" lon="3.12725">
        <ele>22</ele>
        <time>2012-02-19T07:50:11Z</time>
      </trkpt>
      <trkpt lat="50.41228" lon="3.12707">
        <ele>22</ele>
        <time>2012-02-19T07:50:13Z</time>
      </trkpt>
      <trkpt lat="50.41223" lon="3.12688">
        <ele>22</ele>
        <time>2012-02-19T07:50:15Z</time>
      </trkpt>
      <trkpt lat="50.41217" lon="3.12669">
        <ele>22</ele>
        <time>2012-02-19T07:50:17Z</time>
      </trkpt>
      <trkpt lat="50.41211" lon="3.12651">
        <ele>22</ele>
        <time>2012-02-19T07:50:19Z</time>
      </trkpt>
      <trkpt lat="50.41204" lon="3.12634">
        <ele>22</ele>
        <time>2012-02-19T07:50:21Z</time>
      </trkpt>
      <trkpt lat="50.41199" lon="3.12615">
        <ele>22</ele>
        <time>2012-02-19T07:50:23Z</time>
      </trkpt>
      <trkpt lat="50.41192" lon="3.12597">
        <ele>22</ele>
        <time>2012-02-19T07:50:25Z</time>
      </trkpt>
      <trkpt lat="50.41186" lon="3.12578">
        <ele>22</ele>
        <time>2012-02-19T07:50:27Z</time>
      </trkpt>
      <trkpt lat="50.4118" lon="3.12559">
        <ele>22</ele>
        <time>2012-02-19T07:50:29Z</time>
      </trkpt>
      <trkpt lat="50.41173" lon="3.1254">
        <ele>22</ele>
        <time>2012-02-19T07:50:31Z</time>
      </trkpt>
      <trkpt lat="50.41167" lon="3.12522">
        <ele>22</ele>
        <time>2012-02-19T07:50:33Z</time>
      </trkpt>
      <trkpt lat="50.41161" lon="3.12503">
        <ele>22</ele>
        <time>2012-02-19T07:50:35Z</time>
      </trkpt>
      <trkpt lat="50.41154" lon="3.12484">
        <ele>22</ele>
        <time>2012-02-19T07:50:37Z</time>
      </trkpt>
      <trkpt lat="50.41149" lon="3.12466">
        <ele>22</ele>
        <time>2012-02-19T07:50:39Z</time>
      </trkpt>
      <trkpt lat="50.41143" lon="3.12448">
        <ele>22</ele>
        <time>2012-02-19T07:50:41Z</time>
      </trkpt>
      <trkpt lat="50.41137" lon="3.1243">
        <ele>22</ele>
        <time>2012-02-19T07:50:43Z</time>
      </trkpt>
      <trkpt lat="50.41131" lon="3.12413">
        <ele>22</ele>
        <time>2012-02-19T07:50:45Z</time>
      </trkpt>
      <trkpt lat="50.41125" lon="3.12394">
        <ele>22</ele>
        <time>2012-02-19T07:50:47Z</time>
      </trkpt>
      <trkpt lat="50.41119" lon="3.12376">
        <ele>22</ele>
        <time>2012-02-19T07:50:49Z</time>
      </trkpt>
      <trkpt lat="50.41112" lon="3.12357">
        <ele>22</ele>
        <time>2012-02-19T07:50:51Z</time>
      </trkpt>
      <trkpt lat="50.41106" lon="3.12339">
        <ele>22</ele>
        <time>2012-02-19T07:50:53Z</time>
      </trkpt>
      <trkpt lat="50.411" lon="3.1232">
        <ele>22</ele>
        <time>2012-02-19T07:50:55Z</time>
      </trkpt>
      <trkpt lat="50.41095" lon="3.12301">
        <ele>22</ele>
        <time>2012-02-19T07:50:57Z</time>
      </trkpt>
      <trkpt lat="50.41088" lon="3.12282">
        <ele>22</ele>
        <time>2012-02-19T07:50:59Z</time>
      </trkpt>
      <trkpt lat="50.41082" lon="3.12263">
        <ele>22</ele>
        <time>2012-02-19T07:51:01Z</time>
      </trkpt>
      <trkpt lat="50.41076" lon="3.12245">
        <ele>22</ele>
        <time>2012-02-19T07:51:03Z</time>
      </trkpt>
      <trkpt lat="50.4107" lon="3.12225">
        <ele>22</ele>
        <time>2012-02-19T07:51:05Z</time>
      </trkpt>
      <trkpt lat="50.41064" lon="3.12206">
        <ele>22</ele>
        <time>2012-02-19T07:51:07Z</time>
      </trkpt>
      <trkpt lat="50.41058" lon="3.12187">
        <ele>22</ele>
        <time>2012-02-19T07:51:09Z</time>
      </trkpt>
      <trkpt lat="50.41052" lon="3.12169">
        <ele>22</ele>
        <time>2012-02-19T07:51:11Z</time>
      </trkpt>
      <trkpt lat="50.41046" lon="3.12151">
        <ele>22</ele>
        <time>2012-02-19T07:51:13Z</time>
      </trkpt>
      <trkpt lat="50.41041" lon="3.12135">
        <ele>22</ele>
        <time>2012-02-19T07:51:15Z</time>
      </trkpt>
      <trkpt lat="50.41036" lon="3.12119">
        <ele>22</ele>
        <time>2012-02-19T07:51:17Z</time>
      </trkpt>
      <trkpt lat="50.41032" lon="3.12103">
        <ele>22</ele>
        <time>2012-02-19T07:51:19Z</time>
      </trkpt>
      <trkpt lat="50.4103" lon="3.12087">
        <ele>22</ele>
        <time>2012-02-19T07:51:21Z</time>
      </trkpt>
      <trkpt lat="50.41026" lon="3.12074">
        <ele>22</ele>
        <time>2012-02-19T07:51:23Z</time>
      </trkpt>
      <trkpt lat="50.41021" lon="3.1206">
        <ele>22</ele>
        <time>2012-02-19T07:51:25Z</time>
      </trkpt>
      <trkpt lat="50.41017" lon="3.12048">
        <ele>22</ele>
        <time>2012-02-19T07:51:27Z</time>
      </trkpt>
      <trkpt lat="50.41012" lon="3.1203">
        <ele>22</ele>
        <time>2012-02-19T07:51:30Z</time>
      </trkpt>
      <trkpt lat="50.41006" lon="3.12015">
        <ele>22</ele>
        <time>2012-02-19T07:51:33Z</time>
      </trkpt>
      <trkpt lat="50.41001" lon="3.12002">
        <ele>22</ele>
        <time>2012-02-19T07:51:36Z</time>
      </trkpt>
      <trkpt lat="50.40998" lon="3.11989">
        <ele>22</ele>
        <time>2012-02-19T07:51:40Z</time>
      </trkpt>
      <trkpt lat="50.40992" lon="3.11978">
        <ele>22</ele>
        <time>2012-02-19T07:51:45Z</time>
      </trkpt>
      <trkpt lat="50.40983" lon="3.11972">
        <ele>22</ele>
        <time>2012-02-19T07:52:02Z</time>
      </trkpt>
      <trkpt lat="50.40974" lon="3.1198">
        <ele>22</ele>
        <time>2012-02-19T07:52:30Z</time>
      </trkpt>
      <trkpt lat="50.40963" lon="3.11981">
        <ele>28</ele>
        <time>2012-02-19T07:52:35Z</time>
      </trkpt>
      <trkpt lat="50.40952" lon="3.11983">
        <ele>28</ele>
        <time>2012-02-19T07:52:41Z</time>
      </trkpt>
      <trkpt lat="50.40942" lon="3.11982">
        <ele>34</ele>
        <time>2012-02-19T07:52:47Z</time>
      </trkpt>
      <trkpt lat="50.40932" lon="3.1198">
        <ele>34</ele>
        <time>2012-02-19T07:52:52Z</time>
      </trkpt>
      <trkpt lat="50.40923" lon="3.11977">
        <ele>34</ele>
        <time>2012-02-19T07:52:57Z</time>
      </trkpt>
      <trkpt lat="50.40913" lon="3.11975">
        <ele>34</ele>
        <time>2012-02-19T07:53:03Z</time>
      </trkpt>
      <trkpt lat="50.40912" lon="3.11961">
        <ele>34</ele>
        <time>2012-02-19T07:53:09Z</time>
      </trkpt>
      <trkpt lat="50.40921" lon="3.11957">
        <ele>34</ele>
        <time>2012-02-19T07:53:14Z</time>
      </trkpt>
      <trkpt lat="50.40917" lon="3.11944">
        <ele>34</ele>
        <time>2012-02-19T07:53:21Z</time>
      </trkpt>
      <trkpt lat="50.40908" lon="3.11934">
        <ele>34</ele>
        <time>2012-02-19T07:53:25Z</time>
      </trkpt>
      <trkpt lat="50.40899" lon="3.11928">
        <ele>34</ele>
        <time>2012-02-19T07:53:28Z</time>
      </trkpt>
      <trkpt lat="50.4089" lon="3.11924">
        <ele>34</ele>
        <time>2012-02-19T07:53:31Z</time>
      </trkpt>
      <trkpt lat="50.40878" lon="3.11923">
        <ele>34</ele>
        <time>2012-02-19T07:53:35Z</time>
      </trkpt>
      <trkpt lat="50.40871" lon="3.1191">
        <ele>34</ele>
        <time>2012-02-19T07:53:40Z</time>
      </trkpt>
      <trkpt lat="50.4086" lon="3.11902">
        <ele>34</ele>
        <time>2012-02-19T07:53:44Z</time>
      </trkpt>
      <trkpt lat="50.40849" lon="3.11896">
        <ele>34</ele>
        <time>2012-02-19T07:53:47Z</time>
      </trkpt>
      <trkpt lat="50.40836" lon="3.11892">
        <ele>34</ele>
        <time>2012-02-19T07:53:50Z</time>
      </trkpt>
      <trkpt lat="50.40825" lon="3.11886">
        <ele>34</ele>
        <time>2012-02-19T07:53:53Z</time>
      </trkpt>
      <trkpt lat="50.40815" lon="3.11891">
        <ele>34</ele>
        <time>2012-02-19T07:53:56Z</time>
      </trkpt>
      <trkpt lat="50.40805" lon="3.11893">
        <ele>34</ele>
        <time>2012-02-19T07:54:00Z</time>
      </trkpt>
      <trkpt lat="50.40794" lon="3.11889">
        <ele>34</ele>
        <time>2012-02-19T07:54:03Z</time>
      </trkpt>
      <trkpt lat="50.4079" lon="3.11874">
        <ele>34</ele>
        <time>2012-02-19T07:54:06Z</time>
      </trkpt>
      <trkpt lat="50.40781" lon="3.11869">
        <ele>34</ele>
        <time>2012-02-19T07:54:09Z</time>
      </trkpt>
      <trkpt lat="50.4077" lon="3.11867">
        <ele>34</ele>
        <time>2012-02-19T07:54:12Z</time>
      </trkpt>
      <trkpt lat="50.40758" lon="3.11871">
        <ele>34</ele>
        <time>2012-02-19T07:54:15Z</time>
      </trkpt>
      <trkpt lat="50.40746" lon="3.1187">
        <ele>34</ele>
        <time>2012-02-19T07:54:18Z</time>
      </trkpt>
      <trkpt lat="50.40738" lon="3.11861">
        <ele>34</ele>
        <time>2012-02-19T07:54:21Z</time>
      </trkpt>
      <trkpt lat="50.40732" lon="3.11849">
        <ele>34</ele>
        <time>2012-02-19T07:54:24Z</time>
      </trkpt>
      <trkpt lat="50.40728" lon="3.11832">
        <ele>34</ele>
        <time>2012-02-19T07:54:27Z</time>
      </trkpt>
      <trkpt lat="50.4072" lon="3.11821">
        <ele>34</ele>
        <time>2012-02-19T07:54:30Z</time>
      </trkpt>
      <trkpt lat="50.40709" lon="3.11815">
        <ele>34</ele>
        <time>2012-02-19T07:54:33Z</time>
      </trkpt>
      <trkpt lat="50.40705" lon="3.11803">
        <ele>34</ele>
        <time>2012-02-19T07:54:36Z</time>
      </trkpt>
      <trkpt lat="50.40701" lon="3.11787">
        <ele>34</ele>
        <time>2012-02-19T07:54:39Z</time>
      </trkpt>
      <trkpt lat="50.40693" lon="3.11773">
        <ele>34</ele>
        <time>2012-02-19T07:54:42Z</time>
      </trkpt>
      <trkpt lat="50.40686" lon="3.11761">
        <ele>34</ele>
        <time>2012-02-19T07:54:45Z</time>
      </trkpt>
      <trkpt lat="50.40677" lon="3.11751">
        <ele>34</ele>
        <time>2012-02-19T07:54:49Z</time>
      </trkpt>
      <trkpt lat="50.40669" lon="3.11741">
        <ele>34</ele>
        <time>2012-02-19T07:54:52Z</time>
      </trkpt>
      <trkpt lat="50.40663" lon="3.1173">
        <ele>34</ele>
        <time>2012-02-19T07:54:54Z</time>
      </trkpt>
      <trkpt lat="50.40652" lon="3.11721">
        <ele>34</ele>
        <time>2012-02-19T07:54:57Z</time>
      </trkpt>
      <trkpt lat="50.40646" lon="3.11706">
        <ele>34</ele>
        <time>2012-02-19T07:55:00Z</time>
      </trkpt>
      <trkpt lat="50.40638" lon="3.11696">
        <ele>34</ele>
        <time>2012-02-19T07:55:03Z</time>
      </trkpt>
      <trkpt lat="50.40629" lon="3.11687">
        <ele>34</ele>
        <time>2012-02-19T07:55:06Z</time>
      </trkpt>
      <trkpt lat="50.40621" lon="3.11677">
        <ele>34</ele>
        <time>2012-02-19T07:55:09Z</time>
      </trkpt>
      <trkpt lat="50.4061" lon="3.11682">
        <ele>34</ele>
        <time>2012-02-19T07:55:12Z</time>
      </trkpt>
      <trkpt lat="50.406" lon="3.11685">
        <ele>34</ele>
        <time>2012-02-19T07:55:15Z</time>
      </trkpt>
      <trkpt lat="50.40589" lon="3.11688">
        <ele>34</ele>
        <time>2012-02-19T07:55:19Z</time>
      </trkpt>
      <trkpt lat="50.4058" lon="3.1168">
        <ele>34</ele>
        <time>2012-02-19T07:55:23Z</time>
      </trkpt>
      <trkpt lat="50.4057" lon="3.11676">
        <ele>34</ele>
        <time>2012-02-19T07:55:26Z</time>
      </trkpt>
      <trkpt lat="50.40561" lon="3.11686">
        <ele>34</ele>
        <time>2012-02-19T07:55:30Z</time>
      </trkpt>
      <trkpt lat="50.40551" lon="3.11697">
        <ele>34</ele>
        <time>2012-02-19T07:55:34Z</time>
      </trkpt>
      <trkpt lat="50.40543" lon="3.1171">
        <ele>34</ele>
        <time>2012-02-19T07:55:38Z</time>
      </trkpt>
      <trkpt lat="50.40546" lon="3.11725">
        <ele>34</ele>
        <time>2012-02-19T07:55:41Z</time>
      </trkpt>
      <trkpt lat="50.40545" lon="3.11743">
        <ele>34</ele>
        <time>2012-02-19T07:55:45Z</time>
      </trkpt>
      <trkpt lat="50.40541" lon="3.11759">
        <ele>34</ele>
        <time>2012-02-19T07:55:48Z</time>
      </trkpt>
      <trkpt lat="50.40542" lon="3.11776">
        <ele>34</ele>
        <time>2012-02-19T07:55:52Z</time>
      </trkpt>
      <trkpt lat="50.40549" lon="3.11786">
        <ele>34</ele>
        <time>2012-02-19T07:55:55Z</time>
      </trkpt>
      <trkpt lat="50.4056" lon="3.11782">
        <ele>34</ele>
        <time>2012-02-19T07:55:59Z</time>
      </trkpt>
      <trkpt lat="50.40569" lon="3.11791">
        <ele>34</ele>
        <time>2012-02-19T07:56:03Z</time>
      </trkpt>
      <trkpt lat="50.4058" lon="3.11792">
        <ele>34</ele>
        <time>2012-02-19T07:56:08Z</time>
      </trkpt>
      <trkpt lat="50.40591" lon="3.11792">
        <ele>34</ele>
        <time>2012-02-19T07:56:12Z</time>
      </trkpt>
      <trkpt lat="50.406" lon="3.11798">
        <ele>34</ele>
        <time>2012-02-19T07:56:15Z</time>
      </trkpt>
      <trkpt lat="50.40608" lon="3.11787">
        <ele>34</ele>
        <time>2012-02-19T07:56:19Z</time>
      </trkpt>
      <trkpt lat="50.40616" lon="3.11799">
        <ele>34</ele>
        <time>2012-02-19T07:56:26Z</time>
      </trkpt>
      <trkpt lat="50.40626" lon="3.11808">
        <ele>34</ele>
        <time>2012-02-19T07:56:30Z</time>
      </trkpt>
      <trkpt lat="50.40636" lon="3.11811">
        <ele>34</ele>
        <time>2012-02-19T07:56:34Z</time>
      </trkpt>
      <trkpt lat="50.40646" lon="3.11816">
        <ele>34</ele>
        <time>2012-02-19T07:56:38Z</time>
      </trkpt>
      <trkpt lat="50.40658" lon="3.11816">
        <ele>34</ele>
        <time>2012-02-19T07:56:42Z</time>
      </trkpt>
      <trkpt lat="50.40666" lon="3.11827">
        <ele>34</ele>
        <time>2012-02-19T07:56:46Z</time>
      </trkpt>
      <trkpt lat="50.40674" lon="3.11821">
        <ele>34</ele>
        <time>2012-02-19T07:56:50Z</time>
      </trkpt>
      <trkpt lat="50.40685" lon="3.11829">
        <ele>34</ele>
        <time>2012-02-19T07:56:54Z</time>
      </trkpt>
      <trkpt lat="50.40693" lon="3.11835">
        <ele>34</ele>
        <time>2012-02-19T07:56:58Z</time>
      </trkpt>
      <trkpt lat="50.40701" lon="3.11843">
        <ele>34</ele>
        <time>2012-02-19T07:57:02Z</time>
      </trkpt>
      <trkpt lat="50.40711" lon="3.11848">
        <ele>34</ele>
        <time>2012-02-19T07:57:08Z</time>
      </trkpt>
      <trkpt lat="50.40716" lon="3.11863">
        <ele>34</ele>
        <time>2012-02-19T07:57:12Z</time>
      </trkpt>
      <trkpt lat="50.40722" lon="3.11874">
        <ele>34</ele>
        <time>2012-02-19T07:57:15Z</time>
      </trkpt>
      <trkpt lat="50.40723" lon="3.11891">
        <ele>34</ele>
        <time>2012-02-19T07:57:19Z</time>
      </trkpt>
      <trkpt lat="50.40721" lon="3.11905">
        <ele>34</ele>
        <time>2012-02-19T07:57:22Z</time>
      </trkpt>
      <trkpt lat="50.40719" lon="3.11918">
        <ele>34</ele>
        <time>2012-02-19T07:57:26Z</time>
      </trkpt>
      <trkpt lat="50.40721" lon="3.11932">
        <ele>34</ele>
        <time>2012-02-19T08:01:30Z</time>
      </trkpt>
      <trkpt lat="50.40719" lon="3.11946">
        <ele>34</ele>
        <time>2012-02-19T08:01:35Z</time>
      </trkpt>
      <trkpt lat="50.40718" lon="3.11962">
        <ele>34</ele>
        <time>2012-02-19T08:01:39Z</time>
      </trkpt>
      <trkpt lat="50.40709" lon="3.11971">
        <ele>34</ele>
        <time>2012-02-19T08:01:43Z</time>
      </trkpt>
      <trkpt lat="50.40699" lon="3.11982">
        <ele>34</ele>
        <time>2012-02-19T08:01:46Z</time>
      </trkpt>
      <trkpt lat="50.40688" lon="3.1199">
        <ele>34</ele>
        <time>2012-02-19T08:01:49Z</time>
      </trkpt>
      <trkpt lat="50.40676" lon="3.11998">
        <ele>34</ele>
        <time>2012-02-19T08:01:52Z</time>
      </trkpt>
      <trkpt lat="50.40667" lon="3.12001">
        <ele>34</ele>
        <time>2012-02-19T08:01:54Z</time>
      </trkpt>
      <trkpt lat="50.40655" lon="3.12002">
        <ele>34</ele>
        <time>2012-02-19T08:01:57Z</time>
      </trkpt>
      <trkpt lat="50.40645" lon="3.11996">
        <ele>34</ele>
        <time>2012-02-19T08:02:00Z</time>
      </trkpt>
      <trkpt lat="50.40635" lon="3.11988">
        <ele>34</ele>
        <time>2012-02-19T08:02:03Z</time>
      </trkpt>
      <trkpt lat="50.40625" lon="3.11978">
        <ele>34</ele>
        <time>2012-02-19T08:02:06Z</time>
      </trkpt>
      <trkpt lat="50.40614" lon="3.11975">
        <ele>34</ele>
        <time>2012-02-19T08:02:09Z</time>
      </trkpt>
      <trkpt lat="50.40603" lon="3.11974">
        <ele>34</ele>
        <time>2012-02-19T08:02:12Z</time>
      </trkpt>
      <trkpt lat="50.40594" lon="3.11973">
        <ele>34</ele>
        <time>2012-02-19T08:02:14Z</time>
      </trkpt>
      <trkpt lat="50.40581" lon="3.11973">
        <ele>34</ele>
        <time>2012-02-19T08:02:17Z</time>
      </trkpt>
      <trkpt lat="50.40581" lon="3.11956">
        <ele>34</ele>
        <time>2012-02-19T08:02:27Z</time>
      </trkpt>
      <trkpt lat="50.40572" lon="3.11949">
        <ele>34</ele>
        <time>2012-02-19T08:02:31Z</time>
      </trkpt>
      <trkpt lat="50.40563" lon="3.11944">
        <ele>34</ele>
        <time>2012-02-19T08:02:34Z</time>
      </trkpt>
      <trkpt lat="50.40555" lon="3.1195">
        <ele>34</ele>
        <time>2012-02-19T08:02:39Z</time>
      </trkpt>
      <trkpt lat="50.4055" lon="3.11963">
        <ele>34</ele>
        <time>2012-02-19T08:02:43Z</time>
      </trkpt>
      <trkpt lat="50.40542" lon="3.11957">
        <ele>34</ele>
        <time>2012-02-19T08:02:49Z</time>
      </trkpt>
      <trkpt lat="50.40542" lon="3.11941">
        <ele>34</ele>
        <time>2012-02-19T08:02:54Z</time>
      </trkpt>
      <trkpt lat="50.40542" lon="3.11925">
        <ele>34</ele>
        <time>2012-02-19T08:02:59Z</time>
      </trkpt>
      <trkpt lat="50.40536" lon="3.11914">
        <ele>34</ele>
        <time>2012-02-19T08:03:02Z</time>
      </trkpt>
      <trkpt lat="50.40528" lon="3.11902">
        <ele>34</ele>
        <time>2012-02-19T08:03:05Z</time>
      </trkpt>
      <trkpt lat="50.40516" lon="3.11895">
        <ele>34</ele>
        <time>2012-02-19T08:03:08Z</time>
      </trkpt>
      <trkpt lat="50.40517" lon="3.1191">
        <ele>34</ele>
        <time>2012-02-19T08:03:13Z</time>
      </trkpt>
      <trkpt lat="50.40514" lon="3.11925">
        <ele>34</ele>
        <time>2012-02-19T08:03:16Z</time>
      </trkpt>
      <trkpt lat="50.40506" lon="3.11931">
        <ele>34</ele>
        <time>2012-02-19T08:03:22Z</time>
      </trkpt>
      <trkpt lat="50.40495" lon="3.11924">
        <ele>34</ele>
        <time>2012-02-19T08:03:25Z</time>
      </trkpt>
      <trkpt lat="50.40483" lon="3.11916">
        <ele>34</ele>
        <time>2012-02-19T08:03:28Z</time>
      </trkpt>
      <trkpt lat="50.40476" lon="3.11907">
        <ele>34</ele>
        <time>2012-02-19T08:03:31Z</time>
      </trkpt>
      <trkpt lat="50.40476" lon="3.11892">
        <ele>34</ele>
        <time>2012-02-19T08:03:36Z</time>
      </trkpt>
      <trkpt lat="50.40466" lon="3.11886">
        <ele>34</ele>
        <time>2012-02-19T08:03:40Z</time>
      </trkpt>
      <trkpt lat="50.40458" lon="3.11893">
        <ele>34</ele>
        <time>2012-02-19T08:03:44Z</time>
      </trkpt>
      <trkpt lat="50.40452" lon="3.11883">
        <ele>34</ele>
        <time>2012-02-19T08:03:48Z</time>
      </trkpt>
      <trkpt lat="50.40443" lon="3.11877">
        <ele>34</ele>
        <time>2012-02-19T08:03:52Z</time>
      </trkpt>
      <trkpt lat="50.40434" lon="3.11869">
        <ele>34</ele>
        <time>2012-02-19T08:03:55Z</time>
      </trkpt>
      <trkpt lat="50.40428" lon="3.11857">
        <ele>34</ele>
        <time>2012-02-19T08:03:58Z</time>
      </trkpt>
      <trkpt lat="50.40418" lon="3.11857">
        <ele>34</ele>
        <time>2012-02-19T08:04:01Z</time>
      </trkpt>
      <trkpt lat="50.4041" lon="3.11866">
        <ele>34</ele>
        <time>2012-02-19T08:04:05Z</time>
      </trkpt>
      <trkpt lat="50.40399" lon="3.11874">
        <ele>34</ele>
        <time>2012-02-19T08:04:08Z</time>
      </trkpt>
      <trkpt lat="50.4039" lon="3.11873">
        <ele>34</ele>
        <time>2012-02-19T08:04:12Z</time>
      </trkpt>
      <trkpt lat="50.40382" lon="3.11866">
        <ele>34</ele>
        <time>2012-02-19T08:04:21Z</time>
      </trkpt>
      <trkpt lat="50.40372" lon="3.11858">
        <ele>34</ele>
        <time>2012-02-19T08:04:26Z</time>
      </trkpt>
      <trkpt lat="50.40366" lon="3.11845">
        <ele>34</ele>
        <time>2012-02-19T08:04:30Z</time>
      </trkpt>
      <trkpt lat="50.40357" lon="3.11837">
        <ele>34</ele>
        <time>2012-02-19T08:04:33Z</time>
      </trkpt>
      <trkpt lat="50.40348" lon="3.1183">
        <ele>34</ele>
        <time>2012-02-19T08:04:37Z</time>
      </trkpt>
      <trkpt lat="50.40339" lon="3.11838">
        <ele>34</ele>
        <time>2012-02-19T08:04:42Z</time>
      </trkpt>
      <trkpt lat="50.40333" lon="3.11854">
        <ele>34</ele>
        <time>2012-02-19T08:04:45Z</time>
      </trkpt>
      <trkpt lat="50.40333" lon="3.11872">
        <ele>34</ele>
        <time>2012-02-19T08:04:48Z</time>
      </trkpt>
      <trkpt lat="50.4034" lon="3.11884">
        <ele>34</ele>
        <time>2012-02-19T08:04:51Z</time>
      </trkpt>
      <trkpt lat="50.40348" lon="3.11899">
        <ele>34</ele>
        <time>2012-02-19T08:04:54Z</time>
      </trkpt>
      <trkpt lat="50.40356" lon="3.11912">
        <ele>34</ele>
        <time>2012-02-19T08:04:57Z</time>
      </trkpt>
      <trkpt lat="50.40363" lon="3.11926">
        <ele>34</ele>
        <time>2012-02-19T08:05:00Z</time>
      </trkpt>
      <trkpt lat="50.40374" lon="3.11937">
        <ele>34</ele>
        <time>2012-02-19T08:05:03Z</time>
      </trkpt>
      <trkpt lat="50.40385" lon="3.11947">
        <ele>34</ele>
        <time>2012-02-19T08:05:06Z</time>
      </trkpt>
      <trkpt lat="50.40394" lon="3.11959">
        <ele>34</ele>
        <time>2012-02-19T08:05:09Z</time>
      </trkpt>
      <trkpt lat="50.40405" lon="3.11971">
        <ele>34</ele>
        <time>2012-02-19T08:05:12Z</time>
      </trkpt>
      <trkpt lat="50.40416" lon="3.1198">
        <ele>34</ele>
        <time>2012-02-19T08:05:15Z</time>
      </trkpt>
      <trkpt lat="50.40427" lon="3.11989">
        <ele>34</ele>
        <time>2012-02-19T08:05:18Z</time>
      </trkpt>
      <trkpt lat="50.40435" lon="3.11997">
        <ele>34</ele>
        <time>2012-02-19T08:05:20Z</time>
      </trkpt>
      <trkpt lat="50.40446" lon="3.12004">
        <ele>34</ele>
        <time>2012-02-19T08:05:23Z</time>
      </trkpt>
      <trkpt lat="50.40453" lon="3.12013">
        <ele>34</ele>
        <time>2012-02-19T08:05:25Z</time>
      </trkpt>
      <trkpt lat="50.4046" lon="3.12022">
        <ele>34</ele>
        <time>2012-02-19T08:05:27Z</time>
      </trkpt>
      <trkpt lat="50.40468" lon="3.1203">
        <ele>34</ele>
        <time>2012-02-19T08:05:29Z</time>
      </trkpt>
      <trkpt lat="50.40475" lon="3.12039">
        <ele>34</ele>
        <time>2012-02-19T08:05:31Z</time>
      </trkpt>
      <trkpt lat="50.40482" lon="3.12048">
        <ele>34</ele>
        <time>2012-02-19T08:05:33Z</time>
      </trkpt>
      <trkpt lat="50.40488" lon="3.12058">
        <ele>34</ele>
        <time>2012-02-19T08:05:35Z</time>
      </trkpt>
      <trkpt lat="50.40497" lon="3.12073">
        <ele>34</ele>
        <time>2012-02-19T08:05:38Z</time>
      </trkpt>
      <trkpt lat="50.40503" lon="3.12083">
        <ele>34</ele>
        <time>2012-02-19T08:05:40Z</time>
      </trkpt>
      <trkpt lat="50.40512" lon="3.12096">
        <ele>34</ele>
        <time>2012-02-19T08:05:43Z</time>
      </trkpt>
      <trkpt lat="50.40521" lon="3.12111">
        <ele>34</ele>
        <time>2012-02-19T08:05:46Z</time>
      </trkpt>
      <trkpt lat="50.40528" lon="3.12123">
        <ele>34</ele>
        <time>2012-02-19T08:05:49Z</time>
      </trkpt>
      <trkpt lat="50.40534" lon="3.12139">
        <ele>34</ele>
        <time>2012-02-19T08:05:53Z</time>
      </trkpt>
      <trkpt lat="50.40541" lon="3.12151">
        <ele>34</ele>
        <time>2012-02-19T08:05:56Z</time>
      </trkpt>
      <trkpt lat="50.40549" lon="3.12162">
        <ele>34</ele>
        <time>2012-02-19T08:05:59Z</time>
      </trkpt>
      <trkpt lat="50.40557" lon="3.12171">
        <ele>34</ele>
        <time>2012-02-19T08:06:03Z</time>
      </trkpt>
      <trkpt lat="50.40565" lon="3.12179">
        <ele>34</ele>
        <time>2012-02-19T08:06:10Z</time>
      </trkpt>
      <trkpt lat="50.40573" lon="3.12192">
        <ele>34</ele>
        <time>2012-02-19T08:06:16Z</time>
      </trkpt>
      <trkpt lat="50.4058" lon="3.12206">
        <ele>34</ele>
        <time>2012-02-19T08:06:21Z</time>
      </trkpt>
      <trkpt lat="50.40587" lon="3.1222">
        <ele>34</ele>
        <time>2012-02-19T08:06:25Z</time>
      </trkpt>
      <trkpt lat="50.40595" lon="3.12227">
        <ele>34</ele>
        <time>2012-02-19T08:06:28Z</time>
      </trkpt>
      <trkpt lat="50.40604" lon="3.12235">
        <ele>34</ele>
        <time>2012-02-19T08:06:31Z</time>
      </trkpt>
      <trkpt lat="50.40613" lon="3.12244">
        <ele>34</ele>
        <time>2012-02-19T08:06:34Z</time>
      </trkpt>
      <trkpt lat="50.4062" lon="3.12255">
        <ele>34</ele>
        <time>2012-02-19T08:06:37Z</time>
      </trkpt>
      <trkpt lat="50.40629" lon="3.12264">
        <ele>34</ele>
        <time>2012-02-19T08:06:40Z</time>
      </trkpt>
      <trkpt lat="50.40639" lon="3.12272">
        <ele>34</ele>
        <time>2012-02-19T08:06:43Z</time>
      </trkpt>
      <trkpt lat="50.40647" lon="3.12277">
        <ele>34</ele>
        <time>2012-02-19T08:06:46Z</time>
      </trkpt>
      <trkpt lat="50.40652" lon="3.12292">
        <ele>34</ele>
        <time>2012-02-19T08:06:49Z</time>
      </trkpt>
      <trkpt lat="50.40657" lon="3.12307">
        <ele>34</ele>
        <time>2012-02-19T08:06:52Z</time>
      </trkpt>
      <trkpt lat="50.40664" lon="3.12319">
        <ele>34</ele>
        <time>2012-02-19T08:06:55Z</time>
      </trkpt>
      <trkpt lat="50.40669" lon="3.12332">
        <ele>34</ele>
        <time>2012-02-19T08:06:58Z</time>
      </trkpt>
      <trkpt lat="50.40676" lon="3.12346">
        <ele>34</ele>
        <time>2012-02-19T08:07:01Z</time>
      </trkpt>
      <trkpt lat="50.40683" lon="3.1236">
        <ele>34</ele>
        <time>2012-02-19T08:07:04Z</time>
      </trkpt>
      <trkpt lat="50.4069" lon="3.12373">
        <ele>34</ele>
        <time>2012-02-19T08:07:07Z</time>
      </trkpt>
      <trkpt lat="50.40695" lon="3.12389">
        <ele>34</ele>
        <time>2012-02-19T08:07:10Z</time>
      </trkpt>
      <trkpt lat="50.40702" lon="3.12404">
        <ele>34</ele>
        <time>2012-02-19T08:07:13Z</time>
      </trkpt>
      <trkpt lat="50.40705" lon="3.12418">
        <ele>34</ele>
        <time>2012-02-19T08:07:16Z</time>
      </trkpt>
      <trkpt lat="50.40712" lon="3.12434">
        <ele>34</ele>
        <time>2012-02-19T08:07:19Z</time>
      </trkpt>
      <trkpt lat="50.4072" lon="3.12448">
        <ele>34</ele>
        <time>2012-02-19T08:07:22Z</time>
      </trkpt>
      <trkpt lat="50.40725" lon="3.1246">
        <ele>34</ele>
        <time>2012-02-19T08:07:24Z</time>
      </trkpt>
      <trkpt lat="50.40732" lon="3.12477">
        <ele>34</ele>
        <time>2012-02-19T08:07:27Z</time>
      </trkpt>
      <trkpt lat="50.4074" lon="3.12492">
        <ele>34</ele>
        <time>2012-02-19T08:07:30Z</time>
      </trkpt>
      <trkpt lat="50.4075" lon="3.12502">
        <ele>34</ele>
        <time>2012-02-19T08:07:33Z</time>
      </trkpt>
      <trkpt lat="50.40756" lon="3.12516">
        <ele>34</ele>
        <time>2012-02-19T08:07:36Z</time>
      </trkpt>
      <trkpt lat="50.40761" lon="3.1253">
        <ele>34</ele>
        <time>2012-02-19T08:07:39Z</time>
      </trkpt>
      <trkpt lat="50.40769" lon="3.12543">
        <ele>34</ele>
        <time>2012-02-19T08:07:42Z</time>
      </trkpt>
      <trkpt lat="50.40777" lon="3.12557">
        <ele>34</ele>
        <time>2012-02-19T08:07:46Z</time>
      </trkpt>
      <trkpt lat="50.40784" lon="3.12571">
        <ele>34</ele>
        <time>2012-02-19T08:07:50Z</time>
      </trkpt>
      <trkpt lat="50.4079" lon="3.12581">
        <ele>34</ele>
        <time>2012-02-19T08:08:01Z</time>
      </trkpt>
      <trkpt lat="50.40796" lon="3.12591">
        <ele>34</ele>
        <time>2012-02-19T08:08:07Z</time>
      </trkpt>
      <trkpt lat="50.40805" lon="3.12597">
        <ele>34</ele>
        <time>2012-02-19T08:08:11Z</time>
      </trkpt>
      <trkpt lat="50.40809" lon="3.12611">
        <ele>34</ele>
        <time>2012-02-19T08:08:15Z</time>
      </trkpt>
      <trkpt lat="50.40811" lon="3.12625">
        <ele>34</ele>
        <time>2012-02-19T08:08:18Z</time>
      </trkpt>
      <trkpt lat="50.40817" lon="3.12638">
        <ele>34</ele>
        <time>2012-02-19T08:08:22Z</time>
      </trkpt>
      <trkpt lat="50.40824" lon="3.1265">
        <ele>34</ele>
        <time>2012-02-19T08:08:25Z</time>
      </trkpt>
      <trkpt lat="50.40831" lon="3.12662">
        <ele>34</ele>
        <time>2012-02-19T08:08:28Z</time>
      </trkpt>
      <trkpt lat="50.40836" lon="3.12677">
        <ele>34</ele>
        <time>2012-02-19T08:08:31Z</time>
      </trkpt>
      <trkpt lat="50.40845" lon="3.1269">
        <ele>34</ele>
        <time>2012-02-19T08:08:34Z</time>
      </trkpt>
      <trkpt lat="50.40848" lon="3.12705">
        <ele>34</ele>
        <time>2012-02-19T08:08:37Z</time>
      </trkpt>
      <trkpt lat="50.40852" lon="3.12718">
        <ele>34</ele>
        <time>2012-02-19T08:08:40Z</time>
      </trkpt>
      <trkpt lat="50.40861" lon="3.12731">
        <ele>34</ele>
        <time>2012-02-19T08:08:44Z</time>
      </trkpt>
      <trkpt lat="50.40871" lon="3.12733">
        <ele>34</ele>
        <time>2012-02-19T08:08:48Z</time>
      </trkpt>
      <trkpt lat="50.40881" lon="3.12728">
        <ele>34</ele>
        <time>2012-02-19T08:08:52Z</time>
      </trkpt>
      <trkpt lat="50.40886" lon="3.12714">
        <ele>34</ele>
        <time>2012-02-19T08:08:56Z</time>
      </trkpt>
      <trkpt lat="50.4089" lon="3.12702">
        <ele>34</ele>
        <time>2012-02-19T08:08:59Z</time>
      </trkpt>
      <trkpt lat="50.40898" lon="3.12688">
        <ele>34</ele>
        <time>2012-02-19T08:09:03Z</time>
      </trkpt>
      <trkpt lat="50.40904" lon="3.12676">
        <ele>34</ele>
        <time>2012-02-19T08:09:06Z</time>
      </trkpt>
      <trkpt lat="50.4091" lon="3.12665">
        <ele>34</ele>
        <time>2012-02-19T08:09:09Z</time>
      </trkpt>
      <trkpt lat="50.40916" lon="3.12649">
        <ele>34</ele>
        <time>2012-02-19T08:09:13Z</time>
      </trkpt>
      <trkpt lat="50.40917" lon="3.12633">
        <ele>34</ele>
        <time>2012-02-19T08:09:18Z</time>
      </trkpt>
      <trkpt lat="50.40925" lon="3.12623">
        <ele>34</ele>
        <time>2012-02-19T08:09:22Z</time>
      </trkpt>
      <trkpt lat="50.40932" lon="3.12612">
        <ele>34</ele>
        <time>2012-02-19T08:09:26Z</time>
      </trkpt>
      <trkpt lat="50.40929" lon="3.12596">
        <ele>34</ele>
        <time>2012-02-19T08:09:30Z</time>
      </trkpt>
      <trkpt lat="50.40922" lon="3.12587">
        <ele>34</ele>
        <time>2012-02-19T08:09:33Z</time>
      </trkpt>
      <trkpt lat="50.40914" lon="3.12577">
        <ele>34</ele>
        <time>2012-02-19T08:09:36Z</time>
      </trkpt>
      <trkpt lat="50.40906" lon="3.12563">
        <ele>34</ele>
        <time>2012-02-19T08:09:39Z</time>
      </trkpt>
      <trkpt lat="50.40901" lon="3.12551">
        <ele>40</ele>
        <time>2012-02-19T08:09:42Z</time>
      </trkpt>
      <trkpt lat="50.40895" lon="3.1254">
        <ele>40</ele>
        <time>2012-02-19T08:09:45Z</time>
      </trkpt>
      <trkpt lat="50.4089" lon="3.12525">
        <ele>40</ele>
        <time>2012-02-19T08:09:49Z</time>
      </trkpt>
      <trkpt lat="50.40882" lon="3.12513">
        <ele>40</ele>
        <time>2012-02-19T08:09:52Z</time>
      </trkpt>
      <trkpt lat="50.40876" lon="3.12502">
        <ele>40</ele>
        <time>2012-02-19T08:09:54Z</time>
      </trkpt>
      <trkpt lat="50.40873" lon="3.12487">
        <ele>40</ele>
        <time>2012-02-19T08:09:57Z</time>
      </trkpt>
      <trkpt lat="50.4087" lon="3.12472">
        <ele>40</ele>
        <time>2012-02-19T08:10:00Z</time>
      </trkpt>
      <trkpt lat="50.40862" lon="3.1246">
        <ele>40</ele>
        <time>2012-02-19T08:10:04Z</time>
      </trkpt>
      <trkpt lat="50.40854" lon="3.12464">
        <ele>34</ele>
        <time>2012-02-19T08:10:07Z</time>
      </trkpt>
      <trkpt lat="50.40847" lon="3.12479">
        <ele>34</ele>
        <time>2012-02-19T08:10:11Z</time>
      </trkpt>
      <trkpt lat="50.40835" lon="3.12484">
        <ele>34</ele>
        <time>2012-02-19T08:10:15Z</time>
      </trkpt>
      <trkpt lat="50.40828" lon="3.12475">
        <ele>34</ele>
        <time>2012-02-19T08:10:17Z</time>
      </trkpt>
      <trkpt lat="50.4082" lon="3.12466">
        <ele>34</ele>
        <time>2012-02-19T08:10:19Z</time>
      </trkpt>
      <trkpt lat="50.40814" lon="3.12455">
        <ele>34</ele>
        <time>2012-02-19T08:10:21Z</time>
      </trkpt>
      <trkpt lat="50.40807" lon="3.12442">
        <ele>34</ele>
        <time>2012-02-19T08:10:23Z</time>
      </trkpt>
      <trkpt lat="50.40799" lon="3.12431">
        <ele>34</ele>
        <time>2012-02-19T08:10:25Z</time>
      </trkpt>
      <trkpt lat="50.40792" lon="3.12418">
        <ele>34</ele>
        <time>2012-02-19T08:10:27Z</time>
      </trkpt>
      <trkpt lat="50.40785" lon="3.12405">
        <ele>34</ele>
        <time>2012-02-19T08:10:29Z</time>
      </trkpt>
      <trkpt lat="50.40779" lon="3.12392">
        <ele>34</ele>
        <time>2012-02-19T08:10:31Z</time>
      </trkpt>
      <trkpt lat="50.40771" lon="3.12377">
        <ele>34</ele>
        <time>2012-02-19T08:10:33Z</time>
      </trkpt>
      <trkpt lat="50.40763" lon="3.12363">
        <ele>34</ele>
        <time>2012-02-19T08:10:35Z</time>
      </trkpt>
      <trkpt lat="50.40757" lon="3.1235">
        <ele>34</ele>
        <time>2012-02-19T08:10:37Z</time>
      </trkpt>
      <trkpt lat="50.40749" lon="3.12339">
        <ele>34</ele>
        <time>2012-02-19T08:10:39Z</time>
      </trkpt>
      <trkpt lat="50.40743" lon="3.12327">
        <ele>34</ele>
        <time>2012-02-19T08:10:41Z</time>
      </trkpt>
      <trkpt lat="50.40735" lon="3.12316">
        <ele>34</ele>
        <time>2012-02-19T08:10:43Z</time>
      </trkpt>
      <trkpt lat="50.40728" lon="3.12304">
        <ele>34</ele>
        <time>2012-02-19T08:10:45Z</time>
      </trkpt>
      <trkpt lat="50.40722" lon="3.12291">
        <ele>34</ele>
        <time>2012-02-19T08:10:47Z</time>
      </trkpt>
      <trkpt lat="50.40714" lon="3.12281">
        <ele>34</ele>
        <time>2012-02-19T08:10:49Z</time>
      </trkpt>
      <trkpt lat="50.40705" lon="3.12272">
        <ele>34</ele>
        <time>2012-02-19T08:10:51Z</time>
      </trkpt>
      <trkpt lat="50.40697" lon="3.12263">
        <ele>34</ele>
        <time>2012-02-19T08:10:53Z</time>
      </trkpt>
      <trkpt lat="50.40689" lon="3.12253">
        <ele>34</ele>
        <time>2012-02-19T08:10:55Z</time>
      </trkpt>
      <trkpt lat="50.40681" lon="3.12241">
        <ele>34</ele>
        <time>2012-02-19T08:10:57Z</time>
      </trkpt>
      <trkpt lat="50.40674" lon="3.12231">
        <ele>34</ele>
        <time>2012-02-19T08:10:59Z</time>
      </trkpt>
      <trkpt lat="50.40666" lon="3.12221">
        <ele>34</ele>
        <time>2012-02-19T08:11:01Z</time>
      </trkpt>
      <trkpt lat="50.40658" lon="3.12212">
        <ele>34</ele>
        <time>2012-02-19T08:11:03Z</time>
      </trkpt>
      <trkpt lat="50.4065" lon="3.12202">
        <ele>34</ele>
        <time>2012-02-19T08:11:05Z</time>
      </trkpt>
      <trkpt lat="50.40645" lon="3.1219">
        <ele>34</ele>
        <time>2012-02-19T08:11:07Z</time>
      </trkpt>
      <trkpt lat="50.40646" lon="3.12175">
        <ele>34</ele>
        <time>2012-02-19T08:11:09Z</time>
      </trkpt>
      <trkpt lat="50.40653" lon="3.12164">
        <ele>34</ele>
        <time>2012-02-19T08:11:11Z</time>
      </trkpt>
      <trkpt lat="50.40659" lon="3.12151">
        <ele>34</ele>
        <time>2012-02-19T08:11:13Z</time>
      </trkpt>
      <trkpt lat="50.40665" lon="3.12139">
        <ele>34</ele>
        <time>2012-02-19T08:11:15Z</time>
      </trkpt>
      <trkpt lat="50.40673" lon="3.1213">
        <ele>34</ele>
        <time>2012-02-19T08:11:17Z</time>
      </trkpt>
      <trkpt lat="50.40679" lon="3.12121">
        <ele>34</ele>
        <time>2012-02-19T08:11:19Z</time>
      </trkpt>
      <trkpt lat="50.40685" lon="3.12104">
        <ele>34</ele>
        <time>2012-02-19T08:11:22Z</time>
      </trkpt>
      <trkpt lat="50.40692" lon="3.12089">
        <ele>34</ele>
        <time>2012-02-19T08:11:25Z</time>
      </trkpt>
      <trkpt lat="50.40698" lon="3.12076">
        <ele>34</ele>
        <time>2012-02-19T08:11:28Z</time>
      </trkpt>
      <trkpt lat="50.40704" lon="3.12062">
        <ele>34</ele>
        <time>2012-02-19T08:11:31Z</time>
      </trkpt>
      <trkpt lat="50.40711" lon="3.12053">
        <ele>34</ele>
        <time>2012-02-19T08:11:34Z</time>
      </trkpt>
      <trkpt lat="50.40719" lon="3.12041">
        <ele>34</ele>
        <time>2012-02-19T08:11:38Z</time>
      </trkpt>
      <trkpt lat="50.40726" lon="3.12031">
        <ele>34</ele>
        <time>2012-02-19T08:11:41Z</time>
      </trkpt>
      <trkpt lat="50.40734" lon="3.12021">
        <ele>34</ele>
        <time>2012-02-19T08:11:44Z</time>
      </trkpt>
      <trkpt lat="50.40738" lon="3.12007">
        <ele>34</ele>
        <time>2012-02-19T08:11:48Z</time>
      </trkpt>
      <trkpt lat="50.40746" lon="3.11995">
        <ele>34</ele>
        <time>2012-02-19T08:11:52Z</time>
      </trkpt>
      <trkpt lat="50.40753" lon="3.11982">
        <ele>34</ele>
        <time>2012-02-19T08:11:55Z</time>
      </trkpt>
      <trkpt lat="50.40757" lon="3.11965">
        <ele>34</ele>
        <time>2012-02-19T08:11:58Z</time>
      </trkpt>
      <trkpt lat="50.40765" lon="3.11954">
        <ele>34</ele>
        <time>2012-02-19T08:12:02Z</time>
      </trkpt>
      <trkpt lat="50.40772" lon="3.11942">
        <ele>34</ele>
        <time>2012-02-19T08:12:06Z</time>
      </trkpt>
      <trkpt lat="50.40782" lon="3.11938">
        <ele>34</ele>
        <time>2012-02-19T08:12:10Z</time>
      </trkpt>
      <trkpt lat="50.40794" lon="3.11939">
        <ele>34</ele>
        <time>2012-02-19T08:12:14Z</time>
      </trkpt>
      <trkpt lat="50.40803" lon="3.1194">
        <ele>27</ele>
        <time>2012-02-19T08:12:17Z</time>
      </trkpt>
      <trkpt lat="50.40815" lon="3.11945">
        <ele>27</ele>
        <time>2012-02-19T08:12:21Z</time>
      </trkpt>
      <trkpt lat="50.40825" lon="3.11947">
        <ele>27</ele>
        <time>2012-02-19T08:12:24Z</time>
      </trkpt>
      <trkpt lat="50.40834" lon="3.11954">
        <ele>22</ele>
        <time>2012-02-19T08:12:27Z</time>
      </trkpt>
      <trkpt lat="50.40842" lon="3.1196">
        <ele>22</ele>
        <time>2012-02-19T08:12:30Z</time>
      </trkpt>
      <trkpt lat="50.40854" lon="3.11961">
        <ele>22</ele>
        <time>2012-02-19T08:12:34Z</time>
      </trkpt>
      <trkpt lat="50.40866" lon="3.1196">
        <ele>22</ele>
        <time>2012-02-19T08:12:38Z</time>
      </trkpt>
      <trkpt lat="50.40875" lon="3.11963">
        <ele>22</ele>
        <time>2012-02-19T08:12:42Z</time>
      </trkpt>
      <trkpt lat="50.40885" lon="3.11969">
        <ele>22</ele>
        <time>2012-02-19T08:12:45Z</time>
      </trkpt>
      <trkpt lat="50.40893" lon="3.11976">
        <ele>22</ele>
        <time>2012-02-19T08:12:48Z</time>
      </trkpt>
      <trkpt lat="50.40901" lon="3.11989">
        <ele>22</ele>
        <time>2012-02-19T08:12:52Z</time>
      </trkpt>
      <trkpt lat="50.40909" lon="3.11998">
        <ele>27</ele>
        <time>2012-02-19T08:12:55Z</time>
      </trkpt>
      <trkpt lat="50.40919" lon="3.12004">
        <ele>27</ele>
        <time>2012-02-19T08:12:58Z</time>
      </trkpt>
      <trkpt lat="50.40928" lon="3.12004">
        <ele>27</ele>
        <time>2012-02-19T08:13:01Z</time>
      </trkpt>
      <trkpt lat="50.40939" lon="3.12004">
        <ele>27</ele>
        <time>2012-02-19T08:13:04Z</time>
      </trkpt>
      <trkpt lat="50.40949" lon="3.12014">
        <ele>27</ele>
        <time>2012-02-19T08:13:07Z</time>
      </trkpt>
      <trkpt lat="50.40956" lon="3.12029">
        <ele>27</ele>
        <time>2012-02-19T08:13:10Z</time>
      </trkpt>
      <trkpt lat="50.40962" lon="3.12044">
        <ele>27</ele>
        <time>2012-02-19T08:13:13Z</time>
      </trkpt>
      <trkpt lat="50.40965" lon="3.1206">
        <ele>27</ele>
        <time>2012-02-19T08:13:16Z</time>
      </trkpt>
      <trkpt lat="50.40967" lon="3.12077">
        <ele>27</ele>
        <time>2012-02-19T08:13:19Z</time>
      </trkpt>
      <trkpt lat="50.40968" lon="3.12096">
        <ele>33</ele>
        <time>2012-02-19T08:13:22Z</time>
      </trkpt>
      <trkpt lat="50.40971" lon="3.12113">
        <ele>33</ele>
        <time>2012-02-19T08:13:25Z</time>
      </trkpt>
      <trkpt lat="50.40972" lon="3.12127">
        <ele>33</ele>
        <time>2012-02-19T08:13:28Z</time>
      </trkpt>
      <trkpt lat="50.40972" lon="3.12142">
        <ele>39</ele>
        <time>2012-02-19T08:13:31Z</time>
      </trkpt>
      <trkpt lat="50.40972" lon="3.12158">
        <ele>39</ele>
        <time>2012-02-19T08:13:34Z</time>
      </trkpt>
      <trkpt lat="50.40975" lon="3.12175">
        <ele>39</ele>
        <time>2012-02-19T08:13:37Z</time>
      </trkpt>
      <trkpt lat="50.40975" lon="3.12192">
        <ele>39</ele>
        <time>2012-02-19T08:13:40Z</time>
      </trkpt>
      <trkpt lat="50.40972" lon="3.12205">
        <ele>39</ele>
        <time>2012-02-19T08:13:42Z</time>
      </trkpt>
      <trkpt lat="50.4097" lon="3.12223">
        <ele>39</ele>
        <time>2012-02-19T08:13:45Z</time>
      </trkpt>
      <trkpt lat="50.40967" lon="3.1224">
        <ele>39</ele>
        <time>2012-02-19T08:13:49Z</time>
      </trkpt>
      <trkpt lat="50.4097" lon="3.12257">
        <ele>39</ele>
        <time>2012-02-19T08:13:53Z</time>
      </trkpt>
      <trkpt lat="50.40966" lon="3.12272">
        <ele>39</ele>
        <time>2012-02-19T08:13:57Z</time>
      </trkpt>
      <trkpt lat="50.40963" lon="3.12287">
        <ele>39</ele>
        <time>2012-02-19T08:14:00Z</time>
      </trkpt>
      <trkpt lat="50.40962" lon="3.12301">
        <ele>39</ele>
        <time>2012-02-19T08:14:03Z</time>
      </trkpt>
      <trkpt lat="50.40959" lon="3.12315">
        <ele>39</ele>
        <time>2012-02-19T08:14:06Z</time>
      </trkpt>
      <trkpt lat="50.40955" lon="3.12327">
        <ele>39</ele>
        <time>2012-02-19T08:14:09Z</time>
      </trkpt>
      <trkpt lat="50.40951" lon="3.12344">
        <ele>39</ele>
        <time>2012-02-19T08:14:12Z</time>
      </trkpt>
      <trkpt lat="50.40948" lon="3.1236">
        <ele>44</ele>
        <time>2012-02-19T08:14:15Z</time>
      </trkpt>
      <trkpt lat="50.40945" lon="3.12377">
        <ele>44</ele>
        <time>2012-02-19T08:14:19Z</time>
      </trkpt>
      <trkpt lat="50.40944" lon="3.12396">
        <ele>44</ele>
        <time>2012-02-19T08:14:23Z</time>
      </trkpt>
      <trkpt lat="50.40941" lon="3.12414">
        <ele>44</ele>
        <time>2012-02-19T08:14:26Z</time>
      </trkpt>
      <trkpt lat="50.40938" lon="3.1243">
        <ele>44</ele>
        <time>2012-02-19T08:14:30Z</time>
      </trkpt>
      <trkpt lat="50.40943" lon="3.12446">
        <ele>44</ele>
        <time>2012-02-19T08:14:34Z</time>
      </trkpt>
      <trkpt lat="50.40948" lon="3.12465">
        <ele>44</ele>
        <time>2012-02-19T08:14:37Z</time>
      </trkpt>
      <trkpt lat="50.40953" lon="3.12482">
        <ele>44</ele>
        <time>2012-02-19T08:14:40Z</time>
      </trkpt>
      <trkpt lat="50.40957" lon="3.12497">
        <ele>39</ele>
        <time>2012-02-19T08:14:43Z</time>
      </trkpt>
      <trkpt lat="50.40957" lon="3.12513">
        <ele>39</ele>
        <time>2012-02-19T08:14:51Z</time>
      </trkpt>
      <trkpt lat="50.40956" lon="3.12528">
        <ele>39</ele>
        <time>2012-02-19T08:14:55Z</time>
      </trkpt>
      <trkpt lat="50.40952" lon="3.12545">
        <ele>39</ele>
        <time>2012-02-19T08:14:58Z</time>
      </trkpt>
      <trkpt lat="50.4095" lon="3.12562">
        <ele>39</ele>
        <time>2012-02-19T08:15:01Z</time>
      </trkpt>
      <trkpt lat="50.40947" lon="3.12576">
        <ele>39</ele>
        <time>2012-02-19T08:15:04Z</time>
      </trkpt>
      <trkpt lat="50.40943" lon="3.12593">
        <ele>39</ele>
        <time>2012-02-19T08:15:07Z</time>
      </trkpt>
      <trkpt lat="50.40936" lon="3.12606">
        <ele>39</ele>
        <time>2012-02-19T08:15:10Z</time>
      </trkpt>
      <trkpt lat="50.40932" lon="3.1262">
        <ele>39</ele>
        <time>2012-02-19T08:15:13Z</time>
      </trkpt>
      <trkpt lat="50.40928" lon="3.12634">
        <ele>39</ele>
        <time>2012-02-19T08:15:26Z</time>
      </trkpt>
      <trkpt lat="50.40925" lon="3.12647">
        <ele>39</ele>
        <time>2012-02-19T08:15:29Z</time>
      </trkpt>
      <trkpt lat="50.40922" lon="3.12662">
        <ele>39</ele>
        <time>2012-02-19T08:15:32Z</time>
      </trkpt>
      <trkpt lat="50.4092" lon="3.12678">
        <ele>39</ele>
        <time>2012-02-19T08:15:35Z</time>
      </trkpt>
      <trkpt lat="50.40918" lon="3.12696">
        <ele>39</ele>
        <time>2012-02-19T08:15:38Z</time>
      </trkpt>
      <trkpt lat="50.40919" lon="3.12713">
        <ele>32</ele>
        <time>2012-02-19T08:15:41Z</time>
      </trkpt>
      <trkpt lat="50.40925" lon="3.12727">
        <ele>32</ele>
        <time>2012-02-19T08:15:44Z</time>
      </trkpt>
      <trkpt lat="50.40934" lon="3.12737">
        <ele>32</ele>
        <time>2012-02-19T08:15:47Z</time>
      </trkpt>
      <trkpt lat="50.40943" lon="3.12749">
        <ele>26</ele>
        <time>2012-02-19T08:15:50Z</time>
      </trkpt>
      <trkpt lat="50.40951" lon="3.12759">
        <ele>26</ele>
        <time>2012-02-19T08:15:53Z</time>
      </trkpt>
      <trkpt lat="50.4096" lon="3.12772">
        <ele>26</ele>
        <time>2012-02-19T08:15:56Z</time>
      </trkpt>
      <trkpt lat="50.4097" lon="3.12784">
        <ele>26</ele>
        <time>2012-02-19T08:15:59Z</time>
      </trkpt>
      <trkpt lat="50.40979" lon="3.12796">
        <ele>26</ele>
        <time>2012-02-19T08:16:02Z</time>
      </trkpt>
      <trkpt lat="50.40987" lon="3.12808">
        <ele>26</ele>
        <time>2012-02-19T08:16:05Z</time>
      </trkpt>
      <trkpt lat="50.40995" lon="3.12819">
        <ele>26</ele>
        <time>2012-02-19T08:16:08Z</time>
      </trkpt>
      <trkpt lat="50.41003" lon="3.12829">
        <ele>26</ele>
        <time>2012-02-19T08:16:11Z</time>
      </trkpt>
      <trkpt lat="50.4101" lon="3.1284">
        <ele>26</ele>
        <time>2012-02-19T08:16:14Z</time>
      </trkpt>
      <trkpt lat="50.41015" lon="3.12855">
        <ele>26</ele>
        <time>2012-02-19T08:16:18Z</time>
      </trkpt>
      <trkpt lat="50.41027" lon="3.12858">
        <ele>26</ele>
        <time>2012-02-19T08:16:22Z</time>
      </trkpt>
      <trkpt lat="50.41038" lon="3.12855">
        <ele>26</ele>
        <time>2012-02-19T08:16:25Z</time>
      </trkpt>
      <trkpt lat="50.41051" lon="3.12854">
        <ele>26</ele>
        <time>2012-02-19T08:16:28Z</time>
      </trkpt>
      <trkpt lat="50.41061" lon="3.12854">
        <ele>26</ele>
        <time>2012-02-19T08:16:30Z</time>
      </trkpt>
      <trkpt lat="50.41071" lon="3.12854">
        <ele>26</ele>
        <time>2012-02-19T08:16:32Z</time>
      </trkpt>
      <trkpt lat="50.41081" lon="3.12855">
        <ele>26</ele>
        <time>2012-02-19T08:16:34Z</time>
      </trkpt>
      <trkpt lat="50.41092" lon="3.12858">
        <ele>26</ele>
        <time>2012-02-19T08:16:36Z</time>
      </trkpt>
      <trkpt lat="50.41102" lon="3.12862">
        <ele>26</ele>
        <time>2012-02-19T08:16:38Z</time>
      </trkpt>
      <trkpt lat="50.41112" lon="3.12867">
        <ele>26</ele>
        <time>2012-02-19T08:16:40Z</time>
      </trkpt>
      <trkpt lat="50.41123" lon="3.12873">
        <ele>21</ele>
        <time>2012-02-19T08:16:42Z</time>
      </trkpt>
      <trkpt lat="50.41133" lon="3.12881">
        <ele>21</ele>
        <time>2012-02-19T08:16:44Z</time>
      </trkpt>
      <trkpt lat="50.41143" lon="3.1289">
        <ele>21</ele>
        <time>2012-02-19T08:16:46Z</time>
      </trkpt>
      <trkpt lat="50.41153" lon="3.129">
        <ele>21</ele>
        <time>2012-02-19T08:16:48Z</time>
      </trkpt>
      <trkpt lat="50.41164" lon="3.12911">
        <ele>21</ele>
        <time>2012-02-19T08:16:50Z</time>
      </trkpt>
      <trkpt lat="50.41175" lon="3.12921">
        <ele>21</ele>
        <time>2012-02-19T08:16:52Z</time>
      </trkpt>
      <trkpt lat="50.41186" lon="3.12931">
        <ele>21</ele>
        <time>2012-02-19T08:16:54Z</time>
      </trkpt>
      <trkpt lat="50.41198" lon="3.12942">
        <ele>21</ele>
        <time>2012-02-19T08:16:56Z</time>
      </trkpt>
      <trkpt lat="50.41209" lon="3.12952">
        <ele>21</ele>
        <time>2012-02-19T08:16:58Z</time>
      </trkpt>
      <trkpt lat="50.41221" lon="3.12963">
        <ele>21</ele>
        <time>2012-02-19T08:17:00Z</time>
      </trkpt>
      <trkpt lat="50.41232" lon="3.12974">
        <ele>21</ele>
        <time>2012-02-19T08:17:02Z</time>
      </trkpt>
      <trkpt lat="50.41244" lon="3.12985">
        <ele>21</ele>
        <time>2012-02-19T08:17:04Z</time>
      </trkpt>
      <trkpt lat="50.41255" lon="3.12995">
        <ele>21</ele>
        <time>2012-02-19T08:17:06Z</time>
      </trkpt>
      <trkpt lat="50.41266" lon="3.13005">
        <ele>21</ele>
        <time>2012-02-19T08:17:08Z</time>
      </trkpt>
      <trkpt lat="50.41277" lon="3.13014">
        <ele>21</ele>
        <time>2012-02-19T08:17:10Z</time>
      </trkpt>
      <trkpt lat="50.41287" lon="3.13023">
        <ele>21</ele>
        <time>2012-02-19T08:17:12Z</time>
      </trkpt>
      <trkpt lat="50.41296" lon="3.13032">
        <ele>21</ele>
        <time>2012-02-19T08:17:14Z</time>
      </trkpt>
      <trkpt lat="50.41306" lon="3.13041">
        <ele>21</ele>
        <time>2012-02-19T08:17:16Z</time>
      </trkpt>
      <trkpt lat="50.41315" lon="3.13049">
        <ele>21</ele>
        <time>2012-02-19T08:17:18Z</time>
      </trkpt>
      <trkpt lat="50.41324" lon="3.13058">
        <ele>21</ele>
        <time>2012-02-19T08:17:20Z</time>
      </trkpt>
      <trkpt lat="50.41332" lon="3.1307">
        <ele>21</ele>
        <time>2012-02-19T08:17:22Z</time>
      </trkpt>
      <trkpt lat="50.41341" lon="3.13082">
        <ele>21</ele>
        <time>2012-02-19T08:17:24Z</time>
      </trkpt>
      <trkpt lat="50.4135" lon="3.13092">
        <ele>21</ele>
        <time>2012-02-19T08:17:26Z</time>
      </trkpt>
      <trkpt lat="50.4136" lon="3.13102">
        <ele>21</ele>
        <time>2012-02-19T08:17:28Z</time>
      </trkpt>
      <trkpt lat="50.4137" lon="3.13112">
        <ele>21</ele>
        <time>2012-02-19T08:17:30Z</time>
      </trkpt>
      <trkpt lat="50.41379" lon="3.13122">
        <ele>21</ele>
        <time>2012-02-19T08:17:32Z</time>
      </trkpt>
      <trkpt lat="50.41388" lon="3.13133">
        <ele>21</ele>
        <time>2012-02-19T08:17:34Z</time>
      </trkpt>
      <trkpt lat="50.41393" lon="3.13145">
        <ele>21</ele>
        <time>2012-02-19T08:17:36Z</time>
      </trkpt>
      <trkpt lat="50.41392" lon="3.13159">
        <ele>21</ele>
        <time>2012-02-19T08:17:38Z</time>
      </trkpt>
      <trkpt lat="50.41387" lon="3.13173">
        <ele>21</ele>
        <time>2012-02-19T08:17:40Z</time>
      </trkpt>
      <trkpt lat="50.41381" lon="3.13189">
        <ele>21</ele>
        <time>2012-02-19T08:17:42Z</time>
      </trkpt>
      <trkpt lat="50.41374" lon="3.13205">
        <ele>21</ele>
        <time>2012-02-19T08:17:44Z</time>
      </trkpt>
      <trkpt lat="50.41367" lon="3.13222">
        <ele>21</ele>
        <time>2012-02-19T08:17:46Z</time>
      </trkpt>
      <trkpt lat="50.41362" lon="3.13239">
        <ele>21</ele>
        <time>2012-02-19T08:17:48Z</time>
      </trkpt>
      <trkpt lat="50.41356" lon="3.13258">
        <ele>21</ele>
        <time>2012-02-19T08:17:50Z</time>
      </trkpt>
      <trkpt lat="50.41352" lon="3.13276">
        <ele>21</ele>
        <time>2012-02-19T08:17:52Z</time>
      </trkpt>
      <trkpt lat="50.41349" lon="3.13295">
        <ele>21</ele>
        <time>2012-02-19T08:17:54Z</time>
      </trkpt>
      <trkpt lat="50.41346" lon="3.13314">
        <ele>21</ele>
        <time>2012-02-19T08:17:56Z</time>
      </trkpt>
      <trkpt lat="50.41344" lon="3.13333">
        <ele>21</ele>
        <time>2012-02-19T08:17:58Z</time>
      </trkpt>
      <trkpt lat="50.41343" lon="3.13353">
        <ele>21</ele>
        <time>2012-02-19T08:18:00Z</time>
      </trkpt>
      <trkpt lat="50.4134" lon="3.13373">
        <ele>21</ele>
        <time>2012-02-19T08:18:02Z</time>
      </trkpt>
      <trkpt lat="50.41339" lon="3.13394">
        <ele>21</ele>
        <time>2012-02-19T08:18:04Z</time>
      </trkpt>
      <trkpt lat="50.41336" lon="3.13415">
        <ele>21</ele>
        <time>2012-02-19T08:18:06Z</time>
      </trkpt>
      <trkpt lat="50.41335" lon="3.13437">
        <ele>21</ele>
        <time>2012-02-19T08:18:08Z</time>
      </trkpt>
      <trkpt lat="50.41333" lon="3.13457">
        <ele>21</ele>
        <time>2012-02-19T08:18:10Z</time>
      </trkpt>
      <trkpt lat="50.41331" lon="3.13479">
        <ele>21</ele>
        <time>2012-02-19T08:18:12Z</time>
      </trkpt>
      <trkpt lat="50.41329" lon="3.13499">
        <ele>21</ele>
        <time>2012-02-19T08:18:14Z</time>
      </trkpt>
      <trkpt lat="50.41328" lon="3.13518">
        <ele>21</ele>
        <time>2012-02-19T08:18:16Z</time>
      </trkpt>
      <trkpt lat="50.41324" lon="3.13535">
        <ele>21</ele>
        <time>2012-02-19T08:18:18Z</time>
      </trkpt>
      <trkpt lat="50.41315" lon="3.1354">
        <ele>21</ele>
        <time>2012-02-19T08:18:20Z</time>
      </trkpt>
      <trkpt lat="50.41306" lon="3.13535">
        <ele>21</ele>
        <time>2012-02-19T08:18:22Z</time>
      </trkpt>
      <trkpt lat="50.41297" lon="3.13527">
        <ele>27</ele>
        <time>2012-02-19T08:18:24Z</time>
      </trkpt>
      <trkpt lat="50.41287" lon="3.13519">
        <ele>27</ele>
        <time>2012-02-19T08:18:26Z</time>
      </trkpt>
      <trkpt lat="50.41276" lon="3.1351">
        <ele>27</ele>
        <time>2012-02-19T08:18:28Z</time>
      </trkpt>
      <trkpt lat="50.41266" lon="3.135">
        <ele>27</ele>
        <time>2012-02-19T08:18:30Z</time>
      </trkpt>
      <trkpt lat="50.41254" lon="3.13491">
        <ele>27</ele>
        <time>2012-02-19T08:18:32Z</time>
      </trkpt>
      <trkpt lat="50.41244" lon="3.13482">
        <ele>27</ele>
        <time>2012-02-19T08:18:34Z</time>
      </trkpt>
      <trkpt lat="50.41233" lon="3.13472">
        <ele>27</ele>
        <time>2012-02-19T08:18:36Z</time>
      </trkpt>
      <trkpt lat="50.41222" lon="3.13462">
        <ele>27</ele>
        <time>2012-02-19T08:18:38Z</time>
      </trkpt>
      <trkpt lat="50.41211" lon="3.13452">
        <ele>27</ele>
        <time>2012-02-19T08:18:40Z</time>
      </trkpt>
      <trkpt lat="50.412" lon="3.13441">
        <ele>27</ele>
        <time>2012-02-19T08:18:42Z</time>
      </trkpt>
      <trkpt lat="50.41189" lon="3.1343">
        <ele>27</ele>
        <time>2012-02-19T08:18:44Z</time>
      </trkpt>
      <trkpt lat="50.41178" lon="3.1342">
        <ele>27</ele>
        <time>2012-02-19T08:18:46Z</time>
      </trkpt>
      <trkpt lat="50.41167" lon="3.13411">
        <ele>27</ele>
        <time>2012-02-19T08:18:48Z</time>
      </trkpt>
      <trkpt lat="50.41156" lon="3.13401">
        <ele>27</ele>
        <time>2012-02-19T08:18:50Z</time>
      </trkpt>
      <trkpt lat="50.41146" lon="3.13392">
        <ele>27</ele>
        <time>2012-02-19T08:18:52Z</time>
      </trkpt>
      <trkpt lat="50.41136" lon="3.13384">
        <ele>27</ele>
        <time>2012-02-19T08:18:54Z</time>
      </trkpt>
      <trkpt lat="50.41127" lon="3.13376">
        <ele>27</ele>
        <time>2012-02-19T08:18:56Z</time>
      </trkpt>
      <trkpt lat="50.41119" lon="3.13369">
        <ele>27</ele>
        <time>2012-02-19T08:18:58Z</time>
      </trkpt>
      <trkpt lat="50.41108" lon="3.13362">
        <ele>27</ele>
        <time>2012-02-19T08:19:01Z</time>
      </trkpt>
      <trkpt lat="50.41098" lon="3.13356">
        <ele>27</ele>
        <time>2012-02-19T08:19:04Z</time>
      </trkpt>
      <trkpt lat="50.41087" lon="3.13349">
        <ele>27</ele>
        <time>2012-02-19T08:19:07Z</time>
      </trkpt>
      <trkpt lat="50.41076" lon="3.13345">
        <ele>27</ele>
        <time>2012-02-19T08:19:10Z</time>
      </trkpt>
      <trkpt lat="50.41066" lon="3.13343">
        <ele>27</ele>
        <time>2012-02-19T08:19:13Z</time>
      </trkpt>
      <trkpt lat="50.41057" lon="3.13344">
        <ele>27</ele>
        <time>2012-02-19T08:19:16Z</time>
      </trkpt>
      <trkpt lat="50.41052" lon="3.13358">
        <ele>27</ele>
        <time>2012-02-19T08:19:20Z</time>
      </trkpt>
      <trkpt lat="50.4105" lon="3.13372">
        <ele>27</ele>
        <time>2012-02-19T08:19:23Z</time>
      </trkpt>
      <trkpt lat="50.4105" lon="3.13386">
        <ele>27</ele>
        <time>2012-02-19T08:19:26Z</time>
      </trkpt>
      <trkpt lat="50.41048" lon="3.13401">
        <ele>27</ele>
        <time>2012-02-19T08:19:30Z</time>
      </trkpt>
      <trkpt lat="50.41046" lon="3.13416">
        <ele>27</ele>
        <time>2012-02-19T08:19:36Z</time>
      </trkpt>
      <trkpt lat="50.41044" lon="3.13429">
        <ele>27</ele>
        <time>2012-02-19T08:19:39Z</time>
      </trkpt>
      <trkpt lat="50.41041" lon="3.13446">
        <ele>27</ele>
        <time>2012-02-19T08:19:42Z</time>
      </trkpt>
      <trkpt lat="50.41038" lon="3.13462">
        <ele>27</ele>
        <time>2012-02-19T08:19:45Z</time>
      </trkpt>
      <trkpt lat="50.41035" lon="3.13477">
        <ele>27</ele>
        <time>2012-02-19T08:19:48Z</time>
      </trkpt>
      <trkpt lat="50.41032" lon="3.13492">
        <ele>27</ele>
        <time>2012-02-19T08:19:51Z</time>
      </trkpt>
      <trkpt lat="50.41029" lon="3.13508">
        <ele>27</ele>
        <time>2012-02-19T08:19:54Z</time>
      </trkpt>
      <trkpt lat="50.41026" lon="3.13526">
        <ele>27</ele>
        <time>2012-02-19T08:19:57Z</time>
      </trkpt>
      <trkpt lat="50.41023" lon="3.13543">
        <ele>27</ele>
        <time>2012-02-19T08:20:00Z</time>
      </trkpt>
      <trkpt lat="50.4102" lon="3.1356">
        <ele>27</ele>
        <time>2012-02-19T08:20:03Z</time>
      </trkpt>
      <trkpt lat="50.41017" lon="3.13577">
        <ele>27</ele>
        <time>2012-02-19T08:20:06Z</time>
      </trkpt>
      <trkpt lat="50.41013" lon="3.13595">
        <ele>27</ele>
        <time>2012-02-19T08:20:09Z</time>
      </trkpt>
      <trkpt lat="50.4101" lon="3.13611">
        <ele>27</ele>
        <time>2012-02-19T08:20:12Z</time>
      </trkpt>
      <trkpt lat="50.41006" lon="3.13628">
        <ele>27</ele>
        <time>2012-02-19T08:20:15Z</time>
      </trkpt>
      <trkpt lat="50.41004" lon="3.13645">
        <ele>27</ele>
        <time>2012-02-19T08:20:18Z</time>
      </trkpt>
      <trkpt lat="50.41002" lon="3.13663">
        <ele>27</ele>
        <time>2012-02-19T08:20:21Z</time>
      </trkpt>
      <trkpt lat="50.40999" lon="3.13681">
        <ele>27</ele>
        <time>2012-02-19T08:20:24Z</time>
      </trkpt>
      <trkpt lat="50.40998" lon="3.137">
        <ele>27</ele>
        <time>2012-02-19T08:20:27Z</time>
      </trkpt>
      <trkpt lat="50.40997" lon="3.13719">
        <ele>27</ele>
        <time>2012-02-19T08:20:30Z</time>
      </trkpt>
      <trkpt lat="50.40997" lon="3.13738">
        <ele>27</ele>
        <time>2012-02-19T08:20:33Z</time>
      </trkpt>
      <trkpt lat="50.40997" lon="3.13757">
        <ele>27</ele>
        <time>2012-02-19T08:20:36Z</time>
      </trkpt>
      <trkpt lat="50.40997" lon="3.13776">
        <ele>27</ele>
        <time>2012-02-19T08:20:39Z</time>
      </trkpt>
      <trkpt lat="50.40994" lon="3.13795">
        <ele>27</ele>
        <time>2012-02-19T08:20:42Z</time>
      </trkpt>
      <trkpt lat="50.4099" lon="3.13813">
        <ele>27</ele>
        <time>2012-02-19T08:20:45Z</time>
      </trkpt>
      <trkpt lat="50.40984" lon="3.13831">
        <ele>27</ele>
        <time>2012-02-19T08:20:48Z</time>
      </trkpt>
      <trkpt lat="50.40979" lon="3.13843">
        <ele>27</ele>
        <time>2012-02-19T08:20:50Z</time>
      </trkpt>
      <trkpt lat="50.40974" lon="3.13853">
        <ele>27</ele>
        <time>2012-02-19T08:20:52Z</time>
      </trkpt>
      <trkpt lat="50.40967" lon="3.13865">
        <ele>27</ele>
        <time>2012-02-19T08:20:54Z</time>
      </trkpt>
      <trkpt lat="50.40957" lon="3.13879">
        <ele>27</ele>
        <time>2012-02-19T08:20:56Z</time>
      </trkpt>
      <trkpt lat="50.40949" lon="3.13895">
        <ele>27</ele>
        <time>2012-02-19T08:20:58Z</time>
      </trkpt>
      <trkpt lat="50.40941" lon="3.13914">
        <ele>27</ele>
        <time>2012-02-19T08:21:00Z</time>
      </trkpt>
      <trkpt lat="50.40935" lon="3.13934">
        <ele>27</ele>
        <time>2012-02-19T08:21:02Z</time>
      </trkpt>
      <trkpt lat="50.40932" lon="3.13957">
        <ele>27</ele>
        <time>2012-02-19T08:21:04Z</time>
      </trkpt>
      <trkpt lat="50.4093" lon="3.13979">
        <ele>27</ele>
        <time>2012-02-19T08:21:06Z</time>
      </trkpt>
      <trkpt lat="50.4093" lon="3.14002">
        <ele>27</ele>
        <time>2012-02-19T08:21:08Z</time>
      </trkpt>
      <trkpt lat="50.40933" lon="3.14024">
        <ele>27</ele>
        <time>2012-02-19T08:21:10Z</time>
      </trkpt>
      <trkpt lat="50.40937" lon="3.14045">
        <ele>27</ele>
        <time>2012-02-19T08:21:12Z</time>
      </trkpt>
      <trkpt lat="50.40943" lon="3.14064">
        <ele>27</ele>
        <time>2012-02-19T08:21:14Z</time>
      </trkpt>
      <trkpt lat="50.40949" lon="3.14082">
        <ele>27</ele>
        <time>2012-02-19T08:21:16Z</time>
      </trkpt>
      <trkpt lat="50.40957" lon="3.141">
        <ele>27</ele>
        <time>2012-02-19T08:21:18Z</time>
      </trkpt>
      <trkpt lat="50.40966" lon="3.14116">
        <ele>27</ele>
        <time>2012-02-19T08:21:20Z</time>
      </trkpt>
      <trkpt lat="50.40974" lon="3.14133">
        <ele>27</ele>
        <time>2012-02-19T08:21:22Z</time>
      </trkpt>
      <trkpt lat="50.40982" lon="3.1415">
        <ele>27</ele>
        <time>2012-02-19T08:21:24Z</time>
      </trkpt>
      <trkpt lat="50.40987" lon="3.14169">
        <ele>27</ele>
        <time>2012-02-19T08:21:26Z</time>
      </trkpt>
      <trkpt lat="50.4099" lon="3.14189">
        <ele>27</ele>
        <time>2012-02-19T08:21:28Z</time>
      </trkpt>
      <trkpt lat="50.4099" lon="3.14209">
        <ele>27</ele>
        <time>2012-02-19T08:21:30Z</time>
      </trkpt>
      <trkpt lat="50.40986" lon="3.1423">
        <ele>27</ele>
        <time>2012-02-19T08:21:32Z</time>
      </trkpt>
      <trkpt lat="50.40981" lon="3.14249">
        <ele>27</ele>
        <time>2012-02-19T08:21:34Z</time>
      </trkpt>
      <trkpt lat="50.40975" lon="3.14268">
        <ele>27</ele>
        <time>2012-02-19T08:21:36Z</time>
      </trkpt>
      <trkpt lat="50.40969" lon="3.14288">
        <ele>27</ele>
        <time>2012-02-19T08:21:38Z</time>
      </trkpt>
      <trkpt lat="50.40963" lon="3.14307">
        <ele>27</ele>
        <time>2012-02-19T08:21:40Z</time>
      </trkpt>
      <trkpt lat="50.40957" lon="3.14327">
        <ele>27</ele>
        <time>2012-02-19T08:21:42Z</time>
      </trkpt>
      <trkpt lat="50.40951" lon="3.14346">
        <ele>27</ele>
        <time>2012-02-19T08:21:44Z</time>
      </trkpt>
      <trkpt lat="50.40944" lon="3.14365">
        <ele>27</ele>
        <time>2012-02-19T08:21:46Z</time>
      </trkpt>
      <trkpt lat="50.40936" lon="3.14383">
        <ele>27</ele>
        <time>2012-02-19T08:21:48Z</time>
      </trkpt>
      <trkpt lat="50.40928" lon="3.14401">
        <ele>27</ele>
        <time>2012-02-19T08:21:50Z</time>
      </trkpt>
      <trkpt lat="50.4092" lon="3.14418">
        <ele>27</ele>
        <time>2012-02-19T08:21:52Z</time>
      </trkpt>
      <trkpt lat="50.40911" lon="3.14434">
        <ele>27</ele>
        <time>2012-02-19T08:21:54Z</time>
      </trkpt>
      <trkpt lat="50.40901" lon="3.14449">
        <ele>27</ele>
        <time>2012-02-19T08:21:56Z</time>
      </trkpt>
      <trkpt lat="50.4089" lon="3.14464">
        <ele>27</ele>
        <time>2012-02-19T08:21:58Z</time>
      </trkpt>
      <trkpt lat="50.40879" lon="3.14478">
        <ele>27</ele>
        <time>2012-02-19T08:22:00Z</time>
      </trkpt>
      <trkpt lat="50.40867" lon="3.14489">
        <ele>27</ele>
        <time>2012-02-19T08:22:02Z</time>
      </trkpt>
      <trkpt lat="50.40855" lon="3.145">
        <ele>27</ele>
        <time>2012-02-19T08:22:04Z</time>
      </trkpt>
      <trkpt lat="50.40842" lon="3.1451">
        <ele>27</ele>
        <time>2012-02-19T08:22:06Z</time>
      </trkpt>
      <trkpt lat="50.40829" lon="3.14518">
        <ele>27</ele>
        <time>2012-02-19T08:22:08Z</time>
      </trkpt>
      <trkpt lat="50.40815" lon="3.14527">
        <ele>27</ele>
        <time>2012-02-19T08:22:10Z</time>
      </trkpt>
      <trkpt lat="50.40802" lon="3.14535">
        <ele>27</ele>
        <time>2012-02-19T08:22:12Z</time>
      </trkpt>
      <trkpt lat="50.40789" lon="3.14543">
        <ele>27</ele>
        <time>2012-02-19T08:22:14Z</time>
      </trkpt>
      <trkpt lat="50.40775" lon="3.14551">
        <ele>27</ele>
        <time>2012-02-19T08:22:16Z</time>
      </trkpt>
      <trkpt lat="50.40762" lon="3.1456">
        <ele>27</ele>
        <time>2012-02-19T08:22:18Z</time>
      </trkpt>
      <trkpt lat="50.40748" lon="3.14569">
        <ele>27</ele>
        <time>2012-02-19T08:22:20Z</time>
      </trkpt>
      <trkpt lat="50.40735" lon="3.14577">
        <ele>27</ele>
        <time>2012-02-19T08:22:22Z</time>
      </trkpt>
      <trkpt lat="50.40722" lon="3.14586">
        <ele>27</ele>
        <time>2012-02-19T08:22:24Z</time>
      </trkpt>
      <trkpt lat="50.40708" lon="3.14595">
        <ele>27</ele>
        <time>2012-02-19T08:22:26Z</time>
      </trkpt>
      <trkpt lat="50.40695" lon="3.14603">
        <ele>27</ele>
        <time>2012-02-19T08:22:28Z</time>
      </trkpt>
      <trkpt lat="50.40682" lon="3.14611">
        <ele>27</ele>
        <time>2012-02-19T08:22:30Z</time>
      </trkpt>
      <trkpt lat="50.40669" lon="3.14619">
        <ele>27</ele>
        <time>2012-02-19T08:22:32Z</time>
      </trkpt>
      <trkpt lat="50.40656" lon="3.14628">
        <ele>27</ele>
        <time>2012-02-19T08:22:34Z</time>
      </trkpt>
      <trkpt lat="50.40643" lon="3.14636">
        <ele>27</ele>
        <time>2012-02-19T08:22:36Z</time>
      </trkpt>
      <trkpt lat="50.4063" lon="3.14644">
        <ele>27</ele>
        <time>2012-02-19T08:22:38Z</time>
      </trkpt>
      <trkpt lat="50.40616" lon="3.14653">
        <ele>27</ele>
        <time>2012-02-19T08:22:40Z</time>
      </trkpt>
      <trkpt lat="50.40603" lon="3.14661">
        <ele>27</ele>
        <time>2012-02-19T08:22:42Z</time>
      </trkpt>
      <trkpt lat="50.4059" lon="3.14669">
        <ele>27</ele>
        <time>2012-02-19T08:22:44Z</time>
      </trkpt>
      <trkpt lat="50.40577" lon="3.14677">
        <ele>27</ele>
        <time>2012-02-19T08:22:46Z</time>
      </trkpt>
      <trkpt lat="50.40564" lon="3.14683">
        <ele>27</ele>
        <time>2012-02-19T08:22:48Z</time>
      </trkpt>
      <trkpt lat="50.4055" lon="3.1469">
        <ele>27</ele>
        <time>2012-02-19T08:22:50Z</time>
      </trkpt>
      <trkpt lat="50.40538" lon="3.14694">
        <ele>27</ele>
        <time>2012-02-19T08:22:52Z</time>
      </trkpt>
      <trkpt lat="50.40524" lon="3.14695">
        <ele>27</ele>
        <time>2012-02-19T08:22:54Z</time>
      </trkpt>
      <trkpt lat="50.40511" lon="3.14695">
        <ele>27</ele>
        <time>2012-02-19T08:22:56Z</time>
      </trkpt>
      <trkpt lat="50.40498" lon="3.14699">
        <ele>27</ele>
        <time>2012-02-19T08:22:58Z</time>
      </trkpt>
      <trkpt lat="50.40486" lon="3.14707">
        <ele>27</ele>
        <time>2012-02-19T08:23:00Z</time>
      </trkpt>
      <trkpt lat="50.40475" lon="3.14718">
        <ele>27</ele>
        <time>2012-02-19T08:23:02Z</time>
      </trkpt>
      <trkpt lat="50.40463" lon="3.14728">
        <ele>27</ele>
        <time>2012-02-19T08:23:04Z</time>
      </trkpt>
      <trkpt lat="50.40451" lon="3.14738">
        <ele>27</ele>
        <time>2012-02-19T08:23:06Z</time>
      </trkpt>
      <trkpt lat="50.40439" lon="3.14746">
        <ele>27</ele>
        <time>2012-02-19T08:23:08Z</time>
      </trkpt>
      <trkpt lat="50.40425" lon="3.14755">
        <ele>27</ele>
        <time>2012-02-19T08:23:10Z</time>
      </trkpt>
      <trkpt lat="50.40412" lon="3.14763">
        <ele>27</ele>
        <time>2012-02-19T08:23:12Z</time>
      </trkpt>
      <trkpt lat="50.40399" lon="3.14773">
        <ele>27</ele>
        <time>2012-02-19T08:23:14Z</time>
      </trkpt>
      <trkpt lat="50.40386" lon="3.14782">
        <ele>27</ele>
        <time>2012-02-19T08:23:16Z</time>
      </trkpt>
      <trkpt lat="50.40372" lon="3.14791">
        <ele>27</ele>
        <time>2012-02-19T08:23:18Z</time>
      </trkpt>
      <trkpt lat="50.40359" lon="3.148">
        <ele>27</ele>
        <time>2012-02-19T08:23:20Z</time>
      </trkpt>
      <trkpt lat="50.40345" lon="3.14809">
        <ele>27</ele>
        <time>2012-02-19T08:23:22Z</time>
      </trkpt>
      <trkpt lat="50.40331" lon="3.14816">
        <ele>27</ele>
        <time>2012-02-19T08:23:24Z</time>
      </trkpt>
      <trkpt lat="50.40318" lon="3.14823">
        <ele>27</ele>
        <time>2012-02-19T08:23:26Z</time>
      </trkpt>
      <trkpt lat="50.40306" lon="3.14834">
        <ele>27</ele>
        <time>2012-02-19T08:23:28Z</time>
      </trkpt>
      <trkpt lat="50.40295" lon="3.14847">
        <ele>27</ele>
        <time>2012-02-19T08:23:30Z</time>
      </trkpt>
      <trkpt lat="50.40283" lon="3.1486">
        <ele>27</ele>
        <time>2012-02-19T08:23:32Z</time>
      </trkpt>
      <trkpt lat="50.40273" lon="3.14872">
        <ele>27</ele>
        <time>2012-02-19T08:23:34Z</time>
      </trkpt>
      <trkpt lat="50.40262" lon="3.14885">
        <ele>27</ele>
        <time>2012-02-19T08:23:36Z</time>
      </trkpt>
      <trkpt lat="50.40251" lon="3.14898">
        <ele>27</ele>
        <time>2012-02-19T08:23:38Z</time>
      </trkpt>
      <trkpt lat="50.40242" lon="3.14913">
        <ele>27</ele>
        <time>2012-02-19T08:23:40Z</time>
      </trkpt>
      <trkpt lat="50.40237" lon="3.14934">
        <ele>27</ele>
        <time>2012-02-19T08:23:42Z</time>
      </trkpt>
      <trkpt lat="50.40232" lon="3.14954">
        <ele>27</ele>
        <time>2012-02-19T08:23:44Z</time>
      </trkpt>
      <trkpt lat="50.40223" lon="3.14972">
        <ele>27</ele>
        <time>2012-02-19T08:23:46Z</time>
      </trkpt>
      <trkpt lat="50.40214" lon="3.14989">
        <ele>27</ele>
        <time>2012-02-19T08:23:48Z</time>
      </trkpt>
      <trkpt lat="50.40204" lon="3.15006">
        <ele>27</ele>
        <time>2012-02-19T08:23:50Z</time>
      </trkpt>
      <trkpt lat="50.40194" lon="3.15023">
        <ele>27</ele>
        <time>2012-02-19T08:23:52Z</time>
      </trkpt>
      <trkpt lat="50.40185" lon="3.1504">
        <ele>27</ele>
        <time>2012-02-19T08:23:54Z</time>
      </trkpt>
      <trkpt lat="50.40175" lon="3.15058">
        <ele>27</ele>
        <time>2012-02-19T08:23:56Z</time>
      </trkpt>
      <trkpt lat="50.40165" lon="3.15075">
        <ele>27</ele>
        <time>2012-02-19T08:23:58Z</time>
      </trkpt>
      <trkpt lat="50.40154" lon="3.15093">
        <ele>27</ele>
        <time>2012-02-19T08:24:00Z</time>
      </trkpt>
      <trkpt lat="50.40144" lon="3.15111">
        <ele>27</ele>
        <time>2012-02-19T08:24:02Z</time>
      </trkpt>
      <trkpt lat="50.40134" lon="3.15129">
        <ele>27</ele>
        <time>2012-02-19T08:24:04Z</time>
      </trkpt>
      <trkpt lat="50.40124" lon="3.15148">
        <ele>27</ele>
        <time>2012-02-19T08:24:06Z</time>
      </trkpt>
      <trkpt lat="50.40114" lon="3.15166">
        <ele>27</ele>
        <time>2012-02-19T08:24:08Z</time>
      </trkpt>
      <trkpt lat="50.40103" lon="3.15184">
        <ele>27</ele>
        <time>2012-02-19T08:24:10Z</time>
      </trkpt>
      <trkpt lat="50.40092" lon="3.15202">
        <ele>27</ele>
        <time>2012-02-19T08:24:12Z</time>
      </trkpt>
      <trkpt lat="50.40082" lon="3.1522">
        <ele>27</ele>
        <time>2012-02-19T08:24:14Z</time>
      </trkpt>
      <trkpt lat="50.40072" lon="3.15238">
        <ele>27</ele>
        <time>2012-02-19T08:24:16Z</time>
      </trkpt>
      <trkpt lat="50.40061" lon="3.15256">
        <ele>27</ele>
        <time>2012-02-19T08:24:18Z</time>
      </trkpt>
      <trkpt lat="50.40052" lon="3.15274">
        <ele>27</ele>
        <time>2012-02-19T08:24:20Z</time>
      </trkpt>
      <trkpt lat="50.40041" lon="3.15293">
        <ele>27</ele>
        <time>2012-02-19T08:24:22Z</time>
      </trkpt>
      <trkpt lat="50.40031" lon="3.15311">
        <ele>27</ele>
        <time>2012-02-19T08:24:24Z</time>
      </trkpt>
      <trkpt lat="50.4002" lon="3.15328">
        <ele>27</ele>
        <time>2012-02-19T08:24:26Z</time>
      </trkpt>
      <trkpt lat="50.4001" lon="3.15346">
        <ele>27</ele>
        <time>2012-02-19T08:24:28Z</time>
      </trkpt>
      <trkpt lat="50.39999" lon="3.15364">
        <ele>27</ele>
        <time>2012-02-19T08:24:30Z</time>
      </trkpt>
      <trkpt lat="50.39989" lon="3.15382">
        <ele>27</ele>
        <time>2012-02-19T08:24:32Z</time>
      </trkpt>
      <trkpt lat="50.39979" lon="3.154">
        <ele>27</ele>
        <time>2012-02-19T08:24:34Z</time>
      </trkpt>
      <trkpt lat="50.39968" lon="3.15418">
        <ele>27</ele>
        <time>2012-02-19T08:24:36Z</time>
      </trkpt>
      <trkpt lat="50.39958" lon="3.15437">
        <ele>27</ele>
        <time>2012-02-19T08:24:38Z</time>
      </trkpt>
      <trkpt lat="50.39948" lon="3.15455">
        <ele>27</ele>
        <time>2012-02-19T08:24:40Z</time>
      </trkpt>
      <trkpt lat="50.39937" lon="3.15473">
        <ele>27</ele>
        <time>2012-02-19T08:24:42Z</time>
      </trkpt>
      <trkpt lat="50.39926" lon="3.15492">
        <ele>27</ele>
        <time>2012-02-19T08:24:44Z</time>
      </trkpt>
      <trkpt lat="50.39915" lon="3.1551">
        <ele>27</ele>
        <time>2012-02-19T08:24:46Z</time>
      </trkpt>
      <trkpt lat="50.39905" lon="3.15529">
        <ele>27</ele>
        <time>2012-02-19T08:24:48Z</time>
      </trkpt>
      <trkpt lat="50.39895" lon="3.15547">
        <ele>27</ele>
        <time>2012-02-19T08:24:50Z</time>
      </trkpt>
      <trkpt lat="50.39884" lon="3.15566">
        <ele>27</ele>
        <time>2012-02-19T08:24:52Z</time>
      </trkpt>
      <trkpt lat="50.39874" lon="3.15584">
        <ele>27</ele>
        <time>2012-02-19T08:24:54Z</time>
      </trkpt>
      <trkpt lat="50.39863" lon="3.15602">
        <ele>27</ele>
        <time>2012-02-19T08:24:56Z</time>
      </trkpt>
      <trkpt lat="50.39852" lon="3.1562">
        <ele>27</ele>
        <time>2012-02-19T08:24:58Z</time>
      </trkpt>
      <trkpt lat="50.39841" lon="3.15639">
        <ele>27</ele>
        <time>2012-02-19T08:25:00Z</time>
      </trkpt>
      <trkpt lat="50.3983" lon="3.15657">
        <ele>27</ele>
        <time>2012-02-19T08:25:02Z</time>
      </trkpt>
      <trkpt lat="50.3982" lon="3.15676">
        <ele>27</ele>
        <time>2012-02-19T08:25:04Z</time>
      </trkpt>
      <trkpt lat="50.3981" lon="3.15694">
        <ele>27</ele>
        <time>2012-02-19T08:25:06Z</time>
      </trkpt>
      <trkpt lat="50.39799" lon="3.15713">
        <ele>27</ele>
        <time>2012-02-19T08:25:08Z</time>
      </trkpt>
      <trkpt lat="50.39788" lon="3.15732">
        <ele>27</ele>
        <time>2012-02-19T08:25:10Z</time>
      </trkpt>
      <trkpt lat="50.39778" lon="3.15751">
        <ele>27</ele>
        <time>2012-02-19T08:25:12Z</time>
      </trkpt>
      <trkpt lat="50.39767" lon="3.1577">
        <ele>27</ele>
        <time>2012-02-19T08:25:14Z</time>
      </trkpt>
      <trkpt lat="50.39756" lon="3.15788">
        <ele>27</ele>
        <time>2012-02-19T08:25:16Z</time>
      </trkpt>
      <trkpt lat="50.39745" lon="3.15806">
        <ele>27</ele>
        <time>2012-02-19T08:25:18Z</time>
      </trkpt>
      <trkpt lat="50.39735" lon="3.15825">
        <ele>27</ele>
        <time>2012-02-19T08:25:20Z</time>
      </trkpt>
      <trkpt lat="50.39724" lon="3.15843">
        <ele>27</ele>
        <time>2012-02-19T08:25:22Z</time>
      </trkpt>
      <trkpt lat="50.39713" lon="3.15862">
        <ele>27</ele>
        <time>2012-02-19T08:25:24Z</time>
      </trkpt>
      <trkpt lat="50.39702" lon="3.15881">
        <ele>27</ele>
        <time>2012-02-19T08:25:26Z</time>
      </trkpt>
      <trkpt lat="50.39692" lon="3.15899">
        <ele>27</ele>
        <time>2012-02-19T08:25:28Z</time>
      </trkpt>
      <trkpt lat="50.39681" lon="3.15918">
        <ele>27</ele>
        <time>2012-02-19T08:25:30Z</time>
      </trkpt>
      <trkpt lat="50.3967" lon="3.15937">
        <ele>27</ele>
        <time>2012-02-19T08:25:32Z</time>
      </trkpt>
      <trkpt lat="50.39659" lon="3.15956">
        <ele>27</ele>
        <time>2012-02-19T08:25:34Z</time>
      </trkpt>
      <trkpt lat="50.39648" lon="3.15974">
        <ele>27</ele>
        <time>2012-02-19T08:25:36Z</time>
      </trkpt>
      <trkpt lat="50.39638" lon="3.15992">
        <ele>27</ele>
        <time>2012-02-19T08:25:38Z</time>
      </trkpt>
      <trkpt lat="50.39628" lon="3.1601">
        <ele>27</ele>
        <time>2012-02-19T08:25:40Z</time>
      </trkpt>
      <trkpt lat="50.39617" lon="3.16029">
        <ele>27</ele>
        <time>2012-02-19T08:25:42Z</time>
      </trkpt>
      <trkpt lat="50.39607" lon="3.16047">
        <ele>27</ele>
        <time>2012-02-19T08:25:44Z</time>
      </trkpt>
      <trkpt lat="50.39597" lon="3.16064">
        <ele>27</ele>
        <time>2012-02-19T08:25:46Z</time>
      </trkpt>
      <trkpt lat="50.39586" lon="3.16082">
        <ele>27</ele>
        <time>2012-02-19T08:25:48Z</time>
      </trkpt>
      <trkpt lat="50.39576" lon="3.16099">
        <ele>27</ele>
        <time>2012-02-19T08:25:50Z</time>
      </trkpt>
      <trkpt lat="50.39566" lon="3.16116">
        <ele>27</ele>
        <time>2012-02-19T08:25:52Z</time>
      </trkpt>
      <trkpt lat="50.39556" lon="3.16134">
        <ele>27</ele>
        <time>2012-02-19T08:25:54Z</time>
      </trkpt>
      <trkpt lat="50.39547" lon="3.16152">
        <ele>27</ele>
        <time>2012-02-19T08:25:56Z</time>
      </trkpt>
      <trkpt lat="50.39538" lon="3.16171">
        <ele>27</ele>
        <time>2012-02-19T08:25:58Z</time>
      </trkpt>
      <trkpt lat="50.3953" lon="3.1619">
        <ele>27</ele>
        <time>2012-02-19T08:26:00Z</time>
      </trkpt>
      <trkpt lat="50.39522" lon="3.16211">
        <ele>27</ele>
        <time>2012-02-19T08:26:02Z</time>
      </trkpt>
      <trkpt lat="50.39517" lon="3.16232">
        <ele>27</ele>
        <time>2012-02-19T08:26:04Z</time>
      </trkpt>
      <trkpt lat="50.39512" lon="3.16254">
        <ele>27</ele>
        <time>2012-02-19T08:26:06Z</time>
      </trkpt>
      <trkpt lat="50.39509" lon="3.16276">
        <ele>27</ele>
        <time>2012-02-19T08:26:08Z</time>
      </trkpt>
      <trkpt lat="50.39508" lon="3.16299">
        <ele>27</ele>
        <time>2012-02-19T08:26:10Z</time>
      </trkpt>
      <trkpt lat="50.39507" lon="3.16321">
        <ele>27</ele>
        <time>2012-02-19T08:26:12Z</time>
      </trkpt>
      <trkpt lat="50.39506" lon="3.16342">
        <ele>27</ele>
        <time>2012-02-19T08:26:14Z</time>
      </trkpt>
      <trkpt lat="50.39504" lon="3.16363">
        <ele>27</ele>
        <time>2012-02-19T08:26:16Z</time>
      </trkpt>
      <trkpt lat="50.39503" lon="3.16384">
        <ele>27</ele>
        <time>2012-02-19T08:26:18Z</time>
      </trkpt>
      <trkpt lat="50.39503" lon="3.16406">
        <ele>27</ele>
        <time>2012-02-19T08:26:20Z</time>
      </trkpt>
      <trkpt lat="50.39502" lon="3.16426">
        <ele>27</ele>
        <time>2012-02-19T08:26:22Z</time>
      </trkpt>
      <trkpt lat="50.39501" lon="3.16446">
        <ele>27</ele>
        <time>2012-02-19T08:26:24Z</time>
      </trkpt>
      <trkpt lat="50.395" lon="3.16464">
        <ele>27</ele>
        <time>2012-02-19T08:26:26Z</time>
      </trkpt>
      <trkpt lat="50.395" lon="3.16481">
        <ele>27</ele>
        <time>2012-02-19T08:26:28Z</time>
      </trkpt>
      <trkpt lat="50.395" lon="3.16498">
        <ele>27</ele>
        <time>2012-02-19T08:26:31Z</time>
      </trkpt>
      <trkpt lat="50.39497" lon="3.16514">
        <ele>27</ele>
        <time>2012-02-19T08:26:36Z</time>
      </trkpt>
      <trkpt lat="50.39497" lon="3.16533">
        <ele>27</ele>
        <time>2012-02-19T08:26:40Z</time>
      </trkpt>
      <trkpt lat="50.39497" lon="3.16554">
        <ele>27</ele>
        <time>2012-02-19T08:26:43Z</time>
      </trkpt>
      <trkpt lat="50.39496" lon="3.16568">
        <ele>27</ele>
        <time>2012-02-19T08:26:45Z</time>
      </trkpt>
      <trkpt lat="50.39497" lon="3.16587">
        <ele>27</ele>
        <time>2012-02-19T08:26:48Z</time>
      </trkpt>
      <trkpt lat="50.39497" lon="3.16602">
        <ele>27</ele>
        <time>2012-02-19T08:26:51Z</time>
      </trkpt>
      <trkpt lat="50.39498" lon="3.16617">
        <ele>27</ele>
        <time>2012-02-19T08:26:53Z</time>
      </trkpt>
      <trkpt lat="50.39499" lon="3.16633">
        <ele>27</ele>
        <time>2012-02-19T08:26:55Z</time>
      </trkpt>
      <trkpt lat="50.39501" lon="3.16649">
        <ele>27</ele>
        <time>2012-02-19T08:26:57Z</time>
      </trkpt>
      <trkpt lat="50.39502" lon="3.16667">
        <ele>27</ele>
        <time>2012-02-19T08:26:59Z</time>
      </trkpt>
      <trkpt lat="50.39503" lon="3.16684">
        <ele>27</ele>
        <time>2012-02-19T08:27:01Z</time>
      </trkpt>
      <trkpt lat="50.39503" lon="3.16702">
        <ele>27</ele>
        <time>2012-02-19T08:27:03Z</time>
      </trkpt>
      <trkpt lat="50.39503" lon="3.1672">
        <ele>27</ele>
        <time>2012-02-19T08:27:05Z</time>
      </trkpt>
      <trkpt lat="50.39503" lon="3.16738">
        <ele>27</ele>
        <time>2012-02-19T08:27:07Z</time>
      </trkpt>
      <trkpt lat="50.39502" lon="3.16758">
        <ele>27</ele>
        <time>2012-02-19T08:27:09Z</time>
      </trkpt>
      <trkpt lat="50.39501" lon="3.16777">
        <ele>27</ele>
        <time>2012-02-19T08:27:11Z</time>
      </trkpt>
      <trkpt lat="50.395" lon="3.16797">
        <ele>27</ele>
        <time>2012-02-19T08:27:13Z</time>
      </trkpt>
      <trkpt lat="50.39499" lon="3.16818">
        <ele>27</ele>
        <time>2012-02-19T08:27:15Z</time>
      </trkpt>
      <trkpt lat="50.39497" lon="3.16839">
        <ele>27</ele>
        <time>2012-02-19T08:27:17Z</time>
      </trkpt>
      <trkpt lat="50.39495" lon="3.1686">
        <ele>27</ele>
        <time>2012-02-19T08:27:19Z</time>
      </trkpt>
      <trkpt lat="50.39493" lon="3.16881">
        <ele>27</ele>
        <time>2012-02-19T08:27:21Z</time>
      </trkpt>
      <trkpt lat="50.3949" lon="3.16901">
        <ele>27</ele>
        <time>2012-02-19T08:27:23Z</time>
      </trkpt>
      <trkpt lat="50.39487" lon="3.1692">
        <ele>27</ele>
        <time>2012-02-19T08:27:25Z</time>
      </trkpt>
      <trkpt lat="50.39482" lon="3.16939">
        <ele>27</ele>
        <time>2012-02-19T08:27:27Z</time>
      </trkpt>
      <trkpt lat="50.39478" lon="3.16957">
        <ele>27</ele>
        <time>2012-02-19T08:27:29Z</time>
      </trkpt>
      <trkpt lat="50.39474" lon="3.16973">
        <ele>27</ele>
        <time>2012-02-19T08:27:31Z</time>
      </trkpt>
      <trkpt lat="50.3947" lon="3.16989">
        <ele>27</ele>
        <time>2012-02-19T08:27:33Z</time>
      </trkpt>
      <trkpt lat="50.39465" lon="3.17004">
        <ele>27</ele>
        <time>2012-02-19T08:27:36Z</time>
      </trkpt>
      <trkpt lat="50.39461" lon="3.17022">
        <ele>27</ele>
        <time>2012-02-19T08:27:40Z</time>
      </trkpt>
      <trkpt lat="50.39458" lon="3.17035">
        <ele>27</ele>
        <time>2012-02-19T08:27:42Z</time>
      </trkpt>
      <trkpt lat="50.39454" lon="3.17051">
        <ele>27</ele>
        <time>2012-02-19T08:27:44Z</time>
      </trkpt>
      <trkpt lat="50.3945" lon="3.17065">
        <ele>27</ele>
        <time>2012-02-19T08:27:46Z</time>
      </trkpt>
      <trkpt lat="50.39443" lon="3.17077">
        <ele>27</ele>
        <time>2012-02-19T08:27:48Z</time>
      </trkpt>
      <trkpt lat="50.39437" lon="3.17091">
        <ele>27</ele>
        <time>2012-02-19T08:27:50Z</time>
      </trkpt>
      <trkpt lat="50.39431" lon="3.17108">
        <ele>27</ele>
        <time>2012-02-19T08:27:52Z</time>
      </trkpt>
      <trkpt lat="50.39427" lon="3.17126">
        <ele>27</ele>
        <time>2012-02-19T08:27:54Z</time>
      </trkpt>
      <trkpt lat="50.39422" lon="3.17145">
        <ele>27</ele>
        <time>2012-02-19T08:27:56Z</time>
      </trkpt>
      <trkpt lat="50.39418" lon="3.17165">
        <ele>27</ele>
        <time>2012-02-19T08:27:58Z</time>
      </trkpt>
      <trkpt lat="50.39414" lon="3.17185">
        <ele>27</ele>
        <time>2012-02-19T08:28:00Z</time>
      </trkpt>
      <trkpt lat="50.39409" lon="3.17206">
        <ele>27</ele>
        <time>2012-02-19T08:28:02Z</time>
      </trkpt>
      <trkpt lat="50.39404" lon="3.17227">
        <ele>27</ele>
        <time>2012-02-19T08:28:04Z</time>
      </trkpt>
      <trkpt lat="50.39398" lon="3.17247">
        <ele>27</ele>
        <time>2012-02-19T08:28:06Z</time>
      </trkpt>
      <trkpt lat="50.39392" lon="3.17269">
        <ele>27</ele>
        <time>2012-02-19T08:28:08Z</time>
      </trkpt>
      <trkpt lat="50.39387" lon="3.1729">
        <ele>27</ele>
        <time>2012-02-19T08:28:10Z</time>
      </trkpt>
      <trkpt lat="50.39382" lon="3.17312">
        <ele>27</ele>
        <time>2012-02-19T08:28:12Z</time>
      </trkpt>
      <trkpt lat="50.39377" lon="3.17334">
        <ele>27</ele>
        <time>2012-02-19T08:28:14Z</time>
      </trkpt>
      <trkpt lat="50.39371" lon="3.17353">
        <ele>27</ele>
        <time>2012-02-19T08:28:16Z</time>
      </trkpt>
      <trkpt lat="50.39364" lon="3.17373">
        <ele>27</ele>
        <time>2012-02-19T08:28:18Z</time>
      </trkpt>
      <trkpt lat="50.39358" lon="3.17388">
        <ele>27</ele>
        <time>2012-02-19T08:28:20Z</time>
      </trkpt>
      <trkpt lat="50.39346" lon="3.17389">
        <ele>21</ele>
        <time>2012-02-19T08:28:24Z</time>
      </trkpt>
      <trkpt lat="50.39338" lon="3.17395">
        <ele>21</ele>
        <time>2012-02-19T08:28:26Z</time>
      </trkpt>
      <trkpt lat="50.39327" lon="3.17401">
        <ele>21</ele>
        <time>2012-02-19T08:28:28Z</time>
      </trkpt>
      <trkpt lat="50.39319" lon="3.17406">
        <ele>21</ele>
        <time>2012-02-19T08:28:30Z</time>
      </trkpt>
      <trkpt lat="50.3931" lon="3.17413">
        <ele>21</ele>
        <time>2012-02-19T08:28:32Z</time>
      </trkpt>
      <trkpt lat="50.39301" lon="3.17423">
        <ele>21</ele>
        <time>2012-02-19T08:28:34Z</time>
      </trkpt>
      <trkpt lat="50.39292" lon="3.17433">
        <ele>21</ele>
        <time>2012-02-19T08:28:36Z</time>
      </trkpt>
      <trkpt lat="50.39284" lon="3.17443">
        <ele>21</ele>
        <time>2012-02-19T08:28:38Z</time>
      </trkpt>
      <trkpt lat="50.39276" lon="3.17453">
        <ele>21</ele>
        <time>2012-02-19T08:28:40Z</time>
      </trkpt>
      <trkpt lat="50.39268" lon="3.17463">
        <ele>21</ele>
        <time>2012-02-19T08:28:42Z</time>
      </trkpt>
      <trkpt lat="50.3926" lon="3.17474">
        <ele>21</ele>
        <time>2012-02-19T08:28:44Z</time>
      </trkpt>
      <trkpt lat="50.39252" lon="3.17483">
        <ele>21</ele>
        <time>2012-02-19T08:28:46Z</time>
      </trkpt>
      <trkpt lat="50.39244" lon="3.17493">
        <ele>21</ele>
        <time>2012-02-19T08:28:48Z</time>
      </trkpt>
      <trkpt lat="50.39236" lon="3.17502">
        <ele>16</ele>
        <time>2012-02-19T08:28:50Z</time>
      </trkpt>
      <trkpt lat="50.39228" lon="3.17512">
        <ele>16</ele>
        <time>2012-02-19T08:28:52Z</time>
      </trkpt>
      <trkpt lat="50.39221" lon="3.17521">
        <ele>16</ele>
        <time>2012-02-19T08:28:54Z</time>
      </trkpt>
      <trkpt lat="50.39213" lon="3.17531">
        <ele>16</ele>
        <time>2012-02-19T08:28:56Z</time>
      </trkpt>
      <trkpt lat="50.39205" lon="3.17541">
        <ele>16</ele>
        <time>2012-02-19T08:28:58Z</time>
      </trkpt>
      <trkpt lat="50.39198" lon="3.1755">
        <ele>16</ele>
        <time>2012-02-19T08:29:00Z</time>
      </trkpt>
      <trkpt lat="50.3919" lon="3.1756">
        <ele>16</ele>
        <time>2012-02-19T08:29:02Z</time>
      </trkpt>
      <trkpt lat="50.39183" lon="3.17569">
        <ele>16</ele>
        <time>2012-02-19T08:29:04Z</time>
      </trkpt>
      <trkpt lat="50.39175" lon="3.17578">
        <ele>16</ele>
        <time>2012-02-19T08:29:06Z</time>
      </trkpt>
      <trkpt lat="50.39168" lon="3.17587">
        <ele>16</ele>
        <time>2012-02-19T08:29:08Z</time>
      </trkpt>
      <trkpt lat="50.39157" lon="3.17599">
        <ele>16</ele>
        <time>2012-02-19T08:29:11Z</time>
      </trkpt>
      <trkpt lat="50.39151" lon="3.17608">
        <ele>16</ele>
        <time>2012-02-19T08:29:13Z</time>
      </trkpt>
      <trkpt lat="50.39143" lon="3.17617">
        <ele>16</ele>
        <time>2012-02-19T08:29:15Z</time>
      </trkpt>
      <trkpt lat="50.39136" lon="3.17626">
        <ele>16</ele>
        <time>2012-02-19T08:29:17Z</time>
      </trkpt>
      <trkpt lat="50.39129" lon="3.17635">
        <ele>16</ele>
        <time>2012-02-19T08:29:19Z</time>
      </trkpt>
      <trkpt lat="50.39121" lon="3.17644">
        <ele>16</ele>
        <time>2012-02-19T08:29:21Z</time>
      </trkpt>
      <trkpt lat="50.39114" lon="3.17653">
        <ele>16</ele>
        <time>2012-02-19T08:29:23Z</time>
      </trkpt>
      <trkpt lat="50.39107" lon="3.17662">
        <ele>16</ele>
        <time>2012-02-19T08:29:25Z</time>
      </trkpt>
      <trkpt lat="50.39099" lon="3.17671">
        <ele>16</ele>
        <time>2012-02-19T08:29:27Z</time>
      </trkpt>
      <trkpt lat="50.39091" lon="3.17681">
        <ele>16</ele>
        <time>2012-02-19T08:29:29Z</time>
      </trkpt>
      <trkpt lat="50.39084" lon="3.1769">
        <ele>16</ele>
        <time>2012-02-19T08:29:31Z</time>
      </trkpt>
      <trkpt lat="50.39077" lon="3.17699">
        <ele>16</ele>
        <time>2012-02-19T08:29:33Z</time>
      </trkpt>
      <trkpt lat="50.3907" lon="3.17708">
        <ele>16</ele>
        <time>2012-02-19T08:29:35Z</time>
      </trkpt>
      <trkpt lat="50.3906" lon="3.17722">
        <ele>16</ele>
        <time>2012-02-19T08:29:38Z</time>
      </trkpt>
      <trkpt lat="50.39054" lon="3.17733">
        <ele>16</ele>
        <time>2012-02-19T08:29:40Z</time>
      </trkpt>
      <trkpt lat="50.3905" lon="3.17747">
        <ele>16</ele>
        <time>2012-02-19T08:29:42Z</time>
      </trkpt>
      <trkpt lat="50.39045" lon="3.1776">
        <ele>16</ele>
        <time>2012-02-19T08:29:44Z</time>
      </trkpt>
      <trkpt lat="50.39041" lon="3.17775">
        <ele>16</ele>
        <time>2012-02-19T08:29:46Z</time>
      </trkpt>
      <trkpt lat="50.39037" lon="3.17789">
        <ele>16</ele>
        <time>2012-02-19T08:29:48Z</time>
      </trkpt>
      <trkpt lat="50.39033" lon="3.17804">
        <ele>16</ele>
        <time>2012-02-19T08:29:50Z</time>
      </trkpt>
      <trkpt lat="50.3903" lon="3.17819">
        <ele>16</ele>
        <time>2012-02-19T08:29:52Z</time>
      </trkpt>
      <trkpt lat="50.39027" lon="3.17834">
        <ele>16</ele>
        <time>2012-02-19T08:29:54Z</time>
      </trkpt>
      <trkpt lat="50.39023" lon="3.17849">
        <ele>16</ele>
        <time>2012-02-19T08:29:56Z</time>
      </trkpt>
      <trkpt lat="50.3902" lon="3.17864">
        <ele>16</ele>
        <time>2012-02-19T08:29:58Z</time>
      </trkpt>
      <trkpt lat="50.39017" lon="3.17879">
        <ele>16</ele>
        <time>2012-02-19T08:30:00Z</time>
      </trkpt>
      <trkpt lat="50.39013" lon="3.17893">
        <ele>16</ele>
        <time>2012-02-19T08:30:02Z</time>
      </trkpt>
      <trkpt lat="50.3901" lon="3.17908">
        <ele>16</ele>
        <time>2012-02-19T08:30:04Z</time>
      </trkpt>
      <trkpt lat="50.39007" lon="3.17922">
        <ele>16</ele>
        <time>2012-02-19T08:30:06Z</time>
      </trkpt>
      <trkpt lat="50.39004" lon="3.17935">
        <ele>16</ele>
        <time>2012-02-19T08:30:08Z</time>
      </trkpt>
      <trkpt lat="50.38998" lon="3.17947">
        <ele>16</ele>
        <time>2012-02-19T08:30:10Z</time>
      </trkpt>
      <trkpt lat="50.38993" lon="3.17959">
        <ele>16</ele>
        <time>2012-02-19T08:30:12Z</time>
      </trkpt>
      <trkpt lat="50.38986" lon="3.17969">
        <ele>16</ele>
        <time>2012-02-19T08:30:14Z</time>
      </trkpt>
      <trkpt lat="50.3898" lon="3.17981">
        <ele>16</ele>
        <time>2012-02-19T08:30:16Z</time>
      </trkpt>
      <trkpt lat="50.38974" lon="3.17994">
        <ele>16</ele>
        <time>2012-02-19T08:30:18Z</time>
      </trkpt>
      <trkpt lat="50.38968" lon="3.18006">
        <ele>16</ele>
        <time>2012-02-19T08:30:20Z</time>
      </trkpt>
      <trkpt lat="50.38962" lon="3.18019">
        <ele>16</ele>
        <time>2012-02-19T08:30:22Z</time>
      </trkpt>
      <trkpt lat="50.38955" lon="3.18032">
        <ele>16</ele>
        <time>2012-02-19T08:30:24Z</time>
      </trkpt>
      <trkpt lat="50.38949" lon="3.18046">
        <ele>16</ele>
        <time>2012-02-19T08:30:26Z</time>
      </trkpt>
      <trkpt lat="50.38942" lon="3.1806">
        <ele>16</ele>
        <time>2012-02-19T08:30:28Z</time>
      </trkpt>
      <trkpt lat="50.38935" lon="3.18075">
        <ele>16</ele>
        <time>2012-02-19T08:30:30Z</time>
      </trkpt>
      <trkpt lat="50.38928" lon="3.18088">
        <ele>16</ele>
        <time>2012-02-19T08:30:32Z</time>
      </trkpt>
      <trkpt lat="50.38923" lon="3.18101">
        <ele>16</ele>
        <time>2012-02-19T08:30:34Z</time>
      </trkpt>
      <trkpt lat="50.38916" lon="3.18112">
        <ele>16</ele>
        <time>2012-02-19T08:30:36Z</time>
      </trkpt>
      <trkpt lat="50.3891" lon="3.18125">
        <ele>16</ele>
        <time>2012-02-19T08:30:38Z</time>
      </trkpt>
      <trkpt lat="50.38904" lon="3.18137">
        <ele>16</ele>
        <time>2012-02-19T08:30:40Z</time>
      </trkpt>
      <trkpt lat="50.38897" lon="3.18148">
        <ele>16</ele>
        <time>2012-02-19T08:30:42Z</time>
      </trkpt>
      <trkpt lat="50.3889" lon="3.18159">
        <ele>16</ele>
        <time>2012-02-19T08:30:44Z</time>
      </trkpt>
      <trkpt lat="50.38882" lon="3.18171">
        <ele>16</ele>
        <time>2012-02-19T08:30:46Z</time>
      </trkpt>
      <trkpt lat="50.38873" lon="3.18183">
        <ele>16</ele>
        <time>2012-02-19T08:30:48Z</time>
      </trkpt>
      <trkpt lat="50.38865" lon="3.18195">
        <ele>16</ele>
        <time>2012-02-19T08:30:50Z</time>
      </trkpt>
      <trkpt lat="50.38856" lon="3.18208">
        <ele>21</ele>
        <time>2012-02-19T08:30:52Z</time>
      </trkpt>
      <trkpt lat="50.38847" lon="3.1822">
        <ele>21</ele>
        <time>2012-02-19T08:30:54Z</time>
      </trkpt>
      <trkpt lat="50.38839" lon="3.18233">
        <ele>21</ele>
        <time>2012-02-19T08:30:56Z</time>
      </trkpt>
      <trkpt lat="50.38831" lon="3.18244">
        <ele>21</ele>
        <time>2012-02-19T08:30:58Z</time>
      </trkpt>
      <trkpt lat="50.38822" lon="3.18251">
        <ele>21</ele>
        <time>2012-02-19T08:31:00Z</time>
      </trkpt>
      <trkpt lat="50.38813" lon="3.18247">
        <ele>21</ele>
        <time>2012-02-19T08:31:02Z</time>
      </trkpt>
      <trkpt lat="50.38805" lon="3.18237">
        <ele>21</ele>
        <time>2012-02-19T08:31:04Z</time>
      </trkpt>
      <trkpt lat="50.38797" lon="3.18225">
        <ele>21</ele>
        <time>2012-02-19T08:31:06Z</time>
      </trkpt>
      <trkpt lat="50.38789" lon="3.18213">
        <ele>21</ele>
        <time>2012-02-19T08:31:08Z</time>
      </trkpt>
      <trkpt lat="50.38781" lon="3.18203">
        <ele>21</ele>
        <time>2012-02-19T08:31:10Z</time>
      </trkpt>
      <trkpt lat="50.38772" lon="3.18193">
        <ele>21</ele>
        <time>2012-02-19T08:31:12Z</time>
      </trkpt>
      <trkpt lat="50.38762" lon="3.18183">
        <ele>21</ele>
        <time>2012-02-19T08:31:14Z</time>
      </trkpt>
      <trkpt lat="50.38751" lon="3.18173">
        <ele>21</ele>
        <time>2012-02-19T08:31:16Z</time>
      </trkpt>
      <trkpt lat="50.3874" lon="3.18163">
        <ele>21</ele>
        <time>2012-02-19T08:31:18Z</time>
      </trkpt>
      <trkpt lat="50.38728" lon="3.18153">
        <ele>21</ele>
        <time>2012-02-19T08:31:20Z</time>
      </trkpt>
      <trkpt lat="50.38716" lon="3.18142">
        <ele>21</ele>
        <time>2012-02-19T08:31:22Z</time>
      </trkpt>
      <trkpt lat="50.38704" lon="3.18132">
        <ele>21</ele>
        <time>2012-02-19T08:31:24Z</time>
      </trkpt>
      <trkpt lat="50.38692" lon="3.1812">
        <ele>21</ele>
        <time>2012-02-19T08:31:26Z</time>
      </trkpt>
      <trkpt lat="50.3868" lon="3.1811">
        <ele>21</ele>
        <time>2012-02-19T08:31:28Z</time>
      </trkpt>
      <trkpt lat="50.38668" lon="3.18098">
        <ele>21</ele>
        <time>2012-02-19T08:31:30Z</time>
      </trkpt>
      <trkpt lat="50.38658" lon="3.18084">
        <ele>21</ele>
        <time>2012-02-19T08:31:32Z</time>
      </trkpt>
      <trkpt lat="50.38651" lon="3.18066">
        <ele>21</ele>
        <time>2012-02-19T08:31:34Z</time>
      </trkpt>
      <trkpt lat="50.38648" lon="3.18045">
        <ele>21</ele>
        <time>2012-02-19T08:31:36Z</time>
      </trkpt>
      <trkpt lat="50.38646" lon="3.18023">
        <ele>21</ele>
        <time>2012-02-19T08:31:38Z</time>
      </trkpt>
      <trkpt lat="50.38643" lon="3.18003">
        <ele>21</ele>
        <time>2012-02-19T08:31:40Z</time>
      </trkpt>
      <trkpt lat="50.38639" lon="3.17983">
        <ele>21</ele>
        <time>2012-02-19T08:31:42Z</time>
      </trkpt>
      <trkpt lat="50.38633" lon="3.17966">
        <ele>21</ele>
        <time>2012-02-19T08:31:44Z</time>
      </trkpt>
      <trkpt lat="50.38623" lon="3.17953">
        <ele>21</ele>
        <time>2012-02-19T08:31:46Z</time>
      </trkpt>
      <trkpt lat="50.38612" lon="3.17943">
        <ele>21</ele>
        <time>2012-02-19T08:31:48Z</time>
      </trkpt>
      <trkpt lat="50.386" lon="3.17935">
        <ele>21</ele>
        <time>2012-02-19T08:31:50Z</time>
      </trkpt>
      <trkpt lat="50.38588" lon="3.17927">
        <ele>21</ele>
        <time>2012-02-19T08:31:52Z</time>
      </trkpt>
      <trkpt lat="50.38576" lon="3.1792">
        <ele>21</ele>
        <time>2012-02-19T08:31:54Z</time>
      </trkpt>
      <trkpt lat="50.38564" lon="3.17912">
        <ele>21</ele>
        <time>2012-02-19T08:31:56Z</time>
      </trkpt>
      <trkpt lat="50.38553" lon="3.17904">
        <ele>21</ele>
        <time>2012-02-19T08:31:58Z</time>
      </trkpt>
      <trkpt lat="50.38541" lon="3.17895">
        <ele>21</ele>
        <time>2012-02-19T08:32:00Z</time>
      </trkpt>
      <trkpt lat="50.38529" lon="3.17887">
        <ele>21</ele>
        <time>2012-02-19T08:32:02Z</time>
      </trkpt>
      <trkpt lat="50.38517" lon="3.17879">
        <ele>21</ele>
        <time>2012-02-19T08:32:04Z</time>
      </trkpt>
      <trkpt lat="50.38505" lon="3.1787">
        <ele>21</ele>
        <time>2012-02-19T08:32:06Z</time>
      </trkpt>
      <trkpt lat="50.38493" lon="3.17861">
        <ele>21</ele>
        <time>2012-02-19T08:32:08Z</time>
      </trkpt>
      <trkpt lat="50.38481" lon="3.17852">
        <ele>21</ele>
        <time>2012-02-19T08:32:10Z</time>
      </trkpt>
      <trkpt lat="50.38469" lon="3.17844">
        <ele>21</ele>
        <time>2012-02-19T08:32:12Z</time>
      </trkpt>
      <trkpt lat="50.38457" lon="3.17836">
        <ele>21</ele>
        <time>2012-02-19T08:32:14Z</time>
      </trkpt>
      <trkpt lat="50.38446" lon="3.17828">
        <ele>21</ele>
        <time>2012-02-19T08:32:16Z</time>
      </trkpt>
      <trkpt lat="50.38436" lon="3.1782">
        <ele>21</ele>
        <time>2012-02-19T08:32:18Z</time>
      </trkpt>
      <trkpt lat="50.38426" lon="3.17813">
        <ele>21</ele>
        <time>2012-02-19T08:32:20Z</time>
      </trkpt>
      <trkpt lat="50.38415" lon="3.17806">
        <ele>21</ele>
        <time>2012-02-19T08:32:22Z</time>
      </trkpt>
      <trkpt lat="50.38405" lon="3.17799">
        <ele>21</ele>
        <time>2012-02-19T08:32:24Z</time>
      </trkpt>
      <trkpt lat="50.38394" lon="3.17793">
        <ele>21</ele>
        <time>2012-02-19T08:32:26Z</time>
      </trkpt>
      <trkpt lat="50.38383" lon="3.17786">
        <ele>21</ele>
        <time>2012-02-19T08:32:28Z</time>
      </trkpt>
      <trkpt lat="50.38374" lon="3.1778">
        <ele>21</ele>
        <time>2012-02-19T08:32:30Z</time>
      </trkpt>
      <trkpt lat="50.38361" lon="3.17777">
        <ele>21</ele>
        <time>2012-02-19T08:32:33Z</time>
      </trkpt>
      <trkpt lat="50.38353" lon="3.17784">
        <ele>21</ele>
        <time>2012-02-19T08:32:35Z</time>
      </trkpt>
      <trkpt lat="50.38345" lon="3.17794">
        <ele>21</ele>
        <time>2012-02-19T08:32:37Z</time>
      </trkpt>
      <trkpt lat="50.38338" lon="3.17806">
        <ele>21</ele>
        <time>2012-02-19T08:32:39Z</time>
      </trkpt>
      <trkpt lat="50.3833" lon="3.17819">
        <ele>21</ele>
        <time>2012-02-19T08:32:41Z</time>
      </trkpt>
      <trkpt lat="50.38321" lon="3.17831">
        <ele>21</ele>
        <time>2012-02-19T08:32:43Z</time>
      </trkpt>
      <trkpt lat="50.38311" lon="3.17843">
        <ele>21</ele>
        <time>2012-02-19T08:32:45Z</time>
      </trkpt>
      <trkpt lat="50.38302" lon="3.17856">
        <ele>21</ele>
        <time>2012-02-19T08:32:47Z</time>
      </trkpt>
      <trkpt lat="50.38293" lon="3.1787">
        <ele>21</ele>
        <time>2012-02-19T08:32:49Z</time>
      </trkpt>
      <trkpt lat="50.38284" lon="3.17882">
        <ele>21</ele>
        <time>2012-02-19T08:32:51Z</time>
      </trkpt>
      <trkpt lat="50.38276" lon="3.17895">
        <ele>21</ele>
        <time>2012-02-19T08:32:53Z</time>
      </trkpt>
      <trkpt lat="50.38267" lon="3.17907">
        <ele>21</ele>
        <time>2012-02-19T08:32:55Z</time>
      </trkpt>
      <trkpt lat="50.3826" lon="3.17919">
        <ele>21</ele>
        <time>2012-02-19T08:32:57Z</time>
      </trkpt>
      <trkpt lat="50.38253" lon="3.17934">
        <ele>21</ele>
        <time>2012-02-19T08:32:59Z</time>
      </trkpt>
      <trkpt lat="50.38249" lon="3.17946">
        <ele>21</ele>
        <time>2012-02-19T08:33:01Z</time>
      </trkpt>
      <trkpt lat="50.38244" lon="3.17964">
        <ele>21</ele>
        <time>2012-02-19T08:33:04Z</time>
      </trkpt>
      <trkpt lat="50.38234" lon="3.17976">
        <ele>21</ele>
        <time>2012-02-19T08:33:07Z</time>
      </trkpt>
      <trkpt lat="50.38224" lon="3.17983">
        <ele>21</ele>
        <time>2012-02-19T08:33:10Z</time>
      </trkpt>
      <trkpt lat="50.38216" lon="3.1799">
        <ele>21</ele>
        <time>2012-02-19T08:33:13Z</time>
      </trkpt>
      <trkpt lat="50.38209" lon="3.17999">
        <ele>21</ele>
        <time>2012-02-19T08:33:17Z</time>
      </trkpt>
      <trkpt lat="50.38201" lon="3.18008">
        <ele>21</ele>
        <time>2012-02-19T08:33:27Z</time>
      </trkpt>
      <trkpt lat="50.38209" lon="3.18001">
        <ele>21</ele>
        <time>2012-02-19T08:34:28Z</time>
      </trkpt>
      <trkpt lat="50.38202" lon="3.18009">
        <ele>21</ele>
        <time>2012-02-19T08:38:53Z</time>
      </trkpt>
      <trkpt lat="50.38198" lon="3.18024">
        <ele>21</ele>
        <time>2012-02-19T08:40:39Z</time>
      </trkpt>
      <trkpt lat="50.38193" lon="3.18039">
        <ele>21</ele>
        <time>2012-02-19T08:40:43Z</time>
      </trkpt>
      <trkpt lat="50.38189" lon="3.18051">
        <ele>21</ele>
        <time>2012-02-19T08:40:46Z</time>
      </trkpt>
      <trkpt lat="50.38185" lon="3.18065">
        <ele>21</ele>
        <time>2012-02-19T08:40:49Z</time>
      </trkpt>
      <trkpt lat="50.38179" lon="3.18077">
        <ele>21</ele>
        <time>2012-02-19T08:40:52Z</time>
      </trkpt>
      <trkpt lat="50.38172" lon="3.18092">
        <ele>21</ele>
        <time>2012-02-19T08:40:55Z</time>
      </trkpt>
      <trkpt lat="50.38166" lon="3.18108">
        <ele>21</ele>
        <time>2012-02-19T08:40:58Z</time>
      </trkpt>
      <trkpt lat="50.3816" lon="3.18123">
        <ele>21</ele>
        <time>2012-02-19T08:41:01Z</time>
      </trkpt>
      <trkpt lat="50.38155" lon="3.18141">
        <ele>21</ele>
        <time>2012-02-19T08:41:04Z</time>
      </trkpt>
      <trkpt lat="50.38151" lon="3.18154">
        <ele>21</ele>
        <time>2012-02-19T08:41:06Z</time>
      </trkpt>
      <trkpt lat="50.38148" lon="3.18167">
        <ele>21</ele>
        <time>2012-02-19T08:41:08Z</time>
      </trkpt>
      <trkpt lat="50.38145" lon="3.18182">
        <ele>21</ele>
        <time>2012-02-19T08:41:10Z</time>
      </trkpt>
      <trkpt lat="50.38143" lon="3.18196">
        <ele>21</ele>
        <time>2012-02-19T08:41:12Z</time>
      </trkpt>
      <trkpt lat="50.3814" lon="3.18211">
        <ele>21</ele>
        <time>2012-02-19T08:41:14Z</time>
      </trkpt>
      <trkpt lat="50.3814" lon="3.18226">
        <ele>21</ele>
        <time>2012-02-19T08:41:16Z</time>
      </trkpt>
      <trkpt lat="50.3814" lon="3.18242">
        <ele>21</ele>
        <time>2012-02-19T08:41:18Z</time>
      </trkpt>
      <trkpt lat="50.38142" lon="3.18258">
        <ele>21</ele>
        <time>2012-02-19T08:41:20Z</time>
      </trkpt>
      <trkpt lat="50.38143" lon="3.18274">
        <ele>21</ele>
        <time>2012-02-19T08:41:22Z</time>
      </trkpt>
      <trkpt lat="50.38145" lon="3.18289">
        <ele>21</ele>
        <time>2012-02-19T08:41:24Z</time>
      </trkpt>
      <trkpt lat="50.38153" lon="3.18305">
        <ele>21</ele>
        <time>2012-02-19T08:41:27Z</time>
      </trkpt>
      <trkpt lat="50.38162" lon="3.18314">
        <ele>21</ele>
        <time>2012-02-19T08:41:30Z</time>
      </trkpt>
      <trkpt lat="50.38164" lon="3.18333">
        <ele>21</ele>
        <time>2012-02-19T08:41:33Z</time>
      </trkpt>
      <trkpt lat="50.38166" lon="3.18351">
        <ele>21</ele>
        <time>2012-02-19T08:41:35Z</time>
      </trkpt>
      <trkpt lat="50.38168" lon="3.1837">
        <ele>21</ele>
        <time>2012-02-19T08:41:37Z</time>
      </trkpt>
      <trkpt lat="50.38169" lon="3.1839">
        <ele>21</ele>
        <time>2012-02-19T08:41:39Z</time>
      </trkpt>
      <trkpt lat="50.38171" lon="3.18407">
        <ele>21</ele>
        <time>2012-02-19T08:41:41Z</time>
      </trkpt>
      <trkpt lat="50.38172" lon="3.18424">
        <ele>21</ele>
        <time>2012-02-19T08:41:43Z</time>
      </trkpt>
      <trkpt lat="50.38174" lon="3.18442">
        <ele>21</ele>
        <time>2012-02-19T08:41:45Z</time>
      </trkpt>
      <trkpt lat="50.38175" lon="3.1846">
        <ele>21</ele>
        <time>2012-02-19T08:41:47Z</time>
      </trkpt>
      <trkpt lat="50.38176" lon="3.18478">
        <ele>21</ele>
        <time>2012-02-19T08:41:49Z</time>
      </trkpt>
      <trkpt lat="50.38178" lon="3.18496">
        <ele>21</ele>
        <time>2012-02-19T08:41:51Z</time>
      </trkpt>
      <trkpt lat="50.38182" lon="3.18517">
        <ele>21</ele>
        <time>2012-02-19T08:41:53Z</time>
      </trkpt>
      <trkpt lat="50.38185" lon="3.18536">
        <ele>21</ele>
        <time>2012-02-19T08:41:55Z</time>
      </trkpt>
      <trkpt lat="50.38187" lon="3.18555">
        <ele>21</ele>
        <time>2012-02-19T08:41:57Z</time>
      </trkpt>
      <trkpt lat="50.38189" lon="3.18574">
        <ele>21</ele>
        <time>2012-02-19T08:41:59Z</time>
      </trkpt>
      <trkpt lat="50.3819" lon="3.18591">
        <ele>21</ele>
        <time>2012-02-19T08:42:01Z</time>
      </trkpt>
      <trkpt lat="50.38192" lon="3.18607">
        <ele>21</ele>
        <time>2012-02-19T08:42:03Z</time>
      </trkpt>
      <trkpt lat="50.38194" lon="3.18623">
        <ele>21</ele>
        <time>2012-02-19T08:42:05Z</time>
      </trkpt>
      <trkpt lat="50.38195" lon="3.1864">
        <ele>21</ele>
        <time>2012-02-19T08:42:07Z</time>
      </trkpt>
      <trkpt lat="50.38197" lon="3.18654">
        <ele>21</ele>
        <time>2012-02-19T08:42:09Z</time>
      </trkpt>
      <trkpt lat="50.38198" lon="3.1867">
        <ele>21</ele>
        <time>2012-02-19T08:42:11Z</time>
      </trkpt>
      <trkpt lat="50.38198" lon="3.18688">
        <ele>28</ele>
        <time>2012-02-19T08:42:13Z</time>
      </trkpt>
      <trkpt lat="50.38199" lon="3.18705">
        <ele>28</ele>
        <time>2012-02-19T08:42:15Z</time>
      </trkpt>
      <trkpt lat="50.38201" lon="3.18723">
        <ele>28</ele>
        <time>2012-02-19T08:42:17Z</time>
      </trkpt>
      <trkpt lat="50.38202" lon="3.18741">
        <ele>28</ele>
        <time>2012-02-19T08:42:19Z</time>
      </trkpt>
      <trkpt lat="50.38203" lon="3.1876">
        <ele>28</ele>
        <time>2012-02-19T08:42:21Z</time>
      </trkpt>
      <trkpt lat="50.38205" lon="3.18777">
        <ele>28</ele>
        <time>2012-02-19T08:42:23Z</time>
      </trkpt>
      <trkpt lat="50.38206" lon="3.18796">
        <ele>28</ele>
        <time>2012-02-19T08:42:25Z</time>
      </trkpt>
      <trkpt lat="50.38209" lon="3.18816">
        <ele>28</ele>
        <time>2012-02-19T08:42:27Z</time>
      </trkpt>
      <trkpt lat="50.3821" lon="3.18835">
        <ele>28</ele>
        <time>2012-02-19T08:42:29Z</time>
      </trkpt>
      <trkpt lat="50.38211" lon="3.18853">
        <ele>28</ele>
        <time>2012-02-19T08:42:31Z</time>
      </trkpt>
      <trkpt lat="50.38213" lon="3.18873">
        <ele>28</ele>
        <time>2012-02-19T08:42:33Z</time>
      </trkpt>
      <trkpt lat="50.38215" lon="3.18893">
        <ele>34</ele>
        <time>2012-02-19T08:42:35Z</time>
      </trkpt>
      <trkpt lat="50.38216" lon="3.18909">
        <ele>34</ele>
        <time>2012-02-19T08:42:37Z</time>
      </trkpt>
      <trkpt lat="50.38218" lon="3.18925">
        <ele>34</ele>
        <time>2012-02-19T08:42:39Z</time>
      </trkpt>
      <trkpt lat="50.3822" lon="3.18941">
        <ele>34</ele>
        <time>2012-02-19T08:42:41Z</time>
      </trkpt>
      <trkpt lat="50.38222" lon="3.1896">
        <ele>34</ele>
        <time>2012-02-19T08:42:43Z</time>
      </trkpt>
      <trkpt lat="50.38224" lon="3.1898">
        <ele>34</ele>
        <time>2012-02-19T08:42:45Z</time>
      </trkpt>
      <trkpt lat="50.38229" lon="3.19003">
        <ele>28</ele>
        <time>2012-02-19T08:42:47Z</time>
      </trkpt>
      <trkpt lat="50.38231" lon="3.19023">
        <ele>28</ele>
        <time>2012-02-19T08:42:49Z</time>
      </trkpt>
      <trkpt lat="50.38234" lon="3.19045">
        <ele>28</ele>
        <time>2012-02-19T08:42:51Z</time>
      </trkpt>
      <trkpt lat="50.38236" lon="3.19065">
        <ele>28</ele>
        <time>2012-02-19T08:42:53Z</time>
      </trkpt>
      <trkpt lat="50.38238" lon="3.19086">
        <ele>28</ele>
        <time>2012-02-19T08:42:55Z</time>
      </trkpt>
      <trkpt lat="50.3824" lon="3.19107">
        <ele>28</ele>
        <time>2012-02-19T08:42:57Z</time>
      </trkpt>
      <trkpt lat="50.38241" lon="3.19126">
        <ele>28</ele>
        <time>2012-02-19T08:42:59Z</time>
      </trkpt>
      <trkpt lat="50.38242" lon="3.19145">
        <ele>28</ele>
        <time>2012-02-19T08:43:01Z</time>
      </trkpt>
      <trkpt lat="50.38244" lon="3.19163">
        <ele>28</ele>
        <time>2012-02-19T08:43:03Z</time>
      </trkpt>
      <trkpt lat="50.38246" lon="3.1918">
        <ele>28</ele>
        <time>2012-02-19T08:43:05Z</time>
      </trkpt>
      <trkpt lat="50.38248" lon="3.19199">
        <ele>28</ele>
        <time>2012-02-19T08:43:07Z</time>
      </trkpt>
      <trkpt lat="50.38251" lon="3.19217">
        <ele>28</ele>
        <time>2012-02-19T08:43:09Z</time>
      </trkpt>
      <trkpt lat="50.38256" lon="3.19235">
        <ele>28</ele>
        <time>2012-02-19T08:43:11Z</time>
      </trkpt>
      <trkpt lat="50.38262" lon="3.19251">
        <ele>28</ele>
        <time>2012-02-19T08:43:13Z</time>
      </trkpt>
      <trkpt lat="50.38266" lon="3.19263">
        <ele>28</ele>
        <time>2012-02-19T08:43:15Z</time>
      </trkpt>
      <trkpt lat="50.3827" lon="3.19277">
        <ele>21</ele>
        <time>2012-02-19T08:43:17Z</time>
      </trkpt>
      <trkpt lat="50.38275" lon="3.19294">
        <ele>21</ele>
        <time>2012-02-19T08:43:19Z</time>
      </trkpt>
      <trkpt lat="50.38282" lon="3.19306">
        <ele>21</ele>
        <time>2012-02-19T08:43:21Z</time>
      </trkpt>
      <trkpt lat="50.3829" lon="3.19316">
        <ele>21</ele>
        <time>2012-02-19T08:43:23Z</time>
      </trkpt>
      <trkpt lat="50.38298" lon="3.19329">
        <ele>21</ele>
        <time>2012-02-19T08:43:25Z</time>
      </trkpt>
      <trkpt lat="50.38306" lon="3.19339">
        <ele>21</ele>
        <time>2012-02-19T08:43:27Z</time>
      </trkpt>
      <trkpt lat="50.38314" lon="3.19348">
        <ele>26</ele>
        <time>2012-02-19T08:43:29Z</time>
      </trkpt>
      <trkpt lat="50.38323" lon="3.19357">
        <ele>26</ele>
        <time>2012-02-19T08:43:32Z</time>
      </trkpt>
      <trkpt lat="50.38332" lon="3.19365">
        <ele>26</ele>
        <time>2012-02-19T08:43:35Z</time>
      </trkpt>
      <trkpt lat="50.38343" lon="3.19367">
        <ele>26</ele>
        <time>2012-02-19T08:43:39Z</time>
      </trkpt>
      <trkpt lat="50.38354" lon="3.19366">
        <ele>32</ele>
        <time>2012-02-19T08:43:43Z</time>
      </trkpt>
      <trkpt lat="50.38364" lon="3.19371">
        <ele>32</ele>
        <time>2012-02-19T08:43:47Z</time>
      </trkpt>
      <trkpt lat="50.38368" lon="3.19383">
        <ele>32</ele>
        <time>2012-02-19T08:43:51Z</time>
      </trkpt>
      <trkpt lat="50.38367" lon="3.19399">
        <ele>39</ele>
        <time>2012-02-19T08:43:55Z</time>
      </trkpt>
      <trkpt lat="50.38365" lon="3.19414">
        <ele>39</ele>
        <time>2012-02-19T08:43:59Z</time>
      </trkpt>
      <trkpt lat="50.38362" lon="3.19427">
        <ele>39</ele>
        <time>2012-02-19T08:44:02Z</time>
      </trkpt>
      <trkpt lat="50.38365" lon="3.19445">
        <ele>39</ele>
        <time>2012-02-19T08:44:06Z</time>
      </trkpt>
      <trkpt lat="50.38372" lon="3.19453">
        <ele>39</ele>
        <time>2012-02-19T08:44:09Z</time>
      </trkpt>
      <trkpt lat="50.38382" lon="3.1946">
        <ele>39</ele>
        <time>2012-02-19T08:44:13Z</time>
      </trkpt>
      <trkpt lat="50.3839" lon="3.19468">
        <ele>39</ele>
        <time>2012-02-19T08:44:17Z</time>
      </trkpt>
      <trkpt lat="50.38396" lon="3.19478">
        <ele>39</ele>
        <time>2012-02-19T08:44:21Z</time>
      </trkpt>
      <trkpt lat="50.38404" lon="3.19489">
        <ele>39</ele>
        <time>2012-02-19T08:44:25Z</time>
      </trkpt>
      <trkpt lat="50.38414" lon="3.19495">
        <ele>39</ele>
        <time>2012-02-19T08:44:29Z</time>
      </trkpt>
      <trkpt lat="50.38425" lon="3.19495">
        <ele>39</ele>
        <time>2012-02-19T08:44:33Z</time>
      </trkpt>
      <trkpt lat="50.38436" lon="3.19493">
        <ele>39</ele>
        <time>2012-02-19T08:44:37Z</time>
      </trkpt>
      <trkpt lat="50.38446" lon="3.19486">
        <ele>39</ele>
        <time>2012-02-19T08:44:42Z</time>
      </trkpt>
      <trkpt lat="50.38456" lon="3.19483">
        <ele>39</ele>
        <time>2012-02-19T08:44:46Z</time>
      </trkpt>
      <trkpt lat="50.38464" lon="3.19488">
        <ele>39</ele>
        <time>2012-02-19T08:44:50Z</time>
      </trkpt>
      <trkpt lat="50.38473" lon="3.19494">
        <ele>39</ele>
        <time>2012-02-19T08:44:54Z</time>
      </trkpt>
      <trkpt lat="50.38483" lon="3.19494">
        <ele>39</ele>
        <time>2012-02-19T08:44:58Z</time>
      </trkpt>
      <trkpt lat="50.38494" lon="3.19489">
        <ele>39</ele>
        <time>2012-02-19T08:45:02Z</time>
      </trkpt>
      <trkpt lat="50.38504" lon="3.19482">
        <ele>39</ele>
        <time>2012-02-19T08:45:06Z</time>
      </trkpt>
      <trkpt lat="50.38511" lon="3.19474">
        <ele>39</ele>
        <time>2012-02-19T08:45:09Z</time>
      </trkpt>
      <trkpt lat="50.38519" lon="3.19466">
        <ele>39</ele>
        <time>2012-02-19T08:45:12Z</time>
      </trkpt>
      <trkpt lat="50.38529" lon="3.19456">
        <ele>39</ele>
        <time>2012-02-19T08:45:16Z</time>
      </trkpt>
      <trkpt lat="50.38536" lon="3.19447">
        <ele>39</ele>
        <time>2012-02-19T08:45:19Z</time>
      </trkpt>
      <trkpt lat="50.38544" lon="3.19438">
        <ele>39</ele>
        <time>2012-02-19T08:45:22Z</time>
      </trkpt>
      <trkpt lat="50.38552" lon="3.19429">
        <ele>39</ele>
        <time>2012-02-19T08:45:25Z</time>
      </trkpt>
      <trkpt lat="50.3856" lon="3.19417">
        <ele>39</ele>
        <time>2012-02-19T08:45:29Z</time>
      </trkpt>
      <trkpt lat="50.38567" lon="3.19409">
        <ele>39</ele>
        <time>2012-02-19T08:45:32Z</time>
      </trkpt>
      <trkpt lat="50.38575" lon="3.19399">
        <ele>39</ele>
        <time>2012-02-19T08:45:36Z</time>
      </trkpt>
      <trkpt lat="50.38582" lon="3.19389">
        <ele>39</ele>
        <time>2012-02-19T08:45:42Z</time>
      </trkpt>
      <trkpt lat="50.38591" lon="3.19383">
        <ele>39</ele>
        <time>2012-02-19T08:45:48Z</time>
      </trkpt>
      <trkpt lat="50.38599" lon="3.19376">
        <ele>39</ele>
        <time>2012-02-19T08:45:53Z</time>
      </trkpt>
      <trkpt lat="50.38608" lon="3.19369">
        <ele>39</ele>
        <time>2012-02-19T08:45:57Z</time>
      </trkpt>
      <trkpt lat="50.38618" lon="3.19361">
        <ele>39</ele>
        <time>2012-02-19T08:46:01Z</time>
      </trkpt>
      <trkpt lat="50.38626" lon="3.19355">
        <ele>39</ele>
        <time>2012-02-19T08:46:04Z</time>
      </trkpt>
      <trkpt lat="50.38634" lon="3.19344">
        <ele>39</ele>
        <time>2012-02-19T08:46:08Z</time>
      </trkpt>
      <trkpt lat="50.38641" lon="3.19332">
        <ele>39</ele>
        <time>2012-02-19T08:46:12Z</time>
      </trkpt>
      <trkpt lat="50.38649" lon="3.19322">
        <ele>39</ele>
        <time>2012-02-19T08:46:16Z</time>
      </trkpt>
      <trkpt lat="50.38655" lon="3.19313">
        <ele>39</ele>
        <time>2012-02-19T08:46:19Z</time>
      </trkpt>
      <trkpt lat="50.38664" lon="3.19302">
        <ele>39</ele>
        <time>2012-02-19T08:46:22Z</time>
      </trkpt>
      <trkpt lat="50.38673" lon="3.19292">
        <ele>39</ele>
        <time>2012-02-19T08:46:25Z</time>
      </trkpt>
      <trkpt lat="50.38685" lon="3.19284">
        <ele>39</ele>
        <time>2012-02-19T08:46:28Z</time>
      </trkpt>
      <trkpt lat="50.38693" lon="3.19277">
        <ele>39</ele>
        <time>2012-02-19T08:46:30Z</time>
      </trkpt>
      <trkpt lat="50.38701" lon="3.19271">
        <ele>39</ele>
        <time>2012-02-19T08:46:32Z</time>
      </trkpt>
      <trkpt lat="50.38711" lon="3.19259">
        <ele>39</ele>
        <time>2012-02-19T08:46:35Z</time>
      </trkpt>
      <trkpt lat="50.38717" lon="3.1924">
        <ele>39</ele>
        <time>2012-02-19T08:46:38Z</time>
      </trkpt>
      <trkpt lat="50.38722" lon="3.19225">
        <ele>39</ele>
        <time>2012-02-19T08:46:40Z</time>
      </trkpt>
      <trkpt lat="50.38727" lon="3.19211">
        <ele>39</ele>
        <time>2012-02-19T08:46:42Z</time>
      </trkpt>
      <trkpt lat="50.38732" lon="3.19197">
        <ele>39</ele>
        <time>2012-02-19T08:46:44Z</time>
      </trkpt>
      <trkpt lat="50.38738" lon="3.1918">
        <ele>39</ele>
        <time>2012-02-19T08:46:46Z</time>
      </trkpt>
      <trkpt lat="50.38743" lon="3.19166">
        <ele>39</ele>
        <time>2012-02-19T08:46:48Z</time>
      </trkpt>
      <trkpt lat="50.38749" lon="3.19149">
        <ele>39</ele>
        <time>2012-02-19T08:46:51Z</time>
      </trkpt>
      <trkpt lat="50.38754" lon="3.19136">
        <ele>39</ele>
        <time>2012-02-19T08:46:54Z</time>
      </trkpt>
      <trkpt lat="50.38761" lon="3.19124">
        <ele>39</ele>
        <time>2012-02-19T08:46:57Z</time>
      </trkpt>
      <trkpt lat="50.38769" lon="3.19113">
        <ele>39</ele>
        <time>2012-02-19T08:47:00Z</time>
      </trkpt>
      <trkpt lat="50.38778" lon="3.19105">
        <ele>39</ele>
        <time>2012-02-19T08:47:03Z</time>
      </trkpt>
      <trkpt lat="50.38787" lon="3.19096">
        <ele>39</ele>
        <time>2012-02-19T08:47:06Z</time>
      </trkpt>
      <trkpt lat="50.38795" lon="3.19084">
        <ele>39</ele>
        <time>2012-02-19T08:47:10Z</time>
      </trkpt>
      <trkpt lat="50.38799" lon="3.19069">
        <ele>39</ele>
        <time>2012-02-19T08:47:14Z</time>
      </trkpt>
      <trkpt lat="50.388" lon="3.19051">
        <ele>39</ele>
        <time>2012-02-19T08:47:18Z</time>
      </trkpt>
      <trkpt lat="50.388" lon="3.19033">
        <ele>39</ele>
        <time>2012-02-19T08:47:22Z</time>
      </trkpt>
      <trkpt lat="50.388" lon="3.19018">
        <ele>39</ele>
        <time>2012-02-19T08:47:25Z</time>
      </trkpt>
      <trkpt lat="50.38799" lon="3.19003">
        <ele>39</ele>
        <time>2012-02-19T08:47:28Z</time>
      </trkpt>
      <trkpt lat="50.38799" lon="3.18984">
        <ele>39</ele>
        <time>2012-02-19T08:47:31Z</time>
      </trkpt>
      <trkpt lat="50.388" lon="3.18964">
        <ele>39</ele>
        <time>2012-02-19T08:47:34Z</time>
      </trkpt>
      <trkpt lat="50.388" lon="3.18943">
        <ele>39</ele>
        <time>2012-02-19T08:47:37Z</time>
      </trkpt>
      <trkpt lat="50.38799" lon="3.18929">
        <ele>39</ele>
        <time>2012-02-19T08:47:39Z</time>
      </trkpt>
      <trkpt lat="50.38799" lon="3.18914">
        <ele>39</ele>
        <time>2012-02-19T08:47:41Z</time>
      </trkpt>
      <trkpt lat="50.388" lon="3.18899">
        <ele>39</ele>
        <time>2012-02-19T08:47:43Z</time>
      </trkpt>
      <trkpt lat="50.38799" lon="3.18885">
        <ele>39</ele>
        <time>2012-02-19T08:47:45Z</time>
      </trkpt>
      <trkpt lat="50.38799" lon="3.1887">
        <ele>39</ele>
        <time>2012-02-19T08:47:47Z</time>
      </trkpt>
      <trkpt lat="50.38799" lon="3.18854">
        <ele>39</ele>
        <time>2012-02-19T08:47:49Z</time>
      </trkpt>
      <trkpt lat="50.38798" lon="3.1884">
        <ele>39</ele>
        <time>2012-02-19T08:47:51Z</time>
      </trkpt>
      <trkpt lat="50.38797" lon="3.18824">
        <ele>39</ele>
        <time>2012-02-19T08:47:53Z</time>
      </trkpt>
      <trkpt lat="50.38796" lon="3.18808">
        <ele>39</ele>
        <time>2012-02-19T08:47:55Z</time>
      </trkpt>
      <trkpt lat="50.38794" lon="3.18791">
        <ele>39</ele>
        <time>2012-02-19T08:47:57Z</time>
      </trkpt>
      <trkpt lat="50.38793" lon="3.18774">
        <ele>39</ele>
        <time>2012-02-19T08:47:59Z</time>
      </trkpt>
      <trkpt lat="50.38793" lon="3.18757">
        <ele>39</ele>
        <time>2012-02-19T08:48:01Z</time>
      </trkpt>
      <trkpt lat="50.38792" lon="3.18742">
        <ele>39</ele>
        <time>2012-02-19T08:48:03Z</time>
      </trkpt>
      <trkpt lat="50.38792" lon="3.18728">
        <ele>39</ele>
        <time>2012-02-19T08:48:05Z</time>
      </trkpt>
      <trkpt lat="50.38788" lon="3.18711">
        <ele>39</ele>
        <time>2012-02-19T08:48:08Z</time>
      </trkpt>
      <trkpt lat="50.38785" lon="3.18697">
        <ele>39</ele>
        <time>2012-02-19T08:48:11Z</time>
      </trkpt>
      <trkpt lat="50.38781" lon="3.18681">
        <ele>39</ele>
        <time>2012-02-19T08:48:15Z</time>
      </trkpt>
      <trkpt lat="50.38775" lon="3.18666">
        <ele>39</ele>
        <time>2012-02-19T08:48:19Z</time>
      </trkpt>
      <trkpt lat="50.38771" lon="3.18653">
        <ele>39</ele>
        <time>2012-02-19T08:48:22Z</time>
      </trkpt>
      <trkpt lat="50.38765" lon="3.18641">
        <ele>39</ele>
        <time>2012-02-19T08:48:26Z</time>
      </trkpt>
      <trkpt lat="50.38758" lon="3.18631">
        <ele>39</ele>
        <time>2012-02-19T08:48:29Z</time>
      </trkpt>
      <trkpt lat="50.38751" lon="3.18621">
        <ele>39</ele>
        <time>2012-02-19T08:48:32Z</time>
      </trkpt>
      <trkpt lat="50.38743" lon="3.18611">
        <ele>39</ele>
        <time>2012-02-19T08:48:36Z</time>
      </trkpt>
      <trkpt lat="50.38734" lon="3.18605">
        <ele>39</ele>
        <time>2012-02-19T08:48:39Z</time>
      </trkpt>
      <trkpt lat="50.38724" lon="3.18601">
        <ele>39</ele>
        <time>2012-02-19T08:48:42Z</time>
      </trkpt>
      <trkpt lat="50.38715" lon="3.18599">
        <ele>39</ele>
        <time>2012-02-19T08:48:45Z</time>
      </trkpt>
      <trkpt lat="50.38705" lon="3.186">
        <ele>39</ele>
        <time>2012-02-19T08:48:48Z</time>
      </trkpt>
      <trkpt lat="50.38696" lon="3.18601">
        <ele>39</ele>
        <time>2012-02-19T08:48:51Z</time>
      </trkpt>
      <trkpt lat="50.38686" lon="3.18602">
        <ele>39</ele>
        <time>2012-02-19T08:48:55Z</time>
      </trkpt>
      <trkpt lat="50.38677" lon="3.18605">
        <ele>39</ele>
        <time>2012-02-19T08:48:59Z</time>
      </trkpt>
      <trkpt lat="50.38667" lon="3.18608">
        <ele>39</ele>
        <time>2012-02-19T08:49:03Z</time>
      </trkpt>
      <trkpt lat="50.38657" lon="3.18606">
        <ele>39</ele>
        <time>2012-02-19T08:49:07Z</time>
      </trkpt>
      <trkpt lat="50.38647" lon="3.18606">
        <ele>39</ele>
        <time>2012-02-19T08:49:10Z</time>
      </trkpt>
      <trkpt lat="50.38637" lon="3.18608">
        <ele>39</ele>
        <time>2012-02-19T08:49:13Z</time>
      </trkpt>
      <trkpt lat="50.38627" lon="3.1861">
        <ele>39</ele>
        <time>2012-02-19T08:49:16Z</time>
      </trkpt>
      <trkpt lat="50.38617" lon="3.18609">
        <ele>39</ele>
        <time>2012-02-19T08:49:19Z</time>
      </trkpt>
      <trkpt lat="50.38608" lon="3.18605">
        <ele>39</ele>
        <time>2012-02-19T08:49:22Z</time>
      </trkpt>
      <trkpt lat="50.38601" lon="3.18597">
        <ele>39</ele>
        <time>2012-02-19T08:49:25Z</time>
      </trkpt>
      <trkpt lat="50.38596" lon="3.18584">
        <ele>39</ele>
        <time>2012-02-19T08:49:28Z</time>
      </trkpt>
      <trkpt lat="50.38595" lon="3.1857">
        <ele>39</ele>
        <time>2012-02-19T08:49:31Z</time>
      </trkpt>
      <trkpt lat="50.38595" lon="3.18554">
        <ele>39</ele>
        <time>2012-02-19T08:49:34Z</time>
      </trkpt>
      <trkpt lat="50.38595" lon="3.1854">
        <ele>39</ele>
        <time>2012-02-19T08:49:37Z</time>
      </trkpt>
      <trkpt lat="50.38595" lon="3.18525">
        <ele>39</ele>
        <time>2012-02-19T08:49:40Z</time>
      </trkpt>
      <trkpt lat="50.38594" lon="3.18508">
        <ele>39</ele>
        <time>2012-02-19T08:49:43Z</time>
      </trkpt>
      <trkpt lat="50.38592" lon="3.18492">
        <ele>39</ele>
        <time>2012-02-19T08:49:46Z</time>
      </trkpt>
      <trkpt lat="50.38591" lon="3.18474">
        <ele>39</ele>
        <time>2012-02-19T08:49:50Z</time>
      </trkpt>
      <trkpt lat="50.3859" lon="3.18458">
        <ele>39</ele>
        <time>2012-02-19T08:49:53Z</time>
      </trkpt>
      <trkpt lat="50.38589" lon="3.18442">
        <ele>39</ele>
        <time>2012-02-19T08:49:56Z</time>
      </trkpt>
      <trkpt lat="50.38588" lon="3.18426">
        <ele>44</ele>
        <time>2012-02-19T08:49:59Z</time>
      </trkpt>
      <trkpt lat="50.38588" lon="3.18411">
        <ele>44</ele>
        <time>2012-02-19T08:50:02Z</time>
      </trkpt>
      <trkpt lat="50.38588" lon="3.18394">
        <ele>44</ele>
        <time>2012-02-19T08:50:05Z</time>
      </trkpt>
      <trkpt lat="50.38587" lon="3.18376">
        <ele>44</ele>
        <time>2012-02-19T08:50:08Z</time>
      </trkpt>
      <trkpt lat="50.38584" lon="3.18359">
        <ele>44</ele>
        <time>2012-02-19T08:50:11Z</time>
      </trkpt>
      <trkpt lat="50.38579" lon="3.18348">
        <ele>44</ele>
        <time>2012-02-19T08:50:14Z</time>
      </trkpt>
      <trkpt lat="50.38572" lon="3.18339">
        <ele>44</ele>
        <time>2012-02-19T08:50:17Z</time>
      </trkpt>
      <trkpt lat="50.38564" lon="3.18333">
        <ele>44</ele>
        <time>2012-02-19T08:50:20Z</time>
      </trkpt>
      <trkpt lat="50.38554" lon="3.18331">
        <ele>44</ele>
        <time>2012-02-19T08:50:23Z</time>
      </trkpt>
      <trkpt lat="50.38544" lon="3.18332">
        <ele>44</ele>
        <time>2012-02-19T08:50:26Z</time>
      </trkpt>
      <trkpt lat="50.38534" lon="3.1833">
        <ele>39</ele>
        <time>2012-02-19T08:50:29Z</time>
      </trkpt>
      <trkpt lat="50.38525" lon="3.18327">
        <ele>39</ele>
        <time>2012-02-19T08:50:32Z</time>
      </trkpt>
      <trkpt lat="50.38516" lon="3.18326">
        <ele>39</ele>
        <time>2012-02-19T08:50:35Z</time>
      </trkpt>
      <trkpt lat="50.38507" lon="3.18331">
        <ele>39</ele>
        <time>2012-02-19T08:50:38Z</time>
      </trkpt>
      <trkpt lat="50.38499" lon="3.18338">
        <ele>39</ele>
        <time>2012-02-19T08:50:41Z</time>
      </trkpt>
      <trkpt lat="50.3849" lon="3.18341">
        <ele>39</ele>
        <time>2012-02-19T08:50:44Z</time>
      </trkpt>
      <trkpt lat="50.38481" lon="3.18348">
        <ele>39</ele>
        <time>2012-02-19T08:50:47Z</time>
      </trkpt>
      <trkpt lat="50.38477" lon="3.1836">
        <ele>39</ele>
        <time>2012-02-19T08:50:50Z</time>
      </trkpt>
      <trkpt lat="50.38479" lon="3.18376">
        <ele>39</ele>
        <time>2012-02-19T08:50:53Z</time>
      </trkpt>
      <trkpt lat="50.3848" lon="3.18391">
        <ele>39</ele>
        <time>2012-02-19T08:50:56Z</time>
      </trkpt>
      <trkpt lat="50.38481" lon="3.18406">
        <ele>39</ele>
        <time>2012-02-19T08:50:59Z</time>
      </trkpt>
      <trkpt lat="50.38483" lon="3.18422">
        <ele>39</ele>
        <time>2012-02-19T08:51:02Z</time>
      </trkpt>
      <trkpt lat="50.38485" lon="3.18437">
        <ele>39</ele>
        <time>2012-02-19T08:51:05Z</time>
      </trkpt>
      <trkpt lat="50.38487" lon="3.18456">
        <ele>39</ele>
        <time>2012-02-19T08:51:08Z</time>
      </trkpt>
      <trkpt lat="50.38488" lon="3.18473">
        <ele>39</ele>
        <time>2012-02-19T08:51:11Z</time>
      </trkpt>
      <trkpt lat="50.3849" lon="3.1849">
        <ele>39</ele>
        <time>2012-02-19T08:51:14Z</time>
      </trkpt>
      <trkpt lat="50.38492" lon="3.18507">
        <ele>39</ele>
        <time>2012-02-19T08:51:17Z</time>
      </trkpt>
      <trkpt lat="50.38494" lon="3.18525">
        <ele>39</ele>
        <time>2012-02-19T08:51:20Z</time>
      </trkpt>
      <trkpt lat="50.38495" lon="3.18544">
        <ele>39</ele>
        <time>2012-02-19T08:51:23Z</time>
      </trkpt>
      <trkpt lat="50.38498" lon="3.18562">
        <ele>39</ele>
        <time>2012-02-19T08:51:26Z</time>
      </trkpt>
      <trkpt lat="50.38499" lon="3.18581">
        <ele>39</ele>
        <time>2012-02-19T08:51:29Z</time>
      </trkpt>
      <trkpt lat="50.385" lon="3.18599">
        <ele>39</ele>
        <time>2012-02-19T08:51:32Z</time>
      </trkpt>
      <trkpt lat="50.38502" lon="3.18615">
        <ele>39</ele>
        <time>2012-02-19T08:51:35Z</time>
      </trkpt>
      <trkpt lat="50.38498" lon="3.18632">
        <ele>39</ele>
        <time>2012-02-19T08:51:38Z</time>
      </trkpt>
      <trkpt lat="50.38489" lon="3.18636">
        <ele>39</ele>
        <time>2012-02-19T08:51:41Z</time>
      </trkpt>
      <trkpt lat="50.38477" lon="3.18639">
        <ele>39</ele>
        <time>2012-02-19T08:51:44Z</time>
      </trkpt>
      <trkpt lat="50.38464" lon="3.18642">
        <ele>39</ele>
        <time>2012-02-19T08:51:47Z</time>
      </trkpt>
      <trkpt lat="50.38454" lon="3.18644">
        <ele>39</ele>
        <time>2012-02-19T08:51:49Z</time>
      </trkpt>
      <trkpt lat="50.38445" lon="3.18646">
        <ele>39</ele>
        <time>2012-02-19T08:51:51Z</time>
      </trkpt>
      <trkpt lat="50.38436" lon="3.18648">
        <ele>39</ele>
        <time>2012-02-19T08:51:53Z</time>
      </trkpt>
      <trkpt lat="50.38426" lon="3.1865">
        <ele>39</ele>
        <time>2012-02-19T08:51:55Z</time>
      </trkpt>
      <trkpt lat="50.38417" lon="3.18652">
        <ele>39</ele>
        <time>2012-02-19T08:51:57Z</time>
      </trkpt>
      <trkpt lat="50.38408" lon="3.18654">
        <ele>39</ele>
        <time>2012-02-19T08:51:59Z</time>
      </trkpt>
      <trkpt lat="50.38399" lon="3.18656">
        <ele>39</ele>
        <time>2012-02-19T08:52:01Z</time>
      </trkpt>
      <trkpt lat="50.38389" lon="3.18658">
        <ele>39</ele>
        <time>2012-02-19T08:52:03Z</time>
      </trkpt>
      <trkpt lat="50.38379" lon="3.1866">
        <ele>39</ele>
        <time>2012-02-19T08:52:05Z</time>
      </trkpt>
      <trkpt lat="50.3837" lon="3.18661">
        <ele>39</ele>
        <time>2012-02-19T08:52:07Z</time>
      </trkpt>
      <trkpt lat="50.38361" lon="3.18665">
        <ele>39</ele>
        <time>2012-02-19T08:52:09Z</time>
      </trkpt>
      <trkpt lat="50.3835" lon="3.18674">
        <ele>39</ele>
        <time>2012-02-19T08:52:12Z</time>
      </trkpt>
      <trkpt lat="50.3834" lon="3.1868">
        <ele>39</ele>
        <time>2012-02-19T08:52:15Z</time>
      </trkpt>
      <trkpt lat="50.3833" lon="3.18679">
        <ele>39</ele>
        <time>2012-02-19T08:52:18Z</time>
      </trkpt>
      <trkpt lat="50.38321" lon="3.18676">
        <ele>39</ele>
        <time>2012-02-19T08:52:21Z</time>
      </trkpt>
      <trkpt lat="50.3831" lon="3.18678">
        <ele>39</ele>
        <time>2012-02-19T08:52:24Z</time>
      </trkpt>
      <trkpt lat="50.38299" lon="3.18682">
        <ele>39</ele>
        <time>2012-02-19T08:52:27Z</time>
      </trkpt>
      <trkpt lat="50.38288" lon="3.18685">
        <ele>39</ele>
        <time>2012-02-19T08:52:30Z</time>
      </trkpt>
      <trkpt lat="50.38276" lon="3.18688">
        <ele>39</ele>
        <time>2012-02-19T08:52:33Z</time>
      </trkpt>
      <trkpt lat="50.38264" lon="3.18688">
        <ele>39</ele>
        <time>2012-02-19T08:52:36Z</time>
      </trkpt>
      <trkpt lat="50.38257" lon="3.18676">
        <ele>39</ele>
        <time>2012-02-19T08:52:39Z</time>
      </trkpt>
      <trkpt lat="50.38256" lon="3.18658">
        <ele>39</ele>
        <time>2012-02-19T08:52:42Z</time>
      </trkpt>
      <trkpt lat="50.38255" lon="3.18639">
        <ele>39</ele>
        <time>2012-02-19T08:52:45Z</time>
      </trkpt>
      <trkpt lat="50.38253" lon="3.18624">
        <ele>39</ele>
        <time>2012-02-19T08:52:47Z</time>
      </trkpt>
      <trkpt lat="50.38251" lon="3.18609">
        <ele>39</ele>
        <time>2012-02-19T08:52:49Z</time>
      </trkpt>
      <trkpt lat="50.38249" lon="3.18588">
        <ele>39</ele>
        <time>2012-02-19T08:52:52Z</time>
      </trkpt>
      <trkpt lat="50.38247" lon="3.18573">
        <ele>39</ele>
        <time>2012-02-19T08:52:54Z</time>
      </trkpt>
      <trkpt lat="50.38245" lon="3.18559">
        <ele>39</ele>
        <time>2012-02-19T08:52:56Z</time>
      </trkpt>
      <trkpt lat="50.38244" lon="3.18544">
        <ele>39</ele>
        <time>2012-02-19T08:52:58Z</time>
      </trkpt>
      <trkpt lat="50.38244" lon="3.1853">
        <ele>39</ele>
        <time>2012-02-19T08:53:00Z</time>
      </trkpt>
      <trkpt lat="50.38244" lon="3.18514">
        <ele>39</ele>
        <time>2012-02-19T08:53:02Z</time>
      </trkpt>
      <trkpt lat="50.38245" lon="3.18499">
        <ele>39</ele>
        <time>2012-02-19T08:53:04Z</time>
      </trkpt>
      <trkpt lat="50.38248" lon="3.18485">
        <ele>39</ele>
        <time>2012-02-19T08:53:06Z</time>
      </trkpt>
      <trkpt lat="50.38252" lon="3.18473">
        <ele>39</ele>
        <time>2012-02-19T08:53:08Z</time>
      </trkpt>
      <trkpt lat="50.38257" lon="3.1846">
        <ele>39</ele>
        <time>2012-02-19T08:53:10Z</time>
      </trkpt>
      <trkpt lat="50.38263" lon="3.18448">
        <ele>39</ele>
        <time>2012-02-19T08:53:12Z</time>
      </trkpt>
      <trkpt lat="50.38268" lon="3.18437">
        <ele>39</ele>
        <time>2012-02-19T08:53:14Z</time>
      </trkpt>
      <trkpt lat="50.38273" lon="3.18425">
        <ele>39</ele>
        <time>2012-02-19T08:53:16Z</time>
      </trkpt>
      <trkpt lat="50.38279" lon="3.18414">
        <ele>39</ele>
        <time>2012-02-19T08:53:18Z</time>
      </trkpt>
      <trkpt lat="50.38286" lon="3.18403">
        <ele>39</ele>
        <time>2012-02-19T08:53:20Z</time>
      </trkpt>
      <trkpt lat="50.38295" lon="3.18388">
        <ele>45</ele>
        <time>2012-02-19T08:53:23Z</time>
      </trkpt>
      <trkpt lat="50.38306" lon="3.18377">
        <ele>45</ele>
        <time>2012-02-19T08:53:26Z</time>
      </trkpt>
      <trkpt lat="50.38317" lon="3.18371">
        <ele>45</ele>
        <time>2012-02-19T08:53:29Z</time>
      </trkpt>
      <trkpt lat="50.38311" lon="3.18358">
        <ele>45</ele>
        <time>2012-02-19T08:53:33Z</time>
      </trkpt>
      <trkpt lat="50.38302" lon="3.18359">
        <ele>45</ele>
        <time>2012-02-19T08:53:35Z</time>
      </trkpt>
      <trkpt lat="50.38293" lon="3.18365">
        <ele>45</ele>
        <time>2012-02-19T08:53:37Z</time>
      </trkpt>
      <trkpt lat="50.38285" lon="3.18374">
        <ele>45</ele>
        <time>2012-02-19T08:53:39Z</time>
      </trkpt>
      <trkpt lat="50.38278" lon="3.18383">
        <ele>45</ele>
        <time>2012-02-19T08:53:41Z</time>
      </trkpt>
      <trkpt lat="50.38271" lon="3.18393">
        <ele>45</ele>
        <time>2012-02-19T08:53:43Z</time>
      </trkpt>
      <trkpt lat="50.38264" lon="3.18403">
        <ele>39</ele>
        <time>2012-02-19T08:53:45Z</time>
      </trkpt>
      <trkpt lat="50.38256" lon="3.18416">
        <ele>39</ele>
        <time>2012-02-19T08:53:47Z</time>
      </trkpt>
      <trkpt lat="50.38247" lon="3.1843">
        <ele>39</ele>
        <time>2012-02-19T08:53:49Z</time>
      </trkpt>
      <trkpt lat="50.38237" lon="3.18448">
        <ele>39</ele>
        <time>2012-02-19T08:53:51Z</time>
      </trkpt>
      <trkpt lat="50.3823" lon="3.18467">
        <ele>39</ele>
        <time>2012-02-19T08:53:53Z</time>
      </trkpt>
      <trkpt lat="50.38226" lon="3.18484">
        <ele>39</ele>
        <time>2012-02-19T08:53:55Z</time>
      </trkpt>
      <trkpt lat="50.38223" lon="3.185">
        <ele>39</ele>
        <time>2012-02-19T08:53:57Z</time>
      </trkpt>
      <trkpt lat="50.38221" lon="3.18515">
        <ele>39</ele>
        <time>2012-02-19T08:53:59Z</time>
      </trkpt>
      <trkpt lat="50.38217" lon="3.18527">
        <ele>33</ele>
        <time>2012-02-19T08:54:02Z</time>
      </trkpt>
      <trkpt lat="50.38209" lon="3.18521">
        <ele>33</ele>
        <time>2012-02-19T08:54:04Z</time>
      </trkpt>
      <trkpt lat="50.38203" lon="3.18509">
        <ele>33</ele>
        <time>2012-02-19T08:54:06Z</time>
      </trkpt>
      <trkpt lat="50.38203" lon="3.18493">
        <ele>33</ele>
        <time>2012-02-19T08:54:08Z</time>
      </trkpt>
      <trkpt lat="50.38202" lon="3.18475">
        <ele>33</ele>
        <time>2012-02-19T08:54:10Z</time>
      </trkpt>
      <trkpt lat="50.38201" lon="3.18456">
        <ele>33</ele>
        <time>2012-02-19T08:54:12Z</time>
      </trkpt>
      <trkpt lat="50.38199" lon="3.18436">
        <ele>28</ele>
        <time>2012-02-19T08:54:14Z</time>
      </trkpt>
      <trkpt lat="50.38198" lon="3.18415">
        <ele>28</ele>
        <time>2012-02-19T08:54:16Z</time>
      </trkpt>
      <trkpt lat="50.38195" lon="3.18394">
        <ele>28</ele>
        <time>2012-02-19T08:54:18Z</time>
      </trkpt>
      <trkpt lat="50.38194" lon="3.18375">
        <ele>28</ele>
        <time>2012-02-19T08:54:20Z</time>
      </trkpt>
      <trkpt lat="50.38193" lon="3.18354">
        <ele>28</ele>
        <time>2012-02-19T08:54:22Z</time>
      </trkpt>
      <trkpt lat="50.38193" lon="3.18336">
        <ele>28</ele>
        <time>2012-02-19T08:54:24Z</time>
      </trkpt>
      <trkpt lat="50.38194" lon="3.18322">
        <ele>28</ele>
        <time>2012-02-19T08:54:26Z</time>
      </trkpt>
      <trkpt lat="50.38201" lon="3.18311">
        <ele>28</ele>
        <time>2012-02-19T08:54:29Z</time>
      </trkpt>
      <trkpt lat="50.38208" lon="3.18301">
        <ele>19</ele>
        <time>2012-02-19T08:57:21Z</time>
      </trkpt>
      <trkpt lat="50.38213" lon="3.18312">
        <ele>26</ele>
        <time>2012-02-19T09:00:33Z</time>
      </trkpt>
      <trkpt lat="50.38217" lon="3.18299">
        <ele>36</ele>
        <time>2012-02-19T09:00:49Z</time>
      </trkpt>
      <trkpt lat="50.38209" lon="3.18306">
        <ele>36</ele>
        <time>2012-02-19T09:01:19Z</time>
      </trkpt>
      <trkpt lat="50.38218" lon="3.18311">
        <ele>23</ele>
        <time>2012-02-19T09:08:53Z</time>
      </trkpt>
      <trkpt lat="50.38228" lon="3.18314">
        <ele>23</ele>
        <time>2012-02-19T09:08:58Z</time>
      </trkpt>
      <trkpt lat="50.38239" lon="3.18316">
        <ele>23</ele>
        <time>2012-02-19T09:09:03Z</time>
      </trkpt>
      <trkpt lat="50.38249" lon="3.18315">
        <ele>23</ele>
        <time>2012-02-19T09:09:08Z</time>
      </trkpt>
      <trkpt lat="50.38259" lon="3.18314">
        <ele>23</ele>
        <time>2012-02-19T09:09:13Z</time>
      </trkpt>
      <trkpt lat="50.38269" lon="3.18314">
        <ele>23</ele>
        <time>2012-02-19T09:09:18Z</time>
      </trkpt>
      <trkpt lat="50.38279" lon="3.18314">
        <ele>23</ele>
        <time>2012-02-19T09:09:22Z</time>
      </trkpt>
      <trkpt lat="50.38289" lon="3.18317">
        <ele>23</ele>
        <time>2012-02-19T09:09:27Z</time>
      </trkpt>
      <trkpt lat="50.38298" lon="3.18317">
        <ele>30</ele>
        <time>2012-02-19T09:09:31Z</time>
      </trkpt>
      <trkpt lat="50.38307" lon="3.18321">
        <ele>30</ele>
        <time>2012-02-19T09:09:36Z</time>
      </trkpt>
      <trkpt lat="50.38317" lon="3.18321">
        <ele>30</ele>
        <time>2012-02-19T09:09:40Z</time>
      </trkpt>
      <trkpt lat="50.38326" lon="3.1832">
        <ele>30</ele>
        <time>2012-02-19T09:09:44Z</time>
      </trkpt>
      <trkpt lat="50.38337" lon="3.18318">
        <ele>30</ele>
        <time>2012-02-19T09:09:49Z</time>
      </trkpt>
      <trkpt lat="50.38347" lon="3.18318">
        <ele>30</ele>
        <time>2012-02-19T09:09:54Z</time>
      </trkpt>
      <trkpt lat="50.38356" lon="3.18317">
        <ele>30</ele>
        <time>2012-02-19T09:09:59Z</time>
      </trkpt>
      <trkpt lat="50.38366" lon="3.1831">
        <ele>30</ele>
        <time>2012-02-19T09:10:04Z</time>
      </trkpt>
      <trkpt lat="50.38371" lon="3.18294">
        <ele>35</ele>
        <time>2012-02-19T09:10:08Z</time>
      </trkpt>
      <trkpt lat="50.38371" lon="3.18275">
        <ele>35</ele>
        <time>2012-02-19T09:10:12Z</time>
      </trkpt>
      <trkpt lat="50.38368" lon="3.18261">
        <ele>35</ele>
        <time>2012-02-19T09:10:16Z</time>
      </trkpt>
      <trkpt lat="50.3836" lon="3.18251">
        <ele>35</ele>
        <time>2012-02-19T09:10:20Z</time>
      </trkpt>
      <trkpt lat="50.3835" lon="3.18241">
        <ele>35</ele>
        <time>2012-02-19T09:10:23Z</time>
      </trkpt>
      <trkpt lat="50.38342" lon="3.18233">
        <ele>35</ele>
        <time>2012-02-19T09:10:29Z</time>
      </trkpt>
      <trkpt lat="50.38333" lon="3.18226">
        <ele>35</ele>
        <time>2012-02-19T09:10:33Z</time>
      </trkpt>
      <trkpt lat="50.38324" lon="3.18224">
        <ele>41</ele>
        <time>2012-02-19T09:10:37Z</time>
      </trkpt>
      <trkpt lat="50.38314" lon="3.18225">
        <ele>41</ele>
        <time>2012-02-19T09:10:40Z</time>
      </trkpt>
      <trkpt lat="50.38302" lon="3.18226">
        <ele>41</ele>
        <time>2012-02-19T09:10:44Z</time>
      </trkpt>
      <trkpt lat="50.38291" lon="3.18226">
        <ele>41</ele>
        <time>2012-02-19T09:10:48Z</time>
      </trkpt>
      <trkpt lat="50.38282" lon="3.1822">
        <ele>41</ele>
        <time>2012-02-19T09:10:52Z</time>
      </trkpt>
      <trkpt lat="50.38282" lon="3.18204">
        <ele>41</ele>
        <time>2012-02-19T09:10:56Z</time>
      </trkpt>
      <trkpt lat="50.38283" lon="3.18188">
        <ele>41</ele>
        <time>2012-02-19T09:10:59Z</time>
      </trkpt>
      <trkpt lat="50.38283" lon="3.18171">
        <ele>41</ele>
        <time>2012-02-19T09:11:02Z</time>
      </trkpt>
      <trkpt lat="50.38284" lon="3.18153">
        <ele>41</ele>
        <time>2012-02-19T09:11:05Z</time>
      </trkpt>
      <trkpt lat="50.38285" lon="3.18134">
        <ele>41</ele>
        <time>2012-02-19T09:11:08Z</time>
      </trkpt>
      <trkpt lat="50.38286" lon="3.18116">
        <ele>41</ele>
        <time>2012-02-19T09:11:11Z</time>
      </trkpt>
      <trkpt lat="50.38289" lon="3.18098">
        <ele>41</ele>
        <time>2012-02-19T09:11:14Z</time>
      </trkpt>
      <trkpt lat="50.3829" lon="3.18079">
        <ele>41</ele>
        <time>2012-02-19T09:11:17Z</time>
      </trkpt>
      <trkpt lat="50.38294" lon="3.18061">
        <ele>41</ele>
        <time>2012-02-19T09:11:20Z</time>
      </trkpt>
      <trkpt lat="50.38302" lon="3.18044">
        <ele>41</ele>
        <time>2012-02-19T09:11:23Z</time>
      </trkpt>
      <trkpt lat="50.38308" lon="3.18034">
        <ele>41</ele>
        <time>2012-02-19T09:11:25Z</time>
      </trkpt>
      <trkpt lat="50.38315" lon="3.18024">
        <ele>41</ele>
        <time>2012-02-19T09:11:27Z</time>
      </trkpt>
      <trkpt lat="50.38322" lon="3.18015">
        <ele>41</ele>
        <time>2012-02-19T09:11:29Z</time>
      </trkpt>
      <trkpt lat="50.38332" lon="3.18001">
        <ele>41</ele>
        <time>2012-02-19T09:11:32Z</time>
      </trkpt>
      <trkpt lat="50.38342" lon="3.1799">
        <ele>41</ele>
        <time>2012-02-19T09:11:35Z</time>
      </trkpt>
      <trkpt lat="50.38353" lon="3.17981">
        <ele>41</ele>
        <time>2012-02-19T09:11:38Z</time>
      </trkpt>
      <trkpt lat="50.38364" lon="3.17971">
        <ele>41</ele>
        <time>2012-02-19T09:11:41Z</time>
      </trkpt>
      <trkpt lat="50.38372" lon="3.17964">
        <ele>41</ele>
        <time>2012-02-19T09:11:43Z</time>
      </trkpt>
      <trkpt lat="50.3838" lon="3.17957">
        <ele>41</ele>
        <time>2012-02-19T09:11:45Z</time>
      </trkpt>
      <trkpt lat="50.38393" lon="3.17949">
        <ele>41</ele>
        <time>2012-02-19T09:11:48Z</time>
      </trkpt>
      <trkpt lat="50.38406" lon="3.17944">
        <ele>35</ele>
        <time>2012-02-19T09:11:51Z</time>
      </trkpt>
      <trkpt lat="50.38415" lon="3.17942">
        <ele>35</ele>
        <time>2012-02-19T09:11:53Z</time>
      </trkpt>
      <trkpt lat="50.38425" lon="3.1794">
        <ele>35</ele>
        <time>2012-02-19T09:11:55Z</time>
      </trkpt>
      <trkpt lat="50.38438" lon="3.17939">
        <ele>35</ele>
        <time>2012-02-19T09:11:58Z</time>
      </trkpt>
      <trkpt lat="50.3845" lon="3.17944">
        <ele>35</ele>
        <time>2012-02-19T09:12:01Z</time>
      </trkpt>
      <trkpt lat="50.38456" lon="3.17955">
        <ele>35</ele>
        <time>2012-02-19T09:12:03Z</time>
      </trkpt>
      <trkpt lat="50.38462" lon="3.17967">
        <ele>35</ele>
        <time>2012-02-19T09:12:05Z</time>
      </trkpt>
      <trkpt lat="50.38468" lon="3.17984">
        <ele>35</ele>
        <time>2012-02-19T09:12:08Z</time>
      </trkpt>
      <trkpt lat="50.38472" lon="3.17996">
        <ele>35</ele>
        <time>2012-02-19T09:12:10Z</time>
      </trkpt>
      <trkpt lat="50.38479" lon="3.18014">
        <ele>35</ele>
        <time>2012-02-19T09:12:13Z</time>
      </trkpt>
      <trkpt lat="50.38487" lon="3.18024">
        <ele>35</ele>
        <time>2012-02-19T09:12:16Z</time>
      </trkpt>
      <trkpt lat="50.38497" lon="3.18022">
        <ele>35</ele>
        <time>2012-02-19T09:12:19Z</time>
      </trkpt>
      <trkpt lat="50.38506" lon="3.18019">
        <ele>35</ele>
        <time>2012-02-19T09:12:21Z</time>
      </trkpt>
      <trkpt lat="50.38515" lon="3.18016">
        <ele>35</ele>
        <time>2012-02-19T09:12:23Z</time>
      </trkpt>
      <trkpt lat="50.38529" lon="3.18014">
        <ele>35</ele>
        <time>2012-02-19T09:12:26Z</time>
      </trkpt>
      <trkpt lat="50.38541" lon="3.18012">
        <ele>35</ele>
        <time>2012-02-19T09:12:29Z</time>
      </trkpt>
      <trkpt lat="50.38553" lon="3.18012">
        <ele>35</ele>
        <time>2012-02-19T09:12:32Z</time>
      </trkpt>
      <trkpt lat="50.38563" lon="3.18019">
        <ele>35</ele>
        <time>2012-02-19T09:12:35Z</time>
      </trkpt>
      <trkpt lat="50.38567" lon="3.18035">
        <ele>35</ele>
        <time>2012-02-19T09:12:38Z</time>
      </trkpt>
      <trkpt lat="50.38567" lon="3.18054">
        <ele>35</ele>
        <time>2012-02-19T09:12:41Z</time>
      </trkpt>
      <trkpt lat="50.38569" lon="3.18068">
        <ele>35</ele>
        <time>2012-02-19T09:12:43Z</time>
      </trkpt>
      <trkpt lat="50.38575" lon="3.18085">
        <ele>35</ele>
        <time>2012-02-19T09:12:46Z</time>
      </trkpt>
      <trkpt lat="50.38582" lon="3.18098">
        <ele>35</ele>
        <time>2012-02-19T09:12:49Z</time>
      </trkpt>
      <trkpt lat="50.38589" lon="3.1811">
        <ele>35</ele>
        <time>2012-02-19T09:12:52Z</time>
      </trkpt>
      <trkpt lat="50.38599" lon="3.1812">
        <ele>35</ele>
        <time>2012-02-19T09:12:55Z</time>
      </trkpt>
      <trkpt lat="50.38603" lon="3.18139">
        <ele>35</ele>
        <time>2012-02-19T09:12:58Z</time>
      </trkpt>
      <trkpt lat="50.38606" lon="3.18153">
        <ele>35</ele>
        <time>2012-02-19T09:13:01Z</time>
      </trkpt>
      <trkpt lat="50.38606" lon="3.18167">
        <ele>35</ele>
        <time>2012-02-19T09:13:06Z</time>
      </trkpt>
      <trkpt lat="50.38606" lon="3.18184">
        <ele>35</ele>
        <time>2012-02-19T09:13:10Z</time>
      </trkpt>
      <trkpt lat="50.38606" lon="3.18202">
        <ele>35</ele>
        <time>2012-02-19T09:13:13Z</time>
      </trkpt>
      <trkpt lat="50.38607" lon="3.18222">
        <ele>41</ele>
        <time>2012-02-19T09:13:16Z</time>
      </trkpt>
      <trkpt lat="50.38604" lon="3.18239">
        <ele>41</ele>
        <time>2012-02-19T09:13:19Z</time>
      </trkpt>
      <trkpt lat="50.38607" lon="3.18258">
        <ele>41</ele>
        <time>2012-02-19T09:13:22Z</time>
      </trkpt>
      <trkpt lat="50.3861" lon="3.18277">
        <ele>41</ele>
        <time>2012-02-19T09:13:25Z</time>
      </trkpt>
      <trkpt lat="50.38614" lon="3.1829">
        <ele>41</ele>
        <time>2012-02-19T09:13:27Z</time>
      </trkpt>
      <trkpt lat="50.3862" lon="3.183">
        <ele>41</ele>
        <time>2012-02-19T09:13:30Z</time>
      </trkpt>
      <trkpt lat="50.38631" lon="3.18302">
        <ele>41</ele>
        <time>2012-02-19T09:13:33Z</time>
      </trkpt>
      <trkpt lat="50.38643" lon="3.18301">
        <ele>41</ele>
        <time>2012-02-19T09:13:36Z</time>
      </trkpt>
      <trkpt lat="50.38655" lon="3.18301">
        <ele>41</ele>
        <time>2012-02-19T09:13:39Z</time>
      </trkpt>
      <trkpt lat="50.38666" lon="3.183">
        <ele>41</ele>
        <time>2012-02-19T09:13:42Z</time>
      </trkpt>
      <trkpt lat="50.38676" lon="3.183">
        <ele>41</ele>
        <time>2012-02-19T09:13:45Z</time>
      </trkpt>
      <trkpt lat="50.38685" lon="3.18306">
        <ele>41</ele>
        <time>2012-02-19T09:13:48Z</time>
      </trkpt>
      <trkpt lat="50.38692" lon="3.18319">
        <ele>41</ele>
        <time>2012-02-19T09:13:51Z</time>
      </trkpt>
      <trkpt lat="50.38697" lon="3.18332">
        <ele>41</ele>
        <time>2012-02-19T09:13:54Z</time>
      </trkpt>
      <trkpt lat="50.38703" lon="3.18347">
        <ele>41</ele>
        <time>2012-02-19T09:13:57Z</time>
      </trkpt>
      <trkpt lat="50.38704" lon="3.18366">
        <ele>41</ele>
        <time>2012-02-19T09:14:01Z</time>
      </trkpt>
      <trkpt lat="50.38703" lon="3.18383">
        <ele>41</ele>
        <time>2012-02-19T09:14:04Z</time>
      </trkpt>
      <trkpt lat="50.387" lon="3.18398">
        <ele>41</ele>
        <time>2012-02-19T09:14:07Z</time>
      </trkpt>
      <trkpt lat="50.38698" lon="3.18414">
        <ele>41</ele>
        <time>2012-02-19T09:14:10Z</time>
      </trkpt>
      <trkpt lat="50.38695" lon="3.18432">
        <ele>41</ele>
        <time>2012-02-19T09:14:13Z</time>
      </trkpt>
      <trkpt lat="50.38693" lon="3.18448">
        <ele>41</ele>
        <time>2012-02-19T09:14:16Z</time>
      </trkpt>
      <trkpt lat="50.3869" lon="3.18466">
        <ele>41</ele>
        <time>2012-02-19T09:14:19Z</time>
      </trkpt>
      <trkpt lat="50.38688" lon="3.18485">
        <ele>41</ele>
        <time>2012-02-19T09:14:22Z</time>
      </trkpt>
      <trkpt lat="50.38688" lon="3.18504">
        <ele>41</ele>
        <time>2012-02-19T09:14:25Z</time>
      </trkpt>
      <trkpt lat="50.38691" lon="3.18523">
        <ele>41</ele>
        <time>2012-02-19T09:14:28Z</time>
      </trkpt>
      <trkpt lat="50.38692" lon="3.18539">
        <ele>41</ele>
        <time>2012-02-19T09:14:31Z</time>
      </trkpt>
      <trkpt lat="50.38692" lon="3.18555">
        <ele>41</ele>
        <time>2012-02-19T09:14:34Z</time>
      </trkpt>
      <trkpt lat="50.38695" lon="3.1857">
        <ele>41</ele>
        <time>2012-02-19T09:14:37Z</time>
      </trkpt>
      <trkpt lat="50.38699" lon="3.18587">
        <ele>41</ele>
        <time>2012-02-19T09:14:41Z</time>
      </trkpt>
      <trkpt lat="50.38708" lon="3.18592">
        <ele>41</ele>
        <time>2012-02-19T09:14:44Z</time>
      </trkpt>
      <trkpt lat="50.38718" lon="3.18594">
        <ele>41</ele>
        <time>2012-02-19T09:14:47Z</time>
      </trkpt>
      <trkpt lat="50.38729" lon="3.18598">
        <ele>41</ele>
        <time>2012-02-19T09:14:50Z</time>
      </trkpt>
      <trkpt lat="50.3874" lon="3.18607">
        <ele>41</ele>
        <time>2012-02-19T09:14:54Z</time>
      </trkpt>
      <trkpt lat="50.38749" lon="3.18618">
        <ele>41</ele>
        <time>2012-02-19T09:14:57Z</time>
      </trkpt>
      <trkpt lat="50.38757" lon="3.1863">
        <ele>41</ele>
        <time>2012-02-19T09:15:00Z</time>
      </trkpt>
      <trkpt lat="50.38765" lon="3.1864">
        <ele>41</ele>
        <time>2012-02-19T09:15:03Z</time>
      </trkpt>
      <trkpt lat="50.38773" lon="3.18649">
        <ele>36</ele>
        <time>2012-02-19T09:15:06Z</time>
      </trkpt>
      <trkpt lat="50.3878" lon="3.18658">
        <ele>36</ele>
        <time>2012-02-19T09:15:09Z</time>
      </trkpt>
      <trkpt lat="50.38788" lon="3.18669">
        <ele>36</ele>
        <time>2012-02-19T09:15:12Z</time>
      </trkpt>
      <trkpt lat="50.38795" lon="3.18681">
        <ele>36</ele>
        <time>2012-02-19T09:15:15Z</time>
      </trkpt>
      <trkpt lat="50.38801" lon="3.18694">
        <ele>36</ele>
        <time>2012-02-19T09:15:18Z</time>
      </trkpt>
      <trkpt lat="50.38807" lon="3.18709">
        <ele>36</ele>
        <time>2012-02-19T09:15:21Z</time>
      </trkpt>
      <trkpt lat="50.38815" lon="3.18722">
        <ele>36</ele>
        <time>2012-02-19T09:15:24Z</time>
      </trkpt>
      <trkpt lat="50.38819" lon="3.18735">
        <ele>36</ele>
        <time>2012-02-19T09:15:26Z</time>
      </trkpt>
      <trkpt lat="50.38824" lon="3.18752">
        <ele>36</ele>
        <time>2012-02-19T09:15:29Z</time>
      </trkpt>
      <trkpt lat="50.3883" lon="3.18768">
        <ele>36</ele>
        <time>2012-02-19T09:15:32Z</time>
      </trkpt>
      <trkpt lat="50.38833" lon="3.18782">
        <ele>36</ele>
        <time>2012-02-19T09:15:34Z</time>
      </trkpt>
      <trkpt lat="50.38837" lon="3.18797">
        <ele>36</ele>
        <time>2012-02-19T09:15:37Z</time>
      </trkpt>
      <trkpt lat="50.3884" lon="3.1881">
        <ele>36</ele>
        <time>2012-02-19T09:15:40Z</time>
      </trkpt>
      <trkpt lat="50.38842" lon="3.18825">
        <ele>36</ele>
        <time>2012-02-19T09:15:43Z</time>
      </trkpt>
      <trkpt lat="50.38845" lon="3.18839">
        <ele>41</ele>
        <time>2012-02-19T09:15:47Z</time>
      </trkpt>
      <trkpt lat="50.38848" lon="3.18855">
        <ele>41</ele>
        <time>2012-02-19T09:15:51Z</time>
      </trkpt>
      <trkpt lat="50.38851" lon="3.18869">
        <ele>41</ele>
        <time>2012-02-19T09:15:54Z</time>
      </trkpt>
      <trkpt lat="50.38853" lon="3.18885">
        <ele>41</ele>
        <time>2012-02-19T09:15:57Z</time>
      </trkpt>
      <trkpt lat="50.38855" lon="3.18902">
        <ele>41</ele>
        <time>2012-02-19T09:16:00Z</time>
      </trkpt>
      <trkpt lat="50.38857" lon="3.18922">
        <ele>41</ele>
        <time>2012-02-19T09:16:03Z</time>
      </trkpt>
      <trkpt lat="50.38857" lon="3.18942">
        <ele>41</ele>
        <time>2012-02-19T09:16:06Z</time>
      </trkpt>
      <trkpt lat="50.38858" lon="3.18957">
        <ele>41</ele>
        <time>2012-02-19T09:16:08Z</time>
      </trkpt>
      <trkpt lat="50.38857" lon="3.18976">
        <ele>41</ele>
        <time>2012-02-19T09:16:11Z</time>
      </trkpt>
      <trkpt lat="50.38856" lon="3.18996">
        <ele>41</ele>
        <time>2012-02-19T09:16:14Z</time>
      </trkpt>
      <trkpt lat="50.38855" lon="3.19012">
        <ele>41</ele>
        <time>2012-02-19T09:16:16Z</time>
      </trkpt>
      <trkpt lat="50.38852" lon="3.19027">
        <ele>41</ele>
        <time>2012-02-19T09:16:18Z</time>
      </trkpt>
      <trkpt lat="50.38845" lon="3.1904">
        <ele>41</ele>
        <time>2012-02-19T09:16:20Z</time>
      </trkpt>
      <trkpt lat="50.38836" lon="3.19049">
        <ele>41</ele>
        <time>2012-02-19T09:16:22Z</time>
      </trkpt>
      <trkpt lat="50.38826" lon="3.19056">
        <ele>41</ele>
        <time>2012-02-19T09:16:24Z</time>
      </trkpt>
      <trkpt lat="50.38816" lon="3.19064">
        <ele>41</ele>
        <time>2012-02-19T09:16:26Z</time>
      </trkpt>
      <trkpt lat="50.38812" lon="3.1908">
        <ele>35</ele>
        <time>2012-02-19T09:16:30Z</time>
      </trkpt>
      <trkpt lat="50.38822" lon="3.19083">
        <ele>35</ele>
        <time>2012-02-19T09:16:34Z</time>
      </trkpt>
      <trkpt lat="50.38834" lon="3.19076">
        <ele>35</ele>
        <time>2012-02-19T09:16:37Z</time>
      </trkpt>
      <trkpt lat="50.38846" lon="3.19072">
        <ele>35</ele>
        <time>2012-02-19T09:16:40Z</time>
      </trkpt>
      <trkpt lat="50.38857" lon="3.19065">
        <ele>35</ele>
        <time>2012-02-19T09:16:43Z</time>
      </trkpt>
      <trkpt lat="50.38871" lon="3.19063">
        <ele>35</ele>
        <time>2012-02-19T09:16:46Z</time>
      </trkpt>
      <trkpt lat="50.38877" lon="3.19074">
        <ele>35</ele>
        <time>2012-02-19T09:16:49Z</time>
      </trkpt>
      <trkpt lat="50.38874" lon="3.19092">
        <ele>35</ele>
        <time>2012-02-19T09:16:52Z</time>
      </trkpt>
      <trkpt lat="50.38871" lon="3.19109">
        <ele>35</ele>
        <time>2012-02-19T09:16:54Z</time>
      </trkpt>
      <trkpt lat="50.38867" lon="3.19124">
        <ele>35</ele>
        <time>2012-02-19T09:16:56Z</time>
      </trkpt>
      <trkpt lat="50.38863" lon="3.19139">
        <ele>29</ele>
        <time>2012-02-19T09:16:58Z</time>
      </trkpt>
      <trkpt lat="50.38859" lon="3.19155">
        <ele>29</ele>
        <time>2012-02-19T09:17:00Z</time>
      </trkpt>
      <trkpt lat="50.38855" lon="3.19171">
        <ele>29</ele>
        <time>2012-02-19T09:17:02Z</time>
      </trkpt>
      <trkpt lat="50.38852" lon="3.19188">
        <ele>29</ele>
        <time>2012-02-19T09:17:04Z</time>
      </trkpt>
      <trkpt lat="50.3885" lon="3.19201">
        <ele>29</ele>
        <time>2012-02-19T09:17:06Z</time>
      </trkpt>
      <trkpt lat="50.38846" lon="3.19215">
        <ele>29</ele>
        <time>2012-02-19T09:17:08Z</time>
      </trkpt>
      <trkpt lat="50.3884" lon="3.19233">
        <ele>29</ele>
        <time>2012-02-19T09:17:11Z</time>
      </trkpt>
      <trkpt lat="50.38836" lon="3.19247">
        <ele>29</ele>
        <time>2012-02-19T09:17:13Z</time>
      </trkpt>
      <trkpt lat="50.3883" lon="3.19266">
        <ele>29</ele>
        <time>2012-02-19T09:17:16Z</time>
      </trkpt>
      <trkpt lat="50.38828" lon="3.19279">
        <ele>29</ele>
        <time>2012-02-19T09:17:18Z</time>
      </trkpt>
      <trkpt lat="50.38824" lon="3.19293">
        <ele>29</ele>
        <time>2012-02-19T09:17:20Z</time>
      </trkpt>
      <trkpt lat="50.38822" lon="3.19307">
        <ele>29</ele>
        <time>2012-02-19T09:17:22Z</time>
      </trkpt>
      <trkpt lat="50.38817" lon="3.19326">
        <ele>29</ele>
        <time>2012-02-19T09:17:25Z</time>
      </trkpt>
      <trkpt lat="50.38812" lon="3.19344">
        <ele>29</ele>
        <time>2012-02-19T09:17:28Z</time>
      </trkpt>
      <trkpt lat="50.38808" lon="3.1936">
        <ele>29</ele>
        <time>2012-02-19T09:17:31Z</time>
      </trkpt>
      <trkpt lat="50.38804" lon="3.19377">
        <ele>29</ele>
        <time>2012-02-19T09:17:35Z</time>
      </trkpt>
      <trkpt lat="50.38798" lon="3.19392">
        <ele>29</ele>
        <time>2012-02-19T09:17:39Z</time>
      </trkpt>
      <trkpt lat="50.38793" lon="3.19409">
        <ele>29</ele>
        <time>2012-02-19T09:17:43Z</time>
      </trkpt>
      <trkpt lat="50.38788" lon="3.19425">
        <ele>29</ele>
        <time>2012-02-19T09:17:47Z</time>
      </trkpt>
      <trkpt lat="50.38784" lon="3.1944">
        <ele>29</ele>
        <time>2012-02-19T09:17:50Z</time>
      </trkpt>
      <trkpt lat="50.3878" lon="3.19453">
        <ele>29</ele>
        <time>2012-02-19T09:17:53Z</time>
      </trkpt>
      <trkpt lat="50.38776" lon="3.19466">
        <ele>29</ele>
        <time>2012-02-19T09:17:56Z</time>
      </trkpt>
      <trkpt lat="50.38773" lon="3.1948">
        <ele>29</ele>
        <time>2012-02-19T09:17:59Z</time>
      </trkpt>
      <trkpt lat="50.38769" lon="3.19494">
        <ele>29</ele>
        <time>2012-02-19T09:18:02Z</time>
      </trkpt>
      <trkpt lat="50.38765" lon="3.19507">
        <ele>29</ele>
        <time>2012-02-19T09:18:05Z</time>
      </trkpt>
      <trkpt lat="50.38761" lon="3.19522">
        <ele>29</ele>
        <time>2012-02-19T09:18:08Z</time>
      </trkpt>
      <trkpt lat="50.38758" lon="3.19539">
        <ele>29</ele>
        <time>2012-02-19T09:18:12Z</time>
      </trkpt>
      <trkpt lat="50.38755" lon="3.19554">
        <ele>29</ele>
        <time>2012-02-19T09:18:15Z</time>
      </trkpt>
      <trkpt lat="50.3875" lon="3.19569">
        <ele>29</ele>
        <time>2012-02-19T09:18:18Z</time>
      </trkpt>
      <trkpt lat="50.38747" lon="3.19584">
        <ele>29</ele>
        <time>2012-02-19T09:18:21Z</time>
      </trkpt>
      <trkpt lat="50.38743" lon="3.19597">
        <ele>29</ele>
        <time>2012-02-19T09:18:24Z</time>
      </trkpt>
      <trkpt lat="50.38739" lon="3.19611">
        <ele>29</ele>
        <time>2012-02-19T09:18:27Z</time>
      </trkpt>
      <trkpt lat="50.38734" lon="3.19624">
        <ele>29</ele>
        <time>2012-02-19T09:18:30Z</time>
      </trkpt>
      <trkpt lat="50.38729" lon="3.19639">
        <ele>29</ele>
        <time>2012-02-19T09:18:33Z</time>
      </trkpt>
      <trkpt lat="50.38725" lon="3.19657">
        <ele>29</ele>
        <time>2012-02-19T09:18:36Z</time>
      </trkpt>
      <trkpt lat="50.38724" lon="3.19673">
        <ele>29</ele>
        <time>2012-02-19T09:18:39Z</time>
      </trkpt>
      <trkpt lat="50.38723" lon="3.19688">
        <ele>29</ele>
        <time>2012-02-19T09:18:42Z</time>
      </trkpt>
      <trkpt lat="50.38724" lon="3.19704">
        <ele>29</ele>
        <time>2012-02-19T09:18:45Z</time>
      </trkpt>
      <trkpt lat="50.38724" lon="3.19724">
        <ele>29</ele>
        <time>2012-02-19T09:18:48Z</time>
      </trkpt>
      <trkpt lat="50.38726" lon="3.19745">
        <ele>29</ele>
        <time>2012-02-19T09:18:51Z</time>
      </trkpt>
      <trkpt lat="50.38725" lon="3.19764">
        <ele>29</ele>
        <time>2012-02-19T09:18:54Z</time>
      </trkpt>
      <trkpt lat="50.38726" lon="3.19781">
        <ele>29</ele>
        <time>2012-02-19T09:18:57Z</time>
      </trkpt>
      <trkpt lat="50.38735" lon="3.19788">
        <ele>29</ele>
        <time>2012-02-19T09:19:02Z</time>
      </trkpt>
      <trkpt lat="50.38743" lon="3.19796">
        <ele>29</ele>
        <time>2012-02-19T09:19:13Z</time>
      </trkpt>
      <trkpt lat="50.3875" lon="3.19806">
        <ele>29</ele>
        <time>2012-02-19T09:19:19Z</time>
      </trkpt>
      <trkpt lat="50.38755" lon="3.19819">
        <ele>29</ele>
        <time>2012-02-19T09:19:23Z</time>
      </trkpt>
      <trkpt lat="50.38758" lon="3.19834">
        <ele>23</ele>
        <time>2012-02-19T09:19:26Z</time>
      </trkpt>
      <trkpt lat="50.38764" lon="3.19845">
        <ele>17</ele>
        <time>2012-02-19T09:19:33Z</time>
      </trkpt>
      <trkpt lat="50.38764" lon="3.1986">
        <ele>17</ele>
        <time>2012-02-19T09:19:37Z</time>
      </trkpt>
      <trkpt lat="50.38766" lon="3.19878">
        <ele>17</ele>
        <time>2012-02-19T09:19:40Z</time>
      </trkpt>
      <trkpt lat="50.38767" lon="3.19893">
        <ele>17</ele>
        <time>2012-02-19T09:19:42Z</time>
      </trkpt>
      <trkpt lat="50.38767" lon="3.19908">
        <ele>17</ele>
        <time>2012-02-19T09:19:44Z</time>
      </trkpt>
      <trkpt lat="50.38768" lon="3.19926">
        <ele>17</ele>
        <time>2012-02-19T09:19:46Z</time>
      </trkpt>
      <trkpt lat="50.38768" lon="3.19945">
        <ele>17</ele>
        <time>2012-02-19T09:19:48Z</time>
      </trkpt>
      <trkpt lat="50.38767" lon="3.19964">
        <ele>17</ele>
        <time>2012-02-19T09:19:50Z</time>
      </trkpt>
      <trkpt lat="50.38768" lon="3.19983">
        <ele>17</ele>
        <time>2012-02-19T09:19:52Z</time>
      </trkpt>
      <trkpt lat="50.38767" lon="3.20002">
        <ele>17</ele>
        <time>2012-02-19T09:19:54Z</time>
      </trkpt>
      <trkpt lat="50.38766" lon="3.20018">
        <ele>17</ele>
        <time>2012-02-19T09:19:56Z</time>
      </trkpt>
      <trkpt lat="50.38765" lon="3.20034">
        <ele>22</ele>
        <time>2012-02-19T09:19:58Z</time>
      </trkpt>
      <trkpt lat="50.38764" lon="3.20051">
        <ele>22</ele>
        <time>2012-02-19T09:20:00Z</time>
      </trkpt>
      <trkpt lat="50.38762" lon="3.20066">
        <ele>22</ele>
        <time>2012-02-19T09:20:02Z</time>
      </trkpt>
      <trkpt lat="50.38761" lon="3.20084">
        <ele>22</ele>
        <time>2012-02-19T09:20:04Z</time>
      </trkpt>
      <trkpt lat="50.38759" lon="3.20102">
        <ele>22</ele>
        <time>2012-02-19T09:20:06Z</time>
      </trkpt>
      <trkpt lat="50.38757" lon="3.2012">
        <ele>22</ele>
        <time>2012-02-19T09:20:08Z</time>
      </trkpt>
      <trkpt lat="50.38754" lon="3.20139">
        <ele>22</ele>
        <time>2012-02-19T09:20:10Z</time>
      </trkpt>
      <trkpt lat="50.38753" lon="3.20159">
        <ele>22</ele>
        <time>2012-02-19T09:20:12Z</time>
      </trkpt>
      <trkpt lat="50.38751" lon="3.20178">
        <ele>22</ele>
        <time>2012-02-19T09:20:14Z</time>
      </trkpt>
      <trkpt lat="50.38751" lon="3.20198">
        <ele>22</ele>
        <time>2012-02-19T09:20:16Z</time>
      </trkpt>
      <trkpt lat="50.38752" lon="3.20219">
        <ele>22</ele>
        <time>2012-02-19T09:20:18Z</time>
      </trkpt>
      <trkpt lat="50.38754" lon="3.2024">
        <ele>22</ele>
        <time>2012-02-19T09:20:20Z</time>
      </trkpt>
      <trkpt lat="50.38758" lon="3.20261">
        <ele>22</ele>
        <time>2012-02-19T09:20:22Z</time>
      </trkpt>
      <trkpt lat="50.38762" lon="3.20282">
        <ele>22</ele>
        <time>2012-02-19T09:20:24Z</time>
      </trkpt>
      <trkpt lat="50.38766" lon="3.20303">
        <ele>22</ele>
        <time>2012-02-19T09:20:26Z</time>
      </trkpt>
      <trkpt lat="50.3877" lon="3.20325">
        <ele>22</ele>
        <time>2012-02-19T09:20:28Z</time>
      </trkpt>
      <trkpt lat="50.38774" lon="3.20346">
        <ele>22</ele>
        <time>2012-02-19T09:20:30Z</time>
      </trkpt>
      <trkpt lat="50.38778" lon="3.20369">
        <ele>22</ele>
        <time>2012-02-19T09:20:32Z</time>
      </trkpt>
      <trkpt lat="50.38782" lon="3.20391">
        <ele>22</ele>
        <time>2012-02-19T09:20:34Z</time>
      </trkpt>
      <trkpt lat="50.38786" lon="3.20413">
        <ele>22</ele>
        <time>2012-02-19T09:20:36Z</time>
      </trkpt>
      <trkpt lat="50.3879" lon="3.20435">
        <ele>22</ele>
        <time>2012-02-19T09:20:38Z</time>
      </trkpt>
      <trkpt lat="50.38795" lon="3.20457">
        <ele>22</ele>
        <time>2012-02-19T09:20:40Z</time>
      </trkpt>
      <trkpt lat="50.388" lon="3.20479">
        <ele>22</ele>
        <time>2012-02-19T09:20:42Z</time>
      </trkpt>
      <trkpt lat="50.38805" lon="3.20498">
        <ele>22</ele>
        <time>2012-02-19T09:20:44Z</time>
      </trkpt>
      <trkpt lat="50.38812" lon="3.20519">
        <ele>22</ele>
        <time>2012-02-19T09:20:46Z</time>
      </trkpt>
      <trkpt lat="50.38819" lon="3.20538">
        <ele>22</ele>
        <time>2012-02-19T09:20:48Z</time>
      </trkpt>
      <trkpt lat="50.38827" lon="3.20558">
        <ele>22</ele>
        <time>2012-02-19T09:20:50Z</time>
      </trkpt>
      <trkpt lat="50.38834" lon="3.20578">
        <ele>22</ele>
        <time>2012-02-19T09:20:52Z</time>
      </trkpt>
      <trkpt lat="50.38841" lon="3.20599">
        <ele>22</ele>
        <time>2012-02-19T09:20:54Z</time>
      </trkpt>
      <trkpt lat="50.38848" lon="3.20619">
        <ele>22</ele>
        <time>2012-02-19T09:20:56Z</time>
      </trkpt>
      <trkpt lat="50.38855" lon="3.20639">
        <ele>22</ele>
        <time>2012-02-19T09:20:58Z</time>
      </trkpt>
      <trkpt lat="50.38862" lon="3.20659">
        <ele>22</ele>
        <time>2012-02-19T09:21:00Z</time>
      </trkpt>
      <trkpt lat="50.38869" lon="3.20679">
        <ele>22</ele>
        <time>2012-02-19T09:21:02Z</time>
      </trkpt>
      <trkpt lat="50.38876" lon="3.20699">
        <ele>22</ele>
        <time>2012-02-19T09:21:04Z</time>
      </trkpt>
      <trkpt lat="50.38882" lon="3.20718">
        <ele>22</ele>
        <time>2012-02-19T09:21:06Z</time>
      </trkpt>
      <trkpt lat="50.38889" lon="3.20738">
        <ele>22</ele>
        <time>2012-02-19T09:21:08Z</time>
      </trkpt>
      <trkpt lat="50.38896" lon="3.20758">
        <ele>22</ele>
        <time>2012-02-19T09:21:10Z</time>
      </trkpt>
      <trkpt lat="50.38902" lon="3.20777">
        <ele>22</ele>
        <time>2012-02-19T09:21:12Z</time>
      </trkpt>
      <trkpt lat="50.38909" lon="3.20796">
        <ele>22</ele>
        <time>2012-02-19T09:21:14Z</time>
      </trkpt>
      <trkpt lat="50.38915" lon="3.20814">
        <ele>22</ele>
        <time>2012-02-19T09:21:16Z</time>
      </trkpt>
      <trkpt lat="50.38922" lon="3.20833">
        <ele>22</ele>
        <time>2012-02-19T09:21:18Z</time>
      </trkpt>
      <trkpt lat="50.38929" lon="3.20852">
        <ele>17</ele>
        <time>2012-02-19T09:21:20Z</time>
      </trkpt>
      <trkpt lat="50.38936" lon="3.2087">
        <ele>17</ele>
        <time>2012-02-19T09:21:22Z</time>
      </trkpt>
      <trkpt lat="50.38942" lon="3.20888">
        <ele>17</ele>
        <time>2012-02-19T09:21:24Z</time>
      </trkpt>
      <trkpt lat="50.38948" lon="3.20908">
        <ele>17</ele>
        <time>2012-02-19T09:21:26Z</time>
      </trkpt>
      <trkpt lat="50.38954" lon="3.20928">
        <ele>17</ele>
        <time>2012-02-19T09:21:28Z</time>
      </trkpt>
      <trkpt lat="50.38959" lon="3.20948">
        <ele>17</ele>
        <time>2012-02-19T09:21:30Z</time>
      </trkpt>
      <trkpt lat="50.38963" lon="3.20969">
        <ele>17</ele>
        <time>2012-02-19T09:21:32Z</time>
      </trkpt>
      <trkpt lat="50.38966" lon="3.20991">
        <ele>17</ele>
        <time>2012-02-19T09:21:34Z</time>
      </trkpt>
      <trkpt lat="50.3897" lon="3.21013">
        <ele>17</ele>
        <time>2012-02-19T09:21:36Z</time>
      </trkpt>
      <trkpt lat="50.38973" lon="3.21035">
        <ele>17</ele>
        <time>2012-02-19T09:21:38Z</time>
      </trkpt>
      <trkpt lat="50.38977" lon="3.21057">
        <ele>17</ele>
        <time>2012-02-19T09:21:40Z</time>
      </trkpt>
      <trkpt lat="50.3898" lon="3.21079">
        <ele>17</ele>
        <time>2012-02-19T09:21:42Z</time>
      </trkpt>
      <trkpt lat="50.38983" lon="3.21103">
        <ele>17</ele>
        <time>2012-02-19T09:21:44Z</time>
      </trkpt>
      <trkpt lat="50.38985" lon="3.21125">
        <ele>17</ele>
        <time>2012-02-19T09:21:46Z</time>
      </trkpt>
      <trkpt lat="50.38986" lon="3.21148">
        <ele>17</ele>
        <time>2012-02-19T09:21:48Z</time>
      </trkpt>
      <trkpt lat="50.38987" lon="3.2117">
        <ele>17</ele>
        <time>2012-02-19T09:21:50Z</time>
      </trkpt>
      <trkpt lat="50.38988" lon="3.21194">
        <ele>17</ele>
        <time>2012-02-19T09:21:52Z</time>
      </trkpt>
      <trkpt lat="50.38989" lon="3.21217">
        <ele>22</ele>
        <time>2012-02-19T09:21:54Z</time>
      </trkpt>
      <trkpt lat="50.38989" lon="3.2124">
        <ele>22</ele>
        <time>2012-02-19T09:21:56Z</time>
      </trkpt>
      <trkpt lat="50.38989" lon="3.21263">
        <ele>22</ele>
        <time>2012-02-19T09:21:58Z</time>
      </trkpt>
      <trkpt lat="50.38989" lon="3.21285">
        <ele>22</ele>
        <time>2012-02-19T09:22:00Z</time>
      </trkpt>
      <trkpt lat="50.38989" lon="3.21309">
        <ele>22</ele>
        <time>2012-02-19T09:22:02Z</time>
      </trkpt>
      <trkpt lat="50.38988" lon="3.21332">
        <ele>22</ele>
        <time>2012-02-19T09:22:04Z</time>
      </trkpt>
      <trkpt lat="50.38988" lon="3.21355">
        <ele>22</ele>
        <time>2012-02-19T09:22:06Z</time>
      </trkpt>
      <trkpt lat="50.38987" lon="3.21379">
        <ele>22</ele>
        <time>2012-02-19T09:22:08Z</time>
      </trkpt>
      <trkpt lat="50.38987" lon="3.21401">
        <ele>22</ele>
        <time>2012-02-19T09:22:10Z</time>
      </trkpt>
      <trkpt lat="50.38987" lon="3.21423">
        <ele>22</ele>
        <time>2012-02-19T09:22:12Z</time>
      </trkpt>
      <trkpt lat="50.38987" lon="3.21443">
        <ele>22</ele>
        <time>2012-02-19T09:22:14Z</time>
      </trkpt>
      <trkpt lat="50.38986" lon="3.2146">
        <ele>22</ele>
        <time>2012-02-19T09:22:16Z</time>
      </trkpt>
      <trkpt lat="50.38982" lon="3.21477">
        <ele>22</ele>
        <time>2012-02-19T09:22:19Z</time>
      </trkpt>
      <trkpt lat="50.38985" lon="3.21496">
        <ele>22</ele>
        <time>2012-02-19T09:22:22Z</time>
      </trkpt>
      <trkpt lat="50.38986" lon="3.21512">
        <ele>22</ele>
        <time>2012-02-19T09:22:24Z</time>
      </trkpt>
      <trkpt lat="50.38986" lon="3.2153">
        <ele>22</ele>
        <time>2012-02-19T09:22:26Z</time>
      </trkpt>
      <trkpt lat="50.38987" lon="3.21551">
        <ele>22</ele>
        <time>2012-02-19T09:22:28Z</time>
      </trkpt>
      <trkpt lat="50.38988" lon="3.21574">
        <ele>22</ele>
        <time>2012-02-19T09:22:30Z</time>
      </trkpt>
      <trkpt lat="50.38988" lon="3.21596">
        <ele>22</ele>
        <time>2012-02-19T09:22:32Z</time>
      </trkpt>
      <trkpt lat="50.38987" lon="3.21618">
        <ele>22</ele>
        <time>2012-02-19T09:22:34Z</time>
      </trkpt>
      <trkpt lat="50.38987" lon="3.21642">
        <ele>22</ele>
        <time>2012-02-19T09:22:36Z</time>
      </trkpt>
      <trkpt lat="50.38987" lon="3.21665">
        <ele>22</ele>
        <time>2012-02-19T09:22:38Z</time>
      </trkpt>
      <trkpt lat="50.38986" lon="3.21688">
        <ele>22</ele>
        <time>2012-02-19T09:22:40Z</time>
      </trkpt>
      <trkpt lat="50.38987" lon="3.21712">
        <ele>22</ele>
        <time>2012-02-19T09:22:42Z</time>
      </trkpt>
      <trkpt lat="50.38987" lon="3.21735">
        <ele>22</ele>
        <time>2012-02-19T09:22:44Z</time>
      </trkpt>
      <trkpt lat="50.38987" lon="3.21759">
        <ele>22</ele>
        <time>2012-02-19T09:22:46Z</time>
      </trkpt>
      <trkpt lat="50.38986" lon="3.2178">
        <ele>22</ele>
        <time>2012-02-19T09:22:48Z</time>
      </trkpt>
      <trkpt lat="50.38987" lon="3.21802">
        <ele>22</ele>
        <time>2012-02-19T09:22:50Z</time>
      </trkpt>
      <trkpt lat="50.38987" lon="3.21821">
        <ele>22</ele>
        <time>2012-02-19T09:22:52Z</time>
      </trkpt>
      <trkpt lat="50.38985" lon="3.21838">
        <ele>22</ele>
        <time>2012-02-19T09:22:55Z</time>
      </trkpt>
      <trkpt lat="50.38987" lon="3.21857">
        <ele>22</ele>
        <time>2012-02-19T09:22:58Z</time>
      </trkpt>
      <trkpt lat="50.38987" lon="3.21875">
        <ele>22</ele>
        <time>2012-02-19T09:23:00Z</time>
      </trkpt>
      <trkpt lat="50.38987" lon="3.21892">
        <ele>22</ele>
        <time>2012-02-19T09:23:02Z</time>
      </trkpt>
      <trkpt lat="50.38987" lon="3.21911">
        <ele>22</ele>
        <time>2012-02-19T09:23:04Z</time>
      </trkpt>
      <trkpt lat="50.38987" lon="3.21932">
        <ele>22</ele>
        <time>2012-02-19T09:23:06Z</time>
      </trkpt>
      <trkpt lat="50.38987" lon="3.21954">
        <ele>22</ele>
        <time>2012-02-19T09:23:08Z</time>
      </trkpt>
      <trkpt lat="50.38987" lon="3.21975">
        <ele>22</ele>
        <time>2012-02-19T09:23:10Z</time>
      </trkpt>
      <trkpt lat="50.38986" lon="3.21996">
        <ele>22</ele>
        <time>2012-02-19T09:23:12Z</time>
      </trkpt>
      <trkpt lat="50.38986" lon="3.22018">
        <ele>22</ele>
        <time>2012-02-19T09:23:14Z</time>
      </trkpt>
      <trkpt lat="50.38985" lon="3.22042">
        <ele>22</ele>
        <time>2012-02-19T09:23:16Z</time>
      </trkpt>
      <trkpt lat="50.38985" lon="3.22065">
        <ele>22</ele>
        <time>2012-02-19T09:23:18Z</time>
      </trkpt>
      <trkpt lat="50.38985" lon="3.22088">
        <ele>22</ele>
        <time>2012-02-19T09:23:20Z</time>
      </trkpt>
      <trkpt lat="50.38985" lon="3.22113">
        <ele>22</ele>
        <time>2012-02-19T09:23:22Z</time>
      </trkpt>
      <trkpt lat="50.38985" lon="3.22136">
        <ele>22</ele>
        <time>2012-02-19T09:23:24Z</time>
      </trkpt>
      <trkpt lat="50.38985" lon="3.22159">
        <ele>22</ele>
        <time>2012-02-19T09:23:26Z</time>
      </trkpt>
      <trkpt lat="50.38985" lon="3.22184">
        <ele>22</ele>
        <time>2012-02-19T09:23:28Z</time>
      </trkpt>
      <trkpt lat="50.38984" lon="3.22206">
        <ele>22</ele>
        <time>2012-02-19T09:23:30Z</time>
      </trkpt>
      <trkpt lat="50.38984" lon="3.22228">
        <ele>22</ele>
        <time>2012-02-19T09:23:32Z</time>
      </trkpt>
      <trkpt lat="50.38984" lon="3.22251">
        <ele>28</ele>
        <time>2012-02-19T09:23:34Z</time>
      </trkpt>
      <trkpt lat="50.38983" lon="3.22272">
        <ele>28</ele>
        <time>2012-02-19T09:23:36Z</time>
      </trkpt>
      <trkpt lat="50.38981" lon="3.22296">
        <ele>28</ele>
        <time>2012-02-19T09:23:38Z</time>
      </trkpt>
      <trkpt lat="50.38979" lon="3.22318">
        <ele>28</ele>
        <time>2012-02-19T09:23:40Z</time>
      </trkpt>
      <trkpt lat="50.38976" lon="3.22341">
        <ele>28</ele>
        <time>2012-02-19T09:23:42Z</time>
      </trkpt>
      <trkpt lat="50.38974" lon="3.22364">
        <ele>28</ele>
        <time>2012-02-19T09:23:44Z</time>
      </trkpt>
      <trkpt lat="50.38971" lon="3.22387">
        <ele>28</ele>
        <time>2012-02-19T09:23:46Z</time>
      </trkpt>
      <trkpt lat="50.38968" lon="3.22411">
        <ele>28</ele>
        <time>2012-02-19T09:23:48Z</time>
      </trkpt>
      <trkpt lat="50.38965" lon="3.22435">
        <ele>28</ele>
        <time>2012-02-19T09:23:50Z</time>
      </trkpt>
      <trkpt lat="50.38962" lon="3.22458">
        <ele>28</ele>
        <time>2012-02-19T09:23:52Z</time>
      </trkpt>
      <trkpt lat="50.3896" lon="3.22483">
        <ele>28</ele>
        <time>2012-02-19T09:23:54Z</time>
      </trkpt>
      <trkpt lat="50.38957" lon="3.22508">
        <ele>22</ele>
        <time>2012-02-19T09:23:56Z</time>
      </trkpt>
      <trkpt lat="50.38954" lon="3.22532">
        <ele>22</ele>
        <time>2012-02-19T09:23:58Z</time>
      </trkpt>
      <trkpt lat="50.38951" lon="3.22555">
        <ele>22</ele>
        <time>2012-02-19T09:24:00Z</time>
      </trkpt>
      <trkpt lat="50.38949" lon="3.2258">
        <ele>22</ele>
        <time>2012-02-19T09:24:02Z</time>
      </trkpt>
      <trkpt lat="50.38947" lon="3.22604">
        <ele>22</ele>
        <time>2012-02-19T09:24:04Z</time>
      </trkpt>
      <trkpt lat="50.38944" lon="3.22627">
        <ele>22</ele>
        <time>2012-02-19T09:24:06Z</time>
      </trkpt>
      <trkpt lat="50.38945" lon="3.22651">
        <ele>22</ele>
        <time>2012-02-19T09:24:08Z</time>
      </trkpt>
      <trkpt lat="50.38947" lon="3.22675">
        <ele>22</ele>
        <time>2012-02-19T09:24:10Z</time>
      </trkpt>
      <trkpt lat="50.38949" lon="3.22699">
        <ele>22</ele>
        <time>2012-02-19T09:24:12Z</time>
      </trkpt>
      <trkpt lat="50.38952" lon="3.22723">
        <ele>22</ele>
        <time>2012-02-19T09:24:14Z</time>
      </trkpt>
      <trkpt lat="50.38954" lon="3.22747">
        <ele>22</ele>
        <time>2012-02-19T09:24:16Z</time>
      </trkpt>
      <trkpt lat="50.38955" lon="3.2277">
        <ele>22</ele>
        <time>2012-02-19T09:24:18Z</time>
      </trkpt>
      <trkpt lat="50.38956" lon="3.22793">
        <ele>22</ele>
        <time>2012-02-19T09:24:20Z</time>
      </trkpt>
      <trkpt lat="50.38957" lon="3.22817">
        <ele>22</ele>
        <time>2012-02-19T09:24:22Z</time>
      </trkpt>
      <trkpt lat="50.38957" lon="3.22839">
        <ele>22</ele>
        <time>2012-02-19T09:24:24Z</time>
      </trkpt>
      <trkpt lat="50.38957" lon="3.22863">
        <ele>22</ele>
        <time>2012-02-19T09:24:26Z</time>
      </trkpt>
      <trkpt lat="50.38955" lon="3.22884">
        <ele>22</ele>
        <time>2012-02-19T09:24:28Z</time>
      </trkpt>
      <trkpt lat="50.38954" lon="3.22906">
        <ele>22</ele>
        <time>2012-02-19T09:24:30Z</time>
      </trkpt>
      <trkpt lat="50.38952" lon="3.22927">
        <ele>22</ele>
        <time>2012-02-19T09:24:32Z</time>
      </trkpt>
      <trkpt lat="50.38951" lon="3.2295">
        <ele>22</ele>
        <time>2012-02-19T09:24:34Z</time>
      </trkpt>
      <trkpt lat="50.3895" lon="3.22972">
        <ele>22</ele>
        <time>2012-02-19T09:24:36Z</time>
      </trkpt>
      <trkpt lat="50.38948" lon="3.22994">
        <ele>22</ele>
        <time>2012-02-19T09:24:38Z</time>
      </trkpt>
      <trkpt lat="50.38946" lon="3.23015">
        <ele>22</ele>
        <time>2012-02-19T09:24:40Z</time>
      </trkpt>
      <trkpt lat="50.38944" lon="3.23037">
        <ele>22</ele>
        <time>2012-02-19T09:24:42Z</time>
      </trkpt>
      <trkpt lat="50.38942" lon="3.23058">
        <ele>22</ele>
        <time>2012-02-19T09:24:44Z</time>
      </trkpt>
      <trkpt lat="50.38939" lon="3.23079">
        <ele>22</ele>
        <time>2012-02-19T09:24:46Z</time>
      </trkpt>
      <trkpt lat="50.38935" lon="3.231">
        <ele>22</ele>
        <time>2012-02-19T09:24:48Z</time>
      </trkpt>
      <trkpt lat="50.38929" lon="3.2312">
        <ele>22</ele>
        <time>2012-02-19T09:24:50Z</time>
      </trkpt>
      <trkpt lat="50.38921" lon="3.23138">
        <ele>22</ele>
        <time>2012-02-19T09:24:52Z</time>
      </trkpt>
      <trkpt lat="50.38914" lon="3.23155">
        <ele>22</ele>
        <time>2012-02-19T09:24:54Z</time>
      </trkpt>
      <trkpt lat="50.38906" lon="3.23173">
        <ele>22</ele>
        <time>2012-02-19T09:24:56Z</time>
      </trkpt>
      <trkpt lat="50.38898" lon="3.23187">
        <ele>22</ele>
        <time>2012-02-19T09:24:58Z</time>
      </trkpt>
      <trkpt lat="50.38891" lon="3.232">
        <ele>22</ele>
        <time>2012-02-19T09:25:00Z</time>
      </trkpt>
      <trkpt lat="50.38883" lon="3.23213">
        <ele>22</ele>
        <time>2012-02-19T09:25:03Z</time>
      </trkpt>
      <trkpt lat="50.38878" lon="3.23226">
        <ele>22</ele>
        <time>2012-02-19T09:25:06Z</time>
      </trkpt>
      <trkpt lat="50.38875" lon="3.23249">
        <ele>22</ele>
        <time>2012-02-19T09:25:09Z</time>
      </trkpt>
      <trkpt lat="50.38873" lon="3.2327">
        <ele>22</ele>
        <time>2012-02-19T09:25:11Z</time>
      </trkpt>
      <trkpt lat="50.3887" lon="3.23292">
        <ele>17</ele>
        <time>2012-02-19T09:25:13Z</time>
      </trkpt>
      <trkpt lat="50.38867" lon="3.23314">
        <ele>17</ele>
        <time>2012-02-19T09:25:15Z</time>
      </trkpt>
      <trkpt lat="50.38866" lon="3.23333">
        <ele>17</ele>
        <time>2012-02-19T09:25:17Z</time>
      </trkpt>
      <trkpt lat="50.38864" lon="3.23354">
        <ele>17</ele>
        <time>2012-02-19T09:25:19Z</time>
      </trkpt>
      <trkpt lat="50.38862" lon="3.23375">
        <ele>17</ele>
        <time>2012-02-19T09:25:21Z</time>
      </trkpt>
      <trkpt lat="50.38862" lon="3.23394">
        <ele>17</ele>
        <time>2012-02-19T09:25:23Z</time>
      </trkpt>
      <trkpt lat="50.38861" lon="3.23413">
        <ele>17</ele>
        <time>2012-02-19T09:25:25Z</time>
      </trkpt>
      <trkpt lat="50.38859" lon="3.23431">
        <ele>17</ele>
        <time>2012-02-19T09:25:27Z</time>
      </trkpt>
      <trkpt lat="50.38857" lon="3.23449">
        <ele>17</ele>
        <time>2012-02-19T09:25:29Z</time>
      </trkpt>
      <trkpt lat="50.38854" lon="3.23468">
        <ele>17</ele>
        <time>2012-02-19T09:25:31Z</time>
      </trkpt>
      <trkpt lat="50.3885" lon="3.23485">
        <ele>17</ele>
        <time>2012-02-19T09:25:33Z</time>
      </trkpt>
      <trkpt lat="50.38847" lon="3.235">
        <ele>17</ele>
        <time>2012-02-19T09:25:35Z</time>
      </trkpt>
      <trkpt lat="50.38839" lon="3.23511">
        <ele>17</ele>
        <time>2012-02-19T09:25:38Z</time>
      </trkpt>
      <trkpt lat="50.3883" lon="3.23509">
        <ele>17</ele>
        <time>2012-02-19T09:25:40Z</time>
      </trkpt>
      <trkpt lat="50.38822" lon="3.235">
        <ele>17</ele>
        <time>2012-02-19T09:25:42Z</time>
      </trkpt>
      <trkpt lat="50.38812" lon="3.23491">
        <ele>17</ele>
        <time>2012-02-19T09:25:44Z</time>
      </trkpt>
      <trkpt lat="50.38803" lon="3.23479">
        <ele>17</ele>
        <time>2012-02-19T09:25:46Z</time>
      </trkpt>
      <trkpt lat="50.38794" lon="3.23467">
        <ele>17</ele>
        <time>2012-02-19T09:25:48Z</time>
      </trkpt>
      <trkpt lat="50.38784" lon="3.23454">
        <ele>17</ele>
        <time>2012-02-19T09:25:50Z</time>
      </trkpt>
      <trkpt lat="50.38774" lon="3.23441">
        <ele>17</ele>
        <time>2012-02-19T09:25:52Z</time>
      </trkpt>
      <trkpt lat="50.38765" lon="3.23429">
        <ele>17</ele>
        <time>2012-02-19T09:25:54Z</time>
      </trkpt>
      <trkpt lat="50.38754" lon="3.23416">
        <ele>17</ele>
        <time>2012-02-19T09:25:56Z</time>
      </trkpt>
      <trkpt lat="50.38745" lon="3.23405">
        <ele>17</ele>
        <time>2012-02-19T09:25:58Z</time>
      </trkpt>
      <trkpt lat="50.38735" lon="3.23399">
        <ele>17</ele>
        <time>2012-02-19T09:26:00Z</time>
      </trkpt>
      <trkpt lat="50.38725" lon="3.23398">
        <ele>17</ele>
        <time>2012-02-19T09:26:02Z</time>
      </trkpt>
      <trkpt lat="50.38713" lon="3.23402">
        <ele>17</ele>
        <time>2012-02-19T09:26:04Z</time>
      </trkpt>
      <trkpt lat="50.38699" lon="3.23405">
        <ele>17</ele>
        <time>2012-02-19T09:26:06Z</time>
      </trkpt>
      <trkpt lat="50.38684" lon="3.23409">
        <ele>17</ele>
        <time>2012-02-19T09:26:08Z</time>
      </trkpt>
      <trkpt lat="50.38669" lon="3.23411">
        <ele>17</ele>
        <time>2012-02-19T09:26:10Z</time>
      </trkpt>
      <trkpt lat="50.38654" lon="3.23412">
        <ele>17</ele>
        <time>2012-02-19T09:26:12Z</time>
      </trkpt>
      <trkpt lat="50.38639" lon="3.23415">
        <ele>17</ele>
        <time>2012-02-19T09:26:14Z</time>
      </trkpt>
      <trkpt lat="50.38623" lon="3.23416">
        <ele>17</ele>
        <time>2012-02-19T09:26:16Z</time>
      </trkpt>
      <trkpt lat="50.38607" lon="3.23418">
        <ele>17</ele>
        <time>2012-02-19T09:26:18Z</time>
      </trkpt>
      <trkpt lat="50.38591" lon="3.2342">
        <ele>17</ele>
        <time>2012-02-19T09:26:20Z</time>
      </trkpt>
      <trkpt lat="50.38575" lon="3.23421">
        <ele>17</ele>
        <time>2012-02-19T09:26:22Z</time>
      </trkpt>
      <trkpt lat="50.38558" lon="3.23423">
        <ele>17</ele>
        <time>2012-02-19T09:26:24Z</time>
      </trkpt>
      <trkpt lat="50.38542" lon="3.23424">
        <ele>17</ele>
        <time>2012-02-19T09:26:26Z</time>
      </trkpt>
      <trkpt lat="50.38525" lon="3.23427">
        <ele>17</ele>
        <time>2012-02-19T09:26:28Z</time>
      </trkpt>
      <trkpt lat="50.38508" lon="3.23429">
        <ele>17</ele>
        <time>2012-02-19T09:26:30Z</time>
      </trkpt>
      <trkpt lat="50.38492" lon="3.23429">
        <ele>17</ele>
        <time>2012-02-19T09:26:32Z</time>
      </trkpt>
      <trkpt lat="50.38476" lon="3.23431">
        <ele>17</ele>
        <time>2012-02-19T09:26:34Z</time>
      </trkpt>
      <trkpt lat="50.38461" lon="3.23433">
        <ele>17</ele>
        <time>2012-02-19T09:26:36Z</time>
      </trkpt>
      <trkpt lat="50.38445" lon="3.23435">
        <ele>17</ele>
        <time>2012-02-19T09:26:38Z</time>
      </trkpt>
      <trkpt lat="50.3843" lon="3.23437">
        <ele>17</ele>
        <time>2012-02-19T09:26:40Z</time>
      </trkpt>
      <trkpt lat="50.38415" lon="3.23438">
        <ele>17</ele>
        <time>2012-02-19T09:26:42Z</time>
      </trkpt>
      <trkpt lat="50.384" lon="3.23439">
        <ele>17</ele>
        <time>2012-02-19T09:26:44Z</time>
      </trkpt>
      <trkpt lat="50.38386" lon="3.23441">
        <ele>17</ele>
        <time>2012-02-19T09:26:46Z</time>
      </trkpt>
      <trkpt lat="50.38371" lon="3.23443">
        <ele>17</ele>
        <time>2012-02-19T09:26:48Z</time>
      </trkpt>
      <trkpt lat="50.38356" lon="3.23445">
        <ele>17</ele>
        <time>2012-02-19T09:26:50Z</time>
      </trkpt>
      <trkpt lat="50.38342" lon="3.23446">
        <ele>17</ele>
        <time>2012-02-19T09:26:52Z</time>
      </trkpt>
      <trkpt lat="50.38328" lon="3.23447">
        <ele>17</ele>
        <time>2012-02-19T09:26:54Z</time>
      </trkpt>
      <trkpt lat="50.38314" lon="3.23448">
        <ele>17</ele>
        <time>2012-02-19T09:26:56Z</time>
      </trkpt>
      <trkpt lat="50.38301" lon="3.2345">
        <ele>17</ele>
        <time>2012-02-19T09:26:58Z</time>
      </trkpt>
      <trkpt lat="50.38287" lon="3.23451">
        <ele>17</ele>
        <time>2012-02-19T09:27:00Z</time>
      </trkpt>
      <trkpt lat="50.38273" lon="3.23452">
        <ele>17</ele>
        <time>2012-02-19T09:27:02Z</time>
      </trkpt>
      <trkpt lat="50.38259" lon="3.23454">
        <ele>17</ele>
        <time>2012-02-19T09:27:04Z</time>
      </trkpt>
      <trkpt lat="50.38245" lon="3.23456">
        <ele>17</ele>
        <time>2012-02-19T09:27:06Z</time>
      </trkpt>
      <trkpt lat="50.38232" lon="3.23457">
        <ele>17</ele>
        <time>2012-02-19T09:27:08Z</time>
      </trkpt>
      <trkpt lat="50.3822" lon="3.23458">
        <ele>17</ele>
        <time>2012-02-19T09:27:10Z</time>
      </trkpt>
      <trkpt lat="50.38206" lon="3.2346">
        <ele>17</ele>
        <time>2012-02-19T09:27:12Z</time>
      </trkpt>
      <trkpt lat="50.38194" lon="3.23462">
        <ele>17</ele>
        <time>2012-02-19T09:27:14Z</time>
      </trkpt>
      <trkpt lat="50.38181" lon="3.23463">
        <ele>17</ele>
        <time>2012-02-19T09:27:16Z</time>
      </trkpt>
      <trkpt lat="50.38168" lon="3.23465">
        <ele>17</ele>
        <time>2012-02-19T09:27:18Z</time>
      </trkpt>
      <trkpt lat="50.38155" lon="3.23465">
        <ele>17</ele>
        <time>2012-02-19T09:27:20Z</time>
      </trkpt>
      <trkpt lat="50.38143" lon="3.23467">
        <ele>17</ele>
        <time>2012-02-19T09:27:22Z</time>
      </trkpt>
      <trkpt lat="50.38129" lon="3.23468">
        <ele>17</ele>
        <time>2012-02-19T09:27:24Z</time>
      </trkpt>
      <trkpt lat="50.38117" lon="3.23469">
        <ele>17</ele>
        <time>2012-02-19T09:27:26Z</time>
      </trkpt>
      <trkpt lat="50.38104" lon="3.2347">
        <ele>17</ele>
        <time>2012-02-19T09:27:28Z</time>
      </trkpt>
      <trkpt lat="50.38092" lon="3.23472">
        <ele>17</ele>
        <time>2012-02-19T09:27:30Z</time>
      </trkpt>
      <trkpt lat="50.3808" lon="3.23474">
        <ele>17</ele>
        <time>2012-02-19T09:27:32Z</time>
      </trkpt>
      <trkpt lat="50.38071" lon="3.23482">
        <ele>17</ele>
        <time>2012-02-19T09:27:34Z</time>
      </trkpt>
      <trkpt lat="50.38065" lon="3.23497">
        <ele>17</ele>
        <time>2012-02-19T09:27:37Z</time>
      </trkpt>
      <trkpt lat="50.3807" lon="3.23511">
        <ele>17</ele>
        <time>2012-02-19T09:27:43Z</time>
      </trkpt>
      <trkpt lat="50.38077" lon="3.23525">
        <ele>17</ele>
        <time>2012-02-19T09:27:46Z</time>
      </trkpt>
      <trkpt lat="50.38082" lon="3.23539">
        <ele>17</ele>
        <time>2012-02-19T09:27:49Z</time>
      </trkpt>
      <trkpt lat="50.38088" lon="3.2355">
        <ele>17</ele>
        <time>2012-02-19T09:27:52Z</time>
      </trkpt>
      <trkpt lat="50.38095" lon="3.23562">
        <ele>17</ele>
        <time>2012-02-19T09:27:56Z</time>
      </trkpt>
      <trkpt lat="50.38101" lon="3.23577">
        <ele>17</ele>
        <time>2012-02-19T09:27:59Z</time>
      </trkpt>
      <trkpt lat="50.38108" lon="3.2359">
        <ele>22</ele>
        <time>2012-02-19T09:28:02Z</time>
      </trkpt>
      <trkpt lat="50.38115" lon="3.23605">
        <ele>22</ele>
        <time>2012-02-19T09:28:05Z</time>
      </trkpt>
      <trkpt lat="50.38121" lon="3.23617">
        <ele>22</ele>
        <time>2012-02-19T09:28:08Z</time>
      </trkpt>
      <trkpt lat="50.38124" lon="3.23632">
        <ele>22</ele>
        <time>2012-02-19T09:28:12Z</time>
      </trkpt>
      <trkpt lat="50.38113" lon="3.23637">
        <ele>22</ele>
        <time>2012-02-19T09:28:16Z</time>
      </trkpt>
      <trkpt lat="50.38103" lon="3.23638">
        <ele>22</ele>
        <time>2012-02-19T09:28:19Z</time>
      </trkpt>
      <trkpt lat="50.38094" lon="3.23642">
        <ele>22</ele>
        <time>2012-02-19T09:28:22Z</time>
      </trkpt>
      <trkpt lat="50.38086" lon="3.23647">
        <ele>22</ele>
        <time>2012-02-19T09:28:25Z</time>
      </trkpt>
      <trkpt lat="50.38075" lon="3.2365">
        <ele>22</ele>
        <time>2012-02-19T09:28:29Z</time>
      </trkpt>
      <trkpt lat="50.3807" lon="3.23662">
        <ele>22</ele>
        <time>2012-02-19T09:28:33Z</time>
      </trkpt>
      <trkpt lat="50.38066" lon="3.23676">
        <ele>22</ele>
        <time>2012-02-19T09:28:38Z</time>
      </trkpt>
      <trkpt lat="50.38066" lon="3.2369">
        <ele>22</ele>
        <time>2012-02-19T09:28:44Z</time>
      </trkpt>
      <trkpt lat="50.38069" lon="3.23704">
        <ele>22</ele>
        <time>2012-02-19T09:28:50Z</time>
      </trkpt>
      <trkpt lat="50.38073" lon="3.23719">
        <ele>29</ele>
        <time>2012-02-19T09:28:56Z</time>
      </trkpt>
      <trkpt lat="50.38075" lon="3.23734">
        <ele>29</ele>
        <time>2012-02-19T09:29:02Z</time>
      </trkpt>
      <trkpt lat="50.38076" lon="3.2375">
        <ele>36</ele>
        <time>2012-02-19T09:29:09Z</time>
      </trkpt>
      <trkpt lat="50.38074" lon="3.23764">
        <ele>36</ele>
        <time>2012-02-19T09:29:18Z</time>
      </trkpt>
      <trkpt lat="50.38076" lon="3.23779">
        <ele>36</ele>
        <time>2012-02-19T09:29:24Z</time>
      </trkpt>
      <trkpt lat="50.38077" lon="3.23794">
        <ele>36</ele>
        <time>2012-02-19T09:29:29Z</time>
      </trkpt>
      <trkpt lat="50.38083" lon="3.23806">
        <ele>41</ele>
        <time>2012-02-19T09:29:34Z</time>
      </trkpt>
      <trkpt lat="50.38093" lon="3.2381">
        <ele>41</ele>
        <time>2012-02-19T09:29:39Z</time>
      </trkpt>
      <trkpt lat="50.38102" lon="3.23807">
        <ele>41</ele>
        <time>2012-02-19T09:29:44Z</time>
      </trkpt>
      <trkpt lat="50.38115" lon="3.238">
        <ele>41</ele>
        <time>2012-02-19T09:29:47Z</time>
      </trkpt>
      <trkpt lat="50.38129" lon="3.23792">
        <ele>36</ele>
        <time>2012-02-19T09:29:49Z</time>
      </trkpt>
      <trkpt lat="50.38143" lon="3.23788">
        <ele>36</ele>
        <time>2012-02-19T09:29:51Z</time>
      </trkpt>
      <trkpt lat="50.38156" lon="3.23789">
        <ele>36</ele>
        <time>2012-02-19T09:29:53Z</time>
      </trkpt>
      <trkpt lat="50.38166" lon="3.23795">
        <ele>36</ele>
        <time>2012-02-19T09:29:55Z</time>
      </trkpt>
      <trkpt lat="50.38178" lon="3.23797">
        <ele>36</ele>
        <time>2012-02-19T09:29:58Z</time>
      </trkpt>
      <trkpt lat="50.38187" lon="3.23795">
        <ele>36</ele>
        <time>2012-02-19T09:30:01Z</time>
      </trkpt>
      <trkpt lat="50.38194" lon="3.23803">
        <ele>36</ele>
        <time>2012-02-19T09:30:04Z</time>
      </trkpt>
      <trkpt lat="50.38202" lon="3.23812">
        <ele>36</ele>
        <time>2012-02-19T09:30:08Z</time>
      </trkpt>
      <trkpt lat="50.38211" lon="3.2382">
        <ele>36</ele>
        <time>2012-02-19T09:30:12Z</time>
      </trkpt>
      <trkpt lat="50.38218" lon="3.23829">
        <ele>36</ele>
        <time>2012-02-19T09:30:15Z</time>
      </trkpt>
      <trkpt lat="50.38226" lon="3.23841">
        <ele>36</ele>
        <time>2012-02-19T09:30:18Z</time>
      </trkpt>
      <trkpt lat="50.38233" lon="3.23852">
        <ele>36</ele>
        <time>2012-02-19T09:30:21Z</time>
      </trkpt>
      <trkpt lat="50.3824" lon="3.23862">
        <ele>36</ele>
        <time>2012-02-19T09:30:24Z</time>
      </trkpt>
      <trkpt lat="50.38246" lon="3.23872">
        <ele>36</ele>
        <time>2012-02-19T09:30:27Z</time>
      </trkpt>
      <trkpt lat="50.38251" lon="3.23886">
        <ele>36</ele>
        <time>2012-02-19T09:30:31Z</time>
      </trkpt>
      <trkpt lat="50.38254" lon="3.23901">
        <ele>36</ele>
        <time>2012-02-19T09:30:35Z</time>
      </trkpt>
      <trkpt lat="50.38259" lon="3.23915">
        <ele>36</ele>
        <time>2012-02-19T09:30:39Z</time>
      </trkpt>
      <trkpt lat="50.38266" lon="3.23924">
        <ele>36</ele>
        <time>2012-02-19T09:30:42Z</time>
      </trkpt>
      <trkpt lat="50.38274" lon="3.23933">
        <ele>36</ele>
        <time>2012-02-19T09:30:45Z</time>
      </trkpt>
      <trkpt lat="50.38281" lon="3.23944">
        <ele>36</ele>
        <time>2012-02-19T09:30:48Z</time>
      </trkpt>
      <trkpt lat="50.38289" lon="3.23954">
        <ele>36</ele>
        <time>2012-02-19T09:30:51Z</time>
      </trkpt>
      <trkpt lat="50.38298" lon="3.23965">
        <ele>36</ele>
        <time>2012-02-19T09:30:54Z</time>
      </trkpt>
      <trkpt lat="50.38308" lon="3.23976">
        <ele>36</ele>
        <time>2012-02-19T09:30:57Z</time>
      </trkpt>
      <trkpt lat="50.38315" lon="3.23984">
        <ele>36</ele>
        <time>2012-02-19T09:30:59Z</time>
      </trkpt>
      <trkpt lat="50.38324" lon="3.23992">
        <ele>36</ele>
        <time>2012-02-19T09:31:01Z</time>
      </trkpt>
      <trkpt lat="50.38332" lon="3.24001">
        <ele>36</ele>
        <time>2012-02-19T09:31:03Z</time>
      </trkpt>
      <trkpt lat="50.38342" lon="3.24006">
        <ele>36</ele>
        <time>2012-02-19T09:31:05Z</time>
      </trkpt>
      <trkpt lat="50.38352" lon="3.24012">
        <ele>36</ele>
        <time>2012-02-19T09:31:07Z</time>
      </trkpt>
      <trkpt lat="50.38361" lon="3.2402">
        <ele>36</ele>
        <time>2012-02-19T09:31:09Z</time>
      </trkpt>
      <trkpt lat="50.38371" lon="3.24026">
        <ele>36</ele>
        <time>2012-02-19T09:31:11Z</time>
      </trkpt>
      <trkpt lat="50.38381" lon="3.24035">
        <ele>36</ele>
        <time>2012-02-19T09:31:13Z</time>
      </trkpt>
      <trkpt lat="50.3839" lon="3.24047">
        <ele>36</ele>
        <time>2012-02-19T09:31:15Z</time>
      </trkpt>
      <trkpt lat="50.38398" lon="3.24059">
        <ele>36</ele>
        <time>2012-02-19T09:31:17Z</time>
      </trkpt>
      <trkpt lat="50.38407" lon="3.24071">
        <ele>36</ele>
        <time>2012-02-19T09:31:19Z</time>
      </trkpt>
      <trkpt lat="50.38415" lon="3.24083">
        <ele>36</ele>
        <time>2012-02-19T09:31:21Z</time>
      </trkpt>
      <trkpt lat="50.38423" lon="3.24093">
        <ele>36</ele>
        <time>2012-02-19T09:31:23Z</time>
      </trkpt>
      <trkpt lat="50.38432" lon="3.24105">
        <ele>36</ele>
        <time>2012-02-19T09:31:25Z</time>
      </trkpt>
      <trkpt lat="50.3844" lon="3.24118">
        <ele>36</ele>
        <time>2012-02-19T09:31:27Z</time>
      </trkpt>
      <trkpt lat="50.38446" lon="3.2413">
        <ele>36</ele>
        <time>2012-02-19T09:31:29Z</time>
      </trkpt>
      <trkpt lat="50.38453" lon="3.24145">
        <ele>36</ele>
        <time>2012-02-19T09:31:31Z</time>
      </trkpt>
      <trkpt lat="50.38459" lon="3.2416">
        <ele>36</ele>
        <time>2012-02-19T09:31:33Z</time>
      </trkpt>
      <trkpt lat="50.38465" lon="3.24175">
        <ele>36</ele>
        <time>2012-02-19T09:31:35Z</time>
      </trkpt>
      <trkpt lat="50.38472" lon="3.24189">
        <ele>36</ele>
        <time>2012-02-19T09:31:37Z</time>
      </trkpt>
      <trkpt lat="50.38479" lon="3.24202">
        <ele>36</ele>
        <time>2012-02-19T09:31:39Z</time>
      </trkpt>
      <trkpt lat="50.38486" lon="3.24215">
        <ele>36</ele>
        <time>2012-02-19T09:31:41Z</time>
      </trkpt>
      <trkpt lat="50.38494" lon="3.24228">
        <ele>36</ele>
        <time>2012-02-19T09:31:43Z</time>
      </trkpt>
      <trkpt lat="50.38502" lon="3.24242">
        <ele>36</ele>
        <time>2012-02-19T09:31:45Z</time>
      </trkpt>
      <trkpt lat="50.3851" lon="3.24255">
        <ele>36</ele>
        <time>2012-02-19T09:31:47Z</time>
      </trkpt>
      <trkpt lat="50.38518" lon="3.24268">
        <ele>36</ele>
        <time>2012-02-19T09:31:49Z</time>
      </trkpt>
      <trkpt lat="50.38525" lon="3.24281">
        <ele>36</ele>
        <time>2012-02-19T09:31:51Z</time>
      </trkpt>
      <trkpt lat="50.3853" lon="3.24295">
        <ele>36</ele>
        <time>2012-02-19T09:31:53Z</time>
      </trkpt>
      <trkpt lat="50.38535" lon="3.24307">
        <ele>36</ele>
        <time>2012-02-19T09:31:55Z</time>
      </trkpt>
      <trkpt lat="50.38542" lon="3.24321">
        <ele>36</ele>
        <time>2012-02-19T09:31:58Z</time>
      </trkpt>
      <trkpt lat="50.38544" lon="3.24336">
        <ele>36</ele>
        <time>2012-02-19T09:32:02Z</time>
      </trkpt>
      <trkpt lat="50.38537" lon="3.24346">
        <ele>36</ele>
        <time>2012-02-19T09:32:05Z</time>
      </trkpt>
      <trkpt lat="50.38531" lon="3.24358">
        <ele>36</ele>
        <time>2012-02-19T09:32:08Z</time>
      </trkpt>
      <trkpt lat="50.38529" lon="3.24376">
        <ele>36</ele>
        <time>2012-02-19T09:32:11Z</time>
      </trkpt>
      <trkpt lat="50.38529" lon="3.24395">
        <ele>36</ele>
        <time>2012-02-19T09:32:14Z</time>
      </trkpt>
      <trkpt lat="50.38527" lon="3.24415">
        <ele>41</ele>
        <time>2012-02-19T09:32:17Z</time>
      </trkpt>
      <trkpt lat="50.38525" lon="3.24433">
        <ele>41</ele>
        <time>2012-02-19T09:32:20Z</time>
      </trkpt>
      <trkpt lat="50.38523" lon="3.24451">
        <ele>41</ele>
        <time>2012-02-19T09:32:23Z</time>
      </trkpt>
      <trkpt lat="50.38518" lon="3.2447">
        <ele>41</ele>
        <time>2012-02-19T09:32:26Z</time>
      </trkpt>
      <trkpt lat="50.38515" lon="3.24487">
        <ele>41</ele>
        <time>2012-02-19T09:32:29Z</time>
      </trkpt>
      <trkpt lat="50.38511" lon="3.24504">
        <ele>41</ele>
        <time>2012-02-19T09:32:33Z</time>
      </trkpt>
      <trkpt lat="50.38508" lon="3.24517">
        <ele>41</ele>
        <time>2012-02-19T09:32:36Z</time>
      </trkpt>
      <trkpt lat="50.38508" lon="3.24534">
        <ele>41</ele>
        <time>2012-02-19T09:32:39Z</time>
      </trkpt>
      <trkpt lat="50.38502" lon="3.24551">
        <ele>41</ele>
        <time>2012-02-19T09:32:43Z</time>
      </trkpt>
      <trkpt lat="50.38502" lon="3.24566">
        <ele>41</ele>
        <time>2012-02-19T09:32:45Z</time>
      </trkpt>
      <trkpt lat="50.38501" lon="3.2458">
        <ele>47</ele>
        <time>2012-02-19T09:32:47Z</time>
      </trkpt>
      <trkpt lat="50.38495" lon="3.24597">
        <ele>47</ele>
        <time>2012-02-19T09:32:50Z</time>
      </trkpt>
      <trkpt lat="50.38488" lon="3.24615">
        <ele>47</ele>
        <time>2012-02-19T09:32:53Z</time>
      </trkpt>
      <trkpt lat="50.38489" lon="3.24632">
        <ele>41</ele>
        <time>2012-02-19T09:32:56Z</time>
      </trkpt>
      <trkpt lat="50.38499" lon="3.24639">
        <ele>41</ele>
        <time>2012-02-19T09:32:59Z</time>
      </trkpt>
      <trkpt lat="50.38511" lon="3.24644">
        <ele>41</ele>
        <time>2012-02-19T09:33:02Z</time>
      </trkpt>
      <trkpt lat="50.38516" lon="3.24658">
        <ele>41</ele>
        <time>2012-02-19T09:33:05Z</time>
      </trkpt>
      <trkpt lat="50.3852" lon="3.2468">
        <ele>41</ele>
        <time>2012-02-19T09:33:08Z</time>
      </trkpt>
      <trkpt lat="50.38522" lon="3.247">
        <ele>41</ele>
        <time>2012-02-19T09:33:10Z</time>
      </trkpt>
      <trkpt lat="50.38524" lon="3.24719">
        <ele>41</ele>
        <time>2012-02-19T09:33:12Z</time>
      </trkpt>
      <trkpt lat="50.38525" lon="3.24737">
        <ele>41</ele>
        <time>2012-02-19T09:33:14Z</time>
      </trkpt>
      <trkpt lat="50.38524" lon="3.2476">
        <ele>41</ele>
        <time>2012-02-19T09:33:16Z</time>
      </trkpt>
      <trkpt lat="50.38523" lon="3.2478">
        <ele>41</ele>
        <time>2012-02-19T09:33:18Z</time>
      </trkpt>
      <trkpt lat="50.38522" lon="3.24799">
        <ele>41</ele>
        <time>2012-02-19T09:33:20Z</time>
      </trkpt>
      <trkpt lat="50.38522" lon="3.24816">
        <ele>34</ele>
        <time>2012-02-19T09:33:22Z</time>
      </trkpt>
      <trkpt lat="50.3852" lon="3.2483">
        <ele>34</ele>
        <time>2012-02-19T09:33:24Z</time>
      </trkpt>
      <trkpt lat="50.3852" lon="3.24844">
        <ele>28</ele>
        <time>2012-02-19T09:33:26Z</time>
      </trkpt>
      <trkpt lat="50.38522" lon="3.24863">
        <ele>28</ele>
        <time>2012-02-19T09:33:29Z</time>
      </trkpt>
      <trkpt lat="50.38527" lon="3.2488">
        <ele>28</ele>
        <time>2012-02-19T09:33:32Z</time>
      </trkpt>
      <trkpt lat="50.38533" lon="3.24893">
        <ele>28</ele>
        <time>2012-02-19T09:33:34Z</time>
      </trkpt>
      <trkpt lat="50.3854" lon="3.24906">
        <ele>28</ele>
        <time>2012-02-19T09:33:36Z</time>
      </trkpt>
      <trkpt lat="50.38545" lon="3.24919">
        <ele>28</ele>
        <time>2012-02-19T09:33:38Z</time>
      </trkpt>
      <trkpt lat="50.3855" lon="3.24931">
        <ele>28</ele>
        <time>2012-02-19T09:33:40Z</time>
      </trkpt>
      <trkpt lat="50.38552" lon="3.24946">
        <ele>28</ele>
        <time>2012-02-19T09:33:42Z</time>
      </trkpt>
      <trkpt lat="50.38554" lon="3.24963">
        <ele>28</ele>
        <time>2012-02-19T09:33:44Z</time>
      </trkpt>
      <trkpt lat="50.38554" lon="3.24984">
        <ele>28</ele>
        <time>2012-02-19T09:33:47Z</time>
      </trkpt>
      <trkpt lat="50.38551" lon="3.25">
        <ele>28</ele>
        <time>2012-02-19T09:33:50Z</time>
      </trkpt>
      <trkpt lat="50.38545" lon="3.25012">
        <ele>28</ele>
        <time>2012-02-19T09:33:53Z</time>
      </trkpt>
      <trkpt lat="50.38537" lon="3.25027">
        <ele>28</ele>
        <time>2012-02-19T09:33:56Z</time>
      </trkpt>
      <trkpt lat="50.38529" lon="3.25042">
        <ele>28</ele>
        <time>2012-02-19T09:33:59Z</time>
      </trkpt>
      <trkpt lat="50.38521" lon="3.25054">
        <ele>28</ele>
        <time>2012-02-19T09:34:01Z</time>
      </trkpt>
      <trkpt lat="50.38512" lon="3.25069">
        <ele>28</ele>
        <time>2012-02-19T09:34:03Z</time>
      </trkpt>
      <trkpt lat="50.385" lon="3.25085">
        <ele>28</ele>
        <time>2012-02-19T09:34:05Z</time>
      </trkpt>
      <trkpt lat="50.38488" lon="3.25102">
        <ele>28</ele>
        <time>2012-02-19T09:34:07Z</time>
      </trkpt>
      <trkpt lat="50.38476" lon="3.25117">
        <ele>28</ele>
        <time>2012-02-19T09:34:09Z</time>
      </trkpt>
      <trkpt lat="50.38466" lon="3.25127">
        <ele>28</ele>
        <time>2012-02-19T09:34:11Z</time>
      </trkpt>
      <trkpt lat="50.38457" lon="3.25134">
        <ele>28</ele>
        <time>2012-02-19T09:34:13Z</time>
      </trkpt>
      <trkpt lat="50.38446" lon="3.25139">
        <ele>28</ele>
        <time>2012-02-19T09:34:16Z</time>
      </trkpt>
      <trkpt lat="50.38438" lon="3.25147">
        <ele>28</ele>
        <time>2012-02-19T09:34:19Z</time>
      </trkpt>
      <trkpt lat="50.38432" lon="3.25158">
        <ele>28</ele>
        <time>2012-02-19T09:34:21Z</time>
      </trkpt>
      <trkpt lat="50.38425" lon="3.2517">
        <ele>28</ele>
        <time>2012-02-19T09:34:23Z</time>
      </trkpt>
      <trkpt lat="50.38417" lon="3.25182">
        <ele>28</ele>
        <time>2012-02-19T09:34:25Z</time>
      </trkpt>
      <trkpt lat="50.38409" lon="3.25197">
        <ele>28</ele>
        <time>2012-02-19T09:34:27Z</time>
      </trkpt>
      <trkpt lat="50.38402" lon="3.25213">
        <ele>28</ele>
        <time>2012-02-19T09:34:29Z</time>
      </trkpt>
      <trkpt lat="50.38394" lon="3.25226">
        <ele>28</ele>
        <time>2012-02-19T09:34:31Z</time>
      </trkpt>
      <trkpt lat="50.38387" lon="3.25236">
        <ele>28</ele>
        <time>2012-02-19T09:34:33Z</time>
      </trkpt>
      <trkpt lat="50.38378" lon="3.25246">
        <ele>28</ele>
        <time>2012-02-19T09:34:36Z</time>
      </trkpt>
      <trkpt lat="50.38368" lon="3.25253">
        <ele>28</ele>
        <time>2012-02-19T09:34:39Z</time>
      </trkpt>
      <trkpt lat="50.38358" lon="3.25261">
        <ele>28</ele>
        <time>2012-02-19T09:34:43Z</time>
      </trkpt>
      <trkpt lat="50.38347" lon="3.25259">
        <ele>28</ele>
        <time>2012-02-19T09:34:46Z</time>
      </trkpt>
      <trkpt lat="50.38337" lon="3.25268">
        <ele>28</ele>
        <time>2012-02-19T09:34:49Z</time>
      </trkpt>
      <trkpt lat="50.38341" lon="3.25282">
        <ele>28</ele>
        <time>2012-02-19T09:34:53Z</time>
      </trkpt>
      <trkpt lat="50.38351" lon="3.25272">
        <ele>28</ele>
        <time>2012-02-19T09:34:56Z</time>
      </trkpt>
      <trkpt lat="50.38359" lon="3.25267">
        <ele>28</ele>
        <time>2012-02-19T09:34:58Z</time>
      </trkpt>
      <trkpt lat="50.38369" lon="3.25262">
        <ele>22</ele>
        <time>2012-02-19T09:35:00Z</time>
      </trkpt>
      <trkpt lat="50.38378" lon="3.25255">
        <ele>22</ele>
        <time>2012-02-19T09:35:03Z</time>
      </trkpt>
      <trkpt lat="50.38386" lon="3.25245">
        <ele>22</ele>
        <time>2012-02-19T09:35:06Z</time>
      </trkpt>
      <trkpt lat="50.38395" lon="3.25233">
        <ele>14</ele>
        <time>2012-02-19T09:35:09Z</time>
      </trkpt>
      <trkpt lat="50.38402" lon="3.25224">
        <ele>14</ele>
        <time>2012-02-19T09:35:11Z</time>
      </trkpt>
      <trkpt lat="50.38413" lon="3.25221">
        <ele>14</ele>
        <time>2012-02-19T09:35:14Z</time>
      </trkpt>
      <trkpt lat="50.38425" lon="3.25212">
        <ele>8</ele>
        <time>2012-02-19T09:35:17Z</time>
      </trkpt>
      <trkpt lat="50.38433" lon="3.252">
        <ele>8</ele>
        <time>2012-02-19T09:35:19Z</time>
      </trkpt>
      <trkpt lat="50.38441" lon="3.25187">
        <ele>8</ele>
        <time>2012-02-19T09:35:21Z</time>
      </trkpt>
      <trkpt lat="50.3845" lon="3.25178">
        <ele>8</ele>
        <time>2012-02-19T09:35:23Z</time>
      </trkpt>
      <trkpt lat="50.38459" lon="3.25166">
        <ele>8</ele>
        <time>2012-02-19T09:35:25Z</time>
      </trkpt>
      <trkpt lat="50.38468" lon="3.25154">
        <ele>8</ele>
        <time>2012-02-19T09:35:27Z</time>
      </trkpt>
      <trkpt lat="50.38477" lon="3.25143">
        <ele>8</ele>
        <time>2012-02-19T09:35:29Z</time>
      </trkpt>
      <trkpt lat="50.38487" lon="3.25131">
        <ele>8</ele>
        <time>2012-02-19T09:35:31Z</time>
      </trkpt>
      <trkpt lat="50.38495" lon="3.25121">
        <ele>8</ele>
        <time>2012-02-19T09:35:33Z</time>
      </trkpt>
      <trkpt lat="50.38504" lon="3.2511">
        <ele>8</ele>
        <time>2012-02-19T09:35:35Z</time>
      </trkpt>
      <trkpt lat="50.38511" lon="3.251">
        <ele>8</ele>
        <time>2012-02-19T09:35:37Z</time>
      </trkpt>
      <trkpt lat="50.38521" lon="3.2509">
        <ele>8</ele>
        <time>2012-02-19T09:35:39Z</time>
      </trkpt>
      <trkpt lat="50.38529" lon="3.2508">
        <ele>8</ele>
        <time>2012-02-19T09:35:41Z</time>
      </trkpt>
      <trkpt lat="50.38537" lon="3.25069">
        <ele>8</ele>
        <time>2012-02-19T09:35:43Z</time>
      </trkpt>
      <trkpt lat="50.38545" lon="3.25058">
        <ele>8</ele>
        <time>2012-02-19T09:35:45Z</time>
      </trkpt>
      <trkpt lat="50.38554" lon="3.25044">
        <ele>8</ele>
        <time>2012-02-19T09:35:48Z</time>
      </trkpt>
      <trkpt lat="50.3856" lon="3.25031">
        <ele>8</ele>
        <time>2012-02-19T09:35:51Z</time>
      </trkpt>
      <trkpt lat="50.38565" lon="3.2502">
        <ele>17</ele>
        <time>2012-02-19T09:36:52Z</time>
      </trkpt>
      <trkpt lat="50.38572" lon="3.25009">
        <ele>17</ele>
        <time>2012-02-19T09:45:00Z</time>
      </trkpt>
      <trkpt lat="50.38577" lon="3.24996">
        <ele>17</ele>
        <time>2012-02-19T09:45:03Z</time>
      </trkpt>
      <trkpt lat="50.38581" lon="3.24982">
        <ele>17</ele>
        <time>2012-02-19T09:45:06Z</time>
      </trkpt>
      <trkpt lat="50.38586" lon="3.24965">
        <ele>17</ele>
        <time>2012-02-19T09:45:09Z</time>
      </trkpt>
      <trkpt lat="50.38585" lon="3.24948">
        <ele>17</ele>
        <time>2012-02-19T09:45:12Z</time>
      </trkpt>
      <trkpt lat="50.3858" lon="3.24931">
        <ele>17</ele>
        <time>2012-02-19T09:45:15Z</time>
      </trkpt>
      <trkpt lat="50.38573" lon="3.24914">
        <ele>17</ele>
        <time>2012-02-19T09:45:18Z</time>
      </trkpt>
      <trkpt lat="50.38568" lon="3.24896">
        <ele>23</ele>
        <time>2012-02-19T09:45:21Z</time>
      </trkpt>
      <trkpt lat="50.38563" lon="3.24879">
        <ele>23</ele>
        <time>2012-02-19T09:45:24Z</time>
      </trkpt>
      <trkpt lat="50.38558" lon="3.24863">
        <ele>23</ele>
        <time>2012-02-19T09:45:27Z</time>
      </trkpt>
      <trkpt lat="50.38554" lon="3.24847">
        <ele>23</ele>
        <time>2012-02-19T09:45:30Z</time>
      </trkpt>
      <trkpt lat="50.38546" lon="3.24835">
        <ele>23</ele>
        <time>2012-02-19T09:45:34Z</time>
      </trkpt>
      <trkpt lat="50.38545" lon="3.2482">
        <ele>23</ele>
        <time>2012-02-19T09:45:37Z</time>
      </trkpt>
      <trkpt lat="50.38548" lon="3.24802">
        <ele>23</ele>
        <time>2012-02-19T09:45:41Z</time>
      </trkpt>
      <trkpt lat="50.38548" lon="3.24787">
        <ele>23</ele>
        <time>2012-02-19T09:45:45Z</time>
      </trkpt>
      <trkpt lat="50.3855" lon="3.24772">
        <ele>23</ele>
        <time>2012-02-19T09:45:49Z</time>
      </trkpt>
      <trkpt lat="50.38551" lon="3.24755">
        <ele>23</ele>
        <time>2012-02-19T09:45:54Z</time>
      </trkpt>
      <trkpt lat="50.3855" lon="3.24739">
        <ele>23</ele>
        <time>2012-02-19T09:45:59Z</time>
      </trkpt>
      <trkpt lat="50.38549" lon="3.24723">
        <ele>23</ele>
        <time>2012-02-19T09:46:04Z</time>
      </trkpt>
      <trkpt lat="50.38545" lon="3.24709">
        <ele>23</ele>
        <time>2012-02-19T09:46:09Z</time>
      </trkpt>
      <trkpt lat="50.38542" lon="3.24694">
        <ele>28</ele>
        <time>2012-02-19T09:46:14Z</time>
      </trkpt>
      <trkpt lat="50.38541" lon="3.24679">
        <ele>28</ele>
        <time>2012-02-19T09:46:20Z</time>
      </trkpt>
      <trkpt lat="50.38538" lon="3.24664">
        <ele>33</ele>
        <time>2012-02-19T09:46:27Z</time>
      </trkpt>
      <trkpt lat="50.38535" lon="3.24649">
        <ele>33</ele>
        <time>2012-02-19T09:46:33Z</time>
      </trkpt>
      <trkpt lat="50.3853" lon="3.24634">
        <ele>40</ele>
        <time>2012-02-19T09:46:39Z</time>
      </trkpt>
      <trkpt lat="50.38526" lon="3.24621">
        <ele>40</ele>
        <time>2012-02-19T09:46:45Z</time>
      </trkpt>
      <trkpt lat="50.38526" lon="3.24605">
        <ele>40</ele>
        <time>2012-02-19T09:46:51Z</time>
      </trkpt>
      <trkpt lat="50.38526" lon="3.24591">
        <ele>40</ele>
        <time>2012-02-19T09:46:58Z</time>
      </trkpt>
      <trkpt lat="50.38526" lon="3.24577">
        <ele>40</ele>
        <time>2012-02-19T09:47:05Z</time>
      </trkpt>
      <trkpt lat="50.38534" lon="3.24572">
        <ele>40</ele>
        <time>2012-02-19T09:47:20Z</time>
      </trkpt>
      <trkpt lat="50.38531" lon="3.24558">
        <ele>45</ele>
        <time>2012-02-19T09:47:25Z</time>
      </trkpt>
      <trkpt lat="50.38529" lon="3.24544">
        <ele>45</ele>
        <time>2012-02-19T09:47:29Z</time>
      </trkpt>
      <trkpt lat="50.38534" lon="3.24533">
        <ele>45</ele>
        <time>2012-02-19T09:47:33Z</time>
      </trkpt>
      <trkpt lat="50.38541" lon="3.24523">
        <ele>45</ele>
        <time>2012-02-19T09:47:37Z</time>
      </trkpt>
      <trkpt lat="50.38549" lon="3.24518">
        <ele>45</ele>
        <time>2012-02-19T09:47:41Z</time>
      </trkpt>
      <trkpt lat="50.38558" lon="3.24514">
        <ele>45</ele>
        <time>2012-02-19T09:47:45Z</time>
      </trkpt>
      <trkpt lat="50.38568" lon="3.24507">
        <ele>45</ele>
        <time>2012-02-19T09:47:49Z</time>
      </trkpt>
      <trkpt lat="50.38575" lon="3.24491">
        <ele>39</ele>
        <time>2012-02-19T09:47:52Z</time>
      </trkpt>
      <trkpt lat="50.3858" lon="3.24478">
        <ele>39</ele>
        <time>2012-02-19T09:47:55Z</time>
      </trkpt>
      <trkpt lat="50.38585" lon="3.2446">
        <ele>39</ele>
        <time>2012-02-19T09:47:59Z</time>
      </trkpt>
      <trkpt lat="50.38589" lon="3.24446">
        <ele>39</ele>
        <time>2012-02-19T09:48:01Z</time>
      </trkpt>
      <trkpt lat="50.38593" lon="3.24432">
        <ele>34</ele>
        <time>2012-02-19T09:48:03Z</time>
      </trkpt>
      <trkpt lat="50.38596" lon="3.24419">
        <ele>34</ele>
        <time>2012-02-19T09:48:05Z</time>
      </trkpt>
      <trkpt lat="50.38598" lon="3.24399">
        <ele>34</ele>
        <time>2012-02-19T09:48:08Z</time>
      </trkpt>
      <trkpt lat="50.38604" lon="3.24386">
        <ele>34</ele>
        <time>2012-02-19T09:48:11Z</time>
      </trkpt>
      <trkpt lat="50.38607" lon="3.24372">
        <ele>34</ele>
        <time>2012-02-19T09:48:14Z</time>
      </trkpt>
      <trkpt lat="50.38612" lon="3.2436">
        <ele>34</ele>
        <time>2012-02-19T09:48:17Z</time>
      </trkpt>
      <trkpt lat="50.38616" lon="3.24343">
        <ele>28</ele>
        <time>2012-02-19T09:48:19Z</time>
      </trkpt>
      <trkpt lat="50.38618" lon="3.24327">
        <ele>28</ele>
        <time>2012-02-19T09:48:21Z</time>
      </trkpt>
      <trkpt lat="50.3862" lon="3.24313">
        <ele>28</ele>
        <time>2012-02-19T09:48:23Z</time>
      </trkpt>
      <trkpt lat="50.38623" lon="3.24293">
        <ele>28</ele>
        <time>2012-02-19T09:48:26Z</time>
      </trkpt>
      <trkpt lat="50.38626" lon="3.24279">
        <ele>28</ele>
        <time>2012-02-19T09:48:28Z</time>
      </trkpt>
      <trkpt lat="50.38631" lon="3.24261">
        <ele>28</ele>
        <time>2012-02-19T09:48:31Z</time>
      </trkpt>
      <trkpt lat="50.38634" lon="3.24242">
        <ele>28</ele>
        <time>2012-02-19T09:48:34Z</time>
      </trkpt>
      <trkpt lat="50.38638" lon="3.24224">
        <ele>28</ele>
        <time>2012-02-19T09:48:37Z</time>
      </trkpt>
      <trkpt lat="50.38641" lon="3.24207">
        <ele>28</ele>
        <time>2012-02-19T09:48:40Z</time>
      </trkpt>
      <trkpt lat="50.38646" lon="3.24194">
        <ele>28</ele>
        <time>2012-02-19T09:48:43Z</time>
      </trkpt>
      <trkpt lat="50.38653" lon="3.24182">
        <ele>28</ele>
        <time>2012-02-19T09:48:46Z</time>
      </trkpt>
      <trkpt lat="50.38658" lon="3.2417">
        <ele>33</ele>
        <time>2012-02-19T09:48:49Z</time>
      </trkpt>
      <trkpt lat="50.3866" lon="3.24154">
        <ele>33</ele>
        <time>2012-02-19T09:48:52Z</time>
      </trkpt>
      <trkpt lat="50.38663" lon="3.24136">
        <ele>33</ele>
        <time>2012-02-19T09:48:55Z</time>
      </trkpt>
      <trkpt lat="50.38663" lon="3.24116">
        <ele>33</ele>
        <time>2012-02-19T09:48:58Z</time>
      </trkpt>
      <trkpt lat="50.38657" lon="3.24101">
        <ele>33</ele>
        <time>2012-02-19T09:49:01Z</time>
      </trkpt>
      <trkpt lat="50.3865" lon="3.24091">
        <ele>33</ele>
        <time>2012-02-19T09:49:04Z</time>
      </trkpt>
      <trkpt lat="50.38643" lon="3.24079">
        <ele>33</ele>
        <time>2012-02-19T09:49:07Z</time>
      </trkpt>
      <trkpt lat="50.38633" lon="3.24069">
        <ele>33</ele>
        <time>2012-02-19T09:49:10Z</time>
      </trkpt>
      <trkpt lat="50.38623" lon="3.24063">
        <ele>33</ele>
        <time>2012-02-19T09:49:13Z</time>
      </trkpt>
      <trkpt lat="50.38614" lon="3.24061">
        <ele>33</ele>
        <time>2012-02-19T09:49:16Z</time>
      </trkpt>
      <trkpt lat="50.38604" lon="3.24051">
        <ele>39</ele>
        <time>2012-02-19T09:49:20Z</time>
      </trkpt>
      <trkpt lat="50.38594" lon="3.2404">
        <ele>39</ele>
        <time>2012-02-19T09:49:24Z</time>
      </trkpt>
      <trkpt lat="50.38586" lon="3.24032">
        <ele>39</ele>
        <time>2012-02-19T09:49:27Z</time>
      </trkpt>
      <trkpt lat="50.38577" lon="3.24025">
        <ele>39</ele>
        <time>2012-02-19T09:49:30Z</time>
      </trkpt>
      <trkpt lat="50.38569" lon="3.24017">
        <ele>39</ele>
        <time>2012-02-19T09:49:33Z</time>
      </trkpt>
      <trkpt lat="50.38561" lon="3.24008">
        <ele>39</ele>
        <time>2012-02-19T09:49:36Z</time>
      </trkpt>
      <trkpt lat="50.3855" lon="3.24002">
        <ele>39</ele>
        <time>2012-02-19T09:49:39Z</time>
      </trkpt>
      <trkpt lat="50.38538" lon="3.23997">
        <ele>39</ele>
        <time>2012-02-19T09:49:42Z</time>
      </trkpt>
      <trkpt lat="50.38529" lon="3.23993">
        <ele>39</ele>
        <time>2012-02-19T09:49:45Z</time>
      </trkpt>
      <trkpt lat="50.38517" lon="3.2399">
        <ele>39</ele>
        <time>2012-02-19T09:49:48Z</time>
      </trkpt>
      <trkpt lat="50.38507" lon="3.23987">
        <ele>39</ele>
        <time>2012-02-19T09:49:51Z</time>
      </trkpt>
      <trkpt lat="50.38497" lon="3.23986">
        <ele>39</ele>
        <time>2012-02-19T09:49:54Z</time>
      </trkpt>
      <trkpt lat="50.38488" lon="3.23979">
        <ele>39</ele>
        <time>2012-02-19T09:49:57Z</time>
      </trkpt>
      <trkpt lat="50.38479" lon="3.23977">
        <ele>39</ele>
        <time>2012-02-19T09:50:00Z</time>
      </trkpt>
      <trkpt lat="50.38469" lon="3.23971">
        <ele>39</ele>
        <time>2012-02-19T09:50:04Z</time>
      </trkpt>
      <trkpt lat="50.38459" lon="3.2397">
        <ele>39</ele>
        <time>2012-02-19T09:50:07Z</time>
      </trkpt>
      <trkpt lat="50.38449" lon="3.23967">
        <ele>39</ele>
        <time>2012-02-19T09:50:10Z</time>
      </trkpt>
      <trkpt lat="50.38439" lon="3.23962">
        <ele>39</ele>
        <time>2012-02-19T09:50:13Z</time>
      </trkpt>
      <trkpt lat="50.3843" lon="3.23955">
        <ele>39</ele>
        <time>2012-02-19T09:50:16Z</time>
      </trkpt>
      <trkpt lat="50.38423" lon="3.23944">
        <ele>39</ele>
        <time>2012-02-19T09:50:19Z</time>
      </trkpt>
      <trkpt lat="50.38413" lon="3.23943">
        <ele>39</ele>
        <time>2012-02-19T09:50:22Z</time>
      </trkpt>
      <trkpt lat="50.38402" lon="3.23941">
        <ele>39</ele>
        <time>2012-02-19T09:50:25Z</time>
      </trkpt>
      <trkpt lat="50.38394" lon="3.23933">
        <ele>39</ele>
        <time>2012-02-19T09:50:28Z</time>
      </trkpt>
      <trkpt lat="50.38385" lon="3.23925">
        <ele>39</ele>
        <time>2012-02-19T09:50:31Z</time>
      </trkpt>
      <trkpt lat="50.38376" lon="3.23922">
        <ele>39</ele>
        <time>2012-02-19T09:50:34Z</time>
      </trkpt>
      <trkpt lat="50.38366" lon="3.23921">
        <ele>39</ele>
        <time>2012-02-19T09:50:37Z</time>
      </trkpt>
      <trkpt lat="50.38354" lon="3.23927">
        <ele>39</ele>
        <time>2012-02-19T09:50:40Z</time>
      </trkpt>
      <trkpt lat="50.38345" lon="3.2394">
        <ele>39</ele>
        <time>2012-02-19T09:50:43Z</time>
      </trkpt>
      <trkpt lat="50.38336" lon="3.23939">
        <ele>39</ele>
        <time>2012-02-19T09:50:46Z</time>
      </trkpt>
      <trkpt lat="50.38328" lon="3.23928">
        <ele>39</ele>
        <time>2012-02-19T09:50:50Z</time>
      </trkpt>
      <trkpt lat="50.38317" lon="3.23928">
        <ele>39</ele>
        <time>2012-02-19T09:50:53Z</time>
      </trkpt>
      <trkpt lat="50.38307" lon="3.23924">
        <ele>39</ele>
        <time>2012-02-19T09:50:56Z</time>
      </trkpt>
      <trkpt lat="50.38297" lon="3.23918">
        <ele>39</ele>
        <time>2012-02-19T09:50:59Z</time>
      </trkpt>
      <trkpt lat="50.38291" lon="3.23906">
        <ele>39</ele>
        <time>2012-02-19T09:51:02Z</time>
      </trkpt>
      <trkpt lat="50.38295" lon="3.23892">
        <ele>39</ele>
        <time>2012-02-19T09:51:05Z</time>
      </trkpt>
      <trkpt lat="50.383" lon="3.23873">
        <ele>39</ele>
        <time>2012-02-19T09:51:08Z</time>
      </trkpt>
      <trkpt lat="50.38305" lon="3.23859">
        <ele>33</ele>
        <time>2012-02-19T09:51:10Z</time>
      </trkpt>
      <trkpt lat="50.38313" lon="3.23845">
        <ele>33</ele>
        <time>2012-02-19T09:51:12Z</time>
      </trkpt>
      <trkpt lat="50.38324" lon="3.23842">
        <ele>33</ele>
        <time>2012-02-19T09:51:14Z</time>
      </trkpt>
      <trkpt lat="50.38337" lon="3.23845">
        <ele>33</ele>
        <time>2012-02-19T09:51:16Z</time>
      </trkpt>
      <trkpt lat="50.38351" lon="3.23848">
        <ele>27</ele>
        <time>2012-02-19T09:51:18Z</time>
      </trkpt>
      <trkpt lat="50.38365" lon="3.23852">
        <ele>27</ele>
        <time>2012-02-19T09:51:20Z</time>
      </trkpt>
      <trkpt lat="50.38382" lon="3.23856">
        <ele>27</ele>
        <time>2012-02-19T09:51:22Z</time>
      </trkpt>
      <trkpt lat="50.38396" lon="3.2386">
        <ele>27</ele>
        <time>2012-02-19T09:51:24Z</time>
      </trkpt>
      <trkpt lat="50.38409" lon="3.23861">
        <ele>21</ele>
        <time>2012-02-19T09:51:26Z</time>
      </trkpt>
      <trkpt lat="50.38419" lon="3.23856">
        <ele>21</ele>
        <time>2012-02-19T09:51:28Z</time>
      </trkpt>
      <trkpt lat="50.38428" lon="3.23853">
        <ele>21</ele>
        <time>2012-02-19T09:51:30Z</time>
      </trkpt>
      <trkpt lat="50.38437" lon="3.23854">
        <ele>21</ele>
        <time>2012-02-19T09:51:32Z</time>
      </trkpt>
      <trkpt lat="50.38449" lon="3.23853">
        <ele>21</ele>
        <time>2012-02-19T09:51:34Z</time>
      </trkpt>
      <trkpt lat="50.38461" lon="3.23857">
        <ele>16</ele>
        <time>2012-02-19T09:51:36Z</time>
      </trkpt>
      <trkpt lat="50.38472" lon="3.23869">
        <ele>16</ele>
        <time>2012-02-19T09:51:39Z</time>
      </trkpt>
      <trkpt lat="50.38481" lon="3.23878">
        <ele>16</ele>
        <time>2012-02-19T09:51:42Z</time>
      </trkpt>
      <trkpt lat="50.38489" lon="3.23886">
        <ele>16</ele>
        <time>2012-02-19T09:51:45Z</time>
      </trkpt>
      <trkpt lat="50.38498" lon="3.23894">
        <ele>16</ele>
        <time>2012-02-19T09:51:49Z</time>
      </trkpt>
      <trkpt lat="50.38507" lon="3.23901">
        <ele>16</ele>
        <time>2012-02-19T09:51:53Z</time>
      </trkpt>
      <trkpt lat="50.38516" lon="3.23907">
        <ele>16</ele>
        <time>2012-02-19T09:51:56Z</time>
      </trkpt>
      <trkpt lat="50.38525" lon="3.23914">
        <ele>16</ele>
        <time>2012-02-19T09:51:59Z</time>
      </trkpt>
      <trkpt lat="50.38535" lon="3.23921">
        <ele>16</ele>
        <time>2012-02-19T09:52:03Z</time>
      </trkpt>
      <trkpt lat="50.38544" lon="3.23927">
        <ele>16</ele>
        <time>2012-02-19T09:52:07Z</time>
      </trkpt>
      <trkpt lat="50.38553" lon="3.23933">
        <ele>16</ele>
        <time>2012-02-19T09:52:11Z</time>
      </trkpt>
      <trkpt lat="50.38562" lon="3.23937">
        <ele>16</ele>
        <time>2012-02-19T09:52:15Z</time>
      </trkpt>
      <trkpt lat="50.38573" lon="3.23944">
        <ele>16</ele>
        <time>2012-02-19T09:52:20Z</time>
      </trkpt>
      <trkpt lat="50.38581" lon="3.23951">
        <ele>16</ele>
        <time>2012-02-19T09:52:24Z</time>
      </trkpt>
      <trkpt lat="50.38591" lon="3.23955">
        <ele>16</ele>
        <time>2012-02-19T09:52:28Z</time>
      </trkpt>
      <trkpt lat="50.38601" lon="3.23962">
        <ele>16</ele>
        <time>2012-02-19T09:52:32Z</time>
      </trkpt>
      <trkpt lat="50.3861" lon="3.23971">
        <ele>16</ele>
        <time>2012-02-19T09:52:36Z</time>
      </trkpt>
      <trkpt lat="50.38619" lon="3.23976">
        <ele>16</ele>
        <time>2012-02-19T09:52:40Z</time>
      </trkpt>
      <trkpt lat="50.38629" lon="3.23979">
        <ele>16</ele>
        <time>2012-02-19T09:52:43Z</time>
      </trkpt>
      <trkpt lat="50.38637" lon="3.23987">
        <ele>16</ele>
        <time>2012-02-19T09:52:46Z</time>
      </trkpt>
      <trkpt lat="50.38645" lon="3.23997">
        <ele>16</ele>
        <time>2012-02-19T09:52:50Z</time>
      </trkpt>
      <trkpt lat="50.38653" lon="3.24008">
        <ele>16</ele>
        <time>2012-02-19T09:52:53Z</time>
      </trkpt>
      <trkpt lat="50.38659" lon="3.24018">
        <ele>16</ele>
        <time>2012-02-19T09:52:56Z</time>
      </trkpt>
      <trkpt lat="50.38666" lon="3.2403">
        <ele>16</ele>
        <time>2012-02-19T09:53:00Z</time>
      </trkpt>
      <trkpt lat="50.38674" lon="3.2404">
        <ele>16</ele>
        <time>2012-02-19T09:53:05Z</time>
      </trkpt>
      <trkpt lat="50.3868" lon="3.24055">
        <ele>16</ele>
        <time>2012-02-19T09:53:10Z</time>
      </trkpt>
      <trkpt lat="50.38686" lon="3.24069">
        <ele>16</ele>
        <time>2012-02-19T09:53:15Z</time>
      </trkpt>
      <trkpt lat="50.38695" lon="3.24063">
        <ele>16</ele>
        <time>2012-02-19T09:53:19Z</time>
      </trkpt>
      <trkpt lat="50.38702" lon="3.24052">
        <ele>16</ele>
        <time>2012-02-19T09:53:22Z</time>
      </trkpt>
      <trkpt lat="50.38708" lon="3.24037">
        <ele>16</ele>
        <time>2012-02-19T09:53:25Z</time>
      </trkpt>
      <trkpt lat="50.38712" lon="3.24019">
        <ele>16</ele>
        <time>2012-02-19T09:53:28Z</time>
      </trkpt>
      <trkpt lat="50.38718" lon="3.24001">
        <ele>16</ele>
        <time>2012-02-19T09:53:31Z</time>
      </trkpt>
      <trkpt lat="50.38722" lon="3.23982">
        <ele>16</ele>
        <time>2012-02-19T09:53:34Z</time>
      </trkpt>
      <trkpt lat="50.38724" lon="3.23968">
        <ele>16</ele>
        <time>2012-02-19T09:53:36Z</time>
      </trkpt>
      <trkpt lat="50.38728" lon="3.23949">
        <ele>16</ele>
        <time>2012-02-19T09:53:39Z</time>
      </trkpt>
      <trkpt lat="50.38731" lon="3.23935">
        <ele>16</ele>
        <time>2012-02-19T09:53:41Z</time>
      </trkpt>
      <trkpt lat="50.38733" lon="3.23922">
        <ele>16</ele>
        <time>2012-02-19T09:53:43Z</time>
      </trkpt>
      <trkpt lat="50.38735" lon="3.23907">
        <ele>16</ele>
        <time>2012-02-19T09:53:45Z</time>
      </trkpt>
      <trkpt lat="50.38737" lon="3.23893">
        <ele>16</ele>
        <time>2012-02-19T09:53:47Z</time>
      </trkpt>
      <trkpt lat="50.38739" lon="3.2388">
        <ele>16</ele>
        <time>2012-02-19T09:53:49Z</time>
      </trkpt>
      <trkpt lat="50.38744" lon="3.23866">
        <ele>16</ele>
        <time>2012-02-19T09:53:51Z</time>
      </trkpt>
      <trkpt lat="50.38747" lon="3.23851">
        <ele>16</ele>
        <time>2012-02-19T09:53:53Z</time>
      </trkpt>
      <trkpt lat="50.38749" lon="3.23836">
        <ele>16</ele>
        <time>2012-02-19T09:53:55Z</time>
      </trkpt>
      <trkpt lat="50.38752" lon="3.23819">
        <ele>16</ele>
        <time>2012-02-19T09:53:57Z</time>
      </trkpt>
      <trkpt lat="50.38754" lon="3.23804">
        <ele>16</ele>
        <time>2012-02-19T09:53:59Z</time>
      </trkpt>
      <trkpt lat="50.38757" lon="3.23789">
        <ele>16</ele>
        <time>2012-02-19T09:54:01Z</time>
      </trkpt>
      <trkpt lat="50.38761" lon="3.23773">
        <ele>16</ele>
        <time>2012-02-19T09:54:03Z</time>
      </trkpt>
      <trkpt lat="50.38763" lon="3.23757">
        <ele>16</ele>
        <time>2012-02-19T09:54:05Z</time>
      </trkpt>
      <trkpt lat="50.38766" lon="3.23742">
        <ele>16</ele>
        <time>2012-02-19T09:54:07Z</time>
      </trkpt>
      <trkpt lat="50.38768" lon="3.23727">
        <ele>16</ele>
        <time>2012-02-19T09:54:09Z</time>
      </trkpt>
      <trkpt lat="50.38769" lon="3.23711">
        <ele>16</ele>
        <time>2012-02-19T09:54:11Z</time>
      </trkpt>
      <trkpt lat="50.38766" lon="3.23694">
        <ele>16</ele>
        <time>2012-02-19T09:54:13Z</time>
      </trkpt>
      <trkpt lat="50.38761" lon="3.23679">
        <ele>16</ele>
        <time>2012-02-19T09:54:15Z</time>
      </trkpt>
      <trkpt lat="50.38754" lon="3.23666">
        <ele>16</ele>
        <time>2012-02-19T09:54:17Z</time>
      </trkpt>
      <trkpt lat="50.38749" lon="3.23652">
        <ele>16</ele>
        <time>2012-02-19T09:54:19Z</time>
      </trkpt>
      <trkpt lat="50.38743" lon="3.23637">
        <ele>16</ele>
        <time>2012-02-19T09:54:21Z</time>
      </trkpt>
      <trkpt lat="50.38739" lon="3.23622">
        <ele>16</ele>
        <time>2012-02-19T09:54:23Z</time>
      </trkpt>
      <trkpt lat="50.38737" lon="3.23605">
        <ele>16</ele>
        <time>2012-02-19T09:54:25Z</time>
      </trkpt>
      <trkpt lat="50.38736" lon="3.23588">
        <ele>16</ele>
        <time>2012-02-19T09:54:27Z</time>
      </trkpt>
      <trkpt lat="50.38734" lon="3.23571">
        <ele>16</ele>
        <time>2012-02-19T09:54:29Z</time>
      </trkpt>
      <trkpt lat="50.38733" lon="3.23553">
        <ele>16</ele>
        <time>2012-02-19T09:54:31Z</time>
      </trkpt>
      <trkpt lat="50.38731" lon="3.23536">
        <ele>16</ele>
        <time>2012-02-19T09:54:33Z</time>
      </trkpt>
      <trkpt lat="50.38729" lon="3.23519">
        <ele>16</ele>
        <time>2012-02-19T09:54:35Z</time>
      </trkpt>
      <trkpt lat="50.38727" lon="3.23502">
        <ele>16</ele>
        <time>2012-02-19T09:54:37Z</time>
      </trkpt>
      <trkpt lat="50.38725" lon="3.23485">
        <ele>16</ele>
        <time>2012-02-19T09:54:39Z</time>
      </trkpt>
      <trkpt lat="50.38723" lon="3.23468">
        <ele>16</ele>
        <time>2012-02-19T09:54:41Z</time>
      </trkpt>
      <trkpt lat="50.3872" lon="3.23451">
        <ele>16</ele>
        <time>2012-02-19T09:54:43Z</time>
      </trkpt>
      <trkpt lat="50.38719" lon="3.23436">
        <ele>16</ele>
        <time>2012-02-19T09:54:45Z</time>
      </trkpt>
      <trkpt lat="50.38724" lon="3.23421">
        <ele>16</ele>
        <time>2012-02-19T09:54:48Z</time>
      </trkpt>
      <trkpt lat="50.38732" lon="3.23431">
        <ele>16</ele>
        <time>2012-02-19T09:54:52Z</time>
      </trkpt>
      <trkpt lat="50.38735" lon="3.23451">
        <ele>16</ele>
        <time>2012-02-19T09:54:55Z</time>
      </trkpt>
      <trkpt lat="50.38737" lon="3.23466">
        <ele>16</ele>
        <time>2012-02-19T09:54:57Z</time>
      </trkpt>
      <trkpt lat="50.38739" lon="3.23482">
        <ele>16</ele>
        <time>2012-02-19T09:54:59Z</time>
      </trkpt>
      <trkpt lat="50.38741" lon="3.23499">
        <ele>16</ele>
        <time>2012-02-19T09:55:01Z</time>
      </trkpt>
      <trkpt lat="50.38742" lon="3.23515">
        <ele>16</ele>
        <time>2012-02-19T09:55:03Z</time>
      </trkpt>
      <trkpt lat="50.38745" lon="3.23532">
        <ele>16</ele>
        <time>2012-02-19T09:55:05Z</time>
      </trkpt>
      <trkpt lat="50.38747" lon="3.23547">
        <ele>16</ele>
        <time>2012-02-19T09:55:07Z</time>
      </trkpt>
      <trkpt lat="50.38749" lon="3.23563">
        <ele>16</ele>
        <time>2012-02-19T09:55:09Z</time>
      </trkpt>
      <trkpt lat="50.3875" lon="3.23579">
        <ele>16</ele>
        <time>2012-02-19T09:55:11Z</time>
      </trkpt>
      <trkpt lat="50.38753" lon="3.23594">
        <ele>16</ele>
        <time>2012-02-19T09:55:13Z</time>
      </trkpt>
      <trkpt lat="50.38759" lon="3.23606">
        <ele>16</ele>
        <time>2012-02-19T09:55:15Z</time>
      </trkpt>
      <trkpt lat="50.38768" lon="3.23614">
        <ele>16</ele>
        <time>2012-02-19T09:55:17Z</time>
      </trkpt>
      <trkpt lat="50.38777" lon="3.23613">
        <ele>16</ele>
        <time>2012-02-19T09:55:19Z</time>
      </trkpt>
      <trkpt lat="50.38785" lon="3.23605">
        <ele>16</ele>
        <time>2012-02-19T09:55:21Z</time>
      </trkpt>
      <trkpt lat="50.3879" lon="3.23593">
        <ele>16</ele>
        <time>2012-02-19T09:55:23Z</time>
      </trkpt>
      <trkpt lat="50.38796" lon="3.2358">
        <ele>16</ele>
        <time>2012-02-19T09:55:25Z</time>
      </trkpt>
      <trkpt lat="50.38803" lon="3.2357">
        <ele>16</ele>
        <time>2012-02-19T09:55:27Z</time>
      </trkpt>
      <trkpt lat="50.38812" lon="3.23564">
        <ele>16</ele>
        <time>2012-02-19T09:55:29Z</time>
      </trkpt>
      <trkpt lat="50.38821" lon="3.23561">
        <ele>16</ele>
        <time>2012-02-19T09:55:31Z</time>
      </trkpt>
      <trkpt lat="50.38834" lon="3.23561">
        <ele>16</ele>
        <time>2012-02-19T09:55:34Z</time>
      </trkpt>
      <trkpt lat="50.38843" lon="3.23562">
        <ele>16</ele>
        <time>2012-02-19T09:55:36Z</time>
      </trkpt>
      <trkpt lat="50.38853" lon="3.23562">
        <ele>16</ele>
        <time>2012-02-19T09:55:38Z</time>
      </trkpt>
      <trkpt lat="50.38862" lon="3.23562">
        <ele>16</ele>
        <time>2012-02-19T09:55:40Z</time>
      </trkpt>
      <trkpt lat="50.3887" lon="3.23557">
        <ele>16</ele>
        <time>2012-02-19T09:55:42Z</time>
      </trkpt>
      <trkpt lat="50.38878" lon="3.23545">
        <ele>16</ele>
        <time>2012-02-19T09:55:44Z</time>
      </trkpt>
      <trkpt lat="50.38886" lon="3.23531">
        <ele>16</ele>
        <time>2012-02-19T09:55:46Z</time>
      </trkpt>
      <trkpt lat="50.38893" lon="3.23518">
        <ele>16</ele>
        <time>2012-02-19T09:55:48Z</time>
      </trkpt>
      <trkpt lat="50.38901" lon="3.23502">
        <ele>16</ele>
        <time>2012-02-19T09:55:50Z</time>
      </trkpt>
      <trkpt lat="50.38908" lon="3.23488">
        <ele>16</ele>
        <time>2012-02-19T09:55:52Z</time>
      </trkpt>
      <trkpt lat="50.38915" lon="3.23473">
        <ele>16</ele>
        <time>2012-02-19T09:55:54Z</time>
      </trkpt>
      <trkpt lat="50.38921" lon="3.23458">
        <ele>16</ele>
        <time>2012-02-19T09:55:56Z</time>
      </trkpt>
      <trkpt lat="50.38927" lon="3.23443">
        <ele>16</ele>
        <time>2012-02-19T09:55:58Z</time>
      </trkpt>
      <trkpt lat="50.38932" lon="3.23428">
        <ele>16</ele>
        <time>2012-02-19T09:56:00Z</time>
      </trkpt>
      <trkpt lat="50.38936" lon="3.23412">
        <ele>16</ele>
        <time>2012-02-19T09:56:02Z</time>
      </trkpt>
      <trkpt lat="50.3894" lon="3.23398">
        <ele>16</ele>
        <time>2012-02-19T09:56:04Z</time>
      </trkpt>
      <trkpt lat="50.38946" lon="3.2338">
        <ele>16</ele>
        <time>2012-02-19T09:56:07Z</time>
      </trkpt>
      <trkpt lat="50.3895" lon="3.23364">
        <ele>16</ele>
        <time>2012-02-19T09:56:10Z</time>
      </trkpt>
      <trkpt lat="50.38956" lon="3.23345">
        <ele>16</ele>
        <time>2012-02-19T09:56:13Z</time>
      </trkpt>
      <trkpt lat="50.38961" lon="3.2333">
        <ele>16</ele>
        <time>2012-02-19T09:56:15Z</time>
      </trkpt>
      <trkpt lat="50.38968" lon="3.23315">
        <ele>16</ele>
        <time>2012-02-19T09:56:17Z</time>
      </trkpt>
      <trkpt lat="50.38976" lon="3.23301">
        <ele>16</ele>
        <time>2012-02-19T09:56:19Z</time>
      </trkpt>
      <trkpt lat="50.38985" lon="3.23288">
        <ele>16</ele>
        <time>2012-02-19T09:56:21Z</time>
      </trkpt>
      <trkpt lat="50.38994" lon="3.23276">
        <ele>16</ele>
        <time>2012-02-19T09:56:23Z</time>
      </trkpt>
      <trkpt lat="50.39004" lon="3.23261">
        <ele>16</ele>
        <time>2012-02-19T09:56:25Z</time>
      </trkpt>
      <trkpt lat="50.39011" lon="3.23247">
        <ele>16</ele>
        <time>2012-02-19T09:56:27Z</time>
      </trkpt>
      <trkpt lat="50.39021" lon="3.23234">
        <ele>16</ele>
        <time>2012-02-19T09:56:29Z</time>
      </trkpt>
      <trkpt lat="50.3903" lon="3.2322">
        <ele>16</ele>
        <time>2012-02-19T09:56:31Z</time>
      </trkpt>
      <trkpt lat="50.39039" lon="3.23207">
        <ele>16</ele>
        <time>2012-02-19T09:56:33Z</time>
      </trkpt>
      <trkpt lat="50.39049" lon="3.23194">
        <ele>16</ele>
        <time>2012-02-19T09:56:35Z</time>
      </trkpt>
      <trkpt lat="50.39058" lon="3.23182">
        <ele>16</ele>
        <time>2012-02-19T09:56:37Z</time>
      </trkpt>
      <trkpt lat="50.39068" lon="3.23172">
        <ele>16</ele>
        <time>2012-02-19T09:56:39Z</time>
      </trkpt>
      <trkpt lat="50.39078" lon="3.23162">
        <ele>16</ele>
        <time>2012-02-19T09:56:41Z</time>
      </trkpt>
      <trkpt lat="50.3909" lon="3.23155">
        <ele>16</ele>
        <time>2012-02-19T09:56:43Z</time>
      </trkpt>
      <trkpt lat="50.39101" lon="3.2315">
        <ele>16</ele>
        <time>2012-02-19T09:56:45Z</time>
      </trkpt>
      <trkpt lat="50.39113" lon="3.23147">
        <ele>16</ele>
        <time>2012-02-19T09:56:47Z</time>
      </trkpt>
      <trkpt lat="50.39124" lon="3.23145">
        <ele>16</ele>
        <time>2012-02-19T09:56:49Z</time>
      </trkpt>
      <trkpt lat="50.39135" lon="3.23143">
        <ele>16</ele>
        <time>2012-02-19T09:56:51Z</time>
      </trkpt>
      <trkpt lat="50.39145" lon="3.23142">
        <ele>21</ele>
        <time>2012-02-19T09:56:53Z</time>
      </trkpt>
      <trkpt lat="50.39156" lon="3.23139">
        <ele>21</ele>
        <time>2012-02-19T09:56:56Z</time>
      </trkpt>
      <trkpt lat="50.39168" lon="3.23136">
        <ele>21</ele>
        <time>2012-02-19T09:56:59Z</time>
      </trkpt>
      <trkpt lat="50.39175" lon="3.23127">
        <ele>21</ele>
        <time>2012-02-19T09:57:01Z</time>
      </trkpt>
      <trkpt lat="50.3918" lon="3.23114">
        <ele>21</ele>
        <time>2012-02-19T09:57:03Z</time>
      </trkpt>
      <trkpt lat="50.39185" lon="3.23102">
        <ele>21</ele>
        <time>2012-02-19T09:57:05Z</time>
      </trkpt>
      <trkpt lat="50.39188" lon="3.23086">
        <ele>21</ele>
        <time>2012-02-19T09:57:07Z</time>
      </trkpt>
      <trkpt lat="50.39191" lon="3.23071">
        <ele>21</ele>
        <time>2012-02-19T09:57:09Z</time>
      </trkpt>
      <trkpt lat="50.39194" lon="3.23055">
        <ele>21</ele>
        <time>2012-02-19T09:57:11Z</time>
      </trkpt>
      <trkpt lat="50.39198" lon="3.23038">
        <ele>21</ele>
        <time>2012-02-19T09:57:13Z</time>
      </trkpt>
      <trkpt lat="50.39203" lon="3.23022">
        <ele>21</ele>
        <time>2012-02-19T09:57:15Z</time>
      </trkpt>
      <trkpt lat="50.3921" lon="3.23007">
        <ele>21</ele>
        <time>2012-02-19T09:57:17Z</time>
      </trkpt>
      <trkpt lat="50.39218" lon="3.22994">
        <ele>21</ele>
        <time>2012-02-19T09:57:19Z</time>
      </trkpt>
      <trkpt lat="50.39226" lon="3.22981">
        <ele>21</ele>
        <time>2012-02-19T09:57:21Z</time>
      </trkpt>
      <trkpt lat="50.3923" lon="3.22967">
        <ele>21</ele>
        <time>2012-02-19T09:57:23Z</time>
      </trkpt>
      <trkpt lat="50.39227" lon="3.22953">
        <ele>21</ele>
        <time>2012-02-19T09:57:25Z</time>
      </trkpt>
      <trkpt lat="50.39219" lon="3.22944">
        <ele>21</ele>
        <time>2012-02-19T09:57:27Z</time>
      </trkpt>
      <trkpt lat="50.3921" lon="3.22938">
        <ele>21</ele>
        <time>2012-02-19T09:57:29Z</time>
      </trkpt>
      <trkpt lat="50.39199" lon="3.2294">
        <ele>21</ele>
        <time>2012-02-19T09:57:31Z</time>
      </trkpt>
      <trkpt lat="50.39188" lon="3.22946">
        <ele>21</ele>
        <time>2012-02-19T09:57:33Z</time>
      </trkpt>
      <trkpt lat="50.39177" lon="3.22952">
        <ele>21</ele>
        <time>2012-02-19T09:57:35Z</time>
      </trkpt>
      <trkpt lat="50.39166" lon="3.22951">
        <ele>21</ele>
        <time>2012-02-19T09:57:37Z</time>
      </trkpt>
      <trkpt lat="50.39155" lon="3.22946">
        <ele>21</ele>
        <time>2012-02-19T09:57:39Z</time>
      </trkpt>
      <trkpt lat="50.39144" lon="3.22938">
        <ele>21</ele>
        <time>2012-02-19T09:57:41Z</time>
      </trkpt>
      <trkpt lat="50.39134" lon="3.22929">
        <ele>21</ele>
        <time>2012-02-19T09:57:43Z</time>
      </trkpt>
      <trkpt lat="50.39124" lon="3.22917">
        <ele>21</ele>
        <time>2012-02-19T09:57:45Z</time>
      </trkpt>
      <trkpt lat="50.39113" lon="3.22905">
        <ele>21</ele>
        <time>2012-02-19T09:57:47Z</time>
      </trkpt>
      <trkpt lat="50.39102" lon="3.22892">
        <ele>21</ele>
        <time>2012-02-19T09:57:49Z</time>
      </trkpt>
      <trkpt lat="50.3909" lon="3.2288">
        <ele>21</ele>
        <time>2012-02-19T09:57:51Z</time>
      </trkpt>
      <trkpt lat="50.39079" lon="3.22869">
        <ele>21</ele>
        <time>2012-02-19T09:57:53Z</time>
      </trkpt>
      <trkpt lat="50.39068" lon="3.22858">
        <ele>21</ele>
        <time>2012-02-19T09:57:55Z</time>
      </trkpt>
      <trkpt lat="50.39057" lon="3.22848">
        <ele>21</ele>
        <time>2012-02-19T09:57:57Z</time>
      </trkpt>
      <trkpt lat="50.39046" lon="3.22838">
        <ele>21</ele>
        <time>2012-02-19T09:57:59Z</time>
      </trkpt>
      <trkpt lat="50.39036" lon="3.22826">
        <ele>21</ele>
        <time>2012-02-19T09:58:01Z</time>
      </trkpt>
      <trkpt lat="50.39027" lon="3.22812">
        <ele>21</ele>
        <time>2012-02-19T09:58:03Z</time>
      </trkpt>
      <trkpt lat="50.3902" lon="3.22798">
        <ele>21</ele>
        <time>2012-02-19T09:58:05Z</time>
      </trkpt>
      <trkpt lat="50.39015" lon="3.22784">
        <ele>21</ele>
        <time>2012-02-19T09:58:07Z</time>
      </trkpt>
      <trkpt lat="50.39009" lon="3.22769">
        <ele>21</ele>
        <time>2012-02-19T09:58:09Z</time>
      </trkpt>
      <trkpt lat="50.39004" lon="3.22758">
        <ele>21</ele>
        <time>2012-02-19T09:58:11Z</time>
      </trkpt>
      <trkpt lat="50.39" lon="3.22745">
        <ele>21</ele>
        <time>2012-02-19T09:58:13Z</time>
      </trkpt>
      <trkpt lat="50.38998" lon="3.22731">
        <ele>21</ele>
        <time>2012-02-19T09:58:15Z</time>
      </trkpt>
      <trkpt lat="50.38997" lon="3.22715">
        <ele>21</ele>
        <time>2012-02-19T09:58:17Z</time>
      </trkpt>
      <trkpt lat="50.38997" lon="3.22701">
        <ele>21</ele>
        <time>2012-02-19T09:58:19Z</time>
      </trkpt>
      <trkpt lat="50.38997" lon="3.22685">
        <ele>21</ele>
        <time>2012-02-19T09:58:21Z</time>
      </trkpt>
      <trkpt lat="50.38997" lon="3.2267">
        <ele>21</ele>
        <time>2012-02-19T09:58:23Z</time>
      </trkpt>
      <trkpt lat="50.38998" lon="3.22654">
        <ele>21</ele>
        <time>2012-02-19T09:58:25Z</time>
      </trkpt>
      <trkpt lat="50.39" lon="3.22639">
        <ele>21</ele>
        <time>2012-02-19T09:58:27Z</time>
      </trkpt>
      <trkpt lat="50.39002" lon="3.22624">
        <ele>21</ele>
        <time>2012-02-19T09:58:29Z</time>
      </trkpt>
      <trkpt lat="50.39004" lon="3.22609">
        <ele>16</ele>
        <time>2012-02-19T09:58:31Z</time>
      </trkpt>
      <trkpt lat="50.39004" lon="3.22595">
        <ele>16</ele>
        <time>2012-02-19T09:58:33Z</time>
      </trkpt>
      <trkpt lat="50.39002" lon="3.2258">
        <ele>16</ele>
        <time>2012-02-19T09:58:35Z</time>
      </trkpt>
      <trkpt lat="50.38999" lon="3.22565">
        <ele>16</ele>
        <time>2012-02-19T09:58:37Z</time>
      </trkpt>
      <trkpt lat="50.38997" lon="3.22552">
        <ele>16</ele>
        <time>2012-02-19T09:58:39Z</time>
      </trkpt>
      <trkpt lat="50.38994" lon="3.22537">
        <ele>16</ele>
        <time>2012-02-19T09:58:41Z</time>
      </trkpt>
      <trkpt lat="50.38993" lon="3.22523">
        <ele>16</ele>
        <time>2012-02-19T09:58:43Z</time>
      </trkpt>
      <trkpt lat="50.38993" lon="3.22509">
        <ele>16</ele>
        <time>2012-02-19T09:58:45Z</time>
      </trkpt>
      <trkpt lat="50.38994" lon="3.22489">
        <ele>16</ele>
        <time>2012-02-19T09:58:48Z</time>
      </trkpt>
      <trkpt lat="50.38997" lon="3.22469">
        <ele>16</ele>
        <time>2012-02-19T09:58:51Z</time>
      </trkpt>
      <trkpt lat="50.38999" lon="3.22448">
        <ele>16</ele>
        <time>2012-02-19T09:58:54Z</time>
      </trkpt>
      <trkpt lat="50.39001" lon="3.22432">
        <ele>16</ele>
        <time>2012-02-19T09:58:56Z</time>
      </trkpt>
      <trkpt lat="50.39003" lon="3.22417">
        <ele>16</ele>
        <time>2012-02-19T09:58:58Z</time>
      </trkpt>
      <trkpt lat="50.39004" lon="3.22402">
        <ele>16</ele>
        <time>2012-02-19T09:59:00Z</time>
      </trkpt>
      <trkpt lat="50.39005" lon="3.22387">
        <ele>16</ele>
        <time>2012-02-19T09:59:02Z</time>
      </trkpt>
      <trkpt lat="50.39007" lon="3.22371">
        <ele>16</ele>
        <time>2012-02-19T09:59:04Z</time>
      </trkpt>
      <trkpt lat="50.39008" lon="3.22356">
        <ele>16</ele>
        <time>2012-02-19T09:59:06Z</time>
      </trkpt>
      <trkpt lat="50.39009" lon="3.22341">
        <ele>16</ele>
        <time>2012-02-19T09:59:08Z</time>
      </trkpt>
      <trkpt lat="50.39011" lon="3.22325">
        <ele>16</ele>
        <time>2012-02-19T09:59:10Z</time>
      </trkpt>
      <trkpt lat="50.39012" lon="3.2231">
        <ele>16</ele>
        <time>2012-02-19T09:59:12Z</time>
      </trkpt>
      <trkpt lat="50.39013" lon="3.22296">
        <ele>16</ele>
        <time>2012-02-19T09:59:14Z</time>
      </trkpt>
      <trkpt lat="50.39014" lon="3.22275">
        <ele>16</ele>
        <time>2012-02-19T09:59:17Z</time>
      </trkpt>
      <trkpt lat="50.39014" lon="3.22255">
        <ele>16</ele>
        <time>2012-02-19T09:59:20Z</time>
      </trkpt>
      <trkpt lat="50.39015" lon="3.22241">
        <ele>16</ele>
        <time>2012-02-19T09:59:22Z</time>
      </trkpt>
      <trkpt lat="50.39016" lon="3.22221">
        <ele>16</ele>
        <time>2012-02-19T09:59:25Z</time>
      </trkpt>
      <trkpt lat="50.39016" lon="3.22202">
        <ele>16</ele>
        <time>2012-02-19T09:59:28Z</time>
      </trkpt>
      <trkpt lat="50.39016" lon="3.22185">
        <ele>16</ele>
        <time>2012-02-19T09:59:31Z</time>
      </trkpt>
      <trkpt lat="50.39016" lon="3.2217">
        <ele>16</ele>
        <time>2012-02-19T09:59:34Z</time>
      </trkpt>
      <trkpt lat="50.39016" lon="3.22153">
        <ele>16</ele>
        <time>2012-02-19T09:59:37Z</time>
      </trkpt>
      <trkpt lat="50.39016" lon="3.22136">
        <ele>16</ele>
        <time>2012-02-19T09:59:40Z</time>
      </trkpt>
      <trkpt lat="50.39016" lon="3.22121">
        <ele>16</ele>
        <time>2012-02-19T09:59:43Z</time>
      </trkpt>
      <trkpt lat="50.39017" lon="3.22106">
        <ele>16</ele>
        <time>2012-02-19T09:59:46Z</time>
      </trkpt>
      <trkpt lat="50.39017" lon="3.2209">
        <ele>16</ele>
        <time>2012-02-19T09:59:50Z</time>
      </trkpt>
      <trkpt lat="50.39017" lon="3.22074">
        <ele>16</ele>
        <time>2012-02-19T09:59:54Z</time>
      </trkpt>
      <trkpt lat="50.39017" lon="3.2206">
        <ele>16</ele>
        <time>2012-02-19T09:59:57Z</time>
      </trkpt>
      <trkpt lat="50.39018" lon="3.22042">
        <ele>16</ele>
        <time>2012-02-19T10:00:01Z</time>
      </trkpt>
      <trkpt lat="50.39018" lon="3.22024">
        <ele>16</ele>
        <time>2012-02-19T10:00:05Z</time>
      </trkpt>
      <trkpt lat="50.39018" lon="3.22006">
        <ele>16</ele>
        <time>2012-02-19T10:00:09Z</time>
      </trkpt>
      <trkpt lat="50.39018" lon="3.21991">
        <ele>16</ele>
        <time>2012-02-19T10:00:12Z</time>
      </trkpt>
      <trkpt lat="50.39018" lon="3.21975">
        <ele>16</ele>
        <time>2012-02-19T10:00:15Z</time>
      </trkpt>
      <trkpt lat="50.39018" lon="3.21961">
        <ele>16</ele>
        <time>2012-02-19T10:00:18Z</time>
      </trkpt>
      <trkpt lat="50.39018" lon="3.21945">
        <ele>16</ele>
        <time>2012-02-19T10:00:21Z</time>
      </trkpt>
      <trkpt lat="50.39018" lon="3.21928">
        <ele>16</ele>
        <time>2012-02-19T10:00:24Z</time>
      </trkpt>
      <trkpt lat="50.39018" lon="3.21914">
        <ele>16</ele>
        <time>2012-02-19T10:00:27Z</time>
      </trkpt>
      <trkpt lat="50.39018" lon="3.21897">
        <ele>16</ele>
        <time>2012-02-19T10:00:30Z</time>
      </trkpt>
      <trkpt lat="50.39017" lon="3.21879">
        <ele>16</ele>
        <time>2012-02-19T10:00:33Z</time>
      </trkpt>
      <trkpt lat="50.39017" lon="3.21861">
        <ele>16</ele>
        <time>2012-02-19T10:00:36Z</time>
      </trkpt>
      <trkpt lat="50.39017" lon="3.21844">
        <ele>16</ele>
        <time>2012-02-19T10:00:39Z</time>
      </trkpt>
      <trkpt lat="50.39017" lon="3.21826">
        <ele>16</ele>
        <time>2012-02-19T10:00:42Z</time>
      </trkpt>
      <trkpt lat="50.39018" lon="3.21808">
        <ele>16</ele>
        <time>2012-02-19T10:00:45Z</time>
      </trkpt>
      <trkpt lat="50.39018" lon="3.21792">
        <ele>16</ele>
        <time>2012-02-19T10:00:48Z</time>
      </trkpt>
      <trkpt lat="50.39018" lon="3.21777">
        <ele>16</ele>
        <time>2012-02-19T10:00:51Z</time>
      </trkpt>
      <trkpt lat="50.39019" lon="3.21763">
        <ele>16</ele>
        <time>2012-02-19T10:00:54Z</time>
      </trkpt>
      <trkpt lat="50.3902" lon="3.21749">
        <ele>16</ele>
        <time>2012-02-19T10:00:57Z</time>
      </trkpt>
      <trkpt lat="50.3902" lon="3.21734">
        <ele>16</ele>
        <time>2012-02-19T10:01:00Z</time>
      </trkpt>
      <trkpt lat="50.3902" lon="3.2172">
        <ele>16</ele>
        <time>2012-02-19T10:01:03Z</time>
      </trkpt>
      <trkpt lat="50.3902" lon="3.21705">
        <ele>16</ele>
        <time>2012-02-19T10:01:06Z</time>
      </trkpt>
      <trkpt lat="50.39019" lon="3.21689">
        <ele>16</ele>
        <time>2012-02-19T10:01:09Z</time>
      </trkpt>
      <trkpt lat="50.3902" lon="3.21671">
        <ele>16</ele>
        <time>2012-02-19T10:01:12Z</time>
      </trkpt>
      <trkpt lat="50.3902" lon="3.21655">
        <ele>16</ele>
        <time>2012-02-19T10:01:15Z</time>
      </trkpt>
      <trkpt lat="50.39021" lon="3.2164">
        <ele>16</ele>
        <time>2012-02-19T10:01:18Z</time>
      </trkpt>
      <trkpt lat="50.39021" lon="3.21624">
        <ele>16</ele>
        <time>2012-02-19T10:01:21Z</time>
      </trkpt>
      <trkpt lat="50.3902" lon="3.21608">
        <ele>16</ele>
        <time>2012-02-19T10:01:24Z</time>
      </trkpt>
      <trkpt lat="50.39017" lon="3.21592">
        <ele>16</ele>
        <time>2012-02-19T10:01:27Z</time>
      </trkpt>
      <trkpt lat="50.39017" lon="3.21576">
        <ele>16</ele>
        <time>2012-02-19T10:01:30Z</time>
      </trkpt>
      <trkpt lat="50.39019" lon="3.21561">
        <ele>16</ele>
        <time>2012-02-19T10:01:33Z</time>
      </trkpt>
      <trkpt lat="50.39021" lon="3.21546">
        <ele>16</ele>
        <time>2012-02-19T10:01:36Z</time>
      </trkpt>
      <trkpt lat="50.39021" lon="3.2153">
        <ele>16</ele>
        <time>2012-02-19T10:01:39Z</time>
      </trkpt>
      <trkpt lat="50.39022" lon="3.21516">
        <ele>16</ele>
        <time>2012-02-19T10:01:42Z</time>
      </trkpt>
      <trkpt lat="50.39022" lon="3.21501">
        <ele>16</ele>
        <time>2012-02-19T10:01:45Z</time>
      </trkpt>
      <trkpt lat="50.39022" lon="3.21485">
        <ele>16</ele>
        <time>2012-02-19T10:01:48Z</time>
      </trkpt>
      <trkpt lat="50.39022" lon="3.2147">
        <ele>16</ele>
        <time>2012-02-19T10:01:51Z</time>
      </trkpt>
      <trkpt lat="50.39022" lon="3.21454">
        <ele>16</ele>
        <time>2012-02-19T10:01:54Z</time>
      </trkpt>
      <trkpt lat="50.39022" lon="3.21439">
        <ele>16</ele>
        <time>2012-02-19T10:01:57Z</time>
      </trkpt>
      <trkpt lat="50.39022" lon="3.21423">
        <ele>16</ele>
        <time>2012-02-19T10:02:00Z</time>
      </trkpt>
      <trkpt lat="50.39022" lon="3.21406">
        <ele>16</ele>
        <time>2012-02-19T10:02:03Z</time>
      </trkpt>
      <trkpt lat="50.39021" lon="3.21389">
        <ele>16</ele>
        <time>2012-02-19T10:02:06Z</time>
      </trkpt>
      <trkpt lat="50.39022" lon="3.21374">
        <ele>16</ele>
        <time>2012-02-19T10:02:09Z</time>
      </trkpt>
      <trkpt lat="50.39022" lon="3.21359">
        <ele>16</ele>
        <time>2012-02-19T10:02:12Z</time>
      </trkpt>
      <trkpt lat="50.39022" lon="3.21341">
        <ele>16</ele>
        <time>2012-02-19T10:02:16Z</time>
      </trkpt>
      <trkpt lat="50.39023" lon="3.21323">
        <ele>16</ele>
        <time>2012-02-19T10:02:20Z</time>
      </trkpt>
      <trkpt lat="50.39024" lon="3.21305">
        <ele>16</ele>
        <time>2012-02-19T10:02:24Z</time>
      </trkpt>
      <trkpt lat="50.39023" lon="3.21287">
        <ele>16</ele>
        <time>2012-02-19T10:02:28Z</time>
      </trkpt>
      <trkpt lat="50.39023" lon="3.21269">
        <ele>16</ele>
        <time>2012-02-19T10:02:32Z</time>
      </trkpt>
      <trkpt lat="50.39023" lon="3.21255">
        <ele>16</ele>
        <time>2012-02-19T10:02:35Z</time>
      </trkpt>
      <trkpt lat="50.39023" lon="3.21236">
        <ele>16</ele>
        <time>2012-02-19T10:02:39Z</time>
      </trkpt>
      <trkpt lat="50.39024" lon="3.21221">
        <ele>16</ele>
        <time>2012-02-19T10:02:42Z</time>
      </trkpt>
      <trkpt lat="50.39024" lon="3.21207">
        <ele>16</ele>
        <time>2012-02-19T10:02:45Z</time>
      </trkpt>
      <trkpt lat="50.39023" lon="3.2119">
        <ele>16</ele>
        <time>2012-02-19T10:02:49Z</time>
      </trkpt>
      <trkpt lat="50.39022" lon="3.21173">
        <ele>16</ele>
        <time>2012-02-19T10:02:53Z</time>
      </trkpt>
      <trkpt lat="50.39021" lon="3.21156">
        <ele>16</ele>
        <time>2012-02-19T10:02:57Z</time>
      </trkpt>
      <trkpt lat="50.3902" lon="3.21139">
        <ele>16</ele>
        <time>2012-02-19T10:03:01Z</time>
      </trkpt>
      <trkpt lat="50.39018" lon="3.21121">
        <ele>16</ele>
        <time>2012-02-19T10:03:05Z</time>
      </trkpt>
      <trkpt lat="50.39017" lon="3.21106">
        <ele>16</ele>
        <time>2012-02-19T10:03:08Z</time>
      </trkpt>
      <trkpt lat="50.39015" lon="3.21088">
        <ele>16</ele>
        <time>2012-02-19T10:03:12Z</time>
      </trkpt>
      <trkpt lat="50.39013" lon="3.21071">
        <ele>16</ele>
        <time>2012-02-19T10:03:16Z</time>
      </trkpt>
      <trkpt lat="50.39011" lon="3.21053">
        <ele>16</ele>
        <time>2012-02-19T10:03:20Z</time>
      </trkpt>
      <trkpt lat="50.39009" lon="3.21035">
        <ele>16</ele>
        <time>2012-02-19T10:03:24Z</time>
      </trkpt>
      <trkpt lat="50.39006" lon="3.21021">
        <ele>16</ele>
        <time>2012-02-19T10:03:27Z</time>
      </trkpt>
      <trkpt lat="50.39004" lon="3.21007">
        <ele>16</ele>
        <time>2012-02-19T10:03:30Z</time>
      </trkpt>
      <trkpt lat="50.39002" lon="3.20992">
        <ele>16</ele>
        <time>2012-02-19T10:03:33Z</time>
      </trkpt>
      <trkpt lat="50.38999" lon="3.20979">
        <ele>16</ele>
        <time>2012-02-19T10:03:36Z</time>
      </trkpt>
      <trkpt lat="50.38997" lon="3.20962">
        <ele>16</ele>
        <time>2012-02-19T10:03:40Z</time>
      </trkpt>
      <trkpt lat="50.38994" lon="3.20944">
        <ele>16</ele>
        <time>2012-02-19T10:03:44Z</time>
      </trkpt>
      <trkpt lat="50.38991" lon="3.20927">
        <ele>16</ele>
        <time>2012-02-19T10:03:48Z</time>
      </trkpt>
      <trkpt lat="50.38987" lon="3.20913">
        <ele>16</ele>
        <time>2012-02-19T10:03:51Z</time>
      </trkpt>
      <trkpt lat="50.38984" lon="3.209">
        <ele>16</ele>
        <time>2012-02-19T10:03:54Z</time>
      </trkpt>
      <trkpt lat="50.38979" lon="3.20886">
        <ele>16</ele>
        <time>2012-02-19T10:03:57Z</time>
      </trkpt>
      <trkpt lat="50.38974" lon="3.20874">
        <ele>16</ele>
        <time>2012-02-19T10:04:00Z</time>
      </trkpt>
      <trkpt lat="50.38969" lon="3.20862">
        <ele>16</ele>
        <time>2012-02-19T10:04:03Z</time>
      </trkpt>
      <trkpt lat="50.38966" lon="3.20847">
        <ele>16</ele>
        <time>2012-02-19T10:04:07Z</time>
      </trkpt>
      <trkpt lat="50.38962" lon="3.20834">
        <ele>16</ele>
        <time>2012-02-19T10:04:10Z</time>
      </trkpt>
      <trkpt lat="50.38958" lon="3.20822">
        <ele>16</ele>
        <time>2012-02-19T10:04:13Z</time>
      </trkpt>
      <trkpt lat="50.38952" lon="3.20808">
        <ele>16</ele>
        <time>2012-02-19T10:04:16Z</time>
      </trkpt>
      <trkpt lat="50.38947" lon="3.20796">
        <ele>16</ele>
        <time>2012-02-19T10:04:19Z</time>
      </trkpt>
      <trkpt lat="50.38943" lon="3.20782">
        <ele>16</ele>
        <time>2012-02-19T10:04:22Z</time>
      </trkpt>
      <trkpt lat="50.38939" lon="3.2077">
        <ele>16</ele>
        <time>2012-02-19T10:04:25Z</time>
      </trkpt>
      <trkpt lat="50.38935" lon="3.20757">
        <ele>16</ele>
        <time>2012-02-19T10:04:28Z</time>
      </trkpt>
      <trkpt lat="50.38931" lon="3.20744">
        <ele>16</ele>
        <time>2012-02-19T10:04:31Z</time>
      </trkpt>
      <trkpt lat="50.38927" lon="3.20732">
        <ele>16</ele>
        <time>2012-02-19T10:04:34Z</time>
      </trkpt>
      <trkpt lat="50.38923" lon="3.20719">
        <ele>16</ele>
        <time>2012-02-19T10:04:37Z</time>
      </trkpt>
      <trkpt lat="50.38919" lon="3.20706">
        <ele>16</ele>
        <time>2012-02-19T10:04:40Z</time>
      </trkpt>
      <trkpt lat="50.38915" lon="3.20693">
        <ele>16</ele>
        <time>2012-02-19T10:04:43Z</time>
      </trkpt>
      <trkpt lat="50.38909" lon="3.2068">
        <ele>16</ele>
        <time>2012-02-19T10:04:46Z</time>
      </trkpt>
      <trkpt lat="50.38905" lon="3.20666">
        <ele>16</ele>
        <time>2012-02-19T10:04:49Z</time>
      </trkpt>
      <trkpt lat="50.38901" lon="3.20652">
        <ele>16</ele>
        <time>2012-02-19T10:04:52Z</time>
      </trkpt>
      <trkpt lat="50.38896" lon="3.20638">
        <ele>16</ele>
        <time>2012-02-19T10:04:55Z</time>
      </trkpt>
      <trkpt lat="50.38892" lon="3.20625">
        <ele>16</ele>
        <time>2012-02-19T10:04:58Z</time>
      </trkpt>
      <trkpt lat="50.38888" lon="3.20611">
        <ele>16</ele>
        <time>2012-02-19T10:05:02Z</time>
      </trkpt>
      <trkpt lat="50.38882" lon="3.206">
        <ele>16</ele>
        <time>2012-02-19T10:05:06Z</time>
      </trkpt>
      <trkpt lat="50.38875" lon="3.20588">
        <ele>16</ele>
        <time>2012-02-19T10:05:11Z</time>
      </trkpt>
      <trkpt lat="50.38869" lon="3.20576">
        <ele>16</ele>
        <time>2012-02-19T10:05:16Z</time>
      </trkpt>
      <trkpt lat="50.38865" lon="3.20563">
        <ele>16</ele>
        <time>2012-02-19T10:05:20Z</time>
      </trkpt>
      <trkpt lat="50.3886" lon="3.20549">
        <ele>16</ele>
        <time>2012-02-19T10:05:24Z</time>
      </trkpt>
      <trkpt lat="50.38856" lon="3.20537">
        <ele>16</ele>
        <time>2012-02-19T10:05:28Z</time>
      </trkpt>
      <trkpt lat="50.38853" lon="3.20523">
        <ele>16</ele>
        <time>2012-02-19T10:05:34Z</time>
      </trkpt>
      <trkpt lat="50.3885" lon="3.2051">
        <ele>16</ele>
        <time>2012-02-19T10:05:41Z</time>
      </trkpt>
      <trkpt lat="50.38846" lon="3.20496">
        <ele>16</ele>
        <time>2012-02-19T10:05:47Z</time>
      </trkpt>
      <trkpt lat="50.3884" lon="3.20484">
        <ele>16</ele>
        <time>2012-02-19T10:05:52Z</time>
      </trkpt>
      <trkpt lat="50.38836" lon="3.20471">
        <ele>16</ele>
        <time>2012-02-19T10:05:57Z</time>
      </trkpt>
      <trkpt lat="50.38832" lon="3.20458">
        <ele>16</ele>
        <time>2012-02-19T10:06:02Z</time>
      </trkpt>
      <trkpt lat="50.38827" lon="3.20443">
        <ele>16</ele>
        <time>2012-02-19T10:06:07Z</time>
      </trkpt>
      <trkpt lat="50.38823" lon="3.20429">
        <ele>16</ele>
        <time>2012-02-19T10:06:12Z</time>
      </trkpt>
      <trkpt lat="50.38821" lon="3.20413">
        <ele>16</ele>
        <time>2012-02-19T10:06:17Z</time>
      </trkpt>
      <trkpt lat="50.38818" lon="3.20399">
        <ele>16</ele>
        <time>2012-02-19T10:06:21Z</time>
      </trkpt>
      <trkpt lat="50.38815" lon="3.20384">
        <ele>16</ele>
        <time>2012-02-19T10:06:24Z</time>
      </trkpt>
      <trkpt lat="50.38813" lon="3.2037">
        <ele>16</ele>
        <time>2012-02-19T10:06:27Z</time>
      </trkpt>
      <trkpt lat="50.38812" lon="3.20355">
        <ele>16</ele>
        <time>2012-02-19T10:06:30Z</time>
      </trkpt>
      <trkpt lat="50.38809" lon="3.20339">
        <ele>16</ele>
        <time>2012-02-19T10:06:33Z</time>
      </trkpt>
      <trkpt lat="50.38806" lon="3.20326">
        <ele>16</ele>
        <time>2012-02-19T10:06:36Z</time>
      </trkpt>
      <trkpt lat="50.38803" lon="3.20311">
        <ele>16</ele>
        <time>2012-02-19T10:06:39Z</time>
      </trkpt>
      <trkpt lat="50.38801" lon="3.20296">
        <ele>16</ele>
        <time>2012-02-19T10:06:42Z</time>
      </trkpt>
      <trkpt lat="50.38798" lon="3.20281">
        <ele>16</ele>
        <time>2012-02-19T10:06:45Z</time>
      </trkpt>
      <trkpt lat="50.38795" lon="3.20266">
        <ele>16</ele>
        <time>2012-02-19T10:06:48Z</time>
      </trkpt>
      <trkpt lat="50.38792" lon="3.20249">
        <ele>16</ele>
        <time>2012-02-19T10:06:51Z</time>
      </trkpt>
      <trkpt lat="50.3879" lon="3.20233">
        <ele>16</ele>
        <time>2012-02-19T10:06:54Z</time>
      </trkpt>
      <trkpt lat="50.38788" lon="3.20218">
        <ele>16</ele>
        <time>2012-02-19T10:06:57Z</time>
      </trkpt>
      <trkpt lat="50.38788" lon="3.20204">
        <ele>16</ele>
        <time>2012-02-19T10:07:00Z</time>
      </trkpt>
      <trkpt lat="50.38788" lon="3.20186">
        <ele>16</ele>
        <time>2012-02-19T10:07:04Z</time>
      </trkpt>
      <trkpt lat="50.38787" lon="3.20168">
        <ele>16</ele>
        <time>2012-02-19T10:07:08Z</time>
      </trkpt>
      <trkpt lat="50.38789" lon="3.20151">
        <ele>16</ele>
        <time>2012-02-19T10:07:12Z</time>
      </trkpt>
      <trkpt lat="50.3879" lon="3.20133">
        <ele>16</ele>
        <time>2012-02-19T10:07:16Z</time>
      </trkpt>
      <trkpt lat="50.38792" lon="3.20115">
        <ele>16</ele>
        <time>2012-02-19T10:07:20Z</time>
      </trkpt>
      <trkpt lat="50.38795" lon="3.20099">
        <ele>16</ele>
        <time>2012-02-19T10:07:24Z</time>
      </trkpt>
      <trkpt lat="50.38796" lon="3.20084">
        <ele>16</ele>
        <time>2012-02-19T10:07:28Z</time>
      </trkpt>
      <trkpt lat="50.38798" lon="3.20069">
        <ele>16</ele>
        <time>2012-02-19T10:07:32Z</time>
      </trkpt>
      <trkpt lat="50.38799" lon="3.20052">
        <ele>16</ele>
        <time>2012-02-19T10:07:37Z</time>
      </trkpt>
      <trkpt lat="50.388" lon="3.20035">
        <ele>16</ele>
        <time>2012-02-19T10:07:41Z</time>
      </trkpt>
      <trkpt lat="50.38802" lon="3.20019">
        <ele>16</ele>
        <time>2012-02-19T10:07:45Z</time>
      </trkpt>
      <trkpt lat="50.388" lon="3.20001">
        <ele>16</ele>
        <time>2012-02-19T10:07:49Z</time>
      </trkpt>
      <trkpt lat="50.388" lon="3.19984">
        <ele>16</ele>
        <time>2012-02-19T10:07:52Z</time>
      </trkpt>
      <trkpt lat="50.388" lon="3.19966">
        <ele>16</ele>
        <time>2012-02-19T10:07:55Z</time>
      </trkpt>
      <trkpt lat="50.388" lon="3.19947">
        <ele>16</ele>
        <time>2012-02-19T10:07:58Z</time>
      </trkpt>
      <trkpt lat="50.38801" lon="3.19927">
        <ele>16</ele>
        <time>2012-02-19T10:08:01Z</time>
      </trkpt>
      <trkpt lat="50.388" lon="3.19907">
        <ele>16</ele>
        <time>2012-02-19T10:08:04Z</time>
      </trkpt>
      <trkpt lat="50.388" lon="3.19893">
        <ele>16</ele>
        <time>2012-02-19T10:08:06Z</time>
      </trkpt>
      <trkpt lat="50.38799" lon="3.19872">
        <ele>16</ele>
        <time>2012-02-19T10:08:09Z</time>
      </trkpt>
      <trkpt lat="50.38799" lon="3.19852">
        <ele>16</ele>
        <time>2012-02-19T10:08:12Z</time>
      </trkpt>
      <trkpt lat="50.38798" lon="3.19833">
        <ele>16</ele>
        <time>2012-02-19T10:08:15Z</time>
      </trkpt>
      <trkpt lat="50.38797" lon="3.19813">
        <ele>16</ele>
        <time>2012-02-19T10:08:18Z</time>
      </trkpt>
      <trkpt lat="50.38795" lon="3.19792">
        <ele>16</ele>
        <time>2012-02-19T10:08:21Z</time>
      </trkpt>
      <trkpt lat="50.38793" lon="3.19777">
        <ele>16</ele>
        <time>2012-02-19T10:08:23Z</time>
      </trkpt>
      <trkpt lat="50.38792" lon="3.19762">
        <ele>16</ele>
        <time>2012-02-19T10:08:25Z</time>
      </trkpt>
      <trkpt lat="50.38791" lon="3.19746">
        <ele>16</ele>
        <time>2012-02-19T10:08:27Z</time>
      </trkpt>
      <trkpt lat="50.38791" lon="3.19731">
        <ele>16</ele>
        <time>2012-02-19T10:08:29Z</time>
      </trkpt>
      <trkpt lat="50.38792" lon="3.19715">
        <ele>16</ele>
        <time>2012-02-19T10:08:31Z</time>
      </trkpt>
      <trkpt lat="50.38794" lon="3.197">
        <ele>16</ele>
        <time>2012-02-19T10:08:33Z</time>
      </trkpt>
      <trkpt lat="50.38796" lon="3.19684">
        <ele>16</ele>
        <time>2012-02-19T10:08:35Z</time>
      </trkpt>
      <trkpt lat="50.388" lon="3.19668">
        <ele>16</ele>
        <time>2012-02-19T10:08:37Z</time>
      </trkpt>
      <trkpt lat="50.38803" lon="3.19653">
        <ele>16</ele>
        <time>2012-02-19T10:08:39Z</time>
      </trkpt>
      <trkpt lat="50.38806" lon="3.19637">
        <ele>16</ele>
        <time>2012-02-19T10:08:41Z</time>
      </trkpt>
      <trkpt lat="50.38809" lon="3.19622">
        <ele>16</ele>
        <time>2012-02-19T10:08:43Z</time>
      </trkpt>
      <trkpt lat="50.38813" lon="3.19609">
        <ele>16</ele>
        <time>2012-02-19T10:08:45Z</time>
      </trkpt>
      <trkpt lat="50.38816" lon="3.19595">
        <ele>16</ele>
        <time>2012-02-19T10:08:47Z</time>
      </trkpt>
      <trkpt lat="50.3882" lon="3.19581">
        <ele>16</ele>
        <time>2012-02-19T10:08:49Z</time>
      </trkpt>
      <trkpt lat="50.38823" lon="3.19567">
        <ele>16</ele>
        <time>2012-02-19T10:08:51Z</time>
      </trkpt>
      <trkpt lat="50.38827" lon="3.19552">
        <ele>16</ele>
        <time>2012-02-19T10:08:53Z</time>
      </trkpt>
      <trkpt lat="50.38831" lon="3.19537">
        <ele>16</ele>
        <time>2012-02-19T10:08:55Z</time>
      </trkpt>
      <trkpt lat="50.38835" lon="3.19522">
        <ele>16</ele>
        <time>2012-02-19T10:08:57Z</time>
      </trkpt>
      <trkpt lat="50.3884" lon="3.19506">
        <ele>16</ele>
        <time>2012-02-19T10:08:59Z</time>
      </trkpt>
      <trkpt lat="50.38844" lon="3.19489">
        <ele>16</ele>
        <time>2012-02-19T10:09:01Z</time>
      </trkpt>
      <trkpt lat="50.38849" lon="3.19472">
        <ele>16</ele>
        <time>2012-02-19T10:09:03Z</time>
      </trkpt>
      <trkpt lat="50.38854" lon="3.19455">
        <ele>16</ele>
        <time>2012-02-19T10:09:05Z</time>
      </trkpt>
      <trkpt lat="50.38859" lon="3.19439">
        <ele>16</ele>
        <time>2012-02-19T10:09:07Z</time>
      </trkpt>
      <trkpt lat="50.38863" lon="3.19423">
        <ele>16</ele>
        <time>2012-02-19T10:09:09Z</time>
      </trkpt>
      <trkpt lat="50.38868" lon="3.19407">
        <ele>16</ele>
        <time>2012-02-19T10:09:11Z</time>
      </trkpt>
      <trkpt lat="50.38873" lon="3.1939">
        <ele>16</ele>
        <time>2012-02-19T10:09:13Z</time>
      </trkpt>
      <trkpt lat="50.38877" lon="3.19373">
        <ele>16</ele>
        <time>2012-02-19T10:09:15Z</time>
      </trkpt>
      <trkpt lat="50.38882" lon="3.19356">
        <ele>16</ele>
        <time>2012-02-19T10:09:17Z</time>
      </trkpt>
      <trkpt lat="50.38887" lon="3.19339">
        <ele>16</ele>
        <time>2012-02-19T10:09:19Z</time>
      </trkpt>
      <trkpt lat="50.38892" lon="3.19321">
        <ele>16</ele>
        <time>2012-02-19T10:09:21Z</time>
      </trkpt>
      <trkpt lat="50.38896" lon="3.19303">
        <ele>16</ele>
        <time>2012-02-19T10:09:23Z</time>
      </trkpt>
      <trkpt lat="50.38901" lon="3.19286">
        <ele>16</ele>
        <time>2012-02-19T10:09:25Z</time>
      </trkpt>
      <trkpt lat="50.38906" lon="3.19268">
        <ele>16</ele>
        <time>2012-02-19T10:09:27Z</time>
      </trkpt>
      <trkpt lat="50.38911" lon="3.19251">
        <ele>16</ele>
        <time>2012-02-19T10:09:29Z</time>
      </trkpt>
      <trkpt lat="50.38915" lon="3.19234">
        <ele>16</ele>
        <time>2012-02-19T10:09:31Z</time>
      </trkpt>
      <trkpt lat="50.3892" lon="3.19217">
        <ele>16</ele>
        <time>2012-02-19T10:09:33Z</time>
      </trkpt>
      <trkpt lat="50.38924" lon="3.192">
        <ele>16</ele>
        <time>2012-02-19T10:09:35Z</time>
      </trkpt>
      <trkpt lat="50.38928" lon="3.19183">
        <ele>16</ele>
        <time>2012-02-19T10:09:37Z</time>
      </trkpt>
      <trkpt lat="50.38933" lon="3.19166">
        <ele>16</ele>
        <time>2012-02-19T10:09:39Z</time>
      </trkpt>
      <trkpt lat="50.38938" lon="3.19149">
        <ele>16</ele>
        <time>2012-02-19T10:09:41Z</time>
      </trkpt>
      <trkpt lat="50.38942" lon="3.19132">
        <ele>16</ele>
        <time>2012-02-19T10:09:43Z</time>
      </trkpt>
      <trkpt lat="50.38947" lon="3.19116">
        <ele>16</ele>
        <time>2012-02-19T10:09:45Z</time>
      </trkpt>
      <trkpt lat="50.38951" lon="3.191">
        <ele>16</ele>
        <time>2012-02-19T10:09:47Z</time>
      </trkpt>
      <trkpt lat="50.38954" lon="3.19083">
        <ele>16</ele>
        <time>2012-02-19T10:09:49Z</time>
      </trkpt>
      <trkpt lat="50.38958" lon="3.19067">
        <ele>16</ele>
        <time>2012-02-19T10:09:51Z</time>
      </trkpt>
      <trkpt lat="50.38962" lon="3.19053">
        <ele>16</ele>
        <time>2012-02-19T10:09:53Z</time>
      </trkpt>
      <trkpt lat="50.38967" lon="3.19033">
        <ele>16</ele>
        <time>2012-02-19T10:09:56Z</time>
      </trkpt>
      <trkpt lat="50.38972" lon="3.19013">
        <ele>16</ele>
        <time>2012-02-19T10:09:59Z</time>
      </trkpt>
      <trkpt lat="50.38975" lon="3.19">
        <ele>16</ele>
        <time>2012-02-19T10:10:01Z</time>
      </trkpt>
      <trkpt lat="50.38978" lon="3.18986">
        <ele>16</ele>
        <time>2012-02-19T10:10:03Z</time>
      </trkpt>
      <trkpt lat="50.38981" lon="3.18971">
        <ele>16</ele>
        <time>2012-02-19T10:10:05Z</time>
      </trkpt>
      <trkpt lat="50.38984" lon="3.18958">
        <ele>16</ele>
        <time>2012-02-19T10:10:07Z</time>
      </trkpt>
      <trkpt lat="50.38989" lon="3.18938">
        <ele>16</ele>
        <time>2012-02-19T10:10:10Z</time>
      </trkpt>
      <trkpt lat="50.38993" lon="3.18924">
        <ele>16</ele>
        <time>2012-02-19T10:10:12Z</time>
      </trkpt>
      <trkpt lat="50.38997" lon="3.18911">
        <ele>16</ele>
        <time>2012-02-19T10:10:14Z</time>
      </trkpt>
      <trkpt lat="50.39" lon="3.18897">
        <ele>16</ele>
        <time>2012-02-19T10:10:16Z</time>
      </trkpt>
      <trkpt lat="50.39005" lon="3.18882">
        <ele>16</ele>
        <time>2012-02-19T10:10:18Z</time>
      </trkpt>
      <trkpt lat="50.39009" lon="3.18867">
        <ele>16</ele>
        <time>2012-02-19T10:10:20Z</time>
      </trkpt>
      <trkpt lat="50.39013" lon="3.18851">
        <ele>16</ele>
        <time>2012-02-19T10:10:22Z</time>
      </trkpt>
      <trkpt lat="50.39017" lon="3.18835">
        <ele>16</ele>
        <time>2012-02-19T10:10:24Z</time>
      </trkpt>
      <trkpt lat="50.39021" lon="3.1882">
        <ele>16</ele>
        <time>2012-02-19T10:10:26Z</time>
      </trkpt>
      <trkpt lat="50.39025" lon="3.18808">
        <ele>16</ele>
        <time>2012-02-19T10:10:28Z</time>
      </trkpt>
      <trkpt lat="50.39029" lon="3.18794">
        <ele>16</ele>
        <time>2012-02-19T10:10:30Z</time>
      </trkpt>
      <trkpt lat="50.39033" lon="3.18777">
        <ele>16</ele>
        <time>2012-02-19T10:10:33Z</time>
      </trkpt>
      <trkpt lat="50.39038" lon="3.18762">
        <ele>16</ele>
        <time>2012-02-19T10:10:36Z</time>
      </trkpt>
      <trkpt lat="50.39043" lon="3.18745">
        <ele>16</ele>
        <time>2012-02-19T10:10:39Z</time>
      </trkpt>
      <trkpt lat="50.39047" lon="3.18731">
        <ele>16</ele>
        <time>2012-02-19T10:10:41Z</time>
      </trkpt>
      <trkpt lat="50.3905" lon="3.18718">
        <ele>16</ele>
        <time>2012-02-19T10:10:43Z</time>
      </trkpt>
      <trkpt lat="50.39054" lon="3.18703">
        <ele>16</ele>
        <time>2012-02-19T10:10:45Z</time>
      </trkpt>
      <trkpt lat="50.39057" lon="3.18687">
        <ele>16</ele>
        <time>2012-02-19T10:10:47Z</time>
      </trkpt>
      <trkpt lat="50.39062" lon="3.18671">
        <ele>16</ele>
        <time>2012-02-19T10:10:49Z</time>
      </trkpt>
      <trkpt lat="50.39067" lon="3.18655">
        <ele>16</ele>
        <time>2012-02-19T10:10:51Z</time>
      </trkpt>
      <trkpt lat="50.39071" lon="3.1864">
        <ele>16</ele>
        <time>2012-02-19T10:10:53Z</time>
      </trkpt>
      <trkpt lat="50.39076" lon="3.18624">
        <ele>16</ele>
        <time>2012-02-19T10:10:55Z</time>
      </trkpt>
      <trkpt lat="50.39081" lon="3.18609">
        <ele>16</ele>
        <time>2012-02-19T10:10:57Z</time>
      </trkpt>
      <trkpt lat="50.39086" lon="3.18594">
        <ele>16</ele>
        <time>2012-02-19T10:10:59Z</time>
      </trkpt>
      <trkpt lat="50.3909" lon="3.1858">
        <ele>16</ele>
        <time>2012-02-19T10:11:01Z</time>
      </trkpt>
      <trkpt lat="50.39094" lon="3.18567">
        <ele>16</ele>
        <time>2012-02-19T10:11:03Z</time>
      </trkpt>
      <trkpt lat="50.39099" lon="3.18553">
        <ele>11</ele>
        <time>2012-02-19T10:11:05Z</time>
      </trkpt>
      <trkpt lat="50.39102" lon="3.18539">
        <ele>11</ele>
        <time>2012-02-19T10:11:07Z</time>
      </trkpt>
      <trkpt lat="50.39106" lon="3.18524">
        <ele>11</ele>
        <time>2012-02-19T10:11:09Z</time>
      </trkpt>
      <trkpt lat="50.3911" lon="3.18509">
        <ele>11</ele>
        <time>2012-02-19T10:11:11Z</time>
      </trkpt>
      <trkpt lat="50.39114" lon="3.18492">
        <ele>11</ele>
        <time>2012-02-19T10:11:13Z</time>
      </trkpt>
      <trkpt lat="50.39118" lon="3.18475">
        <ele>11</ele>
        <time>2012-02-19T10:11:15Z</time>
      </trkpt>
      <trkpt lat="50.39122" lon="3.18458">
        <ele>11</ele>
        <time>2012-02-19T10:11:17Z</time>
      </trkpt>
      <trkpt lat="50.39126" lon="3.18441">
        <ele>11</ele>
        <time>2012-02-19T10:11:19Z</time>
      </trkpt>
      <trkpt lat="50.3913" lon="3.18424">
        <ele>11</ele>
        <time>2012-02-19T10:11:21Z</time>
      </trkpt>
      <trkpt lat="50.39135" lon="3.18406">
        <ele>11</ele>
        <time>2012-02-19T10:11:23Z</time>
      </trkpt>
      <trkpt lat="50.39139" lon="3.18387">
        <ele>11</ele>
        <time>2012-02-19T10:11:25Z</time>
      </trkpt>
      <trkpt lat="50.39144" lon="3.18369">
        <ele>11</ele>
        <time>2012-02-19T10:11:27Z</time>
      </trkpt>
      <trkpt lat="50.39148" lon="3.18351">
        <ele>11</ele>
        <time>2012-02-19T10:11:29Z</time>
      </trkpt>
      <trkpt lat="50.39152" lon="3.18333">
        <ele>11</ele>
        <time>2012-02-19T10:11:31Z</time>
      </trkpt>
      <trkpt lat="50.39157" lon="3.18316">
        <ele>11</ele>
        <time>2012-02-19T10:11:33Z</time>
      </trkpt>
      <trkpt lat="50.39163" lon="3.18298">
        <ele>11</ele>
        <time>2012-02-19T10:11:35Z</time>
      </trkpt>
      <trkpt lat="50.39168" lon="3.18281">
        <ele>11</ele>
        <time>2012-02-19T10:11:37Z</time>
      </trkpt>
      <trkpt lat="50.39173" lon="3.18264">
        <ele>11</ele>
        <time>2012-02-19T10:11:39Z</time>
      </trkpt>
      <trkpt lat="50.39178" lon="3.18246">
        <ele>11</ele>
        <time>2012-02-19T10:11:41Z</time>
      </trkpt>
      <trkpt lat="50.39184" lon="3.18232">
        <ele>11</ele>
        <time>2012-02-19T10:11:43Z</time>
      </trkpt>
      <trkpt lat="50.39193" lon="3.18226">
        <ele>11</ele>
        <time>2012-02-19T10:11:45Z</time>
      </trkpt>
      <trkpt lat="50.39198" lon="3.18243">
        <ele>11</ele>
        <time>2012-02-19T10:11:48Z</time>
      </trkpt>
      <trkpt lat="50.39204" lon="3.18254">
        <ele>11</ele>
        <time>2012-02-19T10:11:50Z</time>
      </trkpt>
      <trkpt lat="50.39211" lon="3.18266">
        <ele>11</ele>
        <time>2012-02-19T10:11:52Z</time>
      </trkpt>
      <trkpt lat="50.39218" lon="3.18279">
        <ele>11</ele>
        <time>2012-02-19T10:11:54Z</time>
      </trkpt>
      <trkpt lat="50.39226" lon="3.18291">
        <ele>11</ele>
        <time>2012-02-19T10:11:56Z</time>
      </trkpt>
      <trkpt lat="50.39234" lon="3.18303">
        <ele>16</ele>
        <time>2012-02-19T10:11:58Z</time>
      </trkpt>
      <trkpt lat="50.39242" lon="3.18315">
        <ele>16</ele>
        <time>2012-02-19T10:12:00Z</time>
      </trkpt>
      <trkpt lat="50.3925" lon="3.18329">
        <ele>16</ele>
        <time>2012-02-19T10:12:02Z</time>
      </trkpt>
      <trkpt lat="50.3926" lon="3.18342">
        <ele>16</ele>
        <time>2012-02-19T10:12:04Z</time>
      </trkpt>
      <trkpt lat="50.39269" lon="3.18357">
        <ele>16</ele>
        <time>2012-02-19T10:12:06Z</time>
      </trkpt>
      <trkpt lat="50.39279" lon="3.1837">
        <ele>16</ele>
        <time>2012-02-19T10:12:08Z</time>
      </trkpt>
      <trkpt lat="50.39289" lon="3.18384">
        <ele>16</ele>
        <time>2012-02-19T10:12:10Z</time>
      </trkpt>
      <trkpt lat="50.39298" lon="3.18398">
        <ele>16</ele>
        <time>2012-02-19T10:12:12Z</time>
      </trkpt>
      <trkpt lat="50.39307" lon="3.18411">
        <ele>16</ele>
        <time>2012-02-19T10:12:14Z</time>
      </trkpt>
      <trkpt lat="50.39317" lon="3.18425">
        <ele>16</ele>
        <time>2012-02-19T10:12:16Z</time>
      </trkpt>
      <trkpt lat="50.39325" lon="3.18438">
        <ele>16</ele>
        <time>2012-02-19T10:12:18Z</time>
      </trkpt>
      <trkpt lat="50.39334" lon="3.18452">
        <ele>16</ele>
        <time>2012-02-19T10:12:20Z</time>
      </trkpt>
      <trkpt lat="50.39344" lon="3.18465">
        <ele>16</ele>
        <time>2012-02-19T10:12:22Z</time>
      </trkpt>
      <trkpt lat="50.39353" lon="3.18479">
        <ele>16</ele>
        <time>2012-02-19T10:12:24Z</time>
      </trkpt>
      <trkpt lat="50.39362" lon="3.18492">
        <ele>16</ele>
        <time>2012-02-19T10:12:26Z</time>
      </trkpt>
      <trkpt lat="50.39372" lon="3.18506">
        <ele>16</ele>
        <time>2012-02-19T10:12:28Z</time>
      </trkpt>
      <trkpt lat="50.39381" lon="3.18519">
        <ele>16</ele>
        <time>2012-02-19T10:12:30Z</time>
      </trkpt>
      <trkpt lat="50.3939" lon="3.18533">
        <ele>16</ele>
        <time>2012-02-19T10:12:32Z</time>
      </trkpt>
      <trkpt lat="50.39399" lon="3.18544">
        <ele>16</ele>
        <time>2012-02-19T10:12:34Z</time>
      </trkpt>
      <trkpt lat="50.39407" lon="3.18556">
        <ele>16</ele>
        <time>2012-02-19T10:12:36Z</time>
      </trkpt>
      <trkpt lat="50.39415" lon="3.18569">
        <ele>16</ele>
        <time>2012-02-19T10:12:38Z</time>
      </trkpt>
      <trkpt lat="50.39423" lon="3.1858">
        <ele>16</ele>
        <time>2012-02-19T10:12:40Z</time>
      </trkpt>
      <trkpt lat="50.39431" lon="3.18592">
        <ele>16</ele>
        <time>2012-02-19T10:12:42Z</time>
      </trkpt>
      <trkpt lat="50.39438" lon="3.18603">
        <ele>16</ele>
        <time>2012-02-19T10:12:44Z</time>
      </trkpt>
      <trkpt lat="50.39448" lon="3.18615">
        <ele>16</ele>
        <time>2012-02-19T10:12:47Z</time>
      </trkpt>
      <trkpt lat="50.39455" lon="3.18624">
        <ele>16</ele>
        <time>2012-02-19T10:12:49Z</time>
      </trkpt>
      <trkpt lat="50.39462" lon="3.18634">
        <ele>16</ele>
        <time>2012-02-19T10:12:51Z</time>
      </trkpt>
      <trkpt lat="50.39469" lon="3.18644">
        <ele>16</ele>
        <time>2012-02-19T10:12:53Z</time>
      </trkpt>
      <trkpt lat="50.39476" lon="3.18655">
        <ele>16</ele>
        <time>2012-02-19T10:12:55Z</time>
      </trkpt>
      <trkpt lat="50.39483" lon="3.18665">
        <ele>16</ele>
        <time>2012-02-19T10:12:57Z</time>
      </trkpt>
      <trkpt lat="50.3949" lon="3.18676">
        <ele>16</ele>
        <time>2012-02-19T10:12:59Z</time>
      </trkpt>
      <trkpt lat="50.39497" lon="3.18685">
        <ele>16</ele>
        <time>2012-02-19T10:13:01Z</time>
      </trkpt>
      <trkpt lat="50.39504" lon="3.18694">
        <ele>16</ele>
        <time>2012-02-19T10:13:03Z</time>
      </trkpt>
      <trkpt lat="50.39514" lon="3.18708">
        <ele>16</ele>
        <time>2012-02-19T10:13:06Z</time>
      </trkpt>
      <trkpt lat="50.39522" lon="3.18721">
        <ele>16</ele>
        <time>2012-02-19T10:13:09Z</time>
      </trkpt>
      <trkpt lat="50.3953" lon="3.18735">
        <ele>16</ele>
        <time>2012-02-19T10:13:12Z</time>
      </trkpt>
      <trkpt lat="50.39539" lon="3.18747">
        <ele>16</ele>
        <time>2012-02-19T10:13:15Z</time>
      </trkpt>
      <trkpt lat="50.39548" lon="3.18759">
        <ele>16</ele>
        <time>2012-02-19T10:13:18Z</time>
      </trkpt>
      <trkpt lat="50.39555" lon="3.18771">
        <ele>16</ele>
        <time>2012-02-19T10:13:21Z</time>
      </trkpt>
      <trkpt lat="50.39563" lon="3.18782">
        <ele>16</ele>
        <time>2012-02-19T10:13:24Z</time>
      </trkpt>
      <trkpt lat="50.39572" lon="3.18793">
        <ele>16</ele>
        <time>2012-02-19T10:13:27Z</time>
      </trkpt>
      <trkpt lat="50.3958" lon="3.18807">
        <ele>16</ele>
        <time>2012-02-19T10:13:30Z</time>
      </trkpt>
      <trkpt lat="50.39589" lon="3.18819">
        <ele>16</ele>
        <time>2012-02-19T10:13:33Z</time>
      </trkpt>
      <trkpt lat="50.39597" lon="3.18831">
        <ele>16</ele>
        <time>2012-02-19T10:13:36Z</time>
      </trkpt>
      <trkpt lat="50.39606" lon="3.18844">
        <ele>16</ele>
        <time>2012-02-19T10:13:39Z</time>
      </trkpt>
      <trkpt lat="50.39614" lon="3.18855">
        <ele>16</ele>
        <time>2012-02-19T10:13:42Z</time>
      </trkpt>
      <trkpt lat="50.39622" lon="3.18868">
        <ele>16</ele>
        <time>2012-02-19T10:13:45Z</time>
      </trkpt>
      <trkpt lat="50.39631" lon="3.1888">
        <ele>16</ele>
        <time>2012-02-19T10:13:48Z</time>
      </trkpt>
      <trkpt lat="50.39639" lon="3.18893">
        <ele>16</ele>
        <time>2012-02-19T10:13:51Z</time>
      </trkpt>
      <trkpt lat="50.39648" lon="3.18906">
        <ele>16</ele>
        <time>2012-02-19T10:13:54Z</time>
      </trkpt>
      <trkpt lat="50.39656" lon="3.1892">
        <ele>16</ele>
        <time>2012-02-19T10:13:57Z</time>
      </trkpt>
      <trkpt lat="50.39665" lon="3.18933">
        <ele>16</ele>
        <time>2012-02-19T10:14:00Z</time>
      </trkpt>
      <trkpt lat="50.39673" lon="3.18943">
        <ele>16</ele>
        <time>2012-02-19T10:14:03Z</time>
      </trkpt>
      <trkpt lat="50.39681" lon="3.18955">
        <ele>16</ele>
        <time>2012-02-19T10:14:07Z</time>
      </trkpt>
      <trkpt lat="50.39689" lon="3.18965">
        <ele>16</ele>
        <time>2012-02-19T10:14:10Z</time>
      </trkpt>
      <trkpt lat="50.39698" lon="3.18978">
        <ele>16</ele>
        <time>2012-02-19T10:14:13Z</time>
      </trkpt>
      <trkpt lat="50.39706" lon="3.18991">
        <ele>16</ele>
        <time>2012-02-19T10:14:16Z</time>
      </trkpt>
      <trkpt lat="50.39714" lon="3.19002">
        <ele>16</ele>
        <time>2012-02-19T10:14:19Z</time>
      </trkpt>
      <trkpt lat="50.39721" lon="3.19012">
        <ele>16</ele>
        <time>2012-02-19T10:14:22Z</time>
      </trkpt>
      <trkpt lat="50.39728" lon="3.19023">
        <ele>16</ele>
        <time>2012-02-19T10:14:25Z</time>
      </trkpt>
      <trkpt lat="50.39733" lon="3.19035">
        <ele>16</ele>
        <time>2012-02-19T10:14:28Z</time>
      </trkpt>
      <trkpt lat="50.3974" lon="3.19044">
        <ele>16</ele>
        <time>2012-02-19T10:14:31Z</time>
      </trkpt>
      <trkpt lat="50.39749" lon="3.19056">
        <ele>16</ele>
        <time>2012-02-19T10:14:35Z</time>
      </trkpt>
      <trkpt lat="50.39758" lon="3.19064">
        <ele>16</ele>
        <time>2012-02-19T10:14:39Z</time>
      </trkpt>
      <trkpt lat="50.39767" lon="3.19076">
        <ele>16</ele>
        <time>2012-02-19T10:14:43Z</time>
      </trkpt>
      <trkpt lat="50.39775" lon="3.19089">
        <ele>16</ele>
        <time>2012-02-19T10:14:47Z</time>
      </trkpt>
      <trkpt lat="50.39782" lon="3.19099">
        <ele>16</ele>
        <time>2012-02-19T10:14:50Z</time>
      </trkpt>
      <trkpt lat="50.3979" lon="3.19109">
        <ele>16</ele>
        <time>2012-02-19T10:14:53Z</time>
      </trkpt>
      <trkpt lat="50.39797" lon="3.19119">
        <ele>16</ele>
        <time>2012-02-19T10:14:56Z</time>
      </trkpt>
      <trkpt lat="50.39805" lon="3.1913">
        <ele>16</ele>
        <time>2012-02-19T10:14:59Z</time>
      </trkpt>
      <trkpt lat="50.39812" lon="3.1914">
        <ele>16</ele>
        <time>2012-02-19T10:15:02Z</time>
      </trkpt>
      <trkpt lat="50.39819" lon="3.19152">
        <ele>16</ele>
        <time>2012-02-19T10:15:06Z</time>
      </trkpt>
      <trkpt lat="50.39828" lon="3.19164">
        <ele>16</ele>
        <time>2012-02-19T10:15:10Z</time>
      </trkpt>
      <trkpt lat="50.39836" lon="3.19177">
        <ele>16</ele>
        <time>2012-02-19T10:15:14Z</time>
      </trkpt>
      <trkpt lat="50.39844" lon="3.19189">
        <ele>16</ele>
        <time>2012-02-19T10:15:18Z</time>
      </trkpt>
      <trkpt lat="50.3985" lon="3.192">
        <ele>16</ele>
        <time>2012-02-19T10:15:21Z</time>
      </trkpt>
      <trkpt lat="50.39856" lon="3.1921">
        <ele>16</ele>
        <time>2012-02-19T10:15:24Z</time>
      </trkpt>
      <trkpt lat="50.39863" lon="3.1922">
        <ele>16</ele>
        <time>2012-02-19T10:15:27Z</time>
      </trkpt>
      <trkpt lat="50.39869" lon="3.1923">
        <ele>16</ele>
        <time>2012-02-19T10:15:30Z</time>
      </trkpt>
      <trkpt lat="50.39876" lon="3.1924">
        <ele>16</ele>
        <time>2012-02-19T10:15:33Z</time>
      </trkpt>
      <trkpt lat="50.39882" lon="3.1925">
        <ele>16</ele>
        <time>2012-02-19T10:15:36Z</time>
      </trkpt>
      <trkpt lat="50.39888" lon="3.1926">
        <ele>16</ele>
        <time>2012-02-19T10:15:39Z</time>
      </trkpt>
      <trkpt lat="50.39897" lon="3.1927">
        <ele>16</ele>
        <time>2012-02-19T10:15:43Z</time>
      </trkpt>
      <trkpt lat="50.39904" lon="3.19279">
        <ele>16</ele>
        <time>2012-02-19T10:15:46Z</time>
      </trkpt>
      <trkpt lat="50.3991" lon="3.19289">
        <ele>16</ele>
        <time>2012-02-19T10:15:49Z</time>
      </trkpt>
      <trkpt lat="50.39918" lon="3.19301">
        <ele>16</ele>
        <time>2012-02-19T10:15:53Z</time>
      </trkpt>
      <trkpt lat="50.39925" lon="3.1931">
        <ele>16</ele>
        <time>2012-02-19T10:15:56Z</time>
      </trkpt>
      <trkpt lat="50.39933" lon="3.19321">
        <ele>16</ele>
        <time>2012-02-19T10:16:00Z</time>
      </trkpt>
      <trkpt lat="50.3994" lon="3.1933">
        <ele>16</ele>
        <time>2012-02-19T10:16:03Z</time>
      </trkpt>
      <trkpt lat="50.39948" lon="3.19343">
        <ele>16</ele>
        <time>2012-02-19T10:16:07Z</time>
      </trkpt>
      <trkpt lat="50.39957" lon="3.19356">
        <ele>16</ele>
        <time>2012-02-19T10:16:11Z</time>
      </trkpt>
      <trkpt lat="50.39964" lon="3.19365">
        <ele>16</ele>
        <time>2012-02-19T10:16:14Z</time>
      </trkpt>
      <trkpt lat="50.39972" lon="3.19376">
        <ele>16</ele>
        <time>2012-02-19T10:16:18Z</time>
      </trkpt>
      <trkpt lat="50.39978" lon="3.19386">
        <ele>16</ele>
        <time>2012-02-19T10:16:21Z</time>
      </trkpt>
      <trkpt lat="50.39985" lon="3.19397">
        <ele>16</ele>
        <time>2012-02-19T10:16:24Z</time>
      </trkpt>
      <trkpt lat="50.39992" lon="3.19408">
        <ele>16</ele>
        <time>2012-02-19T10:16:27Z</time>
      </trkpt>
      <trkpt lat="50.39999" lon="3.19419">
        <ele>16</ele>
        <time>2012-02-19T10:16:30Z</time>
      </trkpt>
      <trkpt lat="50.40005" lon="3.19428">
        <ele>16</ele>
        <time>2012-02-19T10:16:33Z</time>
      </trkpt>
      <trkpt lat="50.40012" lon="3.19439">
        <ele>16</ele>
        <time>2012-02-19T10:16:36Z</time>
      </trkpt>
      <trkpt lat="50.40019" lon="3.19448">
        <ele>16</ele>
        <time>2012-02-19T10:16:39Z</time>
      </trkpt>
      <trkpt lat="50.40027" lon="3.1946">
        <ele>16</ele>
        <time>2012-02-19T10:16:43Z</time>
      </trkpt>
      <trkpt lat="50.40034" lon="3.19469">
        <ele>16</ele>
        <time>2012-02-19T10:16:46Z</time>
      </trkpt>
      <trkpt lat="50.40041" lon="3.19479">
        <ele>16</ele>
        <time>2012-02-19T10:16:49Z</time>
      </trkpt>
      <trkpt lat="50.40049" lon="3.19489">
        <ele>16</ele>
        <time>2012-02-19T10:16:53Z</time>
      </trkpt>
      <trkpt lat="50.40056" lon="3.195">
        <ele>16</ele>
        <time>2012-02-19T10:16:57Z</time>
      </trkpt>
      <trkpt lat="50.40063" lon="3.1951">
        <ele>16</ele>
        <time>2012-02-19T10:17:01Z</time>
      </trkpt>
      <trkpt lat="50.4007" lon="3.1952">
        <ele>16</ele>
        <time>2012-02-19T10:17:05Z</time>
      </trkpt>
      <trkpt lat="50.40077" lon="3.19532">
        <ele>16</ele>
        <time>2012-02-19T10:17:09Z</time>
      </trkpt>
      <trkpt lat="50.40085" lon="3.19543">
        <ele>16</ele>
        <time>2012-02-19T10:17:13Z</time>
      </trkpt>
      <trkpt lat="50.40092" lon="3.19554">
        <ele>16</ele>
        <time>2012-02-19T10:17:17Z</time>
      </trkpt>
      <trkpt lat="50.401" lon="3.19566">
        <ele>16</ele>
        <time>2012-02-19T10:17:21Z</time>
      </trkpt>
      <trkpt lat="50.40108" lon="3.19577">
        <ele>16</ele>
        <time>2012-02-19T10:17:25Z</time>
      </trkpt>
      <trkpt lat="50.40116" lon="3.19587">
        <ele>16</ele>
        <time>2012-02-19T10:17:29Z</time>
      </trkpt>
      <trkpt lat="50.40124" lon="3.19598">
        <ele>16</ele>
        <time>2012-02-19T10:17:33Z</time>
      </trkpt>
      <trkpt lat="50.40133" lon="3.19609">
        <ele>16</ele>
        <time>2012-02-19T10:17:37Z</time>
      </trkpt>
      <trkpt lat="50.40141" lon="3.19621">
        <ele>16</ele>
        <time>2012-02-19T10:17:41Z</time>
      </trkpt>
      <trkpt lat="50.4015" lon="3.19631">
        <ele>16</ele>
        <time>2012-02-19T10:17:45Z</time>
      </trkpt>
      <trkpt lat="50.40158" lon="3.19642">
        <ele>16</ele>
        <time>2012-02-19T10:17:49Z</time>
      </trkpt>
      <trkpt lat="50.40165" lon="3.19652">
        <ele>16</ele>
        <time>2012-02-19T10:17:52Z</time>
      </trkpt>
      <trkpt lat="50.40173" lon="3.19664">
        <ele>16</ele>
        <time>2012-02-19T10:17:56Z</time>
      </trkpt>
      <trkpt lat="50.4018" lon="3.19675">
        <ele>16</ele>
        <time>2012-02-19T10:18:00Z</time>
      </trkpt>
      <trkpt lat="50.40188" lon="3.19686">
        <ele>16</ele>
        <time>2012-02-19T10:18:04Z</time>
      </trkpt>
      <trkpt lat="50.40194" lon="3.19698">
        <ele>16</ele>
        <time>2012-02-19T10:18:08Z</time>
      </trkpt>
      <trkpt lat="50.40202" lon="3.19709">
        <ele>16</ele>
        <time>2012-02-19T10:18:12Z</time>
      </trkpt>
      <trkpt lat="50.40212" lon="3.19719">
        <ele>16</ele>
        <time>2012-02-19T10:18:16Z</time>
      </trkpt>
      <trkpt lat="50.40218" lon="3.19728">
        <ele>16</ele>
        <time>2012-02-19T10:18:19Z</time>
      </trkpt>
      <trkpt lat="50.40224" lon="3.19739">
        <ele>16</ele>
        <time>2012-02-19T10:18:22Z</time>
      </trkpt>
      <trkpt lat="50.40231" lon="3.1975">
        <ele>16</ele>
        <time>2012-02-19T10:18:25Z</time>
      </trkpt>
      <trkpt lat="50.40239" lon="3.19763">
        <ele>16</ele>
        <time>2012-02-19T10:18:29Z</time>
      </trkpt>
      <trkpt lat="50.40246" lon="3.19773">
        <ele>16</ele>
        <time>2012-02-19T10:18:32Z</time>
      </trkpt>
      <trkpt lat="50.40252" lon="3.19784">
        <ele>16</ele>
        <time>2012-02-19T10:18:35Z</time>
      </trkpt>
      <trkpt lat="50.4026" lon="3.19796">
        <ele>16</ele>
        <time>2012-02-19T10:18:38Z</time>
      </trkpt>
      <trkpt lat="50.40268" lon="3.19807">
        <ele>16</ele>
        <time>2012-02-19T10:18:41Z</time>
      </trkpt>
      <trkpt lat="50.40277" lon="3.19819">
        <ele>16</ele>
        <time>2012-02-19T10:18:44Z</time>
      </trkpt>
      <trkpt lat="50.40285" lon="3.19832">
        <ele>16</ele>
        <time>2012-02-19T10:18:47Z</time>
      </trkpt>
      <trkpt lat="50.40294" lon="3.19844">
        <ele>16</ele>
        <time>2012-02-19T10:18:50Z</time>
      </trkpt>
      <trkpt lat="50.403" lon="3.19854">
        <ele>16</ele>
        <time>2012-02-19T10:18:52Z</time>
      </trkpt>
      <trkpt lat="50.40307" lon="3.19863">
        <ele>16</ele>
        <time>2012-02-19T10:18:54Z</time>
      </trkpt>
      <trkpt lat="50.40314" lon="3.19873">
        <ele>16</ele>
        <time>2012-02-19T10:18:56Z</time>
      </trkpt>
      <trkpt lat="50.40321" lon="3.19883">
        <ele>16</ele>
        <time>2012-02-19T10:18:58Z</time>
      </trkpt>
      <trkpt lat="50.40328" lon="3.19894">
        <ele>16</ele>
        <time>2012-02-19T10:19:00Z</time>
      </trkpt>
      <trkpt lat="50.40335" lon="3.19904">
        <ele>16</ele>
        <time>2012-02-19T10:19:02Z</time>
      </trkpt>
      <trkpt lat="50.40341" lon="3.19914">
        <ele>16</ele>
        <time>2012-02-19T10:19:04Z</time>
      </trkpt>
      <trkpt lat="50.40349" lon="3.19925">
        <ele>16</ele>
        <time>2012-02-19T10:19:06Z</time>
      </trkpt>
      <trkpt lat="50.40356" lon="3.19935">
        <ele>16</ele>
        <time>2012-02-19T10:19:08Z</time>
      </trkpt>
      <trkpt lat="50.40363" lon="3.19946">
        <ele>16</ele>
        <time>2012-02-19T10:19:10Z</time>
      </trkpt>
      <trkpt lat="50.4037" lon="3.19956">
        <ele>16</ele>
        <time>2012-02-19T10:19:12Z</time>
      </trkpt>
      <trkpt lat="50.40377" lon="3.19966">
        <ele>16</ele>
        <time>2012-02-19T10:19:14Z</time>
      </trkpt>
      <trkpt lat="50.40385" lon="3.19976">
        <ele>16</ele>
        <time>2012-02-19T10:19:16Z</time>
      </trkpt>
      <trkpt lat="50.40392" lon="3.19987">
        <ele>16</ele>
        <time>2012-02-19T10:19:18Z</time>
      </trkpt>
      <trkpt lat="50.40399" lon="3.19998">
        <ele>16</ele>
        <time>2012-02-19T10:19:20Z</time>
      </trkpt>
      <trkpt lat="50.40406" lon="3.20009">
        <ele>16</ele>
        <time>2012-02-19T10:19:22Z</time>
      </trkpt>
      <trkpt lat="50.40414" lon="3.20019">
        <ele>16</ele>
        <time>2012-02-19T10:19:24Z</time>
      </trkpt>
      <trkpt lat="50.40421" lon="3.2003">
        <ele>16</ele>
        <time>2012-02-19T10:19:26Z</time>
      </trkpt>
      <trkpt lat="50.40429" lon="3.20041">
        <ele>16</ele>
        <time>2012-02-19T10:19:28Z</time>
      </trkpt>
      <trkpt lat="50.40436" lon="3.20052">
        <ele>16</ele>
        <time>2012-02-19T10:19:30Z</time>
      </trkpt>
      <trkpt lat="50.40443" lon="3.20063">
        <ele>16</ele>
        <time>2012-02-19T10:19:32Z</time>
      </trkpt>
      <trkpt lat="50.40451" lon="3.20072">
        <ele>16</ele>
        <time>2012-02-19T10:19:34Z</time>
      </trkpt>
      <trkpt lat="50.40457" lon="3.20083">
        <ele>16</ele>
        <time>2012-02-19T10:19:36Z</time>
      </trkpt>
      <trkpt lat="50.40464" lon="3.20094">
        <ele>16</ele>
        <time>2012-02-19T10:19:38Z</time>
      </trkpt>
      <trkpt lat="50.40472" lon="3.20105">
        <ele>16</ele>
        <time>2012-02-19T10:19:40Z</time>
      </trkpt>
      <trkpt lat="50.40479" lon="3.20116">
        <ele>16</ele>
        <time>2012-02-19T10:19:42Z</time>
      </trkpt>
      <trkpt lat="50.40488" lon="3.20129">
        <ele>16</ele>
        <time>2012-02-19T10:19:45Z</time>
      </trkpt>
      <trkpt lat="50.40496" lon="3.20141">
        <ele>16</ele>
        <time>2012-02-19T10:19:48Z</time>
      </trkpt>
      <trkpt lat="50.40506" lon="3.20154">
        <ele>16</ele>
        <time>2012-02-19T10:19:51Z</time>
      </trkpt>
      <trkpt lat="50.40512" lon="3.20164">
        <ele>16</ele>
        <time>2012-02-19T10:19:53Z</time>
      </trkpt>
      <trkpt lat="50.40522" lon="3.20178">
        <ele>16</ele>
        <time>2012-02-19T10:19:56Z</time>
      </trkpt>
      <trkpt lat="50.40531" lon="3.20192">
        <ele>16</ele>
        <time>2012-02-19T10:19:59Z</time>
      </trkpt>
      <trkpt lat="50.40538" lon="3.20202">
        <ele>16</ele>
        <time>2012-02-19T10:20:01Z</time>
      </trkpt>
      <trkpt lat="50.40545" lon="3.20211">
        <ele>16</ele>
        <time>2012-02-19T10:20:03Z</time>
      </trkpt>
      <trkpt lat="50.40552" lon="3.20222">
        <ele>16</ele>
        <time>2012-02-19T10:20:05Z</time>
      </trkpt>
      <trkpt lat="50.40558" lon="3.20231">
        <ele>16</ele>
        <time>2012-02-19T10:20:07Z</time>
      </trkpt>
      <trkpt lat="50.40566" lon="3.20242">
        <ele>16</ele>
        <time>2012-02-19T10:20:09Z</time>
      </trkpt>
      <trkpt lat="50.40572" lon="3.20252">
        <ele>16</ele>
        <time>2012-02-19T10:20:11Z</time>
      </trkpt>
      <trkpt lat="50.40579" lon="3.20262">
        <ele>16</ele>
        <time>2012-02-19T10:20:13Z</time>
      </trkpt>
      <trkpt lat="50.40586" lon="3.20272">
        <ele>16</ele>
        <time>2012-02-19T10:20:15Z</time>
      </trkpt>
      <trkpt lat="50.40593" lon="3.20282">
        <ele>16</ele>
        <time>2012-02-19T10:20:17Z</time>
      </trkpt>
      <trkpt lat="50.40599" lon="3.20292">
        <ele>16</ele>
        <time>2012-02-19T10:20:19Z</time>
      </trkpt>
      <trkpt lat="50.40606" lon="3.20302">
        <ele>16</ele>
        <time>2012-02-19T10:20:21Z</time>
      </trkpt>
      <trkpt lat="50.40612" lon="3.20311">
        <ele>16</ele>
        <time>2012-02-19T10:20:23Z</time>
      </trkpt>
      <trkpt lat="50.40619" lon="3.2032">
        <ele>16</ele>
        <time>2012-02-19T10:20:25Z</time>
      </trkpt>
      <trkpt lat="50.40626" lon="3.2033">
        <ele>16</ele>
        <time>2012-02-19T10:20:27Z</time>
      </trkpt>
      <trkpt lat="50.40633" lon="3.2034">
        <ele>16</ele>
        <time>2012-02-19T10:20:29Z</time>
      </trkpt>
      <trkpt lat="50.40639" lon="3.2035">
        <ele>16</ele>
        <time>2012-02-19T10:20:31Z</time>
      </trkpt>
      <trkpt lat="50.40646" lon="3.2036">
        <ele>16</ele>
        <time>2012-02-19T10:20:33Z</time>
      </trkpt>
      <trkpt lat="50.40653" lon="3.2037">
        <ele>16</ele>
        <time>2012-02-19T10:20:35Z</time>
      </trkpt>
      <trkpt lat="50.4066" lon="3.20379">
        <ele>16</ele>
        <time>2012-02-19T10:20:37Z</time>
      </trkpt>
      <trkpt lat="50.40666" lon="3.20389">
        <ele>16</ele>
        <time>2012-02-19T10:20:39Z</time>
      </trkpt>
      <trkpt lat="50.40673" lon="3.20399">
        <ele>16</ele>
        <time>2012-02-19T10:20:41Z</time>
      </trkpt>
      <trkpt lat="50.4068" lon="3.20408">
        <ele>16</ele>
        <time>2012-02-19T10:20:43Z</time>
      </trkpt>
      <trkpt lat="50.40687" lon="3.20418">
        <ele>16</ele>
        <time>2012-02-19T10:20:45Z</time>
      </trkpt>
      <trkpt lat="50.40693" lon="3.20429">
        <ele>16</ele>
        <time>2012-02-19T10:20:47Z</time>
      </trkpt>
      <trkpt lat="50.407" lon="3.20439">
        <ele>16</ele>
        <time>2012-02-19T10:20:49Z</time>
      </trkpt>
      <trkpt lat="50.40708" lon="3.20449">
        <ele>16</ele>
        <time>2012-02-19T10:20:51Z</time>
      </trkpt>
      <trkpt lat="50.40715" lon="3.20459">
        <ele>16</ele>
        <time>2012-02-19T10:20:53Z</time>
      </trkpt>
      <trkpt lat="50.40722" lon="3.20469">
        <ele>16</ele>
        <time>2012-02-19T10:20:55Z</time>
      </trkpt>
      <trkpt lat="50.40728" lon="3.20479">
        <ele>16</ele>
        <time>2012-02-19T10:20:57Z</time>
      </trkpt>
      <trkpt lat="50.40735" lon="3.20489">
        <ele>16</ele>
        <time>2012-02-19T10:20:59Z</time>
      </trkpt>
      <trkpt lat="50.40742" lon="3.205">
        <ele>16</ele>
        <time>2012-02-19T10:21:01Z</time>
      </trkpt>
      <trkpt lat="50.40752" lon="3.20514">
        <ele>16</ele>
        <time>2012-02-19T10:21:04Z</time>
      </trkpt>
      <trkpt lat="50.40758" lon="3.20523">
        <ele>16</ele>
        <time>2012-02-19T10:21:06Z</time>
      </trkpt>
      <trkpt lat="50.40768" lon="3.20536">
        <ele>16</ele>
        <time>2012-02-19T10:21:09Z</time>
      </trkpt>
      <trkpt lat="50.40779" lon="3.20538">
        <ele>16</ele>
        <time>2012-02-19T10:21:12Z</time>
      </trkpt>
      <trkpt lat="50.40785" lon="3.20523">
        <ele>16</ele>
        <time>2012-02-19T10:21:15Z</time>
      </trkpt>
      <trkpt lat="50.40789" lon="3.20505">
        <ele>16</ele>
        <time>2012-02-19T10:21:18Z</time>
      </trkpt>
      <trkpt lat="50.40792" lon="3.20489">
        <ele>16</ele>
        <time>2012-02-19T10:21:21Z</time>
      </trkpt>
      <trkpt lat="50.40794" lon="3.20473">
        <ele>16</ele>
        <time>2012-02-19T10:21:24Z</time>
      </trkpt>
      <trkpt lat="50.40798" lon="3.20456">
        <ele>16</ele>
        <time>2012-02-19T10:21:27Z</time>
      </trkpt>
      <trkpt lat="50.40801" lon="3.20438">
        <ele>16</ele>
        <time>2012-02-19T10:21:30Z</time>
      </trkpt>
      <trkpt lat="50.40805" lon="3.2042">
        <ele>16</ele>
        <time>2012-02-19T10:21:33Z</time>
      </trkpt>
      <trkpt lat="50.40808" lon="3.204">
        <ele>16</ele>
        <time>2012-02-19T10:21:36Z</time>
      </trkpt>
      <trkpt lat="50.40811" lon="3.20382">
        <ele>16</ele>
        <time>2012-02-19T10:21:39Z</time>
      </trkpt>
      <trkpt lat="50.40815" lon="3.20363">
        <ele>16</ele>
        <time>2012-02-19T10:21:42Z</time>
      </trkpt>
      <trkpt lat="50.40817" lon="3.20349">
        <ele>16</ele>
        <time>2012-02-19T10:21:44Z</time>
      </trkpt>
      <trkpt lat="50.40821" lon="3.2033">
        <ele>16</ele>
        <time>2012-02-19T10:21:47Z</time>
      </trkpt>
      <trkpt lat="50.40824" lon="3.20311">
        <ele>16</ele>
        <time>2012-02-19T10:21:50Z</time>
      </trkpt>
      <trkpt lat="50.40828" lon="3.20292">
        <ele>16</ele>
        <time>2012-02-19T10:21:53Z</time>
      </trkpt>
      <trkpt lat="50.40832" lon="3.20273">
        <ele>16</ele>
        <time>2012-02-19T10:21:56Z</time>
      </trkpt>
      <trkpt lat="50.40835" lon="3.20253">
        <ele>16</ele>
        <time>2012-02-19T10:21:59Z</time>
      </trkpt>
      <trkpt lat="50.40838" lon="3.20234">
        <ele>16</ele>
        <time>2012-02-19T10:22:02Z</time>
      </trkpt>
      <trkpt lat="50.40842" lon="3.20215">
        <ele>16</ele>
        <time>2012-02-19T10:22:05Z</time>
      </trkpt>
      <trkpt lat="50.40848" lon="3.20202">
        <ele>16</ele>
        <time>2012-02-19T10:22:08Z</time>
      </trkpt>
      <trkpt lat="50.40858" lon="3.20197">
        <ele>16</ele>
        <time>2012-02-19T10:22:11Z</time>
      </trkpt>
      <trkpt lat="50.40869" lon="3.20201">
        <ele>16</ele>
        <time>2012-02-19T10:22:15Z</time>
      </trkpt>
      <trkpt lat="50.40879" lon="3.20205">
        <ele>16</ele>
        <time>2012-02-19T10:22:18Z</time>
      </trkpt>
      <trkpt lat="50.4089" lon="3.2021">
        <ele>16</ele>
        <time>2012-02-19T10:22:21Z</time>
      </trkpt>
      <trkpt lat="50.40902" lon="3.20213">
        <ele>16</ele>
        <time>2012-02-19T10:22:24Z</time>
      </trkpt>
      <trkpt lat="50.40914" lon="3.20217">
        <ele>16</ele>
        <time>2012-02-19T10:22:27Z</time>
      </trkpt>
      <trkpt lat="50.40928" lon="3.2022">
        <ele>16</ele>
        <time>2012-02-19T10:22:30Z</time>
      </trkpt>
      <trkpt lat="50.4094" lon="3.20224">
        <ele>16</ele>
        <time>2012-02-19T10:22:33Z</time>
      </trkpt>
      <trkpt lat="50.40953" lon="3.20229">
        <ele>16</ele>
        <time>2012-02-19T10:22:36Z</time>
      </trkpt>
      <trkpt lat="50.40967" lon="3.20233">
        <ele>16</ele>
        <time>2012-02-19T10:22:39Z</time>
      </trkpt>
      <trkpt lat="50.4098" lon="3.20238">
        <ele>16</ele>
        <time>2012-02-19T10:22:42Z</time>
      </trkpt>
      <trkpt lat="50.40993" lon="3.20241">
        <ele>16</ele>
        <time>2012-02-19T10:22:45Z</time>
      </trkpt>
      <trkpt lat="50.41006" lon="3.20246">
        <ele>16</ele>
        <time>2012-02-19T10:22:48Z</time>
      </trkpt>
      <trkpt lat="50.41018" lon="3.20249">
        <ele>16</ele>
        <time>2012-02-19T10:22:51Z</time>
      </trkpt>
      <trkpt lat="50.41031" lon="3.20254">
        <ele>16</ele>
        <time>2012-02-19T10:22:54Z</time>
      </trkpt>
      <trkpt lat="50.41043" lon="3.20257">
        <ele>16</ele>
        <time>2012-02-19T10:22:57Z</time>
      </trkpt>
      <trkpt lat="50.41054" lon="3.20262">
        <ele>16</ele>
        <time>2012-02-19T10:23:00Z</time>
      </trkpt>
      <trkpt lat="50.41065" lon="3.20266">
        <ele>16</ele>
        <time>2012-02-19T10:23:03Z</time>
      </trkpt>
      <trkpt lat="50.41073" lon="3.20255">
        <ele>16</ele>
        <time>2012-02-19T10:23:06Z</time>
      </trkpt>
      <trkpt lat="50.41077" lon="3.20238">
        <ele>16</ele>
        <time>2012-02-19T10:23:09Z</time>
      </trkpt>
      <trkpt lat="50.41081" lon="3.2022">
        <ele>16</ele>
        <time>2012-02-19T10:23:12Z</time>
      </trkpt>
      <trkpt lat="50.41085" lon="3.20201">
        <ele>16</ele>
        <time>2012-02-19T10:23:15Z</time>
      </trkpt>
      <trkpt lat="50.41088" lon="3.20187">
        <ele>16</ele>
        <time>2012-02-19T10:23:17Z</time>
      </trkpt>
      <trkpt lat="50.41091" lon="3.20174">
        <ele>16</ele>
        <time>2012-02-19T10:23:19Z</time>
      </trkpt>
      <trkpt lat="50.41094" lon="3.20161">
        <ele>16</ele>
        <time>2012-02-19T10:23:21Z</time>
      </trkpt>
      <trkpt lat="50.41097" lon="3.20147">
        <ele>16</ele>
        <time>2012-02-19T10:23:23Z</time>
      </trkpt>
      <trkpt lat="50.411" lon="3.20134">
        <ele>16</ele>
        <time>2012-02-19T10:23:25Z</time>
      </trkpt>
      <trkpt lat="50.41102" lon="3.2012">
        <ele>16</ele>
        <time>2012-02-19T10:23:27Z</time>
      </trkpt>
      <trkpt lat="50.41107" lon="3.201">
        <ele>16</ele>
        <time>2012-02-19T10:23:30Z</time>
      </trkpt>
      <trkpt lat="50.41108" lon="3.20081">
        <ele>16</ele>
        <time>2012-02-19T10:23:33Z</time>
      </trkpt>
      <trkpt lat="50.41111" lon="3.20062">
        <ele>16</ele>
        <time>2012-02-19T10:23:36Z</time>
      </trkpt>
      <trkpt lat="50.41114" lon="3.20043">
        <ele>16</ele>
        <time>2012-02-19T10:23:39Z</time>
      </trkpt>
      <trkpt lat="50.41115" lon="3.20026">
        <ele>16</ele>
        <time>2012-02-19T10:23:42Z</time>
      </trkpt>
      <trkpt lat="50.41119" lon="3.20008">
        <ele>16</ele>
        <time>2012-02-19T10:23:45Z</time>
      </trkpt>
      <trkpt lat="50.41121" lon="3.1999">
        <ele>16</ele>
        <time>2012-02-19T10:23:48Z</time>
      </trkpt>
      <trkpt lat="50.41123" lon="3.19971">
        <ele>16</ele>
        <time>2012-02-19T10:23:51Z</time>
      </trkpt>
      <trkpt lat="50.41127" lon="3.19953">
        <ele>16</ele>
        <time>2012-02-19T10:23:54Z</time>
      </trkpt>
      <trkpt lat="50.41129" lon="3.19934">
        <ele>16</ele>
        <time>2012-02-19T10:23:57Z</time>
      </trkpt>
      <trkpt lat="50.41132" lon="3.19915">
        <ele>16</ele>
        <time>2012-02-19T10:24:00Z</time>
      </trkpt>
      <trkpt lat="50.41135" lon="3.19896">
        <ele>16</ele>
        <time>2012-02-19T10:24:03Z</time>
      </trkpt>
      <trkpt lat="50.41139" lon="3.19878">
        <ele>16</ele>
        <time>2012-02-19T10:24:06Z</time>
      </trkpt>
      <trkpt lat="50.41148" lon="3.19867">
        <ele>16</ele>
        <time>2012-02-19T10:24:09Z</time>
      </trkpt>
      <trkpt lat="50.41159" lon="3.19858">
        <ele>16</ele>
        <time>2012-02-19T10:24:12Z</time>
      </trkpt>
      <trkpt lat="50.41167" lon="3.19851">
        <ele>16</ele>
        <time>2012-02-19T10:24:14Z</time>
      </trkpt>
      <trkpt lat="50.41178" lon="3.19843">
        <ele>16</ele>
        <time>2012-02-19T10:24:17Z</time>
      </trkpt>
      <trkpt lat="50.4119" lon="3.19834">
        <ele>16</ele>
        <time>2012-02-19T10:24:20Z</time>
      </trkpt>
      <trkpt lat="50.41201" lon="3.19823">
        <ele>16</ele>
        <time>2012-02-19T10:24:23Z</time>
      </trkpt>
      <trkpt lat="50.41207" lon="3.19812">
        <ele>16</ele>
        <time>2012-02-19T10:24:25Z</time>
      </trkpt>
      <trkpt lat="50.41209" lon="3.19798">
        <ele>16</ele>
        <time>2012-02-19T10:24:27Z</time>
      </trkpt>
      <trkpt lat="50.41209" lon="3.1978">
        <ele>16</ele>
        <time>2012-02-19T10:24:30Z</time>
      </trkpt>
      <trkpt lat="50.41207" lon="3.19763">
        <ele>16</ele>
        <time>2012-02-19T10:24:33Z</time>
      </trkpt>
      <trkpt lat="50.41205" lon="3.19746">
        <ele>16</ele>
        <time>2012-02-19T10:24:36Z</time>
      </trkpt>
      <trkpt lat="50.41204" lon="3.1973">
        <ele>16</ele>
        <time>2012-02-19T10:24:39Z</time>
      </trkpt>
      <trkpt lat="50.41203" lon="3.19716">
        <ele>16</ele>
        <time>2012-02-19T10:24:42Z</time>
      </trkpt>
      <trkpt lat="50.41204" lon="3.197">
        <ele>16</ele>
        <time>2012-02-19T10:24:45Z</time>
      </trkpt>
      <trkpt lat="50.41206" lon="3.19682">
        <ele>16</ele>
        <time>2012-02-19T10:24:48Z</time>
      </trkpt>
      <trkpt lat="50.41212" lon="3.19663">
        <ele>16</ele>
        <time>2012-02-19T10:24:51Z</time>
      </trkpt>
      <trkpt lat="50.41216" lon="3.1965">
        <ele>16</ele>
        <time>2012-02-19T10:24:53Z</time>
      </trkpt>
      <trkpt lat="50.41221" lon="3.19636">
        <ele>16</ele>
        <time>2012-02-19T10:24:55Z</time>
      </trkpt>
      <trkpt lat="50.41226" lon="3.19622">
        <ele>16</ele>
        <time>2012-02-19T10:24:57Z</time>
      </trkpt>
      <trkpt lat="50.41231" lon="3.19609">
        <ele>16</ele>
        <time>2012-02-19T10:24:59Z</time>
      </trkpt>
      <trkpt lat="50.41236" lon="3.19595">
        <ele>16</ele>
        <time>2012-02-19T10:25:01Z</time>
      </trkpt>
      <trkpt lat="50.41242" lon="3.19581">
        <ele>16</ele>
        <time>2012-02-19T10:25:03Z</time>
      </trkpt>
      <trkpt lat="50.41247" lon="3.19568">
        <ele>16</ele>
        <time>2012-02-19T10:25:05Z</time>
      </trkpt>
      <trkpt lat="50.41252" lon="3.19554">
        <ele>16</ele>
        <time>2012-02-19T10:25:07Z</time>
      </trkpt>
      <trkpt lat="50.41258" lon="3.19542">
        <ele>16</ele>
        <time>2012-02-19T10:25:09Z</time>
      </trkpt>
      <trkpt lat="50.41263" lon="3.19529">
        <ele>16</ele>
        <time>2012-02-19T10:25:11Z</time>
      </trkpt>
      <trkpt lat="50.41268" lon="3.19516">
        <ele>16</ele>
        <time>2012-02-19T10:25:13Z</time>
      </trkpt>
      <trkpt lat="50.41274" lon="3.19504">
        <ele>16</ele>
        <time>2012-02-19T10:25:15Z</time>
      </trkpt>
      <trkpt lat="50.41281" lon="3.19492">
        <ele>16</ele>
        <time>2012-02-19T10:25:17Z</time>
      </trkpt>
      <trkpt lat="50.41288" lon="3.19481">
        <ele>16</ele>
        <time>2012-02-19T10:25:19Z</time>
      </trkpt>
      <trkpt lat="50.41294" lon="3.1947">
        <ele>16</ele>
        <time>2012-02-19T10:25:21Z</time>
      </trkpt>
      <trkpt lat="50.41301" lon="3.19456">
        <ele>16</ele>
        <time>2012-02-19T10:25:23Z</time>
      </trkpt>
      <trkpt lat="50.41305" lon="3.19443">
        <ele>16</ele>
        <time>2012-02-19T10:25:25Z</time>
      </trkpt>
      <trkpt lat="50.41308" lon="3.19429">
        <ele>16</ele>
        <time>2012-02-19T10:25:27Z</time>
      </trkpt>
      <trkpt lat="50.41311" lon="3.1941">
        <ele>16</ele>
        <time>2012-02-19T10:25:30Z</time>
      </trkpt>
      <trkpt lat="50.41312" lon="3.19392">
        <ele>16</ele>
        <time>2012-02-19T10:25:33Z</time>
      </trkpt>
      <trkpt lat="50.4131" lon="3.19378">
        <ele>16</ele>
        <time>2012-02-19T10:25:35Z</time>
      </trkpt>
      <trkpt lat="50.41308" lon="3.19364">
        <ele>16</ele>
        <time>2012-02-19T10:25:37Z</time>
      </trkpt>
      <trkpt lat="50.41306" lon="3.19348">
        <ele>16</ele>
        <time>2012-02-19T10:25:39Z</time>
      </trkpt>
      <trkpt lat="50.41305" lon="3.19334">
        <ele>16</ele>
        <time>2012-02-19T10:25:41Z</time>
      </trkpt>
      <trkpt lat="50.41302" lon="3.1932">
        <ele>16</ele>
        <time>2012-02-19T10:25:43Z</time>
      </trkpt>
      <trkpt lat="50.41301" lon="3.19304">
        <ele>16</ele>
        <time>2012-02-19T10:25:45Z</time>
      </trkpt>
      <trkpt lat="50.41299" lon="3.19288">
        <ele>16</ele>
        <time>2012-02-19T10:25:47Z</time>
      </trkpt>
      <trkpt lat="50.41298" lon="3.19273">
        <ele>16</ele>
        <time>2012-02-19T10:25:49Z</time>
      </trkpt>
      <trkpt lat="50.41297" lon="3.19257">
        <ele>16</ele>
        <time>2012-02-19T10:25:51Z</time>
      </trkpt>
      <trkpt lat="50.41297" lon="3.19242">
        <ele>16</ele>
        <time>2012-02-19T10:25:53Z</time>
      </trkpt>
      <trkpt lat="50.413" lon="3.19226">
        <ele>16</ele>
        <time>2012-02-19T10:25:55Z</time>
      </trkpt>
      <trkpt lat="50.41305" lon="3.19214">
        <ele>16</ele>
        <time>2012-02-19T10:25:57Z</time>
      </trkpt>
      <trkpt lat="50.41312" lon="3.19203">
        <ele>16</ele>
        <time>2012-02-19T10:25:59Z</time>
      </trkpt>
      <trkpt lat="50.41319" lon="3.19192">
        <ele>16</ele>
        <time>2012-02-19T10:26:01Z</time>
      </trkpt>
      <trkpt lat="50.41327" lon="3.19182">
        <ele>16</ele>
        <time>2012-02-19T10:26:03Z</time>
      </trkpt>
      <trkpt lat="50.41333" lon="3.19172">
        <ele>16</ele>
        <time>2012-02-19T10:26:05Z</time>
      </trkpt>
      <trkpt lat="50.4134" lon="3.19162">
        <ele>16</ele>
        <time>2012-02-19T10:26:07Z</time>
      </trkpt>
      <trkpt lat="50.41346" lon="3.19151">
        <ele>16</ele>
        <time>2012-02-19T10:26:09Z</time>
      </trkpt>
      <trkpt lat="50.4135" lon="3.19138">
        <ele>16</ele>
        <time>2012-02-19T10:26:11Z</time>
      </trkpt>
      <trkpt lat="50.41354" lon="3.19126">
        <ele>16</ele>
        <time>2012-02-19T10:26:13Z</time>
      </trkpt>
      <trkpt lat="50.41359" lon="3.19107">
        <ele>16</ele>
        <time>2012-02-19T10:26:16Z</time>
      </trkpt>
      <trkpt lat="50.41363" lon="3.19088">
        <ele>16</ele>
        <time>2012-02-19T10:26:19Z</time>
      </trkpt>
      <trkpt lat="50.41367" lon="3.19068">
        <ele>16</ele>
        <time>2012-02-19T10:26:22Z</time>
      </trkpt>
      <trkpt lat="50.41371" lon="3.19055">
        <ele>16</ele>
        <time>2012-02-19T10:26:24Z</time>
      </trkpt>
      <trkpt lat="50.41374" lon="3.19041">
        <ele>16</ele>
        <time>2012-02-19T10:26:26Z</time>
      </trkpt>
      <trkpt lat="50.41381" lon="3.19026">
        <ele>16</ele>
        <time>2012-02-19T10:26:29Z</time>
      </trkpt>
      <trkpt lat="50.41393" lon="3.1903">
        <ele>16</ele>
        <time>2012-02-19T10:26:32Z</time>
      </trkpt>
      <trkpt lat="50.41401" lon="3.19036">
        <ele>16</ele>
        <time>2012-02-19T10:26:34Z</time>
      </trkpt>
      <trkpt lat="50.41413" lon="3.19043">
        <ele>16</ele>
        <time>2012-02-19T10:26:37Z</time>
      </trkpt>
      <trkpt lat="50.41426" lon="3.19046">
        <ele>16</ele>
        <time>2012-02-19T10:26:40Z</time>
      </trkpt>
      <trkpt lat="50.41439" lon="3.19044">
        <ele>16</ele>
        <time>2012-02-19T10:26:43Z</time>
      </trkpt>
      <trkpt lat="50.41451" lon="3.19039">
        <ele>16</ele>
        <time>2012-02-19T10:26:46Z</time>
      </trkpt>
      <trkpt lat="50.4146" lon="3.19032">
        <ele>16</ele>
        <time>2012-02-19T10:26:48Z</time>
      </trkpt>
      <trkpt lat="50.41467" lon="3.19022">
        <ele>16</ele>
        <time>2012-02-19T10:26:50Z</time>
      </trkpt>
      <trkpt lat="50.41474" lon="3.19012">
        <ele>16</ele>
        <time>2012-02-19T10:26:52Z</time>
      </trkpt>
      <trkpt lat="50.4148" lon="3.19001">
        <ele>16</ele>
        <time>2012-02-19T10:26:54Z</time>
      </trkpt>
      <trkpt lat="50.41486" lon="3.18989">
        <ele>16</ele>
        <time>2012-02-19T10:26:56Z</time>
      </trkpt>
      <trkpt lat="50.41492" lon="3.18977">
        <ele>16</ele>
        <time>2012-02-19T10:26:58Z</time>
      </trkpt>
      <trkpt lat="50.41498" lon="3.18966">
        <ele>16</ele>
        <time>2012-02-19T10:27:00Z</time>
      </trkpt>
      <trkpt lat="50.41503" lon="3.18954">
        <ele>16</ele>
        <time>2012-02-19T10:27:02Z</time>
      </trkpt>
      <trkpt lat="50.41509" lon="3.18942">
        <ele>16</ele>
        <time>2012-02-19T10:27:04Z</time>
      </trkpt>
      <trkpt lat="50.41515" lon="3.18931">
        <ele>16</ele>
        <time>2012-02-19T10:27:06Z</time>
      </trkpt>
      <trkpt lat="50.41521" lon="3.18918">
        <ele>16</ele>
        <time>2012-02-19T10:27:08Z</time>
      </trkpt>
      <trkpt lat="50.41527" lon="3.18906">
        <ele>16</ele>
        <time>2012-02-19T10:27:10Z</time>
      </trkpt>
      <trkpt lat="50.41534" lon="3.18894">
        <ele>16</ele>
        <time>2012-02-19T10:27:12Z</time>
      </trkpt>
      <trkpt lat="50.41541" lon="3.18881">
        <ele>16</ele>
        <time>2012-02-19T10:27:14Z</time>
      </trkpt>
      <trkpt lat="50.41546" lon="3.18868">
        <ele>16</ele>
        <time>2012-02-19T10:27:16Z</time>
      </trkpt>
      <trkpt lat="50.41553" lon="3.18855">
        <ele>16</ele>
        <time>2012-02-19T10:27:18Z</time>
      </trkpt>
      <trkpt lat="50.41558" lon="3.18842">
        <ele>16</ele>
        <time>2012-02-19T10:27:20Z</time>
      </trkpt>
      <trkpt lat="50.41565" lon="3.18828">
        <ele>16</ele>
        <time>2012-02-19T10:27:22Z</time>
      </trkpt>
      <trkpt lat="50.41571" lon="3.18814">
        <ele>16</ele>
        <time>2012-02-19T10:27:24Z</time>
      </trkpt>
      <trkpt lat="50.41577" lon="3.188">
        <ele>16</ele>
        <time>2012-02-19T10:27:26Z</time>
      </trkpt>
      <trkpt lat="50.41583" lon="3.18786">
        <ele>16</ele>
        <time>2012-02-19T10:27:28Z</time>
      </trkpt>
      <trkpt lat="50.41589" lon="3.18773">
        <ele>16</ele>
        <time>2012-02-19T10:27:30Z</time>
      </trkpt>
      <trkpt lat="50.41596" lon="3.18758">
        <ele>16</ele>
        <time>2012-02-19T10:27:32Z</time>
      </trkpt>
      <trkpt lat="50.41602" lon="3.18744">
        <ele>16</ele>
        <time>2012-02-19T10:27:34Z</time>
      </trkpt>
      <trkpt lat="50.41608" lon="3.1873">
        <ele>16</ele>
        <time>2012-02-19T10:27:36Z</time>
      </trkpt>
      <trkpt lat="50.41614" lon="3.18717">
        <ele>16</ele>
        <time>2012-02-19T10:27:38Z</time>
      </trkpt>
      <trkpt lat="50.41619" lon="3.18703">
        <ele>16</ele>
        <time>2012-02-19T10:27:40Z</time>
      </trkpt>
      <trkpt lat="50.41625" lon="3.18691">
        <ele>16</ele>
        <time>2012-02-19T10:27:42Z</time>
      </trkpt>
      <trkpt lat="50.4163" lon="3.18678">
        <ele>16</ele>
        <time>2012-02-19T10:27:44Z</time>
      </trkpt>
      <trkpt lat="50.41636" lon="3.18665">
        <ele>16</ele>
        <time>2012-02-19T10:27:46Z</time>
      </trkpt>
      <trkpt lat="50.41641" lon="3.18652">
        <ele>16</ele>
        <time>2012-02-19T10:27:48Z</time>
      </trkpt>
      <trkpt lat="50.41646" lon="3.18638">
        <ele>16</ele>
        <time>2012-02-19T10:27:50Z</time>
      </trkpt>
      <trkpt lat="50.41649" lon="3.18623">
        <ele>16</ele>
        <time>2012-02-19T10:27:52Z</time>
      </trkpt>
      <trkpt lat="50.41651" lon="3.18607">
        <ele>16</ele>
        <time>2012-02-19T10:27:54Z</time>
      </trkpt>
      <trkpt lat="50.41653" lon="3.18591">
        <ele>16</ele>
        <time>2012-02-19T10:27:56Z</time>
      </trkpt>
      <trkpt lat="50.41653" lon="3.18576">
        <ele>16</ele>
        <time>2012-02-19T10:27:58Z</time>
      </trkpt>
      <trkpt lat="50.41653" lon="3.1856">
        <ele>16</ele>
        <time>2012-02-19T10:28:00Z</time>
      </trkpt>
      <trkpt lat="50.41654" lon="3.18544">
        <ele>16</ele>
        <time>2012-02-19T10:28:02Z</time>
      </trkpt>
      <trkpt lat="50.41655" lon="3.18528">
        <ele>16</ele>
        <time>2012-02-19T10:28:04Z</time>
      </trkpt>
      <trkpt lat="50.41658" lon="3.18512">
        <ele>16</ele>
        <time>2012-02-19T10:28:06Z</time>
      </trkpt>
      <trkpt lat="50.41662" lon="3.18497">
        <ele>16</ele>
        <time>2012-02-19T10:28:08Z</time>
      </trkpt>
      <trkpt lat="50.41668" lon="3.18483">
        <ele>16</ele>
        <time>2012-02-19T10:28:10Z</time>
      </trkpt>
      <trkpt lat="50.41676" lon="3.18472">
        <ele>16</ele>
        <time>2012-02-19T10:28:12Z</time>
      </trkpt>
      <trkpt lat="50.41685" lon="3.18463">
        <ele>16</ele>
        <time>2012-02-19T10:28:14Z</time>
      </trkpt>
      <trkpt lat="50.41695" lon="3.18456">
        <ele>16</ele>
        <time>2012-02-19T10:28:16Z</time>
      </trkpt>
      <trkpt lat="50.41705" lon="3.18452">
        <ele>16</ele>
        <time>2012-02-19T10:28:18Z</time>
      </trkpt>
      <trkpt lat="50.41715" lon="3.1845">
        <ele>16</ele>
        <time>2012-02-19T10:28:20Z</time>
      </trkpt>
      <trkpt lat="50.41726" lon="3.18448">
        <ele>16</ele>
        <time>2012-02-19T10:28:22Z</time>
      </trkpt>
      <trkpt lat="50.41737" lon="3.18448">
        <ele>16</ele>
        <time>2012-02-19T10:28:24Z</time>
      </trkpt>
      <trkpt lat="50.41747" lon="3.18447">
        <ele>16</ele>
        <time>2012-02-19T10:28:26Z</time>
      </trkpt>
      <trkpt lat="50.41758" lon="3.18445">
        <ele>16</ele>
        <time>2012-02-19T10:28:28Z</time>
      </trkpt>
      <trkpt lat="50.41767" lon="3.18443">
        <ele>16</ele>
        <time>2012-02-19T10:28:30Z</time>
      </trkpt>
      <trkpt lat="50.41778" lon="3.18439">
        <ele>16</ele>
        <time>2012-02-19T10:28:32Z</time>
      </trkpt>
      <trkpt lat="50.41788" lon="3.18437">
        <ele>16</ele>
        <time>2012-02-19T10:28:34Z</time>
      </trkpt>
      <trkpt lat="50.41799" lon="3.18435">
        <ele>16</ele>
        <time>2012-02-19T10:28:36Z</time>
      </trkpt>
      <trkpt lat="50.4181" lon="3.18435">
        <ele>16</ele>
        <time>2012-02-19T10:28:38Z</time>
      </trkpt>
      <trkpt lat="50.4182" lon="3.18438">
        <ele>16</ele>
        <time>2012-02-19T10:28:40Z</time>
      </trkpt>
      <trkpt lat="50.41831" lon="3.18439">
        <ele>16</ele>
        <time>2012-02-19T10:28:42Z</time>
      </trkpt>
      <trkpt lat="50.4184" lon="3.18443">
        <ele>22</ele>
        <time>2012-02-19T10:28:44Z</time>
      </trkpt>
      <trkpt lat="50.41851" lon="3.18446">
        <ele>22</ele>
        <time>2012-02-19T10:28:46Z</time>
      </trkpt>
      <trkpt lat="50.4186" lon="3.1845">
        <ele>22</ele>
        <time>2012-02-19T10:28:48Z</time>
      </trkpt>
      <trkpt lat="50.4187" lon="3.18457">
        <ele>22</ele>
        <time>2012-02-19T10:28:50Z</time>
      </trkpt>
      <trkpt lat="50.41878" lon="3.18465">
        <ele>22</ele>
        <time>2012-02-19T10:28:52Z</time>
      </trkpt>
      <trkpt lat="50.41887" lon="3.18473">
        <ele>22</ele>
        <time>2012-02-19T10:28:54Z</time>
      </trkpt>
      <trkpt lat="50.41896" lon="3.18482">
        <ele>22</ele>
        <time>2012-02-19T10:28:56Z</time>
      </trkpt>
      <trkpt lat="50.41905" lon="3.1849">
        <ele>22</ele>
        <time>2012-02-19T10:28:58Z</time>
      </trkpt>
      <trkpt lat="50.41914" lon="3.18499">
        <ele>22</ele>
        <time>2012-02-19T10:29:00Z</time>
      </trkpt>
      <trkpt lat="50.41922" lon="3.18507">
        <ele>22</ele>
        <time>2012-02-19T10:29:02Z</time>
      </trkpt>
      <trkpt lat="50.41931" lon="3.18515">
        <ele>22</ele>
        <time>2012-02-19T10:29:04Z</time>
      </trkpt>
      <trkpt lat="50.4194" lon="3.18525">
        <ele>22</ele>
        <time>2012-02-19T10:29:06Z</time>
      </trkpt>
      <trkpt lat="50.41948" lon="3.18535">
        <ele>22</ele>
        <time>2012-02-19T10:29:08Z</time>
      </trkpt>
      <trkpt lat="50.41955" lon="3.18547">
        <ele>22</ele>
        <time>2012-02-19T10:29:10Z</time>
      </trkpt>
      <trkpt lat="50.41962" lon="3.1856">
        <ele>22</ele>
        <time>2012-02-19T10:29:12Z</time>
      </trkpt>
      <trkpt lat="50.41969" lon="3.18572">
        <ele>22</ele>
        <time>2012-02-19T10:29:14Z</time>
      </trkpt>
      <trkpt lat="50.41977" lon="3.18586">
        <ele>22</ele>
        <time>2012-02-19T10:29:16Z</time>
      </trkpt>
      <trkpt lat="50.41984" lon="3.186">
        <ele>22</ele>
        <time>2012-02-19T10:29:18Z</time>
      </trkpt>
      <trkpt lat="50.41991" lon="3.18615">
        <ele>22</ele>
        <time>2012-02-19T10:29:20Z</time>
      </trkpt>
      <trkpt lat="50.41997" lon="3.18629">
        <ele>22</ele>
        <time>2012-02-19T10:29:22Z</time>
      </trkpt>
      <trkpt lat="50.42002" lon="3.18642">
        <ele>22</ele>
        <time>2012-02-19T10:29:24Z</time>
      </trkpt>
      <trkpt lat="50.42008" lon="3.18656">
        <ele>22</ele>
        <time>2012-02-19T10:29:27Z</time>
      </trkpt>
      <trkpt lat="50.42018" lon="3.18648">
        <ele>22</ele>
        <time>2012-02-19T10:29:30Z</time>
      </trkpt>
      <trkpt lat="50.42023" lon="3.18637">
        <ele>22</ele>
        <time>2012-02-19T10:29:32Z</time>
      </trkpt>
      <trkpt lat="50.4203" lon="3.18627">
        <ele>22</ele>
        <time>2012-02-19T10:29:34Z</time>
      </trkpt>
      <trkpt lat="50.42036" lon="3.18617">
        <ele>22</ele>
        <time>2012-02-19T10:29:36Z</time>
      </trkpt>
      <trkpt lat="50.42042" lon="3.18606">
        <ele>22</ele>
        <time>2012-02-19T10:29:38Z</time>
      </trkpt>
      <trkpt lat="50.42045" lon="3.18592">
        <ele>22</ele>
        <time>2012-02-19T10:29:40Z</time>
      </trkpt>
      <trkpt lat="50.42047" lon="3.18577">
        <ele>22</ele>
        <time>2012-02-19T10:29:42Z</time>
      </trkpt>
      <trkpt lat="50.42049" lon="3.18562">
        <ele>22</ele>
        <time>2012-02-19T10:29:44Z</time>
      </trkpt>
      <trkpt lat="50.42052" lon="3.18547">
        <ele>22</ele>
        <time>2012-02-19T10:29:46Z</time>
      </trkpt>
      <trkpt lat="50.42054" lon="3.18533">
        <ele>22</ele>
        <time>2012-02-19T10:29:48Z</time>
      </trkpt>
      <trkpt lat="50.4206" lon="3.18515">
        <ele>22</ele>
        <time>2012-02-19T10:29:51Z</time>
      </trkpt>
      <trkpt lat="50.42066" lon="3.18497">
        <ele>22</ele>
        <time>2012-02-19T10:29:54Z</time>
      </trkpt>
      <trkpt lat="50.42071" lon="3.18477">
        <ele>22</ele>
        <time>2012-02-19T10:29:57Z</time>
      </trkpt>
      <trkpt lat="50.42074" lon="3.18464">
        <ele>22</ele>
        <time>2012-02-19T10:29:59Z</time>
      </trkpt>
      <trkpt lat="50.42077" lon="3.18448">
        <ele>22</ele>
        <time>2012-02-19T10:30:01Z</time>
      </trkpt>
      <trkpt lat="50.4208" lon="3.18434">
        <ele>22</ele>
        <time>2012-02-19T10:30:03Z</time>
      </trkpt>
      <trkpt lat="50.42083" lon="3.18419">
        <ele>22</ele>
        <time>2012-02-19T10:30:05Z</time>
      </trkpt>
      <trkpt lat="50.42085" lon="3.18404">
        <ele>22</ele>
        <time>2012-02-19T10:30:07Z</time>
      </trkpt>
      <trkpt lat="50.42087" lon="3.18389">
        <ele>22</ele>
        <time>2012-02-19T10:30:09Z</time>
      </trkpt>
      <trkpt lat="50.42089" lon="3.18375">
        <ele>22</ele>
        <time>2012-02-19T10:30:11Z</time>
      </trkpt>
      <trkpt lat="50.42092" lon="3.1836">
        <ele>22</ele>
        <time>2012-02-19T10:30:13Z</time>
      </trkpt>
      <trkpt lat="50.42098" lon="3.18349">
        <ele>22</ele>
        <time>2012-02-19T10:30:15Z</time>
      </trkpt>
      <trkpt lat="50.42107" lon="3.18343">
        <ele>22</ele>
        <time>2012-02-19T10:30:17Z</time>
      </trkpt>
      <trkpt lat="50.42119" lon="3.18335">
        <ele>22</ele>
        <time>2012-02-19T10:30:20Z</time>
      </trkpt>
      <trkpt lat="50.4213" lon="3.18326">
        <ele>22</ele>
        <time>2012-02-19T10:30:23Z</time>
      </trkpt>
      <trkpt lat="50.4214" lon="3.18316">
        <ele>22</ele>
        <time>2012-02-19T10:30:26Z</time>
      </trkpt>
      <trkpt lat="50.4215" lon="3.18304">
        <ele>22</ele>
        <time>2012-02-19T10:30:29Z</time>
      </trkpt>
      <trkpt lat="50.42155" lon="3.18293">
        <ele>22</ele>
        <time>2012-02-19T10:30:31Z</time>
      </trkpt>
      <trkpt lat="50.42164" lon="3.18278">
        <ele>22</ele>
        <time>2012-02-19T10:30:34Z</time>
      </trkpt>
      <trkpt lat="50.4217" lon="3.18261">
        <ele>22</ele>
        <time>2012-02-19T10:30:37Z</time>
      </trkpt>
      <trkpt lat="50.42176" lon="3.18243">
        <ele>22</ele>
        <time>2012-02-19T10:30:40Z</time>
      </trkpt>
      <trkpt lat="50.42181" lon="3.18225">
        <ele>22</ele>
        <time>2012-02-19T10:30:43Z</time>
      </trkpt>
      <trkpt lat="50.42186" lon="3.18207">
        <ele>22</ele>
        <time>2012-02-19T10:30:46Z</time>
      </trkpt>
      <trkpt lat="50.42191" lon="3.18189">
        <ele>22</ele>
        <time>2012-02-19T10:30:49Z</time>
      </trkpt>
      <trkpt lat="50.42196" lon="3.18172">
        <ele>22</ele>
        <time>2012-02-19T10:30:52Z</time>
      </trkpt>
      <trkpt lat="50.422" lon="3.18154">
        <ele>22</ele>
        <time>2012-02-19T10:30:55Z</time>
      </trkpt>
      <trkpt lat="50.42205" lon="3.18136">
        <ele>22</ele>
        <time>2012-02-19T10:30:58Z</time>
      </trkpt>
      <trkpt lat="50.4221" lon="3.18117">
        <ele>22</ele>
        <time>2012-02-19T10:31:01Z</time>
      </trkpt>
      <trkpt lat="50.42215" lon="3.181">
        <ele>22</ele>
        <time>2012-02-19T10:31:04Z</time>
      </trkpt>
      <trkpt lat="50.42222" lon="3.18086">
        <ele>22</ele>
        <time>2012-02-19T10:31:08Z</time>
      </trkpt>
      <trkpt lat="50.4223" lon="3.18075">
        <ele>22</ele>
        <time>2012-02-19T10:31:11Z</time>
      </trkpt>
      <trkpt lat="50.42237" lon="3.1806">
        <ele>22</ele>
        <time>2012-02-19T10:31:14Z</time>
      </trkpt>
      <trkpt lat="50.42247" lon="3.18052">
        <ele>22</ele>
        <time>2012-02-19T10:31:17Z</time>
      </trkpt>
      <trkpt lat="50.42259" lon="3.18048">
        <ele>22</ele>
        <time>2012-02-19T10:31:20Z</time>
      </trkpt>
      <trkpt lat="50.4227" lon="3.18043">
        <ele>22</ele>
        <time>2012-02-19T10:31:23Z</time>
      </trkpt>
      <trkpt lat="50.42281" lon="3.18039">
        <ele>22</ele>
        <time>2012-02-19T10:31:26Z</time>
      </trkpt>
      <trkpt lat="50.42294" lon="3.18034">
        <ele>22</ele>
        <time>2012-02-19T10:31:29Z</time>
      </trkpt>
      <trkpt lat="50.42302" lon="3.18031">
        <ele>22</ele>
        <time>2012-02-19T10:31:31Z</time>
      </trkpt>
      <trkpt lat="50.42311" lon="3.18027">
        <ele>22</ele>
        <time>2012-02-19T10:31:33Z</time>
      </trkpt>
      <trkpt lat="50.4232" lon="3.18023">
        <ele>22</ele>
        <time>2012-02-19T10:31:35Z</time>
      </trkpt>
      <trkpt lat="50.42329" lon="3.1802">
        <ele>22</ele>
        <time>2012-02-19T10:31:37Z</time>
      </trkpt>
      <trkpt lat="50.42337" lon="3.18015">
        <ele>22</ele>
        <time>2012-02-19T10:31:39Z</time>
      </trkpt>
      <trkpt lat="50.42347" lon="3.18011">
        <ele>22</ele>
        <time>2012-02-19T10:31:41Z</time>
      </trkpt>
      <trkpt lat="50.42356" lon="3.18005">
        <ele>22</ele>
        <time>2012-02-19T10:31:43Z</time>
      </trkpt>
      <trkpt lat="50.42364" lon="3.17999">
        <ele>22</ele>
        <time>2012-02-19T10:31:45Z</time>
      </trkpt>
      <trkpt lat="50.42374" lon="3.17995">
        <ele>22</ele>
        <time>2012-02-19T10:31:47Z</time>
      </trkpt>
      <trkpt lat="50.42383" lon="3.17991">
        <ele>22</ele>
        <time>2012-02-19T10:31:49Z</time>
      </trkpt>
      <trkpt lat="50.42392" lon="3.17987">
        <ele>22</ele>
        <time>2012-02-19T10:31:51Z</time>
      </trkpt>
      <trkpt lat="50.42405" lon="3.17983">
        <ele>22</ele>
        <time>2012-02-19T10:31:54Z</time>
      </trkpt>
      <trkpt lat="50.42414" lon="3.17979">
        <ele>22</ele>
        <time>2012-02-19T10:31:56Z</time>
      </trkpt>
      <trkpt lat="50.42425" lon="3.17977">
        <ele>22</ele>
        <time>2012-02-19T10:31:59Z</time>
      </trkpt>
      <trkpt lat="50.42435" lon="3.17984">
        <ele>22</ele>
        <time>2012-02-19T10:32:02Z</time>
      </trkpt>
      <trkpt lat="50.42443" lon="3.17997">
        <ele>22</ele>
        <time>2012-02-19T10:32:05Z</time>
      </trkpt>
      <trkpt lat="50.42451" lon="3.18011">
        <ele>22</ele>
        <time>2012-02-19T10:32:08Z</time>
      </trkpt>
      <trkpt lat="50.4246" lon="3.18025">
        <ele>22</ele>
        <time>2012-02-19T10:32:11Z</time>
      </trkpt>
      <trkpt lat="50.42469" lon="3.18038">
        <ele>22</ele>
        <time>2012-02-19T10:32:14Z</time>
      </trkpt>
      <trkpt lat="50.42477" lon="3.1805">
        <ele>22</ele>
        <time>2012-02-19T10:32:17Z</time>
      </trkpt>
      <trkpt lat="50.42483" lon="3.18061">
        <ele>22</ele>
        <time>2012-02-19T10:32:19Z</time>
      </trkpt>
      <trkpt lat="50.42492" lon="3.18075">
        <ele>22</ele>
        <time>2012-02-19T10:32:22Z</time>
      </trkpt>
      <trkpt lat="50.42499" lon="3.18085">
        <ele>22</ele>
        <time>2012-02-19T10:32:24Z</time>
      </trkpt>
      <trkpt lat="50.42507" lon="3.181">
        <ele>22</ele>
        <time>2012-02-19T10:32:27Z</time>
      </trkpt>
      <trkpt lat="50.42514" lon="3.1811">
        <ele>22</ele>
        <time>2012-02-19T10:32:29Z</time>
      </trkpt>
      <trkpt lat="50.42524" lon="3.18123">
        <ele>22</ele>
        <time>2012-02-19T10:32:32Z</time>
      </trkpt>
      <trkpt lat="50.42533" lon="3.18138">
        <ele>22</ele>
        <time>2012-02-19T10:32:35Z</time>
      </trkpt>
      <trkpt lat="50.42543" lon="3.18148">
        <ele>22</ele>
        <time>2012-02-19T10:32:38Z</time>
      </trkpt>
      <trkpt lat="50.42551" lon="3.18164">
        <ele>22</ele>
        <time>2012-02-19T10:32:42Z</time>
      </trkpt>
      <trkpt lat="50.42557" lon="3.18178">
        <ele>22</ele>
        <time>2012-02-19T10:32:45Z</time>
      </trkpt>
      <trkpt lat="50.42567" lon="3.18189">
        <ele>22</ele>
        <time>2012-02-19T10:32:48Z</time>
      </trkpt>
      <trkpt lat="50.42576" lon="3.182">
        <ele>22</ele>
        <time>2012-02-19T10:32:51Z</time>
      </trkpt>
      <trkpt lat="50.42584" lon="3.18214">
        <ele>22</ele>
        <time>2012-02-19T10:32:54Z</time>
      </trkpt>
      <trkpt lat="50.4259" lon="3.18226">
        <ele>22</ele>
        <time>2012-02-19T10:32:57Z</time>
      </trkpt>
      <trkpt lat="50.42597" lon="3.18237">
        <ele>22</ele>
        <time>2012-02-19T10:33:00Z</time>
      </trkpt>
      <trkpt lat="50.42604" lon="3.18249">
        <ele>22</ele>
        <time>2012-02-19T10:33:04Z</time>
      </trkpt>
      <trkpt lat="50.42608" lon="3.18261">
        <ele>22</ele>
        <time>2012-02-19T10:33:10Z</time>
      </trkpt>
      <trkpt lat="50.42599" lon="3.18263">
        <ele>22</ele>
        <time>2012-02-19T10:33:16Z</time>
      </trkpt>
      <trkpt lat="50.42601" lon="3.18279">
        <ele>22</ele>
        <time>2012-02-19T10:33:22Z</time>
      </trkpt>
      <trkpt lat="50.42607" lon="3.18289">
        <ele>22</ele>
        <time>2012-02-19T10:33:25Z</time>
      </trkpt>
      <trkpt lat="50.42615" lon="3.183">
        <ele>22</ele>
        <time>2012-02-19T10:33:28Z</time>
      </trkpt>
      <trkpt lat="50.42621" lon="3.18314">
        <ele>22</ele>
        <time>2012-02-19T10:33:31Z</time>
      </trkpt>
      <trkpt lat="50.42628" lon="3.18326">
        <ele>22</ele>
        <time>2012-02-19T10:33:34Z</time>
      </trkpt>
      <trkpt lat="50.42635" lon="3.1834">
        <ele>22</ele>
        <time>2012-02-19T10:33:37Z</time>
      </trkpt>
      <trkpt lat="50.42643" lon="3.18352">
        <ele>22</ele>
        <time>2012-02-19T10:33:40Z</time>
      </trkpt>
      <trkpt lat="50.4265" lon="3.18364">
        <ele>22</ele>
        <time>2012-02-19T10:33:43Z</time>
      </trkpt>
      <trkpt lat="50.42658" lon="3.18371">
        <ele>22</ele>
        <time>2012-02-19T10:33:46Z</time>
      </trkpt>
      <trkpt lat="50.42668" lon="3.18377">
        <ele>22</ele>
        <time>2012-02-19T10:33:50Z</time>
      </trkpt>
      <trkpt lat="50.42676" lon="3.18386">
        <ele>22</ele>
        <time>2012-02-19T10:33:53Z</time>
      </trkpt>
      <trkpt lat="50.42683" lon="3.18396">
        <ele>22</ele>
        <time>2012-02-19T10:33:56Z</time>
      </trkpt>
      <trkpt lat="50.42692" lon="3.18404">
        <ele>22</ele>
        <time>2012-02-19T10:34:00Z</time>
      </trkpt>
      <trkpt lat="50.42702" lon="3.18397">
        <ele>22</ele>
        <time>2012-02-19T10:34:04Z</time>
      </trkpt>
      <trkpt lat="50.42709" lon="3.18385">
        <ele>22</ele>
        <time>2012-02-19T10:34:09Z</time>
      </trkpt>
      <trkpt lat="50.42715" lon="3.18374">
        <ele>22</ele>
        <time>2012-02-19T10:34:14Z</time>
      </trkpt>
      <trkpt lat="50.42724" lon="3.18376">
        <ele>22</ele>
        <time>2012-02-19T10:34:34Z</time>
      </trkpt>
      <trkpt lat="50.42732" lon="3.18382">
        <ele>22</ele>
        <time>2012-02-19T10:34:58Z</time>
      </trkpt>
      <trkpt lat="50.42741" lon="3.18378">
        <ele>22</ele>
        <time>2012-02-19T10:35:09Z</time>
      </trkpt>
      <trkpt lat="50.42741" lon="3.18364">
        <ele>27</ele>
        <time>2012-02-19T10:35:17Z</time>
      </trkpt>
      <trkpt lat="50.4273" lon="3.1836">
        <ele>17</ele>
        <time>2012-02-19T10:35:36Z</time>
      </trkpt>
      <trkpt lat="50.42726" lon="3.18348">
        <ele>17</ele>
        <time>2012-02-19T10:36:14Z</time>
      </trkpt>
      <trkpt lat="50.42734" lon="3.18354">
        <ele>7</ele>
        <time>2012-02-19T10:37:03Z</time>
      </trkpt>
      <trkpt lat="50.42734" lon="3.18369">
        <ele>7</ele>
        <time>2012-02-19T10:37:13Z</time>
      </trkpt>
      <trkpt lat="50.42733" lon="3.18384">
        <ele>7</ele>
        <time>2012-02-19T10:37:28Z</time>
      </trkpt>
      <trkpt lat="50.42728" lon="3.18396">
        <ele>-5</ele>
        <time>2012-02-19T10:37:50Z</time>
      </trkpt>
      <trkpt lat="50.42734" lon="3.18405">
        <ele>29</ele>
        <time>2012-02-19T10:38:45Z</time>
      </trkpt>
      <trkpt lat="50.42734" lon="3.18391">
        <ele>50</ele>
        <time>2012-02-19T10:39:12Z</time>
      </trkpt>
      <trkpt lat="50.4274" lon="3.18403">
        <ele>9</ele>
        <time>2012-02-19T10:39:36Z</time>
      </trkpt>
    </trkseg>
  </trk>
</gpx>